<?xml version="1.0" encoding="UTF-8" standalone="no" ?>
<gpx xmlns="http://www.topografix.com/GPX/1/1" xmlns:xsi="http://www.w3.org/2001/XMLSchema-instance" xsi:schemaLocation="http://www.topografix.com/GPX/1/1 http://www.topografix.com/GPX/1/1/gpx.xsd" version="1.1" creator="VisuGPX - https://www.visugpx.com">
  <metadata>
    <name>Gorges de l'Ardèche</name>
    <desc><![CDATA[Balade dans les gorges de l' Ardèche]]></desc>
  </metadata>
  <trk>
    <name><![CDATA[20180709190112-vnCSE]]></name>
    <trkseg>
      <trkpt lat="44.28594" lon="4.71052">
        <ele>45</ele>
        <time>2015-05-04T11:09:22Z</time>
      </trkpt>
      <trkpt lat="44.2858" lon="4.71031">
        <ele>45</ele>
        <time>2015-05-04T11:09:19Z</time>
      </trkpt>
      <trkpt lat="44.28567" lon="4.71009">
        <ele>45</ele>
        <time>2015-05-04T11:09:16Z</time>
      </trkpt>
      <trkpt lat="44.28562" lon="4.70991">
        <ele>46</ele>
        <time>2015-05-04T11:09:14Z</time>
      </trkpt>
      <trkpt lat="44.28558" lon="4.70973">
        <ele>46</ele>
        <time>2015-05-04T11:09:12Z</time>
      </trkpt>
      <trkpt lat="44.28552" lon="4.70947">
        <ele>46</ele>
        <time>2015-05-04T11:09:09Z</time>
      </trkpt>
      <trkpt lat="44.28546" lon="4.70929">
        <ele>46</ele>
        <time>2015-05-04T11:09:07Z</time>
      </trkpt>
      <trkpt lat="44.28537" lon="4.70903">
        <ele>45</ele>
        <time>2015-05-04T11:09:04Z</time>
      </trkpt>
      <trkpt lat="44.28531" lon="4.70887">
        <ele>45</ele>
        <time>2015-05-04T11:09:02Z</time>
      </trkpt>
      <trkpt lat="44.28523" lon="4.70871">
        <ele>45</ele>
        <time>2015-05-04T11:09:00Z</time>
      </trkpt>
      <trkpt lat="44.28512" lon="4.70846">
        <ele>46</ele>
        <time>2015-05-04T11:08:57Z</time>
      </trkpt>
      <trkpt lat="44.285" lon="4.70821">
        <ele>46</ele>
        <time>2015-05-04T11:08:54Z</time>
      </trkpt>
      <trkpt lat="44.28488" lon="4.70797">
        <ele>45</ele>
        <time>2015-05-04T11:08:51Z</time>
      </trkpt>
      <trkpt lat="44.28477" lon="4.70772">
        <ele>45</ele>
        <time>2015-05-04T11:08:48Z</time>
      </trkpt>
      <trkpt lat="44.28467" lon="4.70746">
        <ele>45</ele>
        <time>2015-05-04T11:08:45Z</time>
      </trkpt>
      <trkpt lat="44.28459" lon="4.7072">
        <ele>45</ele>
        <time>2015-05-04T11:08:42Z</time>
      </trkpt>
      <trkpt lat="44.28453" lon="4.70703">
        <ele>45</ele>
        <time>2015-05-04T11:08:40Z</time>
      </trkpt>
      <trkpt lat="44.28446" lon="4.70678">
        <ele>45</ele>
        <time>2015-05-04T11:08:37Z</time>
      </trkpt>
      <trkpt lat="44.28441" lon="4.70661">
        <ele>45</ele>
        <time>2015-05-04T11:08:35Z</time>
      </trkpt>
      <trkpt lat="44.28436" lon="4.70644">
        <ele>45</ele>
        <time>2015-05-04T11:08:33Z</time>
      </trkpt>
      <trkpt lat="44.2843" lon="4.70618">
        <ele>44</ele>
        <time>2015-05-04T11:08:30Z</time>
      </trkpt>
      <trkpt lat="44.28425" lon="4.70591">
        <ele>44</ele>
        <time>2015-05-04T11:08:27Z</time>
      </trkpt>
      <trkpt lat="44.28419" lon="4.70566">
        <ele>44</ele>
        <time>2015-05-04T11:08:24Z</time>
      </trkpt>
      <trkpt lat="44.28413" lon="4.7054">
        <ele>43</ele>
        <time>2015-05-04T11:08:21Z</time>
      </trkpt>
      <trkpt lat="44.28407" lon="4.70515">
        <ele>43</ele>
        <time>2015-05-04T11:08:18Z</time>
      </trkpt>
      <trkpt lat="44.28401" lon="4.70491">
        <ele>44</ele>
        <time>2015-05-04T11:08:15Z</time>
      </trkpt>
      <trkpt lat="44.28395" lon="4.70466">
        <ele>44</ele>
        <time>2015-05-04T11:08:12Z</time>
      </trkpt>
      <trkpt lat="44.28388" lon="4.70442">
        <ele>44</ele>
        <time>2015-05-04T11:08:09Z</time>
      </trkpt>
      <trkpt lat="44.28379" lon="4.70417">
        <ele>45</ele>
        <time>2015-05-04T11:08:06Z</time>
      </trkpt>
      <trkpt lat="44.28369" lon="4.70384">
        <ele>45</ele>
        <time>2015-05-04T11:08:03Z</time>
      </trkpt>
      <trkpt lat="44.28357" lon="4.70347">
        <ele>45</ele>
        <time>2015-05-04T11:08:00Z</time>
      </trkpt>
      <trkpt lat="44.2835" lon="4.70324">
        <ele>45</ele>
        <time>2015-05-04T11:07:58Z</time>
      </trkpt>
      <trkpt lat="44.2834" lon="4.70297">
        <ele>45</ele>
        <time>2015-05-04T11:07:55Z</time>
      </trkpt>
      <trkpt lat="44.28334" lon="4.70272">
        <ele>44</ele>
        <time>2015-05-04T11:07:52Z</time>
      </trkpt>
      <trkpt lat="44.2833" lon="4.70246">
        <ele>44</ele>
        <time>2015-05-04T11:07:49Z</time>
      </trkpt>
      <trkpt lat="44.28327" lon="4.70228">
        <ele>43</ele>
        <time>2015-05-04T11:07:47Z</time>
      </trkpt>
      <trkpt lat="44.28325" lon="4.70201">
        <ele>43</ele>
        <time>2015-05-04T11:07:44Z</time>
      </trkpt>
      <trkpt lat="44.28324" lon="4.70183">
        <ele>43</ele>
        <time>2015-05-04T11:07:42Z</time>
      </trkpt>
      <trkpt lat="44.28322" lon="4.70156">
        <ele>44</ele>
        <time>2015-05-04T11:07:39Z</time>
      </trkpt>
      <trkpt lat="44.2832" lon="4.7013">
        <ele>44</ele>
        <time>2015-05-04T11:07:36Z</time>
      </trkpt>
      <trkpt lat="44.28321" lon="4.70112">
        <ele>44</ele>
        <time>2015-05-04T11:07:34Z</time>
      </trkpt>
      <trkpt lat="44.28321" lon="4.70094">
        <ele>44</ele>
        <time>2015-05-04T11:07:32Z</time>
      </trkpt>
      <trkpt lat="44.28322" lon="4.70076">
        <ele>45</ele>
        <time>2015-05-04T11:07:30Z</time>
      </trkpt>
      <trkpt lat="44.28322" lon="4.70049">
        <ele>45</ele>
        <time>2015-05-04T11:07:27Z</time>
      </trkpt>
      <trkpt lat="44.28323" lon="4.70023">
        <ele>45</ele>
        <time>2015-05-04T11:07:24Z</time>
      </trkpt>
      <trkpt lat="44.28324" lon="4.69997">
        <ele>44</ele>
        <time>2015-05-04T11:07:21Z</time>
      </trkpt>
      <trkpt lat="44.28325" lon="4.6998">
        <ele>45</ele>
        <time>2015-05-04T11:07:19Z</time>
      </trkpt>
      <trkpt lat="44.28326" lon="4.69954">
        <ele>45</ele>
        <time>2015-05-04T11:07:16Z</time>
      </trkpt>
      <trkpt lat="44.28327" lon="4.69936">
        <ele>44</ele>
        <time>2015-05-04T11:07:14Z</time>
      </trkpt>
      <trkpt lat="44.28328" lon="4.6991">
        <ele>44</ele>
        <time>2015-05-04T11:07:11Z</time>
      </trkpt>
      <trkpt lat="44.28328" lon="4.69892">
        <ele>44</ele>
        <time>2015-05-04T11:07:09Z</time>
      </trkpt>
      <trkpt lat="44.28329" lon="4.69866">
        <ele>44</ele>
        <time>2015-05-04T11:07:06Z</time>
      </trkpt>
      <trkpt lat="44.28328" lon="4.6984">
        <ele>44</ele>
        <time>2015-05-04T11:07:03Z</time>
      </trkpt>
      <trkpt lat="44.28326" lon="4.69823">
        <ele>44</ele>
        <time>2015-05-04T11:07:01Z</time>
      </trkpt>
      <trkpt lat="44.28323" lon="4.69797">
        <ele>43</ele>
        <time>2015-05-04T11:06:58Z</time>
      </trkpt>
      <trkpt lat="44.2832" lon="4.6977">
        <ele>43</ele>
        <time>2015-05-04T11:06:55Z</time>
      </trkpt>
      <trkpt lat="44.28316" lon="4.69744">
        <ele>42</ele>
        <time>2015-05-04T11:06:52Z</time>
      </trkpt>
      <trkpt lat="44.28312" lon="4.69716">
        <ele>43</ele>
        <time>2015-05-04T11:06:49Z</time>
      </trkpt>
      <trkpt lat="44.2831" lon="4.69697">
        <ele>43</ele>
        <time>2015-05-04T11:06:47Z</time>
      </trkpt>
      <trkpt lat="44.28306" lon="4.69669">
        <ele>43</ele>
        <time>2015-05-04T11:06:44Z</time>
      </trkpt>
      <trkpt lat="44.28301" lon="4.69641">
        <ele>43</ele>
        <time>2015-05-04T11:06:41Z</time>
      </trkpt>
      <trkpt lat="44.28295" lon="4.69616">
        <ele>44</ele>
        <time>2015-05-04T11:06:38Z</time>
      </trkpt>
      <trkpt lat="44.28289" lon="4.69603">
        <ele>44</ele>
        <time>2015-05-04T11:06:36Z</time>
      </trkpt>
      <trkpt lat="44.28285" lon="4.69586">
        <ele>44</ele>
        <time>2015-05-04T11:06:33Z</time>
      </trkpt>
      <trkpt lat="44.28283" lon="4.69578">
        <ele>44</ele>
        <time>2015-05-04T11:06:31Z</time>
      </trkpt>
      <trkpt lat="44.28283" lon="4.69572">
        <ele>44</ele>
        <time>2015-05-04T11:06:29Z</time>
      </trkpt>
      <trkpt lat="44.28282" lon="4.6956">
        <ele>44</ele>
        <time>2015-05-04T11:06:26Z</time>
      </trkpt>
      <trkpt lat="44.28278" lon="4.69551">
        <ele>44</ele>
        <time>2015-05-04T11:06:24Z</time>
      </trkpt>
      <trkpt lat="44.28272" lon="4.69535">
        <ele>44</ele>
        <time>2015-05-04T11:06:21Z</time>
      </trkpt>
      <trkpt lat="44.28263" lon="4.69531">
        <ele>44</ele>
        <time>2015-05-04T11:06:19Z</time>
      </trkpt>
      <trkpt lat="44.28248" lon="4.69538">
        <ele>43</ele>
        <time>2015-05-04T11:06:16Z</time>
      </trkpt>
      <trkpt lat="44.28233" lon="4.69549">
        <ele>43</ele>
        <time>2015-05-04T11:06:13Z</time>
      </trkpt>
      <trkpt lat="44.28217" lon="4.69559">
        <ele>43</ele>
        <time>2015-05-04T11:06:10Z</time>
      </trkpt>
      <trkpt lat="44.28206" lon="4.69566">
        <ele>43</ele>
        <time>2015-05-04T11:06:08Z</time>
      </trkpt>
      <trkpt lat="44.28194" lon="4.69572">
        <ele>43</ele>
        <time>2015-05-04T11:06:06Z</time>
      </trkpt>
      <trkpt lat="44.28174" lon="4.69577">
        <ele>42</ele>
        <time>2015-05-04T11:06:03Z</time>
      </trkpt>
      <trkpt lat="44.28154" lon="4.6958">
        <ele>42</ele>
        <time>2015-05-04T11:06:00Z</time>
      </trkpt>
      <trkpt lat="44.28135" lon="4.69583">
        <ele>41</ele>
        <time>2015-05-04T11:05:57Z</time>
      </trkpt>
      <trkpt lat="44.28115" lon="4.69586">
        <ele>42</ele>
        <time>2015-05-04T11:05:54Z</time>
      </trkpt>
      <trkpt lat="44.28095" lon="4.69589">
        <ele>42</ele>
        <time>2015-05-04T11:05:51Z</time>
      </trkpt>
      <trkpt lat="44.28075" lon="4.69591">
        <ele>42</ele>
        <time>2015-05-04T11:05:48Z</time>
      </trkpt>
      <trkpt lat="44.28055" lon="4.69594">
        <ele>42</ele>
        <time>2015-05-04T11:05:45Z</time>
      </trkpt>
      <trkpt lat="44.28042" lon="4.69596">
        <ele>43</ele>
        <time>2015-05-04T11:05:43Z</time>
      </trkpt>
      <trkpt lat="44.28022" lon="4.69599">
        <ele>43</ele>
        <time>2015-05-04T11:05:40Z</time>
      </trkpt>
      <trkpt lat="44.28003" lon="4.69602">
        <ele>43</ele>
        <time>2015-05-04T11:05:37Z</time>
      </trkpt>
      <trkpt lat="44.27984" lon="4.69605">
        <ele>43</ele>
        <time>2015-05-04T11:05:34Z</time>
      </trkpt>
      <trkpt lat="44.27964" lon="4.69609">
        <ele>43</ele>
        <time>2015-05-04T11:05:31Z</time>
      </trkpt>
      <trkpt lat="44.27945" lon="4.69612">
        <ele>43</ele>
        <time>2015-05-04T11:05:28Z</time>
      </trkpt>
      <trkpt lat="44.27933" lon="4.69615">
        <ele>43</ele>
        <time>2015-05-04T11:05:26Z</time>
      </trkpt>
      <trkpt lat="44.27914" lon="4.69618">
        <ele>43</ele>
        <time>2015-05-04T11:05:23Z</time>
      </trkpt>
      <trkpt lat="44.27895" lon="4.69622">
        <ele>43</ele>
        <time>2015-05-04T11:05:20Z</time>
      </trkpt>
      <trkpt lat="44.27883" lon="4.69624">
        <ele>43</ele>
        <time>2015-05-04T11:05:18Z</time>
      </trkpt>
      <trkpt lat="44.2787" lon="4.69626">
        <ele>43</ele>
        <time>2015-05-04T11:05:16Z</time>
      </trkpt>
      <trkpt lat="44.27852" lon="4.69629">
        <ele>43</ele>
        <time>2015-05-04T11:05:13Z</time>
      </trkpt>
      <trkpt lat="44.27834" lon="4.69634">
        <ele>43</ele>
        <time>2015-05-04T11:05:10Z</time>
      </trkpt>
      <trkpt lat="44.27816" lon="4.69638">
        <ele>43</ele>
        <time>2015-05-04T11:05:07Z</time>
      </trkpt>
      <trkpt lat="44.27805" lon="4.69641">
        <ele>43</ele>
        <time>2015-05-04T11:05:05Z</time>
      </trkpt>
      <trkpt lat="44.27789" lon="4.69646">
        <ele>44</ele>
        <time>2015-05-04T11:05:02Z</time>
      </trkpt>
      <trkpt lat="44.27778" lon="4.69648">
        <ele>44</ele>
        <time>2015-05-04T11:05:00Z</time>
      </trkpt>
      <trkpt lat="44.27762" lon="4.69648">
        <ele>44</ele>
        <time>2015-05-04T11:04:57Z</time>
      </trkpt>
      <trkpt lat="44.27754" lon="4.69628">
        <ele>44</ele>
        <time>2015-05-04T11:04:54Z</time>
      </trkpt>
      <trkpt lat="44.27751" lon="4.69612">
        <ele>44</ele>
        <time>2015-05-04T11:04:52Z</time>
      </trkpt>
      <trkpt lat="44.27745" lon="4.69587">
        <ele>44</ele>
        <time>2015-05-04T11:04:49Z</time>
      </trkpt>
      <trkpt lat="44.27742" lon="4.6957">
        <ele>43</ele>
        <time>2015-05-04T11:04:47Z</time>
      </trkpt>
      <trkpt lat="44.27738" lon="4.69544">
        <ele>43</ele>
        <time>2015-05-04T11:04:44Z</time>
      </trkpt>
      <trkpt lat="44.27735" lon="4.69527">
        <ele>42</ele>
        <time>2015-05-04T11:04:42Z</time>
      </trkpt>
      <trkpt lat="44.27734" lon="4.69509">
        <ele>42</ele>
        <time>2015-05-04T11:04:40Z</time>
      </trkpt>
      <trkpt lat="44.27733" lon="4.69482">
        <ele>42</ele>
        <time>2015-05-04T11:04:37Z</time>
      </trkpt>
      <trkpt lat="44.27733" lon="4.69455">
        <ele>42</ele>
        <time>2015-05-04T11:04:34Z</time>
      </trkpt>
      <trkpt lat="44.27732" lon="4.69427">
        <ele>43</ele>
        <time>2015-05-04T11:04:31Z</time>
      </trkpt>
      <trkpt lat="44.27731" lon="4.69409">
        <ele>43</ele>
        <time>2015-05-04T11:04:29Z</time>
      </trkpt>
      <trkpt lat="44.27728" lon="4.69382">
        <ele>43</ele>
        <time>2015-05-04T11:04:26Z</time>
      </trkpt>
      <trkpt lat="44.27725" lon="4.69365">
        <ele>43</ele>
        <time>2015-05-04T11:04:24Z</time>
      </trkpt>
      <trkpt lat="44.27719" lon="4.69338">
        <ele>43</ele>
        <time>2015-05-04T11:04:21Z</time>
      </trkpt>
      <trkpt lat="44.27713" lon="4.69312">
        <ele>43</ele>
        <time>2015-05-04T11:04:18Z</time>
      </trkpt>
      <trkpt lat="44.2771" lon="4.69294">
        <ele>43</ele>
        <time>2015-05-04T11:04:16Z</time>
      </trkpt>
      <trkpt lat="44.27706" lon="4.69277">
        <ele>43</ele>
        <time>2015-05-04T11:04:14Z</time>
      </trkpt>
      <trkpt lat="44.27702" lon="4.6926">
        <ele>43</ele>
        <time>2015-05-04T11:04:12Z</time>
      </trkpt>
      <trkpt lat="44.27694" lon="4.69235">
        <ele>42</ele>
        <time>2015-05-04T11:04:09Z</time>
      </trkpt>
      <trkpt lat="44.27686" lon="4.6921">
        <ele>42</ele>
        <time>2015-05-04T11:04:06Z</time>
      </trkpt>
      <trkpt lat="44.27681" lon="4.69193">
        <ele>41</ele>
        <time>2015-05-04T11:04:04Z</time>
      </trkpt>
      <trkpt lat="44.27672" lon="4.69169">
        <ele>40</ele>
        <time>2015-05-04T11:04:01Z</time>
      </trkpt>
      <trkpt lat="44.27662" lon="4.69146">
        <ele>40</ele>
        <time>2015-05-04T11:03:58Z</time>
      </trkpt>
      <trkpt lat="44.27649" lon="4.69126">
        <ele>40</ele>
        <time>2015-05-04T11:03:55Z</time>
      </trkpt>
      <trkpt lat="44.2764" lon="4.69112">
        <ele>40</ele>
        <time>2015-05-04T11:03:53Z</time>
      </trkpt>
      <trkpt lat="44.27628" lon="4.69092">
        <ele>40</ele>
        <time>2015-05-04T11:03:50Z</time>
      </trkpt>
      <trkpt lat="44.27616" lon="4.69071">
        <ele>40</ele>
        <time>2015-05-04T11:03:47Z</time>
      </trkpt>
      <trkpt lat="44.27605" lon="4.69049">
        <ele>40</ele>
        <time>2015-05-04T11:03:44Z</time>
      </trkpt>
      <trkpt lat="44.27599" lon="4.69034">
        <ele>40</ele>
        <time>2015-05-04T11:03:42Z</time>
      </trkpt>
      <trkpt lat="44.27591" lon="4.69009">
        <ele>39</ele>
        <time>2015-05-04T11:03:39Z</time>
      </trkpt>
      <trkpt lat="44.27588" lon="4.68991">
        <ele>39</ele>
        <time>2015-05-04T11:03:37Z</time>
      </trkpt>
      <trkpt lat="44.27585" lon="4.68973">
        <ele>40</ele>
        <time>2015-05-04T11:03:35Z</time>
      </trkpt>
      <trkpt lat="44.27579" lon="4.68948">
        <ele>41</ele>
        <time>2015-05-04T11:03:32Z</time>
      </trkpt>
      <trkpt lat="44.27575" lon="4.68931">
        <ele>41</ele>
        <time>2015-05-04T11:03:30Z</time>
      </trkpt>
      <trkpt lat="44.27571" lon="4.68904">
        <ele>41</ele>
        <time>2015-05-04T11:03:27Z</time>
      </trkpt>
      <trkpt lat="44.27569" lon="4.68877">
        <ele>41</ele>
        <time>2015-05-04T11:03:24Z</time>
      </trkpt>
      <trkpt lat="44.27567" lon="4.6885">
        <ele>41</ele>
        <time>2015-05-04T11:03:21Z</time>
      </trkpt>
      <trkpt lat="44.27565" lon="4.68822">
        <ele>40</ele>
        <time>2015-05-04T11:03:18Z</time>
      </trkpt>
      <trkpt lat="44.27564" lon="4.68795">
        <ele>40</ele>
        <time>2015-05-04T11:03:15Z</time>
      </trkpt>
      <trkpt lat="44.27564" lon="4.68776">
        <ele>40</ele>
        <time>2015-05-04T11:03:13Z</time>
      </trkpt>
      <trkpt lat="44.27563" lon="4.68758">
        <ele>40</ele>
        <time>2015-05-04T11:03:11Z</time>
      </trkpt>
      <trkpt lat="44.27562" lon="4.6873">
        <ele>40</ele>
        <time>2015-05-04T11:03:08Z</time>
      </trkpt>
      <trkpt lat="44.27562" lon="4.68702">
        <ele>40</ele>
        <time>2015-05-04T11:03:05Z</time>
      </trkpt>
      <trkpt lat="44.27561" lon="4.68674">
        <ele>40</ele>
        <time>2015-05-04T11:03:02Z</time>
      </trkpt>
      <trkpt lat="44.2756" lon="4.68647">
        <ele>40</ele>
        <time>2015-05-04T11:02:59Z</time>
      </trkpt>
      <trkpt lat="44.27559" lon="4.68629">
        <ele>40</ele>
        <time>2015-05-04T11:02:57Z</time>
      </trkpt>
      <trkpt lat="44.27559" lon="4.68602">
        <ele>40</ele>
        <time>2015-05-04T11:02:54Z</time>
      </trkpt>
      <trkpt lat="44.27559" lon="4.68574">
        <ele>40</ele>
        <time>2015-05-04T11:02:51Z</time>
      </trkpt>
      <trkpt lat="44.27559" lon="4.68556">
        <ele>40</ele>
        <time>2015-05-04T11:02:49Z</time>
      </trkpt>
      <trkpt lat="44.27558" lon="4.68528">
        <ele>40</ele>
        <time>2015-05-04T11:02:46Z</time>
      </trkpt>
      <trkpt lat="44.27554" lon="4.6851">
        <ele>40</ele>
        <time>2015-05-04T11:02:44Z</time>
      </trkpt>
      <trkpt lat="44.27546" lon="4.68484">
        <ele>40</ele>
        <time>2015-05-04T11:02:41Z</time>
      </trkpt>
      <trkpt lat="44.27536" lon="4.68458">
        <ele>40</ele>
        <time>2015-05-04T11:02:38Z</time>
      </trkpt>
      <trkpt lat="44.2753" lon="4.68441">
        <ele>40</ele>
        <time>2015-05-04T11:02:36Z</time>
      </trkpt>
      <trkpt lat="44.27521" lon="4.68414">
        <ele>40</ele>
        <time>2015-05-04T11:02:33Z</time>
      </trkpt>
      <trkpt lat="44.27514" lon="4.68396">
        <ele>40</ele>
        <time>2015-05-04T11:02:31Z</time>
      </trkpt>
      <trkpt lat="44.27504" lon="4.68369">
        <ele>40</ele>
        <time>2015-05-04T11:02:28Z</time>
      </trkpt>
      <trkpt lat="44.27498" lon="4.6835">
        <ele>41</ele>
        <time>2015-05-04T11:02:26Z</time>
      </trkpt>
      <trkpt lat="44.2749" lon="4.68332">
        <ele>42</ele>
        <time>2015-05-04T11:02:24Z</time>
      </trkpt>
      <trkpt lat="44.2748" lon="4.68318">
        <ele>41</ele>
        <time>2015-05-04T11:02:22Z</time>
      </trkpt>
      <trkpt lat="44.27465" lon="4.68304">
        <ele>41</ele>
        <time>2015-05-04T11:02:19Z</time>
      </trkpt>
      <trkpt lat="44.27453" lon="4.68291">
        <ele>41</ele>
        <time>2015-05-04T11:02:16Z</time>
      </trkpt>
      <trkpt lat="44.27443" lon="4.68287">
        <ele>41</ele>
        <time>2015-05-04T11:02:14Z</time>
      </trkpt>
      <trkpt lat="44.27426" lon="4.68282">
        <ele>41</ele>
        <time>2015-05-04T11:02:11Z</time>
      </trkpt>
      <trkpt lat="44.27414" lon="4.68278">
        <ele>41</ele>
        <time>2015-05-04T11:02:09Z</time>
      </trkpt>
      <trkpt lat="44.27396" lon="4.68272">
        <ele>41</ele>
        <time>2015-05-04T11:02:06Z</time>
      </trkpt>
      <trkpt lat="44.27378" lon="4.68265">
        <ele>41</ele>
        <time>2015-05-04T11:02:03Z</time>
      </trkpt>
      <trkpt lat="44.2736" lon="4.68257">
        <ele>40</ele>
        <time>2015-05-04T11:02:00Z</time>
      </trkpt>
      <trkpt lat="44.27342" lon="4.6825">
        <ele>40</ele>
        <time>2015-05-04T11:01:57Z</time>
      </trkpt>
      <trkpt lat="44.27324" lon="4.68242">
        <ele>40</ele>
        <time>2015-05-04T11:01:54Z</time>
      </trkpt>
      <trkpt lat="44.27312" lon="4.68236">
        <ele>40</ele>
        <time>2015-05-04T11:01:52Z</time>
      </trkpt>
      <trkpt lat="44.27298" lon="4.68227">
        <ele>40</ele>
        <time>2015-05-04T11:01:49Z</time>
      </trkpt>
      <trkpt lat="44.27288" lon="4.68215">
        <ele>40</ele>
        <time>2015-05-04T11:01:46Z</time>
      </trkpt>
      <trkpt lat="44.27283" lon="4.68204">
        <ele>40</ele>
        <time>2015-05-04T11:01:44Z</time>
      </trkpt>
      <trkpt lat="44.27277" lon="4.68192">
        <ele>40</ele>
        <time>2015-05-04T11:01:42Z</time>
      </trkpt>
      <trkpt lat="44.27265" lon="4.68173">
        <ele>40</ele>
        <time>2015-05-04T11:01:39Z</time>
      </trkpt>
      <trkpt lat="44.27253" lon="4.68153">
        <ele>40</ele>
        <time>2015-05-04T11:01:36Z</time>
      </trkpt>
      <trkpt lat="44.27241" lon="4.68133">
        <ele>42</ele>
        <time>2015-05-04T11:01:33Z</time>
      </trkpt>
      <trkpt lat="44.27232" lon="4.68119">
        <ele>42</ele>
        <time>2015-05-04T11:01:31Z</time>
      </trkpt>
      <trkpt lat="44.27221" lon="4.68099">
        <ele>42</ele>
        <time>2015-05-04T11:01:28Z</time>
      </trkpt>
      <trkpt lat="44.27213" lon="4.68087">
        <ele>42</ele>
        <time>2015-05-04T11:01:26Z</time>
      </trkpt>
      <trkpt lat="44.27205" lon="4.68074">
        <ele>42</ele>
        <time>2015-05-04T11:01:24Z</time>
      </trkpt>
      <trkpt lat="44.27197" lon="4.68061">
        <ele>42</ele>
        <time>2015-05-04T11:01:22Z</time>
      </trkpt>
      <trkpt lat="44.27185" lon="4.68041">
        <ele>42</ele>
        <time>2015-05-04T11:01:19Z</time>
      </trkpt>
      <trkpt lat="44.27177" lon="4.68028">
        <ele>42</ele>
        <time>2015-05-04T11:01:17Z</time>
      </trkpt>
      <trkpt lat="44.2717" lon="4.68014">
        <ele>42</ele>
        <time>2015-05-04T11:01:15Z</time>
      </trkpt>
      <trkpt lat="44.27163" lon="4.67991">
        <ele>42</ele>
        <time>2015-05-04T11:01:12Z</time>
      </trkpt>
      <trkpt lat="44.27161" lon="4.67965">
        <ele>41</ele>
        <time>2015-05-04T11:01:09Z</time>
      </trkpt>
      <trkpt lat="44.2716" lon="4.6794">
        <ele>41</ele>
        <time>2015-05-04T11:01:06Z</time>
      </trkpt>
      <trkpt lat="44.2716" lon="4.67914">
        <ele>41</ele>
        <time>2015-05-04T11:01:03Z</time>
      </trkpt>
      <trkpt lat="44.2716" lon="4.67888">
        <ele>40</ele>
        <time>2015-05-04T11:01:00Z</time>
      </trkpt>
      <trkpt lat="44.27162" lon="4.67863">
        <ele>39</ele>
        <time>2015-05-04T11:00:57Z</time>
      </trkpt>
      <trkpt lat="44.27165" lon="4.67837">
        <ele>38</ele>
        <time>2015-05-04T11:00:54Z</time>
      </trkpt>
      <trkpt lat="44.27168" lon="4.67812">
        <ele>39</ele>
        <time>2015-05-04T11:00:51Z</time>
      </trkpt>
      <trkpt lat="44.27172" lon="4.67787">
        <ele>40</ele>
        <time>2015-05-04T11:00:48Z</time>
      </trkpt>
      <trkpt lat="44.27175" lon="4.67762">
        <ele>40</ele>
        <time>2015-05-04T11:00:45Z</time>
      </trkpt>
      <trkpt lat="44.27179" lon="4.67736">
        <ele>40</ele>
        <time>2015-05-04T11:00:42Z</time>
      </trkpt>
      <trkpt lat="44.27183" lon="4.6771">
        <ele>41</ele>
        <time>2015-05-04T11:00:39Z</time>
      </trkpt>
      <trkpt lat="44.27185" lon="4.67693">
        <ele>41</ele>
        <time>2015-05-04T11:00:37Z</time>
      </trkpt>
      <trkpt lat="44.27186" lon="4.67675">
        <ele>41</ele>
        <time>2015-05-04T11:00:35Z</time>
      </trkpt>
      <trkpt lat="44.27186" lon="4.67649">
        <ele>42</ele>
        <time>2015-05-04T11:00:32Z</time>
      </trkpt>
      <trkpt lat="44.27186" lon="4.67631">
        <ele>42</ele>
        <time>2015-05-04T11:00:30Z</time>
      </trkpt>
      <trkpt lat="44.27185" lon="4.67605">
        <ele>43</ele>
        <time>2015-05-04T11:00:27Z</time>
      </trkpt>
      <trkpt lat="44.27178" lon="4.67581">
        <ele>43</ele>
        <time>2015-05-04T11:00:24Z</time>
      </trkpt>
      <trkpt lat="44.27164" lon="4.67564">
        <ele>42</ele>
        <time>2015-05-04T11:00:21Z</time>
      </trkpt>
      <trkpt lat="44.27154" lon="4.67557">
        <ele>42</ele>
        <time>2015-05-04T11:00:19Z</time>
      </trkpt>
      <trkpt lat="44.27137" lon="4.67545">
        <ele>42</ele>
        <time>2015-05-04T11:00:16Z</time>
      </trkpt>
      <trkpt lat="44.27119" lon="4.67534">
        <ele>42</ele>
        <time>2015-05-04T11:00:13Z</time>
      </trkpt>
      <trkpt lat="44.27102" lon="4.67522">
        <ele>42</ele>
        <time>2015-05-04T11:00:10Z</time>
      </trkpt>
      <trkpt lat="44.27085" lon="4.6751">
        <ele>42</ele>
        <time>2015-05-04T11:00:07Z</time>
      </trkpt>
      <trkpt lat="44.27068" lon="4.67498">
        <ele>41</ele>
        <time>2015-05-04T11:00:04Z</time>
      </trkpt>
      <trkpt lat="44.27051" lon="4.67487">
        <ele>41</ele>
        <time>2015-05-04T11:00:01Z</time>
      </trkpt>
      <trkpt lat="44.27034" lon="4.67475">
        <ele>41</ele>
        <time>2015-05-04T10:59:58Z</time>
      </trkpt>
      <trkpt lat="44.27023" lon="4.67468">
        <ele>41</ele>
        <time>2015-05-04T10:59:56Z</time>
      </trkpt>
      <trkpt lat="44.27007" lon="4.67456">
        <ele>41</ele>
        <time>2015-05-04T10:59:53Z</time>
      </trkpt>
      <trkpt lat="44.26996" lon="4.67448">
        <ele>41</ele>
        <time>2015-05-04T10:59:51Z</time>
      </trkpt>
      <trkpt lat="44.26988" lon="4.67435">
        <ele>41</ele>
        <time>2015-05-04T10:59:49Z</time>
      </trkpt>
      <trkpt lat="44.26983" lon="4.67419">
        <ele>42</ele>
        <time>2015-05-04T10:59:47Z</time>
      </trkpt>
      <trkpt lat="44.26982" lon="4.67394">
        <ele>42</ele>
        <time>2015-05-04T10:59:44Z</time>
      </trkpt>
      <trkpt lat="44.26983" lon="4.67376">
        <ele>42</ele>
        <time>2015-05-04T10:59:42Z</time>
      </trkpt>
      <trkpt lat="44.26984" lon="4.67359">
        <ele>42</ele>
        <time>2015-05-04T10:59:40Z</time>
      </trkpt>
      <trkpt lat="44.26985" lon="4.67332">
        <ele>43</ele>
        <time>2015-05-04T10:59:37Z</time>
      </trkpt>
      <trkpt lat="44.26986" lon="4.67306">
        <ele>42</ele>
        <time>2015-05-04T10:59:34Z</time>
      </trkpt>
      <trkpt lat="44.26988" lon="4.67279">
        <ele>42</ele>
        <time>2015-05-04T10:59:31Z</time>
      </trkpt>
      <trkpt lat="44.26988" lon="4.67253">
        <ele>43</ele>
        <time>2015-05-04T10:59:28Z</time>
      </trkpt>
      <trkpt lat="44.26986" lon="4.67235">
        <ele>43</ele>
        <time>2015-05-04T10:59:26Z</time>
      </trkpt>
      <trkpt lat="44.26981" lon="4.67218">
        <ele>42</ele>
        <time>2015-05-04T10:59:24Z</time>
      </trkpt>
      <trkpt lat="44.26972" lon="4.67194">
        <ele>42</ele>
        <time>2015-05-04T10:59:21Z</time>
      </trkpt>
      <trkpt lat="44.26962" lon="4.6717">
        <ele>43</ele>
        <time>2015-05-04T10:59:18Z</time>
      </trkpt>
      <trkpt lat="44.26956" lon="4.67154">
        <ele>43</ele>
        <time>2015-05-04T10:59:16Z</time>
      </trkpt>
      <trkpt lat="44.26948" lon="4.67132">
        <ele>43</ele>
        <time>2015-05-04T10:59:13Z</time>
      </trkpt>
      <trkpt lat="44.26941" lon="4.67116">
        <ele>43</ele>
        <time>2015-05-04T10:59:11Z</time>
      </trkpt>
      <trkpt lat="44.2693" lon="4.67095">
        <ele>43</ele>
        <time>2015-05-04T10:59:08Z</time>
      </trkpt>
      <trkpt lat="44.26921" lon="4.67082">
        <ele>44</ele>
        <time>2015-05-04T10:59:06Z</time>
      </trkpt>
      <trkpt lat="44.26908" lon="4.67061">
        <ele>43</ele>
        <time>2015-05-04T10:59:03Z</time>
      </trkpt>
      <trkpt lat="44.26898" lon="4.67038">
        <ele>43</ele>
        <time>2015-05-04T10:59:00Z</time>
      </trkpt>
      <trkpt lat="44.26891" lon="4.67023">
        <ele>43</ele>
        <time>2015-05-04T10:58:58Z</time>
      </trkpt>
      <trkpt lat="44.26881" lon="4.67">
        <ele>42</ele>
        <time>2015-05-04T10:58:55Z</time>
      </trkpt>
      <trkpt lat="44.2687" lon="4.66976">
        <ele>41</ele>
        <time>2015-05-04T10:58:52Z</time>
      </trkpt>
      <trkpt lat="44.2686" lon="4.66953">
        <ele>41</ele>
        <time>2015-05-04T10:58:49Z</time>
      </trkpt>
      <trkpt lat="44.26849" lon="4.66929">
        <ele>40</ele>
        <time>2015-05-04T10:58:46Z</time>
      </trkpt>
      <trkpt lat="44.26842" lon="4.66913">
        <ele>39</ele>
        <time>2015-05-04T10:58:44Z</time>
      </trkpt>
      <trkpt lat="44.26835" lon="4.66897">
        <ele>40</ele>
        <time>2015-05-04T10:58:42Z</time>
      </trkpt>
      <trkpt lat="44.26824" lon="4.66872">
        <ele>40</ele>
        <time>2015-05-04T10:58:39Z</time>
      </trkpt>
      <trkpt lat="44.26816" lon="4.66856">
        <ele>40</ele>
        <time>2015-05-04T10:58:37Z</time>
      </trkpt>
      <trkpt lat="44.26804" lon="4.66832">
        <ele>41</ele>
        <time>2015-05-04T10:58:34Z</time>
      </trkpt>
      <trkpt lat="44.26793" lon="4.66808">
        <ele>41</ele>
        <time>2015-05-04T10:58:31Z</time>
      </trkpt>
      <trkpt lat="44.26782" lon="4.66783">
        <ele>41</ele>
        <time>2015-05-04T10:58:28Z</time>
      </trkpt>
      <trkpt lat="44.2677" lon="4.6676">
        <ele>41</ele>
        <time>2015-05-04T10:58:25Z</time>
      </trkpt>
      <trkpt lat="44.26756" lon="4.6674">
        <ele>41</ele>
        <time>2015-05-04T10:58:22Z</time>
      </trkpt>
      <trkpt lat="44.2674" lon="4.66722">
        <ele>41</ele>
        <time>2015-05-04T10:58:19Z</time>
      </trkpt>
      <trkpt lat="44.26725" lon="4.66705">
        <ele>41</ele>
        <time>2015-05-04T10:58:16Z</time>
      </trkpt>
      <trkpt lat="44.26709" lon="4.66687">
        <ele>40</ele>
        <time>2015-05-04T10:58:13Z</time>
      </trkpt>
      <trkpt lat="44.26699" lon="4.66674">
        <ele>40</ele>
        <time>2015-05-04T10:58:11Z</time>
      </trkpt>
      <trkpt lat="44.26684" lon="4.66655">
        <ele>40</ele>
        <time>2015-05-04T10:58:08Z</time>
      </trkpt>
      <trkpt lat="44.26674" lon="4.66641">
        <ele>40</ele>
        <time>2015-05-04T10:58:06Z</time>
      </trkpt>
      <trkpt lat="44.26664" lon="4.66627">
        <ele>41</ele>
        <time>2015-05-04T10:58:04Z</time>
      </trkpt>
      <trkpt lat="44.26649" lon="4.66606">
        <ele>41</ele>
        <time>2015-05-04T10:58:01Z</time>
      </trkpt>
      <trkpt lat="44.26639" lon="4.66594">
        <ele>41</ele>
        <time>2015-05-04T10:57:59Z</time>
      </trkpt>
      <trkpt lat="44.26623" lon="4.66574">
        <ele>41</ele>
        <time>2015-05-04T10:57:56Z</time>
      </trkpt>
      <trkpt lat="44.26613" lon="4.66562">
        <ele>41</ele>
        <time>2015-05-04T10:57:54Z</time>
      </trkpt>
      <trkpt lat="44.266" lon="4.66555">
        <ele>41</ele>
        <time>2015-05-04T10:57:52Z</time>
      </trkpt>
      <trkpt lat="44.26587" lon="4.66551">
        <ele>41</ele>
        <time>2015-05-04T10:57:50Z</time>
      </trkpt>
      <trkpt lat="44.26568" lon="4.66546">
        <ele>42</ele>
        <time>2015-05-04T10:57:47Z</time>
      </trkpt>
      <trkpt lat="44.26555" lon="4.66542">
        <ele>42</ele>
        <time>2015-05-04T10:57:45Z</time>
      </trkpt>
      <trkpt lat="44.26535" lon="4.66537">
        <ele>42</ele>
        <time>2015-05-04T10:57:42Z</time>
      </trkpt>
      <trkpt lat="44.26522" lon="4.66532">
        <ele>42</ele>
        <time>2015-05-04T10:57:40Z</time>
      </trkpt>
      <trkpt lat="44.26502" lon="4.66526">
        <ele>42</ele>
        <time>2015-05-04T10:57:37Z</time>
      </trkpt>
      <trkpt lat="44.26483" lon="4.6652">
        <ele>43</ele>
        <time>2015-05-04T10:57:34Z</time>
      </trkpt>
      <trkpt lat="44.26465" lon="4.66514">
        <ele>43</ele>
        <time>2015-05-04T10:57:31Z</time>
      </trkpt>
      <trkpt lat="44.26447" lon="4.66505">
        <ele>43</ele>
        <time>2015-05-04T10:57:28Z</time>
      </trkpt>
      <trkpt lat="44.26435" lon="4.66499">
        <ele>43</ele>
        <time>2015-05-04T10:57:26Z</time>
      </trkpt>
      <trkpt lat="44.26424" lon="4.66491">
        <ele>43</ele>
        <time>2015-05-04T10:57:24Z</time>
      </trkpt>
      <trkpt lat="44.26412" lon="4.66484">
        <ele>43</ele>
        <time>2015-05-04T10:57:22Z</time>
      </trkpt>
      <trkpt lat="44.26394" lon="4.66473">
        <ele>42</ele>
        <time>2015-05-04T10:57:19Z</time>
      </trkpt>
      <trkpt lat="44.26376" lon="4.66463">
        <ele>42</ele>
        <time>2015-05-04T10:57:16Z</time>
      </trkpt>
      <trkpt lat="44.26358" lon="4.66452">
        <ele>41</ele>
        <time>2015-05-04T10:57:13Z</time>
      </trkpt>
      <trkpt lat="44.26339" lon="4.66442">
        <ele>41</ele>
        <time>2015-05-04T10:57:10Z</time>
      </trkpt>
      <trkpt lat="44.26326" lon="4.66434">
        <ele>40</ele>
        <time>2015-05-04T10:57:08Z</time>
      </trkpt>
      <trkpt lat="44.26308" lon="4.66423">
        <ele>40</ele>
        <time>2015-05-04T10:57:05Z</time>
      </trkpt>
      <trkpt lat="44.26296" lon="4.66416">
        <ele>41</ele>
        <time>2015-05-04T10:57:03Z</time>
      </trkpt>
      <trkpt lat="44.26278" lon="4.66406">
        <ele>41</ele>
        <time>2015-05-04T10:57:00Z</time>
      </trkpt>
      <trkpt lat="44.26266" lon="4.66398">
        <ele>41</ele>
        <time>2015-05-04T10:56:58Z</time>
      </trkpt>
      <trkpt lat="44.26249" lon="4.66385">
        <ele>41</ele>
        <time>2015-05-04T10:56:55Z</time>
      </trkpt>
      <trkpt lat="44.26238" lon="4.66374">
        <ele>42</ele>
        <time>2015-05-04T10:56:53Z</time>
      </trkpt>
      <trkpt lat="44.26222" lon="4.66359">
        <ele>42</ele>
        <time>2015-05-04T10:56:50Z</time>
      </trkpt>
      <trkpt lat="44.26211" lon="4.66347">
        <ele>42</ele>
        <time>2015-05-04T10:56:48Z</time>
      </trkpt>
      <trkpt lat="44.26197" lon="4.6633">
        <ele>43</ele>
        <time>2015-05-04T10:56:45Z</time>
      </trkpt>
      <trkpt lat="44.26185" lon="4.66311">
        <ele>43</ele>
        <time>2015-05-04T10:56:42Z</time>
      </trkpt>
      <trkpt lat="44.26171" lon="4.66295">
        <ele>43</ele>
        <time>2015-05-04T10:56:39Z</time>
      </trkpt>
      <trkpt lat="44.26154" lon="4.66289">
        <ele>44</ele>
        <time>2015-05-04T10:56:36Z</time>
      </trkpt>
      <trkpt lat="44.26137" lon="4.66295">
        <ele>43</ele>
        <time>2015-05-04T10:56:33Z</time>
      </trkpt>
      <trkpt lat="44.26129" lon="4.66308">
        <ele>43</ele>
        <time>2015-05-04T10:56:31Z</time>
      </trkpt>
      <trkpt lat="44.26116" lon="4.66328">
        <ele>43</ele>
        <time>2015-05-04T10:56:28Z</time>
      </trkpt>
      <trkpt lat="44.26096" lon="4.66334">
        <ele>43</ele>
        <time>2015-05-04T10:56:25Z</time>
      </trkpt>
      <trkpt lat="44.26084" lon="4.66326">
        <ele>43</ele>
        <time>2015-05-04T10:56:23Z</time>
      </trkpt>
      <trkpt lat="44.26073" lon="4.66301">
        <ele>41</ele>
        <time>2015-05-04T10:56:20Z</time>
      </trkpt>
      <trkpt lat="44.26074" lon="4.66282">
        <ele>41</ele>
        <time>2015-05-04T10:56:18Z</time>
      </trkpt>
      <trkpt lat="44.26087" lon="4.6626">
        <ele>42</ele>
        <time>2015-05-04T10:56:15Z</time>
      </trkpt>
      <trkpt lat="44.26101" lon="4.66242">
        <ele>43</ele>
        <time>2015-05-04T10:56:12Z</time>
      </trkpt>
      <trkpt lat="44.26107" lon="4.66215">
        <ele>43</ele>
        <time>2015-05-04T10:56:09Z</time>
      </trkpt>
      <trkpt lat="44.26106" lon="4.66187">
        <ele>42</ele>
        <time>2015-05-04T10:56:06Z</time>
      </trkpt>
      <trkpt lat="44.26102" lon="4.66162">
        <ele>42</ele>
        <time>2015-05-04T10:56:03Z</time>
      </trkpt>
      <trkpt lat="44.26096" lon="4.66135">
        <ele>42</ele>
        <time>2015-05-04T10:56:00Z</time>
      </trkpt>
      <trkpt lat="44.26091" lon="4.66112">
        <ele>43</ele>
        <time>2015-05-04T10:55:58Z</time>
      </trkpt>
      <trkpt lat="44.26085" lon="4.66088">
        <ele>44</ele>
        <time>2015-05-04T10:55:56Z</time>
      </trkpt>
      <trkpt lat="44.26076" lon="4.66054">
        <ele>43</ele>
        <time>2015-05-04T10:55:53Z</time>
      </trkpt>
      <trkpt lat="44.26071" lon="4.66031">
        <ele>43</ele>
        <time>2015-05-04T10:55:51Z</time>
      </trkpt>
      <trkpt lat="44.26064" lon="4.65999">
        <ele>43</ele>
        <time>2015-05-04T10:55:48Z</time>
      </trkpt>
      <trkpt lat="44.26061" lon="4.65978">
        <ele>43</ele>
        <time>2015-05-04T10:55:46Z</time>
      </trkpt>
      <trkpt lat="44.26059" lon="4.65946">
        <ele>43</ele>
        <time>2015-05-04T10:55:43Z</time>
      </trkpt>
      <trkpt lat="44.26059" lon="4.65916">
        <ele>44</ele>
        <time>2015-05-04T10:55:40Z</time>
      </trkpt>
      <trkpt lat="44.26057" lon="4.65887">
        <ele>44</ele>
        <time>2015-05-04T10:55:37Z</time>
      </trkpt>
      <trkpt lat="44.26057" lon="4.65867">
        <ele>45</ele>
        <time>2015-05-04T10:55:35Z</time>
      </trkpt>
      <trkpt lat="44.26056" lon="4.65839">
        <ele>45</ele>
        <time>2015-05-04T10:55:32Z</time>
      </trkpt>
      <trkpt lat="44.26055" lon="4.6582">
        <ele>45</ele>
        <time>2015-05-04T10:55:30Z</time>
      </trkpt>
      <trkpt lat="44.26053" lon="4.65792">
        <ele>44</ele>
        <time>2015-05-04T10:55:27Z</time>
      </trkpt>
      <trkpt lat="44.26052" lon="4.65764">
        <ele>44</ele>
        <time>2015-05-04T10:55:24Z</time>
      </trkpt>
      <trkpt lat="44.26051" lon="4.65737">
        <ele>42</ele>
        <time>2015-05-04T10:55:21Z</time>
      </trkpt>
      <trkpt lat="44.26048" lon="4.6571">
        <ele>42</ele>
        <time>2015-05-04T10:55:18Z</time>
      </trkpt>
      <trkpt lat="44.26046" lon="4.65692">
        <ele>42</ele>
        <time>2015-05-04T10:55:16Z</time>
      </trkpt>
      <trkpt lat="44.26043" lon="4.65665">
        <ele>40</ele>
        <time>2015-05-04T10:55:13Z</time>
      </trkpt>
      <trkpt lat="44.2604" lon="4.65637">
        <ele>41</ele>
        <time>2015-05-04T10:55:10Z</time>
      </trkpt>
      <trkpt lat="44.26034" lon="4.65611">
        <ele>41</ele>
        <time>2015-05-04T10:55:07Z</time>
      </trkpt>
      <trkpt lat="44.26028" lon="4.65594">
        <ele>41</ele>
        <time>2015-05-04T10:55:05Z</time>
      </trkpt>
      <trkpt lat="44.26021" lon="4.65568">
        <ele>41</ele>
        <time>2015-05-04T10:55:02Z</time>
      </trkpt>
      <trkpt lat="44.26014" lon="4.65543">
        <ele>41</ele>
        <time>2015-05-04T10:54:59Z</time>
      </trkpt>
      <trkpt lat="44.26007" lon="4.65518">
        <ele>41</ele>
        <time>2015-05-04T10:54:56Z</time>
      </trkpt>
      <trkpt lat="44.26" lon="4.65493">
        <ele>41</ele>
        <time>2015-05-04T10:54:53Z</time>
      </trkpt>
      <trkpt lat="44.25996" lon="4.65476">
        <ele>42</ele>
        <time>2015-05-04T10:54:51Z</time>
      </trkpt>
      <trkpt lat="44.2599" lon="4.65452">
        <ele>42</ele>
        <time>2015-05-04T10:54:48Z</time>
      </trkpt>
      <trkpt lat="44.25983" lon="4.65427">
        <ele>42</ele>
        <time>2015-05-04T10:54:45Z</time>
      </trkpt>
      <trkpt lat="44.25979" lon="4.6541">
        <ele>41</ele>
        <time>2015-05-04T10:54:43Z</time>
      </trkpt>
      <trkpt lat="44.25974" lon="4.65394">
        <ele>41</ele>
        <time>2015-05-04T10:54:41Z</time>
      </trkpt>
      <trkpt lat="44.25969" lon="4.65377">
        <ele>41</ele>
        <time>2015-05-04T10:54:39Z</time>
      </trkpt>
      <trkpt lat="44.25962" lon="4.65352">
        <ele>41</ele>
        <time>2015-05-04T10:54:36Z</time>
      </trkpt>
      <trkpt lat="44.25955" lon="4.65327">
        <ele>40</ele>
        <time>2015-05-04T10:54:33Z</time>
      </trkpt>
      <trkpt lat="44.25948" lon="4.65302">
        <ele>40</ele>
        <time>2015-05-04T10:54:30Z</time>
      </trkpt>
      <trkpt lat="44.25943" lon="4.65285">
        <ele>40</ele>
        <time>2015-05-04T10:54:28Z</time>
      </trkpt>
      <trkpt lat="44.25936" lon="4.6526">
        <ele>40</ele>
        <time>2015-05-04T10:54:25Z</time>
      </trkpt>
      <trkpt lat="44.25931" lon="4.65243">
        <ele>40</ele>
        <time>2015-05-04T10:54:23Z</time>
      </trkpt>
      <trkpt lat="44.25927" lon="4.65227">
        <ele>39</ele>
        <time>2015-05-04T10:54:21Z</time>
      </trkpt>
      <trkpt lat="44.25922" lon="4.6521">
        <ele>39</ele>
        <time>2015-05-04T10:54:19Z</time>
      </trkpt>
      <trkpt lat="44.25915" lon="4.65184">
        <ele>39</ele>
        <time>2015-05-04T10:54:16Z</time>
      </trkpt>
      <trkpt lat="44.25908" lon="4.65158">
        <ele>39</ele>
        <time>2015-05-04T10:54:13Z</time>
      </trkpt>
      <trkpt lat="44.25903" lon="4.65141">
        <ele>39</ele>
        <time>2015-05-04T10:54:11Z</time>
      </trkpt>
      <trkpt lat="44.25898" lon="4.65122">
        <ele>39</ele>
        <time>2015-05-04T10:54:09Z</time>
      </trkpt>
      <trkpt lat="44.2589" lon="4.65095">
        <ele>39</ele>
        <time>2015-05-04T10:54:06Z</time>
      </trkpt>
      <trkpt lat="44.25884" lon="4.65068">
        <ele>41</ele>
        <time>2015-05-04T10:54:03Z</time>
      </trkpt>
      <trkpt lat="44.25877" lon="4.65041">
        <ele>42</ele>
        <time>2015-05-04T10:54:00Z</time>
      </trkpt>
      <trkpt lat="44.2587" lon="4.65013">
        <ele>43</ele>
        <time>2015-05-04T10:53:57Z</time>
      </trkpt>
      <trkpt lat="44.25862" lon="4.64984">
        <ele>49</ele>
        <time>2015-05-04T10:53:54Z</time>
      </trkpt>
      <trkpt lat="44.25855" lon="4.64955">
        <ele>50</ele>
        <time>2015-05-04T10:53:51Z</time>
      </trkpt>
      <trkpt lat="44.2585" lon="4.64925">
        <ele>51</ele>
        <time>2015-05-04T10:53:48Z</time>
      </trkpt>
      <trkpt lat="44.25847" lon="4.64906">
        <ele>54</ele>
        <time>2015-05-04T10:53:46Z</time>
      </trkpt>
      <trkpt lat="44.25845" lon="4.64886">
        <ele>54</ele>
        <time>2015-05-04T10:53:44Z</time>
      </trkpt>
      <trkpt lat="44.25842" lon="4.64856">
        <ele>54</ele>
        <time>2015-05-04T10:53:41Z</time>
      </trkpt>
      <trkpt lat="44.25839" lon="4.64827">
        <ele>55</ele>
        <time>2015-05-04T10:53:38Z</time>
      </trkpt>
      <trkpt lat="44.25841" lon="4.64798">
        <ele>55</ele>
        <time>2015-05-04T10:53:35Z</time>
      </trkpt>
      <trkpt lat="44.25856" lon="4.64781">
        <ele>54</ele>
        <time>2015-05-04T10:53:32Z</time>
      </trkpt>
      <trkpt lat="44.25869" lon="4.64779">
        <ele>54</ele>
        <time>2015-05-04T10:53:30Z</time>
      </trkpt>
      <trkpt lat="44.25888" lon="4.64776">
        <ele>54</ele>
        <time>2015-05-04T10:53:27Z</time>
      </trkpt>
      <trkpt lat="44.25904" lon="4.64762">
        <ele>54</ele>
        <time>2015-05-04T10:53:24Z</time>
      </trkpt>
      <trkpt lat="44.25915" lon="4.64752">
        <ele>53</ele>
        <time>2015-05-04T10:53:22Z</time>
      </trkpt>
      <trkpt lat="44.25934" lon="4.6474">
        <ele>53</ele>
        <time>2015-05-04T10:53:19Z</time>
      </trkpt>
      <trkpt lat="44.25945" lon="4.6473">
        <ele>54</ele>
        <time>2015-05-04T10:53:17Z</time>
      </trkpt>
      <trkpt lat="44.25961" lon="4.64714">
        <ele>54</ele>
        <time>2015-05-04T10:53:14Z</time>
      </trkpt>
      <trkpt lat="44.25977" lon="4.64697">
        <ele>54</ele>
        <time>2015-05-04T10:53:11Z</time>
      </trkpt>
      <trkpt lat="44.25987" lon="4.64685">
        <ele>54</ele>
        <time>2015-05-04T10:53:09Z</time>
      </trkpt>
      <trkpt lat="44.26" lon="4.64666">
        <ele>54</ele>
        <time>2015-05-04T10:53:06Z</time>
      </trkpt>
      <trkpt lat="44.26008" lon="4.64654">
        <ele>55</ele>
        <time>2015-05-04T10:53:04Z</time>
      </trkpt>
      <trkpt lat="44.26015" lon="4.64641">
        <ele>56</ele>
        <time>2015-05-04T10:53:02Z</time>
      </trkpt>
      <trkpt lat="44.26027" lon="4.64623">
        <ele>56</ele>
        <time>2015-05-04T10:52:59Z</time>
      </trkpt>
      <trkpt lat="44.26036" lon="4.6461">
        <ele>56</ele>
        <time>2015-05-04T10:52:57Z</time>
      </trkpt>
      <trkpt lat="44.26044" lon="4.64596">
        <ele>56</ele>
        <time>2015-05-04T10:52:55Z</time>
      </trkpt>
      <trkpt lat="44.26053" lon="4.64583">
        <ele>57</ele>
        <time>2015-05-04T10:52:53Z</time>
      </trkpt>
      <trkpt lat="44.26066" lon="4.64563">
        <ele>57</ele>
        <time>2015-05-04T10:52:50Z</time>
      </trkpt>
      <trkpt lat="44.26075" lon="4.6455">
        <ele>57</ele>
        <time>2015-05-04T10:52:48Z</time>
      </trkpt>
      <trkpt lat="44.26084" lon="4.64537">
        <ele>57</ele>
        <time>2015-05-04T10:52:46Z</time>
      </trkpt>
      <trkpt lat="44.26097" lon="4.64517">
        <ele>57</ele>
        <time>2015-05-04T10:52:43Z</time>
      </trkpt>
      <trkpt lat="44.26111" lon="4.64498">
        <ele>57</ele>
        <time>2015-05-04T10:52:40Z</time>
      </trkpt>
      <trkpt lat="44.2612" lon="4.64485">
        <ele>57</ele>
        <time>2015-05-04T10:52:38Z</time>
      </trkpt>
      <trkpt lat="44.26133" lon="4.64465">
        <ele>56</ele>
        <time>2015-05-04T10:52:35Z</time>
      </trkpt>
      <trkpt lat="44.26142" lon="4.64452">
        <ele>56</ele>
        <time>2015-05-04T10:52:33Z</time>
      </trkpt>
      <trkpt lat="44.26151" lon="4.64438">
        <ele>56</ele>
        <time>2015-05-04T10:52:31Z</time>
      </trkpt>
      <trkpt lat="44.26164" lon="4.64417">
        <ele>55</ele>
        <time>2015-05-04T10:52:28Z</time>
      </trkpt>
      <trkpt lat="44.26174" lon="4.64403">
        <ele>55</ele>
        <time>2015-05-04T10:52:26Z</time>
      </trkpt>
      <trkpt lat="44.26183" lon="4.6439">
        <ele>55</ele>
        <time>2015-05-04T10:52:24Z</time>
      </trkpt>
      <trkpt lat="44.26197" lon="4.6437">
        <ele>56</ele>
        <time>2015-05-04T10:52:21Z</time>
      </trkpt>
      <trkpt lat="44.26206" lon="4.64357">
        <ele>56</ele>
        <time>2015-05-04T10:52:19Z</time>
      </trkpt>
      <trkpt lat="44.2622" lon="4.64337">
        <ele>56</ele>
        <time>2015-05-04T10:52:16Z</time>
      </trkpt>
      <trkpt lat="44.26229" lon="4.64324">
        <ele>56</ele>
        <time>2015-05-04T10:52:14Z</time>
      </trkpt>
      <trkpt lat="44.26238" lon="4.6431">
        <ele>57</ele>
        <time>2015-05-04T10:52:12Z</time>
      </trkpt>
      <trkpt lat="44.26251" lon="4.6429">
        <ele>57</ele>
        <time>2015-05-04T10:52:09Z</time>
      </trkpt>
      <trkpt lat="44.2626" lon="4.64276">
        <ele>57</ele>
        <time>2015-05-04T10:52:07Z</time>
      </trkpt>
      <trkpt lat="44.26269" lon="4.64263">
        <ele>57</ele>
        <time>2015-05-04T10:52:05Z</time>
      </trkpt>
      <trkpt lat="44.26278" lon="4.6425">
        <ele>57</ele>
        <time>2015-05-04T10:52:03Z</time>
      </trkpt>
      <trkpt lat="44.26287" lon="4.64237">
        <ele>57</ele>
        <time>2015-05-04T10:52:01Z</time>
      </trkpt>
      <trkpt lat="44.263" lon="4.64218">
        <ele>57</ele>
        <time>2015-05-04T10:51:58Z</time>
      </trkpt>
      <trkpt lat="44.26309" lon="4.64205">
        <ele>57</ele>
        <time>2015-05-04T10:51:56Z</time>
      </trkpt>
      <trkpt lat="44.26322" lon="4.64186">
        <ele>56</ele>
        <time>2015-05-04T10:51:53Z</time>
      </trkpt>
      <trkpt lat="44.2633" lon="4.64174">
        <ele>56</ele>
        <time>2015-05-04T10:51:51Z</time>
      </trkpt>
      <trkpt lat="44.26339" lon="4.64162">
        <ele>56</ele>
        <time>2015-05-04T10:51:49Z</time>
      </trkpt>
      <trkpt lat="44.26352" lon="4.64143">
        <ele>57</ele>
        <time>2015-05-04T10:51:46Z</time>
      </trkpt>
      <trkpt lat="44.26361" lon="4.6413">
        <ele>57</ele>
        <time>2015-05-04T10:51:44Z</time>
      </trkpt>
      <trkpt lat="44.26374" lon="4.6411">
        <ele>57</ele>
        <time>2015-05-04T10:51:41Z</time>
      </trkpt>
      <trkpt lat="44.26383" lon="4.64098">
        <ele>58</ele>
        <time>2015-05-04T10:51:39Z</time>
      </trkpt>
      <trkpt lat="44.26397" lon="4.64079">
        <ele>59</ele>
        <time>2015-05-04T10:51:36Z</time>
      </trkpt>
      <trkpt lat="44.26405" lon="4.64066">
        <ele>59</ele>
        <time>2015-05-04T10:51:34Z</time>
      </trkpt>
      <trkpt lat="44.26415" lon="4.64054">
        <ele>59</ele>
        <time>2015-05-04T10:51:32Z</time>
      </trkpt>
      <trkpt lat="44.26428" lon="4.64034">
        <ele>59</ele>
        <time>2015-05-04T10:51:29Z</time>
      </trkpt>
      <trkpt lat="44.26437" lon="4.6402">
        <ele>59</ele>
        <time>2015-05-04T10:51:27Z</time>
      </trkpt>
      <trkpt lat="44.2645" lon="4.64">
        <ele>59</ele>
        <time>2015-05-04T10:51:24Z</time>
      </trkpt>
      <trkpt lat="44.26459" lon="4.63987">
        <ele>59</ele>
        <time>2015-05-04T10:51:22Z</time>
      </trkpt>
      <trkpt lat="44.26468" lon="4.63973">
        <ele>59</ele>
        <time>2015-05-04T10:51:20Z</time>
      </trkpt>
      <trkpt lat="44.26482" lon="4.63952">
        <ele>59</ele>
        <time>2015-05-04T10:51:17Z</time>
      </trkpt>
      <trkpt lat="44.26492" lon="4.63938">
        <ele>59</ele>
        <time>2015-05-04T10:51:15Z</time>
      </trkpt>
      <trkpt lat="44.26502" lon="4.63923">
        <ele>59</ele>
        <time>2015-05-04T10:51:13Z</time>
      </trkpt>
      <trkpt lat="44.26516" lon="4.63902">
        <ele>59</ele>
        <time>2015-05-04T10:51:10Z</time>
      </trkpt>
      <trkpt lat="44.26527" lon="4.63887">
        <ele>59</ele>
        <time>2015-05-04T10:51:08Z</time>
      </trkpt>
      <trkpt lat="44.26536" lon="4.63873">
        <ele>60</ele>
        <time>2015-05-04T10:51:06Z</time>
      </trkpt>
      <trkpt lat="44.26546" lon="4.63858">
        <ele>60</ele>
        <time>2015-05-04T10:51:04Z</time>
      </trkpt>
      <trkpt lat="44.26562" lon="4.63836">
        <ele>60</ele>
        <time>2015-05-04T10:51:01Z</time>
      </trkpt>
      <trkpt lat="44.26572" lon="4.63821">
        <ele>61</ele>
        <time>2015-05-04T10:50:59Z</time>
      </trkpt>
      <trkpt lat="44.26588" lon="4.638">
        <ele>60</ele>
        <time>2015-05-04T10:50:56Z</time>
      </trkpt>
      <trkpt lat="44.26604" lon="4.63778">
        <ele>60</ele>
        <time>2015-05-04T10:50:53Z</time>
      </trkpt>
      <trkpt lat="44.26615" lon="4.63764">
        <ele>60</ele>
        <time>2015-05-04T10:50:51Z</time>
      </trkpt>
      <trkpt lat="44.26626" lon="4.63749">
        <ele>63</ele>
        <time>2015-05-04T10:50:49Z</time>
      </trkpt>
      <trkpt lat="44.26637" lon="4.63735">
        <ele>63</ele>
        <time>2015-05-04T10:50:47Z</time>
      </trkpt>
      <trkpt lat="44.26653" lon="4.63713">
        <ele>63</ele>
        <time>2015-05-04T10:50:44Z</time>
      </trkpt>
      <trkpt lat="44.26664" lon="4.63699">
        <ele>64</ele>
        <time>2015-05-04T10:50:42Z</time>
      </trkpt>
      <trkpt lat="44.26674" lon="4.63685">
        <ele>63</ele>
        <time>2015-05-04T10:50:40Z</time>
      </trkpt>
      <trkpt lat="44.26684" lon="4.63672">
        <ele>63</ele>
        <time>2015-05-04T10:50:38Z</time>
      </trkpt>
      <trkpt lat="44.26699" lon="4.63651">
        <ele>65</ele>
        <time>2015-05-04T10:50:35Z</time>
      </trkpt>
      <trkpt lat="44.2671" lon="4.63638">
        <ele>65</ele>
        <time>2015-05-04T10:50:33Z</time>
      </trkpt>
      <trkpt lat="44.26721" lon="4.63624">
        <ele>65</ele>
        <time>2015-05-04T10:50:31Z</time>
      </trkpt>
      <trkpt lat="44.26731" lon="4.6361">
        <ele>65</ele>
        <time>2015-05-04T10:50:29Z</time>
      </trkpt>
      <trkpt lat="44.26741" lon="4.63597">
        <ele>64</ele>
        <time>2015-05-04T10:50:27Z</time>
      </trkpt>
      <trkpt lat="44.26752" lon="4.63583">
        <ele>63</ele>
        <time>2015-05-04T10:50:25Z</time>
      </trkpt>
      <trkpt lat="44.26767" lon="4.63564">
        <ele>64</ele>
        <time>2015-05-04T10:50:22Z</time>
      </trkpt>
      <trkpt lat="44.26782" lon="4.63545">
        <ele>64</ele>
        <time>2015-05-04T10:50:19Z</time>
      </trkpt>
      <trkpt lat="44.26796" lon="4.63526">
        <ele>64</ele>
        <time>2015-05-04T10:50:16Z</time>
      </trkpt>
      <trkpt lat="44.26811" lon="4.63507">
        <ele>64</ele>
        <time>2015-05-04T10:50:13Z</time>
      </trkpt>
      <trkpt lat="44.26821" lon="4.63494">
        <ele>65</ele>
        <time>2015-05-04T10:50:11Z</time>
      </trkpt>
      <trkpt lat="44.26831" lon="4.63481">
        <ele>66</ele>
        <time>2015-05-04T10:50:09Z</time>
      </trkpt>
      <trkpt lat="44.26842" lon="4.63468">
        <ele>63</ele>
        <time>2015-05-04T10:50:07Z</time>
      </trkpt>
      <trkpt lat="44.26857" lon="4.63448">
        <ele>64</ele>
        <time>2015-05-04T10:50:04Z</time>
      </trkpt>
      <trkpt lat="44.26867" lon="4.63434">
        <ele>64</ele>
        <time>2015-05-04T10:50:02Z</time>
      </trkpt>
      <trkpt lat="44.26882" lon="4.63415">
        <ele>65</ele>
        <time>2015-05-04T10:49:59Z</time>
      </trkpt>
      <trkpt lat="44.26897" lon="4.63395">
        <ele>65</ele>
        <time>2015-05-04T10:49:56Z</time>
      </trkpt>
      <trkpt lat="44.26913" lon="4.63376">
        <ele>66</ele>
        <time>2015-05-04T10:49:53Z</time>
      </trkpt>
      <trkpt lat="44.26928" lon="4.63357">
        <ele>65</ele>
        <time>2015-05-04T10:49:50Z</time>
      </trkpt>
      <trkpt lat="44.26938" lon="4.63344">
        <ele>65</ele>
        <time>2015-05-04T10:49:48Z</time>
      </trkpt>
      <trkpt lat="44.26953" lon="4.63325">
        <ele>66</ele>
        <time>2015-05-04T10:49:45Z</time>
      </trkpt>
      <trkpt lat="44.26963" lon="4.63312">
        <ele>66</ele>
        <time>2015-05-04T10:49:43Z</time>
      </trkpt>
      <trkpt lat="44.26973" lon="4.633">
        <ele>67</ele>
        <time>2015-05-04T10:49:41Z</time>
      </trkpt>
      <trkpt lat="44.26986" lon="4.63282">
        <ele>67</ele>
        <time>2015-05-04T10:49:38Z</time>
      </trkpt>
      <trkpt lat="44.27" lon="4.63264">
        <ele>66</ele>
        <time>2015-05-04T10:49:35Z</time>
      </trkpt>
      <trkpt lat="44.2701" lon="4.63251">
        <ele>66</ele>
        <time>2015-05-04T10:49:33Z</time>
      </trkpt>
      <trkpt lat="44.2702" lon="4.63239">
        <ele>67</ele>
        <time>2015-05-04T10:49:31Z</time>
      </trkpt>
      <trkpt lat="44.27034" lon="4.6322">
        <ele>67</ele>
        <time>2015-05-04T10:49:28Z</time>
      </trkpt>
      <trkpt lat="44.27044" lon="4.63208">
        <ele>66</ele>
        <time>2015-05-04T10:49:26Z</time>
      </trkpt>
      <trkpt lat="44.27053" lon="4.63196">
        <ele>66</ele>
        <time>2015-05-04T10:49:24Z</time>
      </trkpt>
      <trkpt lat="44.27063" lon="4.63183">
        <ele>66</ele>
        <time>2015-05-04T10:49:22Z</time>
      </trkpt>
      <trkpt lat="44.27072" lon="4.63171">
        <ele>66</ele>
        <time>2015-05-04T10:49:20Z</time>
      </trkpt>
      <trkpt lat="44.27082" lon="4.63159">
        <ele>66</ele>
        <time>2015-05-04T10:49:18Z</time>
      </trkpt>
      <trkpt lat="44.27095" lon="4.63141">
        <ele>65</ele>
        <time>2015-05-04T10:49:15Z</time>
      </trkpt>
      <trkpt lat="44.27105" lon="4.63129">
        <ele>64</ele>
        <time>2015-05-04T10:49:13Z</time>
      </trkpt>
      <trkpt lat="44.27119" lon="4.63111">
        <ele>64</ele>
        <time>2015-05-04T10:49:10Z</time>
      </trkpt>
      <trkpt lat="44.27133" lon="4.63092">
        <ele>64</ele>
        <time>2015-05-04T10:49:07Z</time>
      </trkpt>
      <trkpt lat="44.27142" lon="4.6308">
        <ele>66</ele>
        <time>2015-05-04T10:49:05Z</time>
      </trkpt>
      <trkpt lat="44.27156" lon="4.63061">
        <ele>66</ele>
        <time>2015-05-04T10:49:02Z</time>
      </trkpt>
      <trkpt lat="44.27171" lon="4.63043">
        <ele>64</ele>
        <time>2015-05-04T10:48:59Z</time>
      </trkpt>
      <trkpt lat="44.27185" lon="4.63025">
        <ele>64</ele>
        <time>2015-05-04T10:48:56Z</time>
      </trkpt>
      <trkpt lat="44.27199" lon="4.63007">
        <ele>64</ele>
        <time>2015-05-04T10:48:53Z</time>
      </trkpt>
      <trkpt lat="44.27213" lon="4.62989">
        <ele>65</ele>
        <time>2015-05-04T10:48:50Z</time>
      </trkpt>
      <trkpt lat="44.27227" lon="4.62971">
        <ele>65</ele>
        <time>2015-05-04T10:48:47Z</time>
      </trkpt>
      <trkpt lat="44.27241" lon="4.62953">
        <ele>65</ele>
        <time>2015-05-04T10:48:44Z</time>
      </trkpt>
      <trkpt lat="44.27255" lon="4.62934">
        <ele>62</ele>
        <time>2015-05-04T10:48:41Z</time>
      </trkpt>
      <trkpt lat="44.27263" lon="4.62923">
        <ele>62</ele>
        <time>2015-05-04T10:48:39Z</time>
      </trkpt>
      <trkpt lat="44.27273" lon="4.62904">
        <ele>64</ele>
        <time>2015-05-04T10:48:36Z</time>
      </trkpt>
      <trkpt lat="44.27282" lon="4.62884">
        <ele>64</ele>
        <time>2015-05-04T10:48:33Z</time>
      </trkpt>
      <trkpt lat="44.27292" lon="4.62864">
        <ele>64</ele>
        <time>2015-05-04T10:48:30Z</time>
      </trkpt>
      <trkpt lat="44.273" lon="4.62843">
        <ele>65</ele>
        <time>2015-05-04T10:48:27Z</time>
      </trkpt>
      <trkpt lat="44.27309" lon="4.62822">
        <ele>67</ele>
        <time>2015-05-04T10:48:24Z</time>
      </trkpt>
      <trkpt lat="44.27319" lon="4.62801">
        <ele>67</ele>
        <time>2015-05-04T10:48:21Z</time>
      </trkpt>
      <trkpt lat="44.27327" lon="4.62787">
        <ele>67</ele>
        <time>2015-05-04T10:48:19Z</time>
      </trkpt>
      <trkpt lat="44.27333" lon="4.62773">
        <ele>67</ele>
        <time>2015-05-04T10:48:17Z</time>
      </trkpt>
      <trkpt lat="44.27344" lon="4.62751">
        <ele>65</ele>
        <time>2015-05-04T10:48:14Z</time>
      </trkpt>
      <trkpt lat="44.27353" lon="4.62729">
        <ele>66</ele>
        <time>2015-05-04T10:48:11Z</time>
      </trkpt>
      <trkpt lat="44.2736" lon="4.62715">
        <ele>66</ele>
        <time>2015-05-04T10:48:09Z</time>
      </trkpt>
      <trkpt lat="44.27366" lon="4.62701">
        <ele>66</ele>
        <time>2015-05-04T10:48:07Z</time>
      </trkpt>
      <trkpt lat="44.27372" lon="4.62686">
        <ele>66</ele>
        <time>2015-05-04T10:48:05Z</time>
      </trkpt>
      <trkpt lat="44.27382" lon="4.62663">
        <ele>67</ele>
        <time>2015-05-04T10:48:02Z</time>
      </trkpt>
      <trkpt lat="44.27388" lon="4.62648">
        <ele>67</ele>
        <time>2015-05-04T10:48:00Z</time>
      </trkpt>
      <trkpt lat="44.27396" lon="4.62628">
        <ele>67</ele>
        <time>2015-05-04T10:47:57Z</time>
      </trkpt>
      <trkpt lat="44.27402" lon="4.62615">
        <ele>67</ele>
        <time>2015-05-04T10:47:55Z</time>
      </trkpt>
      <trkpt lat="44.27411" lon="4.62595">
        <ele>66</ele>
        <time>2015-05-04T10:47:52Z</time>
      </trkpt>
      <trkpt lat="44.27417" lon="4.62582">
        <ele>64</ele>
        <time>2015-05-04T10:47:50Z</time>
      </trkpt>
      <trkpt lat="44.27423" lon="4.6257">
        <ele>64</ele>
        <time>2015-05-04T10:47:48Z</time>
      </trkpt>
      <trkpt lat="44.27428" lon="4.62557">
        <ele>64</ele>
        <time>2015-05-04T10:47:46Z</time>
      </trkpt>
      <trkpt lat="44.27434" lon="4.62544">
        <ele>64</ele>
        <time>2015-05-04T10:47:44Z</time>
      </trkpt>
      <trkpt lat="44.2744" lon="4.62532">
        <ele>64</ele>
        <time>2015-05-04T10:47:42Z</time>
      </trkpt>
      <trkpt lat="44.27448" lon="4.62513">
        <ele>64</ele>
        <time>2015-05-04T10:47:39Z</time>
      </trkpt>
      <trkpt lat="44.27453" lon="4.62502">
        <ele>64</ele>
        <time>2015-05-04T10:47:37Z</time>
      </trkpt>
      <trkpt lat="44.27459" lon="4.6249">
        <ele>65</ele>
        <time>2015-05-04T10:47:35Z</time>
      </trkpt>
      <trkpt lat="44.27467" lon="4.62472">
        <ele>65</ele>
        <time>2015-05-04T10:47:32Z</time>
      </trkpt>
      <trkpt lat="44.27472" lon="4.62461">
        <ele>65</ele>
        <time>2015-05-04T10:47:30Z</time>
      </trkpt>
      <trkpt lat="44.27481" lon="4.62443">
        <ele>65</ele>
        <time>2015-05-04T10:47:27Z</time>
      </trkpt>
      <trkpt lat="44.27486" lon="4.62431">
        <ele>65</ele>
        <time>2015-05-04T10:47:25Z</time>
      </trkpt>
      <trkpt lat="44.27495" lon="4.62413">
        <ele>64</ele>
        <time>2015-05-04T10:47:22Z</time>
      </trkpt>
      <trkpt lat="44.27503" lon="4.62396">
        <ele>62</ele>
        <time>2015-05-04T10:47:19Z</time>
      </trkpt>
      <trkpt lat="44.2751" lon="4.62378">
        <ele>62</ele>
        <time>2015-05-04T10:47:16Z</time>
      </trkpt>
      <trkpt lat="44.27515" lon="4.62365">
        <ele>62</ele>
        <time>2015-05-04T10:47:14Z</time>
      </trkpt>
      <trkpt lat="44.27519" lon="4.62351">
        <ele>62</ele>
        <time>2015-05-04T10:47:12Z</time>
      </trkpt>
      <trkpt lat="44.27526" lon="4.62329">
        <ele>62</ele>
        <time>2015-05-04T10:47:09Z</time>
      </trkpt>
      <trkpt lat="44.2753" lon="4.62314">
        <ele>62</ele>
        <time>2015-05-04T10:47:07Z</time>
      </trkpt>
      <trkpt lat="44.27528" lon="4.62288">
        <ele>62</ele>
        <time>2015-05-04T10:47:04Z</time>
      </trkpt>
      <trkpt lat="44.27526" lon="4.62262">
        <ele>62</ele>
        <time>2015-05-04T10:47:01Z</time>
      </trkpt>
      <trkpt lat="44.27525" lon="4.62246">
        <ele>62</ele>
        <time>2015-05-04T10:46:59Z</time>
      </trkpt>
      <trkpt lat="44.27524" lon="4.62221">
        <ele>61</ele>
        <time>2015-05-04T10:46:56Z</time>
      </trkpt>
      <trkpt lat="44.27522" lon="4.62196">
        <ele>61</ele>
        <time>2015-05-04T10:46:53Z</time>
      </trkpt>
      <trkpt lat="44.27521" lon="4.62179">
        <ele>62</ele>
        <time>2015-05-04T10:46:51Z</time>
      </trkpt>
      <trkpt lat="44.2752" lon="4.62163">
        <ele>61</ele>
        <time>2015-05-04T10:46:49Z</time>
      </trkpt>
      <trkpt lat="44.27519" lon="4.62147">
        <ele>61</ele>
        <time>2015-05-04T10:46:47Z</time>
      </trkpt>
      <trkpt lat="44.27518" lon="4.6213">
        <ele>61</ele>
        <time>2015-05-04T10:46:45Z</time>
      </trkpt>
      <trkpt lat="44.27516" lon="4.62105">
        <ele>61</ele>
        <time>2015-05-04T10:46:42Z</time>
      </trkpt>
      <trkpt lat="44.27515" lon="4.62088">
        <ele>61</ele>
        <time>2015-05-04T10:46:40Z</time>
      </trkpt>
      <trkpt lat="44.27513" lon="4.62062">
        <ele>61</ele>
        <time>2015-05-04T10:46:37Z</time>
      </trkpt>
      <trkpt lat="44.27511" lon="4.62036">
        <ele>60</ele>
        <time>2015-05-04T10:46:34Z</time>
      </trkpt>
      <trkpt lat="44.2751" lon="4.6201">
        <ele>61</ele>
        <time>2015-05-04T10:46:31Z</time>
      </trkpt>
      <trkpt lat="44.27508" lon="4.61984">
        <ele>60</ele>
        <time>2015-05-04T10:46:28Z</time>
      </trkpt>
      <trkpt lat="44.27507" lon="4.61958">
        <ele>60</ele>
        <time>2015-05-04T10:46:25Z</time>
      </trkpt>
      <trkpt lat="44.27505" lon="4.61932">
        <ele>61</ele>
        <time>2015-05-04T10:46:22Z</time>
      </trkpt>
      <trkpt lat="44.27503" lon="4.61905">
        <ele>61</ele>
        <time>2015-05-04T10:46:19Z</time>
      </trkpt>
      <trkpt lat="44.27502" lon="4.61887">
        <ele>60</ele>
        <time>2015-05-04T10:46:17Z</time>
      </trkpt>
      <trkpt lat="44.27501" lon="4.61868">
        <ele>59</ele>
        <time>2015-05-04T10:46:15Z</time>
      </trkpt>
      <trkpt lat="44.27499" lon="4.61841">
        <ele>60</ele>
        <time>2015-05-04T10:46:12Z</time>
      </trkpt>
      <trkpt lat="44.27498" lon="4.61823">
        <ele>60</ele>
        <time>2015-05-04T10:46:10Z</time>
      </trkpt>
      <trkpt lat="44.27496" lon="4.61796">
        <ele>60</ele>
        <time>2015-05-04T10:46:07Z</time>
      </trkpt>
      <trkpt lat="44.27494" lon="4.61778">
        <ele>60</ele>
        <time>2015-05-04T10:46:05Z</time>
      </trkpt>
      <trkpt lat="44.27493" lon="4.61751">
        <ele>59</ele>
        <time>2015-05-04T10:46:02Z</time>
      </trkpt>
      <trkpt lat="44.27492" lon="4.61733">
        <ele>59</ele>
        <time>2015-05-04T10:46:00Z</time>
      </trkpt>
      <trkpt lat="44.2749" lon="4.61705">
        <ele>59</ele>
        <time>2015-05-04T10:45:57Z</time>
      </trkpt>
      <trkpt lat="44.27488" lon="4.61677">
        <ele>59</ele>
        <time>2015-05-04T10:45:54Z</time>
      </trkpt>
      <trkpt lat="44.27486" lon="4.61659">
        <ele>58</ele>
        <time>2015-05-04T10:45:52Z</time>
      </trkpt>
      <trkpt lat="44.27485" lon="4.61641">
        <ele>58</ele>
        <time>2015-05-04T10:45:50Z</time>
      </trkpt>
      <trkpt lat="44.27483" lon="4.61613">
        <ele>57</ele>
        <time>2015-05-04T10:45:47Z</time>
      </trkpt>
      <trkpt lat="44.27482" lon="4.61585">
        <ele>57</ele>
        <time>2015-05-04T10:45:44Z</time>
      </trkpt>
      <trkpt lat="44.2748" lon="4.61557">
        <ele>56</ele>
        <time>2015-05-04T10:45:41Z</time>
      </trkpt>
      <trkpt lat="44.27478" lon="4.61528">
        <ele>56</ele>
        <time>2015-05-04T10:45:38Z</time>
      </trkpt>
      <trkpt lat="44.27476" lon="4.615">
        <ele>55</ele>
        <time>2015-05-04T10:45:35Z</time>
      </trkpt>
      <trkpt lat="44.27475" lon="4.61481">
        <ele>55</ele>
        <time>2015-05-04T10:45:33Z</time>
      </trkpt>
      <trkpt lat="44.27473" lon="4.61453">
        <ele>54</ele>
        <time>2015-05-04T10:45:30Z</time>
      </trkpt>
      <trkpt lat="44.27472" lon="4.61434">
        <ele>54</ele>
        <time>2015-05-04T10:45:28Z</time>
      </trkpt>
      <trkpt lat="44.2747" lon="4.61415">
        <ele>54</ele>
        <time>2015-05-04T10:45:26Z</time>
      </trkpt>
      <trkpt lat="44.27469" lon="4.61387">
        <ele>54</ele>
        <time>2015-05-04T10:45:23Z</time>
      </trkpt>
      <trkpt lat="44.27467" lon="4.61359">
        <ele>54</ele>
        <time>2015-05-04T10:45:20Z</time>
      </trkpt>
      <trkpt lat="44.27465" lon="4.61332">
        <ele>54</ele>
        <time>2015-05-04T10:45:17Z</time>
      </trkpt>
      <trkpt lat="44.27463" lon="4.61305">
        <ele>54</ele>
        <time>2015-05-04T10:45:14Z</time>
      </trkpt>
      <trkpt lat="44.27461" lon="4.61278">
        <ele>54</ele>
        <time>2015-05-04T10:45:11Z</time>
      </trkpt>
      <trkpt lat="44.2746" lon="4.6126">
        <ele>54</ele>
        <time>2015-05-04T10:45:09Z</time>
      </trkpt>
      <trkpt lat="44.27458" lon="4.61232">
        <ele>54</ele>
        <time>2015-05-04T10:45:06Z</time>
      </trkpt>
      <trkpt lat="44.27457" lon="4.61213">
        <ele>54</ele>
        <time>2015-05-04T10:45:04Z</time>
      </trkpt>
      <trkpt lat="44.27455" lon="4.61186">
        <ele>54</ele>
        <time>2015-05-04T10:45:01Z</time>
      </trkpt>
      <trkpt lat="44.27453" lon="4.61168">
        <ele>54</ele>
        <time>2015-05-04T10:44:59Z</time>
      </trkpt>
      <trkpt lat="44.27451" lon="4.61142">
        <ele>54</ele>
        <time>2015-05-04T10:44:56Z</time>
      </trkpt>
      <trkpt lat="44.27449" lon="4.61115">
        <ele>54</ele>
        <time>2015-05-04T10:44:53Z</time>
      </trkpt>
      <trkpt lat="44.27447" lon="4.61089">
        <ele>54</ele>
        <time>2015-05-04T10:44:50Z</time>
      </trkpt>
      <trkpt lat="44.27446" lon="4.61071">
        <ele>54</ele>
        <time>2015-05-04T10:44:48Z</time>
      </trkpt>
      <trkpt lat="44.27444" lon="4.61045">
        <ele>54</ele>
        <time>2015-05-04T10:44:45Z</time>
      </trkpt>
      <trkpt lat="44.27443" lon="4.61027">
        <ele>54</ele>
        <time>2015-05-04T10:44:43Z</time>
      </trkpt>
      <trkpt lat="44.27442" lon="4.61009">
        <ele>54</ele>
        <time>2015-05-04T10:44:41Z</time>
      </trkpt>
      <trkpt lat="44.2744" lon="4.60982">
        <ele>54</ele>
        <time>2015-05-04T10:44:38Z</time>
      </trkpt>
      <trkpt lat="44.27439" lon="4.60964">
        <ele>54</ele>
        <time>2015-05-04T10:44:36Z</time>
      </trkpt>
      <trkpt lat="44.27437" lon="4.60937">
        <ele>54</ele>
        <time>2015-05-04T10:44:33Z</time>
      </trkpt>
      <trkpt lat="44.27435" lon="4.60909">
        <ele>54</ele>
        <time>2015-05-04T10:44:30Z</time>
      </trkpt>
      <trkpt lat="44.27433" lon="4.60881">
        <ele>54</ele>
        <time>2015-05-04T10:44:27Z</time>
      </trkpt>
      <trkpt lat="44.27432" lon="4.60852">
        <ele>54</ele>
        <time>2015-05-04T10:44:24Z</time>
      </trkpt>
      <trkpt lat="44.27429" lon="4.60823">
        <ele>54</ele>
        <time>2015-05-04T10:44:21Z</time>
      </trkpt>
      <trkpt lat="44.27428" lon="4.60803">
        <ele>54</ele>
        <time>2015-05-04T10:44:19Z</time>
      </trkpt>
      <trkpt lat="44.27426" lon="4.60784">
        <ele>54</ele>
        <time>2015-05-04T10:44:17Z</time>
      </trkpt>
      <trkpt lat="44.27425" lon="4.60764">
        <ele>54</ele>
        <time>2015-05-04T10:44:15Z</time>
      </trkpt>
      <trkpt lat="44.27424" lon="4.60744">
        <ele>55</ele>
        <time>2015-05-04T10:44:13Z</time>
      </trkpt>
      <trkpt lat="44.27423" lon="4.60725">
        <ele>54</ele>
        <time>2015-05-04T10:44:11Z</time>
      </trkpt>
      <trkpt lat="44.27421" lon="4.60696">
        <ele>55</ele>
        <time>2015-05-04T10:44:08Z</time>
      </trkpt>
      <trkpt lat="44.27419" lon="4.60667">
        <ele>56</ele>
        <time>2015-05-04T10:44:05Z</time>
      </trkpt>
      <trkpt lat="44.27417" lon="4.60638">
        <ele>54</ele>
        <time>2015-05-04T10:44:02Z</time>
      </trkpt>
      <trkpt lat="44.27416" lon="4.60609">
        <ele>55</ele>
        <time>2015-05-04T10:43:59Z</time>
      </trkpt>
      <trkpt lat="44.27415" lon="4.60591">
        <ele>54</ele>
        <time>2015-05-04T10:43:57Z</time>
      </trkpt>
      <trkpt lat="44.27413" lon="4.60563">
        <ele>53</ele>
        <time>2015-05-04T10:43:54Z</time>
      </trkpt>
      <trkpt lat="44.27411" lon="4.60534">
        <ele>53</ele>
        <time>2015-05-04T10:43:51Z</time>
      </trkpt>
      <trkpt lat="44.27409" lon="4.60506">
        <ele>52</ele>
        <time>2015-05-04T10:43:48Z</time>
      </trkpt>
      <trkpt lat="44.27406" lon="4.60476">
        <ele>52</ele>
        <time>2015-05-04T10:43:45Z</time>
      </trkpt>
      <trkpt lat="44.27405" lon="4.60446">
        <ele>52</ele>
        <time>2015-05-04T10:43:42Z</time>
      </trkpt>
      <trkpt lat="44.27403" lon="4.60416">
        <ele>52</ele>
        <time>2015-05-04T10:43:39Z</time>
      </trkpt>
      <trkpt lat="44.27401" lon="4.60385">
        <ele>52</ele>
        <time>2015-05-04T10:43:36Z</time>
      </trkpt>
      <trkpt lat="44.27404" lon="4.60356">
        <ele>53</ele>
        <time>2015-05-04T10:43:33Z</time>
      </trkpt>
      <trkpt lat="44.2741" lon="4.60338">
        <ele>54</ele>
        <time>2015-05-04T10:43:31Z</time>
      </trkpt>
      <trkpt lat="44.27423" lon="4.60315">
        <ele>55</ele>
        <time>2015-05-04T10:43:28Z</time>
      </trkpt>
      <trkpt lat="44.27437" lon="4.60295">
        <ele>55</ele>
        <time>2015-05-04T10:43:25Z</time>
      </trkpt>
      <trkpt lat="44.27447" lon="4.60281">
        <ele>55</ele>
        <time>2015-05-04T10:43:23Z</time>
      </trkpt>
      <trkpt lat="44.27462" lon="4.60262">
        <ele>55</ele>
        <time>2015-05-04T10:43:20Z</time>
      </trkpt>
      <trkpt lat="44.27476" lon="4.60243">
        <ele>56</ele>
        <time>2015-05-04T10:43:17Z</time>
      </trkpt>
      <trkpt lat="44.2749" lon="4.60224">
        <ele>56</ele>
        <time>2015-05-04T10:43:14Z</time>
      </trkpt>
      <trkpt lat="44.27498" lon="4.60211">
        <ele>56</ele>
        <time>2015-05-04T10:43:12Z</time>
      </trkpt>
      <trkpt lat="44.27512" lon="4.60191">
        <ele>56</ele>
        <time>2015-05-04T10:43:09Z</time>
      </trkpt>
      <trkpt lat="44.27521" lon="4.60178">
        <ele>56</ele>
        <time>2015-05-04T10:43:07Z</time>
      </trkpt>
      <trkpt lat="44.2753" lon="4.60166">
        <ele>56</ele>
        <time>2015-05-04T10:43:05Z</time>
      </trkpt>
      <trkpt lat="44.27539" lon="4.60154">
        <ele>56</ele>
        <time>2015-05-04T10:43:03Z</time>
      </trkpt>
      <trkpt lat="44.27552" lon="4.60136">
        <ele>56</ele>
        <time>2015-05-04T10:43:00Z</time>
      </trkpt>
      <trkpt lat="44.27565" lon="4.60117">
        <ele>56</ele>
        <time>2015-05-04T10:42:57Z</time>
      </trkpt>
      <trkpt lat="44.27579" lon="4.60098">
        <ele>56</ele>
        <time>2015-05-04T10:42:54Z</time>
      </trkpt>
      <trkpt lat="44.27593" lon="4.60078">
        <ele>56</ele>
        <time>2015-05-04T10:42:51Z</time>
      </trkpt>
      <trkpt lat="44.27607" lon="4.60059">
        <ele>56</ele>
        <time>2015-05-04T10:42:48Z</time>
      </trkpt>
      <trkpt lat="44.2762" lon="4.6004">
        <ele>57</ele>
        <time>2015-05-04T10:42:45Z</time>
      </trkpt>
      <trkpt lat="44.2763" lon="4.60027">
        <ele>57</ele>
        <time>2015-05-04T10:42:43Z</time>
      </trkpt>
      <trkpt lat="44.27638" lon="4.60015">
        <ele>57</ele>
        <time>2015-05-04T10:42:41Z</time>
      </trkpt>
      <trkpt lat="44.27652" lon="4.59996">
        <ele>57</ele>
        <time>2015-05-04T10:42:38Z</time>
      </trkpt>
      <trkpt lat="44.27665" lon="4.59977">
        <ele>57</ele>
        <time>2015-05-04T10:42:35Z</time>
      </trkpt>
      <trkpt lat="44.27674" lon="4.59965">
        <ele>56</ele>
        <time>2015-05-04T10:42:33Z</time>
      </trkpt>
      <trkpt lat="44.27687" lon="4.59946">
        <ele>56</ele>
        <time>2015-05-04T10:42:30Z</time>
      </trkpt>
      <trkpt lat="44.277" lon="4.59927">
        <ele>56</ele>
        <time>2015-05-04T10:42:27Z</time>
      </trkpt>
      <trkpt lat="44.27713" lon="4.59909">
        <ele>55</ele>
        <time>2015-05-04T10:42:24Z</time>
      </trkpt>
      <trkpt lat="44.27726" lon="4.5989">
        <ele>55</ele>
        <time>2015-05-04T10:42:21Z</time>
      </trkpt>
      <trkpt lat="44.27735" lon="4.59878">
        <ele>55</ele>
        <time>2015-05-04T10:42:19Z</time>
      </trkpt>
      <trkpt lat="44.27748" lon="4.59859">
        <ele>55</ele>
        <time>2015-05-04T10:42:16Z</time>
      </trkpt>
      <trkpt lat="44.27761" lon="4.59841">
        <ele>56</ele>
        <time>2015-05-04T10:42:13Z</time>
      </trkpt>
      <trkpt lat="44.2777" lon="4.59828">
        <ele>56</ele>
        <time>2015-05-04T10:42:11Z</time>
      </trkpt>
      <trkpt lat="44.27779" lon="4.59816">
        <ele>56</ele>
        <time>2015-05-04T10:42:09Z</time>
      </trkpt>
      <trkpt lat="44.27792" lon="4.59797">
        <ele>56</ele>
        <time>2015-05-04T10:42:06Z</time>
      </trkpt>
      <trkpt lat="44.27805" lon="4.59779">
        <ele>56</ele>
        <time>2015-05-04T10:42:03Z</time>
      </trkpt>
      <trkpt lat="44.27818" lon="4.5976">
        <ele>56</ele>
        <time>2015-05-04T10:42:00Z</time>
      </trkpt>
      <trkpt lat="44.27827" lon="4.59748">
        <ele>56</ele>
        <time>2015-05-04T10:41:58Z</time>
      </trkpt>
      <trkpt lat="44.27836" lon="4.59736">
        <ele>56</ele>
        <time>2015-05-04T10:41:56Z</time>
      </trkpt>
      <trkpt lat="44.27849" lon="4.59717">
        <ele>55</ele>
        <time>2015-05-04T10:41:53Z</time>
      </trkpt>
      <trkpt lat="44.27862" lon="4.59699">
        <ele>55</ele>
        <time>2015-05-04T10:41:50Z</time>
      </trkpt>
      <trkpt lat="44.27876" lon="4.5968">
        <ele>55</ele>
        <time>2015-05-04T10:41:47Z</time>
      </trkpt>
      <trkpt lat="44.27889" lon="4.59661">
        <ele>53</ele>
        <time>2015-05-04T10:41:44Z</time>
      </trkpt>
      <trkpt lat="44.27903" lon="4.59642">
        <ele>53</ele>
        <time>2015-05-04T10:41:41Z</time>
      </trkpt>
      <trkpt lat="44.27917" lon="4.59622">
        <ele>53</ele>
        <time>2015-05-04T10:41:38Z</time>
      </trkpt>
      <trkpt lat="44.27931" lon="4.59603">
        <ele>53</ele>
        <time>2015-05-04T10:41:35Z</time>
      </trkpt>
      <trkpt lat="44.27945" lon="4.59584">
        <ele>53</ele>
        <time>2015-05-04T10:41:32Z</time>
      </trkpt>
      <trkpt lat="44.27954" lon="4.59571">
        <ele>52</ele>
        <time>2015-05-04T10:41:30Z</time>
      </trkpt>
      <trkpt lat="44.27963" lon="4.59558">
        <ele>52</ele>
        <time>2015-05-04T10:41:28Z</time>
      </trkpt>
      <trkpt lat="44.27977" lon="4.59539">
        <ele>52</ele>
        <time>2015-05-04T10:41:25Z</time>
      </trkpt>
      <trkpt lat="44.27991" lon="4.59519">
        <ele>52</ele>
        <time>2015-05-04T10:41:22Z</time>
      </trkpt>
      <trkpt lat="44.28005" lon="4.59499">
        <ele>52</ele>
        <time>2015-05-04T10:41:19Z</time>
      </trkpt>
      <trkpt lat="44.28019" lon="4.59479">
        <ele>52</ele>
        <time>2015-05-04T10:41:16Z</time>
      </trkpt>
      <trkpt lat="44.28033" lon="4.59458">
        <ele>52</ele>
        <time>2015-05-04T10:41:13Z</time>
      </trkpt>
      <trkpt lat="44.28047" lon="4.59437">
        <ele>52</ele>
        <time>2015-05-04T10:41:10Z</time>
      </trkpt>
      <trkpt lat="44.28061" lon="4.59415">
        <ele>54</ele>
        <time>2015-05-04T10:41:07Z</time>
      </trkpt>
      <trkpt lat="44.28072" lon="4.59391">
        <ele>54</ele>
        <time>2015-05-04T10:41:04Z</time>
      </trkpt>
      <trkpt lat="44.28079" lon="4.59374">
        <ele>54</ele>
        <time>2015-05-04T10:41:02Z</time>
      </trkpt>
      <trkpt lat="44.28085" lon="4.59347">
        <ele>53</ele>
        <time>2015-05-04T10:40:59Z</time>
      </trkpt>
      <trkpt lat="44.2809" lon="4.59319">
        <ele>54</ele>
        <time>2015-05-04T10:40:56Z</time>
      </trkpt>
      <trkpt lat="44.28092" lon="4.59289">
        <ele>54</ele>
        <time>2015-05-04T10:40:53Z</time>
      </trkpt>
      <trkpt lat="44.28093" lon="4.59259">
        <ele>54</ele>
        <time>2015-05-04T10:40:50Z</time>
      </trkpt>
      <trkpt lat="44.28094" lon="4.59229">
        <ele>54</ele>
        <time>2015-05-04T10:40:47Z</time>
      </trkpt>
      <trkpt lat="44.28095" lon="4.59198">
        <ele>54</ele>
        <time>2015-05-04T10:40:44Z</time>
      </trkpt>
      <trkpt lat="44.28095" lon="4.59168">
        <ele>55</ele>
        <time>2015-05-04T10:40:41Z</time>
      </trkpt>
      <trkpt lat="44.28096" lon="4.59138">
        <ele>55</ele>
        <time>2015-05-04T10:40:38Z</time>
      </trkpt>
      <trkpt lat="44.28097" lon="4.59119">
        <ele>55</ele>
        <time>2015-05-04T10:40:36Z</time>
      </trkpt>
      <trkpt lat="44.28099" lon="4.591">
        <ele>55</ele>
        <time>2015-05-04T10:40:34Z</time>
      </trkpt>
      <trkpt lat="44.28103" lon="4.59082">
        <ele>56</ele>
        <time>2015-05-04T10:40:32Z</time>
      </trkpt>
      <trkpt lat="44.28111" lon="4.59056">
        <ele>56</ele>
        <time>2015-05-04T10:40:29Z</time>
      </trkpt>
      <trkpt lat="44.28118" lon="4.5904">
        <ele>56</ele>
        <time>2015-05-04T10:40:27Z</time>
      </trkpt>
      <trkpt lat="44.2813" lon="4.59017">
        <ele>57</ele>
        <time>2015-05-04T10:40:24Z</time>
      </trkpt>
      <trkpt lat="44.28141" lon="4.58994">
        <ele>58</ele>
        <time>2015-05-04T10:40:21Z</time>
      </trkpt>
      <trkpt lat="44.28147" lon="4.58978">
        <ele>58</ele>
        <time>2015-05-04T10:40:19Z</time>
      </trkpt>
      <trkpt lat="44.28153" lon="4.58951">
        <ele>58</ele>
        <time>2015-05-04T10:40:16Z</time>
      </trkpt>
      <trkpt lat="44.28155" lon="4.58934">
        <ele>58</ele>
        <time>2015-05-04T10:40:14Z</time>
      </trkpt>
      <trkpt lat="44.28158" lon="4.58907">
        <ele>58</ele>
        <time>2015-05-04T10:40:11Z</time>
      </trkpt>
      <trkpt lat="44.28159" lon="4.58881">
        <ele>57</ele>
        <time>2015-05-04T10:40:08Z</time>
      </trkpt>
      <trkpt lat="44.28165" lon="4.58855">
        <ele>57</ele>
        <time>2015-05-04T10:40:05Z</time>
      </trkpt>
      <trkpt lat="44.28172" lon="4.58829">
        <ele>54</ele>
        <time>2015-05-04T10:40:02Z</time>
      </trkpt>
      <trkpt lat="44.2818" lon="4.58813">
        <ele>54</ele>
        <time>2015-05-04T10:40:00Z</time>
      </trkpt>
      <trkpt lat="44.28192" lon="4.58791">
        <ele>53</ele>
        <time>2015-05-04T10:39:57Z</time>
      </trkpt>
      <trkpt lat="44.282" lon="4.58777">
        <ele>53</ele>
        <time>2015-05-04T10:39:55Z</time>
      </trkpt>
      <trkpt lat="44.28214" lon="4.58757">
        <ele>53</ele>
        <time>2015-05-04T10:39:53Z</time>
      </trkpt>
      <trkpt lat="44.28224" lon="4.58743">
        <ele>53</ele>
        <time>2015-05-04T10:39:50Z</time>
      </trkpt>
      <trkpt lat="44.28239" lon="4.58723">
        <ele>53</ele>
        <time>2015-05-04T10:39:47Z</time>
      </trkpt>
      <trkpt lat="44.28248" lon="4.58709">
        <ele>54</ele>
        <time>2015-05-04T10:39:45Z</time>
      </trkpt>
      <trkpt lat="44.28262" lon="4.58687">
        <ele>53</ele>
        <time>2015-05-04T10:39:42Z</time>
      </trkpt>
      <trkpt lat="44.28275" lon="4.58665">
        <ele>53</ele>
        <time>2015-05-04T10:39:39Z</time>
      </trkpt>
      <trkpt lat="44.28287" lon="4.58643">
        <ele>53</ele>
        <time>2015-05-04T10:39:36Z</time>
      </trkpt>
      <trkpt lat="44.28296" lon="4.58628">
        <ele>53</ele>
        <time>2015-05-04T10:39:34Z</time>
      </trkpt>
      <trkpt lat="44.28308" lon="4.58605">
        <ele>53</ele>
        <time>2015-05-04T10:39:31Z</time>
      </trkpt>
      <trkpt lat="44.2832" lon="4.58583">
        <ele>53</ele>
        <time>2015-05-04T10:39:28Z</time>
      </trkpt>
      <trkpt lat="44.28328" lon="4.58568">
        <ele>53</ele>
        <time>2015-05-04T10:39:26Z</time>
      </trkpt>
      <trkpt lat="44.28341" lon="4.58546">
        <ele>52</ele>
        <time>2015-05-04T10:39:23Z</time>
      </trkpt>
      <trkpt lat="44.28353" lon="4.58524">
        <ele>53</ele>
        <time>2015-05-04T10:39:20Z</time>
      </trkpt>
      <trkpt lat="44.28365" lon="4.58501">
        <ele>53</ele>
        <time>2015-05-04T10:39:17Z</time>
      </trkpt>
      <trkpt lat="44.28373" lon="4.58486">
        <ele>54</ele>
        <time>2015-05-04T10:39:15Z</time>
      </trkpt>
      <trkpt lat="44.28386" lon="4.58464">
        <ele>54</ele>
        <time>2015-05-04T10:39:12Z</time>
      </trkpt>
      <trkpt lat="44.28399" lon="4.58441">
        <ele>53</ele>
        <time>2015-05-04T10:39:09Z</time>
      </trkpt>
      <trkpt lat="44.28411" lon="4.58419">
        <ele>52</ele>
        <time>2015-05-04T10:39:06Z</time>
      </trkpt>
      <trkpt lat="44.28424" lon="4.58397">
        <ele>53</ele>
        <time>2015-05-04T10:39:03Z</time>
      </trkpt>
      <trkpt lat="44.28432" lon="4.58382">
        <ele>53</ele>
        <time>2015-05-04T10:39:01Z</time>
      </trkpt>
      <trkpt lat="44.28445" lon="4.58359">
        <ele>53</ele>
        <time>2015-05-04T10:38:58Z</time>
      </trkpt>
      <trkpt lat="44.28453" lon="4.58344">
        <ele>53</ele>
        <time>2015-05-04T10:38:56Z</time>
      </trkpt>
      <trkpt lat="44.28462" lon="4.58328">
        <ele>55</ele>
        <time>2015-05-04T10:38:54Z</time>
      </trkpt>
      <trkpt lat="44.28475" lon="4.58305">
        <ele>55</ele>
        <time>2015-05-04T10:38:51Z</time>
      </trkpt>
      <trkpt lat="44.28488" lon="4.58281">
        <ele>55</ele>
        <time>2015-05-04T10:38:48Z</time>
      </trkpt>
      <trkpt lat="44.28501" lon="4.58258">
        <ele>56</ele>
        <time>2015-05-04T10:38:45Z</time>
      </trkpt>
      <trkpt lat="44.28514" lon="4.58235">
        <ele>56</ele>
        <time>2015-05-04T10:38:42Z</time>
      </trkpt>
      <trkpt lat="44.28526" lon="4.58214">
        <ele>57</ele>
        <time>2015-05-04T10:38:39Z</time>
      </trkpt>
      <trkpt lat="44.28534" lon="4.582">
        <ele>57</ele>
        <time>2015-05-04T10:38:37Z</time>
      </trkpt>
      <trkpt lat="44.28546" lon="4.58179">
        <ele>57</ele>
        <time>2015-05-04T10:38:34Z</time>
      </trkpt>
      <trkpt lat="44.2856" lon="4.58159">
        <ele>57</ele>
        <time>2015-05-04T10:38:31Z</time>
      </trkpt>
      <trkpt lat="44.28576" lon="4.5814">
        <ele>57</ele>
        <time>2015-05-04T10:38:28Z</time>
      </trkpt>
      <trkpt lat="44.28592" lon="4.58122">
        <ele>56</ele>
        <time>2015-05-04T10:38:25Z</time>
      </trkpt>
      <trkpt lat="44.28608" lon="4.58103">
        <ele>56</ele>
        <time>2015-05-04T10:38:22Z</time>
      </trkpt>
      <trkpt lat="44.28624" lon="4.58084">
        <ele>56</ele>
        <time>2015-05-04T10:38:19Z</time>
      </trkpt>
      <trkpt lat="44.2864" lon="4.58065">
        <ele>57</ele>
        <time>2015-05-04T10:38:16Z</time>
      </trkpt>
      <trkpt lat="44.28656" lon="4.58046">
        <ele>57</ele>
        <time>2015-05-04T10:38:13Z</time>
      </trkpt>
      <trkpt lat="44.28667" lon="4.58034">
        <ele>56</ele>
        <time>2015-05-04T10:38:11Z</time>
      </trkpt>
      <trkpt lat="44.28678" lon="4.58021">
        <ele>56</ele>
        <time>2015-05-04T10:38:09Z</time>
      </trkpt>
      <trkpt lat="44.28694" lon="4.58002">
        <ele>56</ele>
        <time>2015-05-04T10:38:06Z</time>
      </trkpt>
      <trkpt lat="44.28705" lon="4.57989">
        <ele>57</ele>
        <time>2015-05-04T10:38:04Z</time>
      </trkpt>
      <trkpt lat="44.28721" lon="4.57971">
        <ele>57</ele>
        <time>2015-05-04T10:38:01Z</time>
      </trkpt>
      <trkpt lat="44.28738" lon="4.57951">
        <ele>57</ele>
        <time>2015-05-04T10:37:58Z</time>
      </trkpt>
      <trkpt lat="44.28754" lon="4.57931">
        <ele>57</ele>
        <time>2015-05-04T10:37:55Z</time>
      </trkpt>
      <trkpt lat="44.28771" lon="4.57912">
        <ele>58</ele>
        <time>2015-05-04T10:37:52Z</time>
      </trkpt>
      <trkpt lat="44.28782" lon="4.57899">
        <ele>57</ele>
        <time>2015-05-04T10:37:50Z</time>
      </trkpt>
      <trkpt lat="44.28799" lon="4.5788">
        <ele>57</ele>
        <time>2015-05-04T10:37:47Z</time>
      </trkpt>
      <trkpt lat="44.28815" lon="4.57861">
        <ele>57</ele>
        <time>2015-05-04T10:37:44Z</time>
      </trkpt>
      <trkpt lat="44.28832" lon="4.57841">
        <ele>56</ele>
        <time>2015-05-04T10:37:41Z</time>
      </trkpt>
      <trkpt lat="44.28849" lon="4.57822">
        <ele>56</ele>
        <time>2015-05-04T10:37:38Z</time>
      </trkpt>
      <trkpt lat="44.28865" lon="4.57801">
        <ele>55</ele>
        <time>2015-05-04T10:37:35Z</time>
      </trkpt>
      <trkpt lat="44.28882" lon="4.5778">
        <ele>56</ele>
        <time>2015-05-04T10:37:32Z</time>
      </trkpt>
      <trkpt lat="44.289" lon="4.5776">
        <ele>56</ele>
        <time>2015-05-04T10:37:29Z</time>
      </trkpt>
      <trkpt lat="44.28917" lon="4.5774">
        <ele>57</ele>
        <time>2015-05-04T10:37:27Z</time>
      </trkpt>
      <trkpt lat="44.28928" lon="4.57726">
        <ele>57</ele>
        <time>2015-05-04T10:37:24Z</time>
      </trkpt>
      <trkpt lat="44.28939" lon="4.57712">
        <ele>57</ele>
        <time>2015-05-04T10:37:22Z</time>
      </trkpt>
      <trkpt lat="44.28951" lon="4.57699">
        <ele>57</ele>
        <time>2015-05-04T10:37:20Z</time>
      </trkpt>
      <trkpt lat="44.28967" lon="4.5768">
        <ele>57</ele>
        <time>2015-05-04T10:37:17Z</time>
      </trkpt>
      <trkpt lat="44.28984" lon="4.5766">
        <ele>58</ele>
        <time>2015-05-04T10:37:14Z</time>
      </trkpt>
      <trkpt lat="44.28996" lon="4.57646">
        <ele>58</ele>
        <time>2015-05-04T10:37:12Z</time>
      </trkpt>
      <trkpt lat="44.29013" lon="4.57624">
        <ele>58</ele>
        <time>2015-05-04T10:37:09Z</time>
      </trkpt>
      <trkpt lat="44.29031" lon="4.57602">
        <ele>58</ele>
        <time>2015-05-04T10:37:06Z</time>
      </trkpt>
      <trkpt lat="44.29049" lon="4.57579">
        <ele>60</ele>
        <time>2015-05-04T10:37:03Z</time>
      </trkpt>
      <trkpt lat="44.29064" lon="4.57553">
        <ele>60</ele>
        <time>2015-05-04T10:37:00Z</time>
      </trkpt>
      <trkpt lat="44.29073" lon="4.57535">
        <ele>61</ele>
        <time>2015-05-04T10:36:58Z</time>
      </trkpt>
      <trkpt lat="44.29081" lon="4.57516">
        <ele>61</ele>
        <time>2015-05-04T10:36:56Z</time>
      </trkpt>
      <trkpt lat="44.29088" lon="4.57498">
        <ele>62</ele>
        <time>2015-05-04T10:36:54Z</time>
      </trkpt>
      <trkpt lat="44.29098" lon="4.57471">
        <ele>61</ele>
        <time>2015-05-04T10:36:51Z</time>
      </trkpt>
      <trkpt lat="44.29108" lon="4.57445">
        <ele>62</ele>
        <time>2015-05-04T10:36:48Z</time>
      </trkpt>
      <trkpt lat="44.29117" lon="4.57419">
        <ele>62</ele>
        <time>2015-05-04T10:36:45Z</time>
      </trkpt>
      <trkpt lat="44.29127" lon="4.57392">
        <ele>63</ele>
        <time>2015-05-04T10:36:42Z</time>
      </trkpt>
      <trkpt lat="44.29137" lon="4.57364">
        <ele>63</ele>
        <time>2015-05-04T10:36:39Z</time>
      </trkpt>
      <trkpt lat="44.29147" lon="4.57337">
        <ele>64</ele>
        <time>2015-05-04T10:36:36Z</time>
      </trkpt>
      <trkpt lat="44.29154" lon="4.57318">
        <ele>65</ele>
        <time>2015-05-04T10:36:34Z</time>
      </trkpt>
      <trkpt lat="44.29164" lon="4.57288">
        <ele>65</ele>
        <time>2015-05-04T10:36:31Z</time>
      </trkpt>
      <trkpt lat="44.29174" lon="4.57258">
        <ele>65</ele>
        <time>2015-05-04T10:36:28Z</time>
      </trkpt>
      <trkpt lat="44.2918" lon="4.57237">
        <ele>66</ele>
        <time>2015-05-04T10:36:26Z</time>
      </trkpt>
      <trkpt lat="44.29188" lon="4.57206">
        <ele>66</ele>
        <time>2015-05-04T10:36:23Z</time>
      </trkpt>
      <trkpt lat="44.29194" lon="4.57185">
        <ele>66</ele>
        <time>2015-05-04T10:36:21Z</time>
      </trkpt>
      <trkpt lat="44.29202" lon="4.57155">
        <ele>66</ele>
        <time>2015-05-04T10:36:18Z</time>
      </trkpt>
      <trkpt lat="44.29207" lon="4.57136">
        <ele>66</ele>
        <time>2015-05-04T10:36:16Z</time>
      </trkpt>
      <trkpt lat="44.29214" lon="4.57107">
        <ele>66</ele>
        <time>2015-05-04T10:36:14Z</time>
      </trkpt>
      <trkpt lat="44.29219" lon="4.57088">
        <ele>66</ele>
        <time>2015-05-04T10:36:11Z</time>
      </trkpt>
      <trkpt lat="44.29226" lon="4.57061">
        <ele>65</ele>
        <time>2015-05-04T10:36:08Z</time>
      </trkpt>
      <trkpt lat="44.2923" lon="4.57042">
        <ele>65</ele>
        <time>2015-05-04T10:36:06Z</time>
      </trkpt>
      <trkpt lat="44.29236" lon="4.57014">
        <ele>66</ele>
        <time>2015-05-04T10:36:03Z</time>
      </trkpt>
      <trkpt lat="44.2924" lon="4.56996">
        <ele>66</ele>
        <time>2015-05-04T10:36:01Z</time>
      </trkpt>
      <trkpt lat="44.29245" lon="4.56978">
        <ele>67</ele>
        <time>2015-05-04T10:35:59Z</time>
      </trkpt>
      <trkpt lat="44.29252" lon="4.56951">
        <ele>67</ele>
        <time>2015-05-04T10:35:56Z</time>
      </trkpt>
      <trkpt lat="44.29259" lon="4.56926">
        <ele>67</ele>
        <time>2015-05-04T10:35:53Z</time>
      </trkpt>
      <trkpt lat="44.29266" lon="4.56901">
        <ele>68</ele>
        <time>2015-05-04T10:35:50Z</time>
      </trkpt>
      <trkpt lat="44.29272" lon="4.56885">
        <ele>68</ele>
        <time>2015-05-04T10:35:48Z</time>
      </trkpt>
      <trkpt lat="44.29277" lon="4.5687">
        <ele>69</ele>
        <time>2015-05-04T10:35:46Z</time>
      </trkpt>
      <trkpt lat="44.29285" lon="4.56848">
        <ele>69</ele>
        <time>2015-05-04T10:35:43Z</time>
      </trkpt>
      <trkpt lat="44.29294" lon="4.56827">
        <ele>70</ele>
        <time>2015-05-04T10:35:40Z</time>
      </trkpt>
      <trkpt lat="44.29303" lon="4.56806">
        <ele>70</ele>
        <time>2015-05-04T10:35:37Z</time>
      </trkpt>
      <trkpt lat="44.29312" lon="4.56787">
        <ele>70</ele>
        <time>2015-05-04T10:35:34Z</time>
      </trkpt>
      <trkpt lat="44.29321" lon="4.56769">
        <ele>70</ele>
        <time>2015-05-04T10:35:31Z</time>
      </trkpt>
      <trkpt lat="44.2933" lon="4.56752">
        <ele>69</ele>
        <time>2015-05-04T10:35:28Z</time>
      </trkpt>
      <trkpt lat="44.2934" lon="4.56735">
        <ele>68</ele>
        <time>2015-05-04T10:35:25Z</time>
      </trkpt>
      <trkpt lat="44.29348" lon="4.56717">
        <ele>69</ele>
        <time>2015-05-04T10:35:22Z</time>
      </trkpt>
      <trkpt lat="44.29355" lon="4.56705">
        <ele>69</ele>
        <time>2015-05-04T10:35:20Z</time>
      </trkpt>
      <trkpt lat="44.29364" lon="4.56686">
        <ele>69</ele>
        <time>2015-05-04T10:35:17Z</time>
      </trkpt>
      <trkpt lat="44.29372" lon="4.56667">
        <ele>69</ele>
        <time>2015-05-04T10:35:14Z</time>
      </trkpt>
      <trkpt lat="44.29378" lon="4.56654">
        <ele>70</ele>
        <time>2015-05-04T10:35:12Z</time>
      </trkpt>
      <trkpt lat="44.29387" lon="4.56636">
        <ele>70</ele>
        <time>2015-05-04T10:35:09Z</time>
      </trkpt>
      <trkpt lat="44.29395" lon="4.56618">
        <ele>70</ele>
        <time>2015-05-04T10:35:06Z</time>
      </trkpt>
      <trkpt lat="44.29402" lon="4.56599">
        <ele>70</ele>
        <time>2015-05-04T10:35:03Z</time>
      </trkpt>
      <trkpt lat="44.29407" lon="4.56585">
        <ele>70</ele>
        <time>2015-05-04T10:35:01Z</time>
      </trkpt>
      <trkpt lat="44.29414" lon="4.56565">
        <ele>70</ele>
        <time>2015-05-04T10:34:58Z</time>
      </trkpt>
      <trkpt lat="44.29419" lon="4.56552">
        <ele>67</ele>
        <time>2015-05-04T10:34:56Z</time>
      </trkpt>
      <trkpt lat="44.29424" lon="4.5654">
        <ele>67</ele>
        <time>2015-05-04T10:34:54Z</time>
      </trkpt>
      <trkpt lat="44.29428" lon="4.56526">
        <ele>67</ele>
        <time>2015-05-04T10:34:52Z</time>
      </trkpt>
      <trkpt lat="44.29433" lon="4.56513">
        <ele>67</ele>
        <time>2015-05-04T10:34:50Z</time>
      </trkpt>
      <trkpt lat="44.2944" lon="4.56494">
        <ele>67</ele>
        <time>2015-05-04T10:34:47Z</time>
      </trkpt>
      <trkpt lat="44.29444" lon="4.5648">
        <ele>66</ele>
        <time>2015-05-04T10:34:45Z</time>
      </trkpt>
      <trkpt lat="44.29449" lon="4.56466">
        <ele>66</ele>
        <time>2015-05-04T10:34:43Z</time>
      </trkpt>
      <trkpt lat="44.29454" lon="4.56447">
        <ele>65</ele>
        <time>2015-05-04T10:34:41Z</time>
      </trkpt>
      <trkpt lat="44.29459" lon="4.56434">
        <ele>65</ele>
        <time>2015-05-04T10:34:38Z</time>
      </trkpt>
      <trkpt lat="44.29462" lon="4.56421">
        <ele>65</ele>
        <time>2015-05-04T10:34:36Z</time>
      </trkpt>
      <trkpt lat="44.29468" lon="4.56402">
        <ele>64</ele>
        <time>2015-05-04T10:34:33Z</time>
      </trkpt>
      <trkpt lat="44.29473" lon="4.56388">
        <ele>64</ele>
        <time>2015-05-04T10:34:31Z</time>
      </trkpt>
      <trkpt lat="44.2948" lon="4.56368">
        <ele>63</ele>
        <time>2015-05-04T10:34:28Z</time>
      </trkpt>
      <trkpt lat="44.29484" lon="4.56354">
        <ele>63</ele>
        <time>2015-05-04T10:34:26Z</time>
      </trkpt>
      <trkpt lat="44.29491" lon="4.56334">
        <ele>61</ele>
        <time>2015-05-04T10:34:23Z</time>
      </trkpt>
      <trkpt lat="44.29495" lon="4.5632">
        <ele>61</ele>
        <time>2015-05-04T10:34:21Z</time>
      </trkpt>
      <trkpt lat="44.295" lon="4.56299">
        <ele>57</ele>
        <time>2015-05-04T10:34:18Z</time>
      </trkpt>
      <trkpt lat="44.29503" lon="4.56284">
        <ele>57</ele>
        <time>2015-05-04T10:34:16Z</time>
      </trkpt>
      <trkpt lat="44.29506" lon="4.5626">
        <ele>57</ele>
        <time>2015-05-04T10:34:13Z</time>
      </trkpt>
      <trkpt lat="44.29508" lon="4.56244">
        <ele>57</ele>
        <time>2015-05-04T10:34:11Z</time>
      </trkpt>
      <trkpt lat="44.29511" lon="4.5622">
        <ele>57</ele>
        <time>2015-05-04T10:34:08Z</time>
      </trkpt>
      <trkpt lat="44.29514" lon="4.56195">
        <ele>56</ele>
        <time>2015-05-04T10:34:05Z</time>
      </trkpt>
      <trkpt lat="44.29517" lon="4.56171">
        <ele>56</ele>
        <time>2015-05-04T10:34:02Z</time>
      </trkpt>
      <trkpt lat="44.2952" lon="4.56146">
        <ele>57</ele>
        <time>2015-05-04T10:33:59Z</time>
      </trkpt>
      <trkpt lat="44.29524" lon="4.56121">
        <ele>57</ele>
        <time>2015-05-04T10:33:56Z</time>
      </trkpt>
      <trkpt lat="44.29527" lon="4.56097">
        <ele>57</ele>
        <time>2015-05-04T10:33:53Z</time>
      </trkpt>
      <trkpt lat="44.29529" lon="4.56081">
        <ele>58</ele>
        <time>2015-05-04T10:33:51Z</time>
      </trkpt>
      <trkpt lat="44.29536" lon="4.56059">
        <ele>59</ele>
        <time>2015-05-04T10:33:48Z</time>
      </trkpt>
      <trkpt lat="44.29545" lon="4.56038">
        <ele>59</ele>
        <time>2015-05-04T10:33:45Z</time>
      </trkpt>
      <trkpt lat="44.29553" lon="4.56017">
        <ele>60</ele>
        <time>2015-05-04T10:33:42Z</time>
      </trkpt>
      <trkpt lat="44.29562" lon="4.56001">
        <ele>60</ele>
        <time>2015-05-04T10:33:39Z</time>
      </trkpt>
      <trkpt lat="44.29572" lon="4.55997">
        <ele>61</ele>
        <time>2015-05-04T10:33:36Z</time>
      </trkpt>
      <trkpt lat="44.29582" lon="4.56006">
        <ele>61</ele>
        <time>2015-05-04T10:33:33Z</time>
      </trkpt>
      <trkpt lat="44.29588" lon="4.56015">
        <ele>63</ele>
        <time>2015-05-04T10:33:31Z</time>
      </trkpt>
      <trkpt lat="44.296" lon="4.56027">
        <ele>64</ele>
        <time>2015-05-04T10:33:29Z</time>
      </trkpt>
      <trkpt lat="44.29607" lon="4.56035">
        <ele>64</ele>
        <time>2015-05-04T10:33:26Z</time>
      </trkpt>
      <trkpt lat="44.29619" lon="4.56048">
        <ele>64</ele>
        <time>2015-05-04T10:33:23Z</time>
      </trkpt>
      <trkpt lat="44.29629" lon="4.56063">
        <ele>64</ele>
        <time>2015-05-04T10:33:20Z</time>
      </trkpt>
      <trkpt lat="44.29641" lon="4.5608">
        <ele>64</ele>
        <time>2015-05-04T10:33:17Z</time>
      </trkpt>
      <trkpt lat="44.29655" lon="4.56096">
        <ele>62</ele>
        <time>2015-05-04T10:33:14Z</time>
      </trkpt>
      <trkpt lat="44.29665" lon="4.56106">
        <ele>62</ele>
        <time>2015-05-04T10:33:12Z</time>
      </trkpt>
      <trkpt lat="44.2968" lon="4.5612">
        <ele>63</ele>
        <time>2015-05-04T10:33:09Z</time>
      </trkpt>
      <trkpt lat="44.29694" lon="4.56137">
        <ele>63</ele>
        <time>2015-05-04T10:33:06Z</time>
      </trkpt>
      <trkpt lat="44.29706" lon="4.56158">
        <ele>62</ele>
        <time>2015-05-04T10:33:04Z</time>
      </trkpt>
      <trkpt lat="44.29711" lon="4.56174">
        <ele>59</ele>
        <time>2015-05-04T10:33:01Z</time>
      </trkpt>
      <trkpt lat="44.29718" lon="4.562">
        <ele>59</ele>
        <time>2015-05-04T10:32:58Z</time>
      </trkpt>
      <trkpt lat="44.29724" lon="4.56225">
        <ele>59</ele>
        <time>2015-05-04T10:32:55Z</time>
      </trkpt>
      <trkpt lat="44.29731" lon="4.56252">
        <ele>58</ele>
        <time>2015-05-04T10:32:52Z</time>
      </trkpt>
      <trkpt lat="44.29737" lon="4.56278">
        <ele>58</ele>
        <time>2015-05-04T10:32:49Z</time>
      </trkpt>
      <trkpt lat="44.29742" lon="4.56296">
        <ele>58</ele>
        <time>2015-05-04T10:32:47Z</time>
      </trkpt>
      <trkpt lat="44.29746" lon="4.56315">
        <ele>58</ele>
        <time>2015-05-04T10:32:45Z</time>
      </trkpt>
      <trkpt lat="44.29752" lon="4.56342">
        <ele>59</ele>
        <time>2015-05-04T10:32:43Z</time>
      </trkpt>
      <trkpt lat="44.29757" lon="4.56361">
        <ele>60</ele>
        <time>2015-05-04T10:32:40Z</time>
      </trkpt>
      <trkpt lat="44.29762" lon="4.56379">
        <ele>59</ele>
        <time>2015-05-04T10:32:38Z</time>
      </trkpt>
      <trkpt lat="44.29766" lon="4.56397">
        <ele>58</ele>
        <time>2015-05-04T10:32:36Z</time>
      </trkpt>
      <trkpt lat="44.29773" lon="4.56425">
        <ele>56</ele>
        <time>2015-05-04T10:32:33Z</time>
      </trkpt>
      <trkpt lat="44.29779" lon="4.56452">
        <ele>57</ele>
        <time>2015-05-04T10:32:30Z</time>
      </trkpt>
      <trkpt lat="44.29787" lon="4.56479">
        <ele>56</ele>
        <time>2015-05-04T10:32:27Z</time>
      </trkpt>
      <trkpt lat="44.29794" lon="4.56508">
        <ele>55</ele>
        <time>2015-05-04T10:32:24Z</time>
      </trkpt>
      <trkpt lat="44.29798" lon="4.56527">
        <ele>55</ele>
        <time>2015-05-04T10:32:22Z</time>
      </trkpt>
      <trkpt lat="44.29806" lon="4.56556">
        <ele>54</ele>
        <time>2015-05-04T10:32:19Z</time>
      </trkpt>
      <trkpt lat="44.29817" lon="4.56585">
        <ele>54</ele>
        <time>2015-05-04T10:32:16Z</time>
      </trkpt>
      <trkpt lat="44.29828" lon="4.56602">
        <ele>54</ele>
        <time>2015-05-04T10:32:14Z</time>
      </trkpt>
      <trkpt lat="44.29849" lon="4.56617">
        <ele>56</ele>
        <time>2015-05-04T10:32:11Z</time>
      </trkpt>
      <trkpt lat="44.29869" lon="4.56626">
        <ele>56</ele>
        <time>2015-05-04T10:32:08Z</time>
      </trkpt>
      <trkpt lat="44.29889" lon="4.56635">
        <ele>56</ele>
        <time>2015-05-04T10:32:05Z</time>
      </trkpt>
      <trkpt lat="44.29907" lon="4.56645">
        <ele>56</ele>
        <time>2015-05-04T10:32:02Z</time>
      </trkpt>
      <trkpt lat="44.29926" lon="4.56656">
        <ele>55</ele>
        <time>2015-05-04T10:31:59Z</time>
      </trkpt>
      <trkpt lat="44.29945" lon="4.56665">
        <ele>54</ele>
        <time>2015-05-04T10:31:57Z</time>
      </trkpt>
      <trkpt lat="44.29958" lon="4.56671">
        <ele>51</ele>
        <time>2015-05-04T10:31:54Z</time>
      </trkpt>
      <trkpt lat="44.29969" lon="4.56678">
        <ele>50</ele>
        <time>2015-05-04T10:31:52Z</time>
      </trkpt>
      <trkpt lat="44.29988" lon="4.56687">
        <ele>49</ele>
        <time>2015-05-04T10:31:49Z</time>
      </trkpt>
      <trkpt lat="44.30006" lon="4.56697">
        <ele>50</ele>
        <time>2015-05-04T10:31:46Z</time>
      </trkpt>
      <trkpt lat="44.30024" lon="4.56705">
        <ele>50</ele>
        <time>2015-05-04T10:31:43Z</time>
      </trkpt>
      <trkpt lat="44.30041" lon="4.56713">
        <ele>51</ele>
        <time>2015-05-04T10:31:40Z</time>
      </trkpt>
      <trkpt lat="44.30057" lon="4.56721">
        <ele>51</ele>
        <time>2015-05-04T10:31:37Z</time>
      </trkpt>
      <trkpt lat="44.30071" lon="4.56728">
        <ele>52</ele>
        <time>2015-05-04T10:31:34Z</time>
      </trkpt>
      <trkpt lat="44.30082" lon="4.56733">
        <ele>53</ele>
        <time>2015-05-04T10:31:32Z</time>
      </trkpt>
      <trkpt lat="44.30087" lon="4.56736">
        <ele>55</ele>
        <time>2015-05-04T10:31:30Z</time>
      </trkpt>
      <trkpt lat="44.30091" lon="4.56738">
        <ele>55</ele>
        <time>2015-05-04T10:31:27Z</time>
      </trkpt>
      <trkpt lat="44.30094" lon="4.5674">
        <ele>55</ele>
        <time>2015-05-04T10:31:25Z</time>
      </trkpt>
      <trkpt lat="44.30096" lon="4.56745">
        <ele>55</ele>
        <time>2015-05-04T10:31:22Z</time>
      </trkpt>
      <trkpt lat="44.30096" lon="4.56747">
        <ele>55</ele>
        <time>2015-05-04T10:31:19Z</time>
      </trkpt>
      <trkpt lat="44.30096" lon="4.56748">
        <ele>55</ele>
        <time>2015-05-04T10:31:17Z</time>
      </trkpt>
      <trkpt lat="44.30095" lon="4.56754">
        <ele>55</ele>
        <time>2015-05-04T10:31:14Z</time>
      </trkpt>
      <trkpt lat="44.30092" lon="4.56765">
        <ele>55</ele>
        <time>2015-05-04T10:31:11Z</time>
      </trkpt>
      <trkpt lat="44.30087" lon="4.56781">
        <ele>55</ele>
        <time>2015-05-04T10:31:08Z</time>
      </trkpt>
      <trkpt lat="44.30082" lon="4.56799">
        <ele>52</ele>
        <time>2015-05-04T10:31:06Z</time>
      </trkpt>
      <trkpt lat="44.30078" lon="4.56811">
        <ele>53</ele>
        <time>2015-05-04T10:31:03Z</time>
      </trkpt>
      <trkpt lat="44.30073" lon="4.56829">
        <ele>53</ele>
        <time>2015-05-04T10:31:00Z</time>
      </trkpt>
      <trkpt lat="44.30068" lon="4.56847">
        <ele>52</ele>
        <time>2015-05-04T10:30:57Z</time>
      </trkpt>
      <trkpt lat="44.30065" lon="4.56858">
        <ele>52</ele>
        <time>2015-05-04T10:30:55Z</time>
      </trkpt>
      <trkpt lat="44.30063" lon="4.56869">
        <ele>51</ele>
        <time>2015-05-04T10:30:53Z</time>
      </trkpt>
      <trkpt lat="44.30058" lon="4.56887">
        <ele>51</ele>
        <time>2015-05-04T10:30:50Z</time>
      </trkpt>
      <trkpt lat="44.30055" lon="4.56897">
        <ele>51</ele>
        <time>2015-05-04T10:30:48Z</time>
      </trkpt>
      <trkpt lat="44.30051" lon="4.56914">
        <ele>51</ele>
        <time>2015-05-04T10:30:45Z</time>
      </trkpt>
      <trkpt lat="44.3005" lon="4.5693">
        <ele>51</ele>
        <time>2015-05-04T10:30:43Z</time>
      </trkpt>
      <trkpt lat="44.3005" lon="4.56939">
        <ele>51</ele>
        <time>2015-05-04T10:30:40Z</time>
      </trkpt>
      <trkpt lat="44.30047" lon="4.56953">
        <ele>51</ele>
        <time>2015-05-04T10:30:37Z</time>
      </trkpt>
      <trkpt lat="44.30042" lon="4.56964">
        <ele>51</ele>
        <time>2015-05-04T10:30:34Z</time>
      </trkpt>
      <trkpt lat="44.30036" lon="4.56963">
        <ele>50</ele>
        <time>2015-05-04T10:30:31Z</time>
      </trkpt>
      <trkpt lat="44.30029" lon="4.56953">
        <ele>50</ele>
        <time>2015-05-04T10:30:28Z</time>
      </trkpt>
      <trkpt lat="44.30023" lon="4.56937">
        <ele>50</ele>
        <time>2015-05-04T10:30:25Z</time>
      </trkpt>
      <trkpt lat="44.30024" lon="4.56917">
        <ele>50</ele>
        <time>2015-05-04T10:30:22Z</time>
      </trkpt>
      <trkpt lat="44.3003" lon="4.56894">
        <ele>50</ele>
        <time>2015-05-04T10:30:19Z</time>
      </trkpt>
      <trkpt lat="44.30037" lon="4.56871">
        <ele>51</ele>
        <time>2015-05-04T10:30:17Z</time>
      </trkpt>
      <trkpt lat="44.30042" lon="4.56854">
        <ele>51</ele>
        <time>2015-05-04T10:30:14Z</time>
      </trkpt>
      <trkpt lat="44.30047" lon="4.56838">
        <ele>51</ele>
        <time>2015-05-04T10:30:12Z</time>
      </trkpt>
      <trkpt lat="44.30054" lon="4.56813">
        <ele>52</ele>
        <time>2015-05-04T10:30:09Z</time>
      </trkpt>
      <trkpt lat="44.30061" lon="4.56787">
        <ele>52</ele>
        <time>2015-05-04T10:30:06Z</time>
      </trkpt>
      <trkpt lat="44.30069" lon="4.56761">
        <ele>53</ele>
        <time>2015-05-04T10:30:03Z</time>
      </trkpt>
      <trkpt lat="44.30074" lon="4.56744">
        <ele>53</ele>
        <time>2015-05-04T10:30:01Z</time>
      </trkpt>
      <trkpt lat="44.30079" lon="4.56728">
        <ele>52</ele>
        <time>2015-05-04T10:29:59Z</time>
      </trkpt>
      <trkpt lat="44.30084" lon="4.56712">
        <ele>54</ele>
        <time>2015-05-04T10:29:57Z</time>
      </trkpt>
      <trkpt lat="44.3009" lon="4.56697">
        <ele>54</ele>
        <time>2015-05-04T10:29:55Z</time>
      </trkpt>
      <trkpt lat="44.30099" lon="4.56673">
        <ele>53</ele>
        <time>2015-05-04T10:29:53Z</time>
      </trkpt>
      <trkpt lat="44.30104" lon="4.56657">
        <ele>52</ele>
        <time>2015-05-04T10:29:51Z</time>
      </trkpt>
      <trkpt lat="44.30108" lon="4.56641">
        <ele>52</ele>
        <time>2015-05-04T10:29:48Z</time>
      </trkpt>
      <trkpt lat="44.30111" lon="4.56626">
        <ele>52</ele>
        <time>2015-05-04T10:29:46Z</time>
      </trkpt>
      <trkpt lat="44.30117" lon="4.56604">
        <ele>51</ele>
        <time>2015-05-04T10:29:43Z</time>
      </trkpt>
      <trkpt lat="44.3012" lon="4.56589">
        <ele>51</ele>
        <time>2015-05-04T10:29:41Z</time>
      </trkpt>
      <trkpt lat="44.30125" lon="4.56565">
        <ele>50</ele>
        <time>2015-05-04T10:29:38Z</time>
      </trkpt>
      <trkpt lat="44.30129" lon="4.56539">
        <ele>50</ele>
        <time>2015-05-04T10:29:35Z</time>
      </trkpt>
      <trkpt lat="44.30135" lon="4.56513">
        <ele>51</ele>
        <time>2015-05-04T10:29:32Z</time>
      </trkpt>
      <trkpt lat="44.3014" lon="4.56487">
        <ele>50</ele>
        <time>2015-05-04T10:29:29Z</time>
      </trkpt>
      <trkpt lat="44.30146" lon="4.56461">
        <ele>50</ele>
        <time>2015-05-04T10:29:27Z</time>
      </trkpt>
      <trkpt lat="44.3015" lon="4.56443">
        <ele>49</ele>
        <time>2015-05-04T10:29:24Z</time>
      </trkpt>
      <trkpt lat="44.30155" lon="4.56426">
        <ele>49</ele>
        <time>2015-05-04T10:29:22Z</time>
      </trkpt>
      <trkpt lat="44.3016" lon="4.56409">
        <ele>50</ele>
        <time>2015-05-04T10:29:20Z</time>
      </trkpt>
      <trkpt lat="44.30168" lon="4.56384">
        <ele>51</ele>
        <time>2015-05-04T10:29:17Z</time>
      </trkpt>
      <trkpt lat="44.30177" lon="4.56359">
        <ele>51</ele>
        <time>2015-05-04T10:29:14Z</time>
      </trkpt>
      <trkpt lat="44.30186" lon="4.56335">
        <ele>52</ele>
        <time>2015-05-04T10:29:11Z</time>
      </trkpt>
      <trkpt lat="44.30197" lon="4.56312">
        <ele>52</ele>
        <time>2015-05-04T10:29:08Z</time>
      </trkpt>
      <trkpt lat="44.3021" lon="4.56289">
        <ele>52</ele>
        <time>2015-05-04T10:29:05Z</time>
      </trkpt>
      <trkpt lat="44.30224" lon="4.56266">
        <ele>52</ele>
        <time>2015-05-04T10:29:03Z</time>
      </trkpt>
      <trkpt lat="44.30233" lon="4.56251">
        <ele>52</ele>
        <time>2015-05-04T10:29:00Z</time>
      </trkpt>
      <trkpt lat="44.30242" lon="4.56236">
        <ele>52</ele>
        <time>2015-05-04T10:28:58Z</time>
      </trkpt>
      <trkpt lat="44.30256" lon="4.56212">
        <ele>53</ele>
        <time>2015-05-04T10:28:55Z</time>
      </trkpt>
      <trkpt lat="44.3027" lon="4.56188">
        <ele>52</ele>
        <time>2015-05-04T10:28:52Z</time>
      </trkpt>
      <trkpt lat="44.3029" lon="4.56171">
        <ele>52</ele>
        <time>2015-05-04T10:28:49Z</time>
      </trkpt>
      <trkpt lat="44.30306" lon="4.5617">
        <ele>52</ele>
        <time>2015-05-04T10:28:47Z</time>
      </trkpt>
      <trkpt lat="44.3032" lon="4.56178">
        <ele>52</ele>
        <time>2015-05-04T10:28:45Z</time>
      </trkpt>
      <trkpt lat="44.3034" lon="4.56197">
        <ele>53</ele>
        <time>2015-05-04T10:28:42Z</time>
      </trkpt>
      <trkpt lat="44.3036" lon="4.56218">
        <ele>54</ele>
        <time>2015-05-04T10:28:40Z</time>
      </trkpt>
      <trkpt lat="44.30373" lon="4.56233">
        <ele>54</ele>
        <time>2015-05-04T10:28:37Z</time>
      </trkpt>
      <trkpt lat="44.30393" lon="4.56254">
        <ele>56</ele>
        <time>2015-05-04T10:28:34Z</time>
      </trkpt>
      <trkpt lat="44.30413" lon="4.56274">
        <ele>56</ele>
        <time>2015-05-04T10:28:31Z</time>
      </trkpt>
      <trkpt lat="44.30426" lon="4.56287">
        <ele>58</ele>
        <time>2015-05-04T10:28:29Z</time>
      </trkpt>
      <trkpt lat="44.30445" lon="4.56307">
        <ele>58</ele>
        <time>2015-05-04T10:28:26Z</time>
      </trkpt>
      <trkpt lat="44.30464" lon="4.56324">
        <ele>58</ele>
        <time>2015-05-04T10:28:23Z</time>
      </trkpt>
      <trkpt lat="44.30477" lon="4.56335">
        <ele>59</ele>
        <time>2015-05-04T10:28:21Z</time>
      </trkpt>
      <trkpt lat="44.30499" lon="4.56341">
        <ele>59</ele>
        <time>2015-05-04T10:28:18Z</time>
      </trkpt>
      <trkpt lat="44.30518" lon="4.56331">
        <ele>61</ele>
        <time>2015-05-04T10:28:16Z</time>
      </trkpt>
      <trkpt lat="44.30528" lon="4.56315">
        <ele>62</ele>
        <time>2015-05-04T10:28:14Z</time>
      </trkpt>
      <trkpt lat="44.30538" lon="4.563">
        <ele>62</ele>
        <time>2015-05-04T10:28:11Z</time>
      </trkpt>
      <trkpt lat="44.30555" lon="4.56279">
        <ele>63</ele>
        <time>2015-05-04T10:28:08Z</time>
      </trkpt>
      <trkpt lat="44.30573" lon="4.5626">
        <ele>63</ele>
        <time>2015-05-04T10:28:05Z</time>
      </trkpt>
      <trkpt lat="44.30585" lon="4.56248">
        <ele>64</ele>
        <time>2015-05-04T10:28:03Z</time>
      </trkpt>
      <trkpt lat="44.30597" lon="4.56237">
        <ele>65</ele>
        <time>2015-05-04T10:28:01Z</time>
      </trkpt>
      <trkpt lat="44.30615" lon="4.5622">
        <ele>65</ele>
        <time>2015-05-04T10:27:58Z</time>
      </trkpt>
      <trkpt lat="44.30627" lon="4.56209">
        <ele>66</ele>
        <time>2015-05-04T10:27:56Z</time>
      </trkpt>
      <trkpt lat="44.30639" lon="4.56197">
        <ele>66</ele>
        <time>2015-05-04T10:27:54Z</time>
      </trkpt>
      <trkpt lat="44.30651" lon="4.56186">
        <ele>66</ele>
        <time>2015-05-04T10:27:52Z</time>
      </trkpt>
      <trkpt lat="44.30668" lon="4.56169">
        <ele>67</ele>
        <time>2015-05-04T10:27:50Z</time>
      </trkpt>
      <trkpt lat="44.3068" lon="4.56158">
        <ele>67</ele>
        <time>2015-05-04T10:27:48Z</time>
      </trkpt>
      <trkpt lat="44.30692" lon="4.56147">
        <ele>68</ele>
        <time>2015-05-04T10:27:45Z</time>
      </trkpt>
      <trkpt lat="44.30703" lon="4.56136">
        <ele>69</ele>
        <time>2015-05-04T10:27:43Z</time>
      </trkpt>
      <trkpt lat="44.3072" lon="4.56118">
        <ele>69</ele>
        <time>2015-05-04T10:27:40Z</time>
      </trkpt>
      <trkpt lat="44.30735" lon="4.561">
        <ele>69</ele>
        <time>2015-05-04T10:27:37Z</time>
      </trkpt>
      <trkpt lat="44.30744" lon="4.56087">
        <ele>70</ele>
        <time>2015-05-04T10:27:35Z</time>
      </trkpt>
      <trkpt lat="44.30758" lon="4.56068">
        <ele>71</ele>
        <time>2015-05-04T10:27:32Z</time>
      </trkpt>
      <trkpt lat="44.30767" lon="4.56055">
        <ele>71</ele>
        <time>2015-05-04T10:27:30Z</time>
      </trkpt>
      <trkpt lat="44.3078" lon="4.56037">
        <ele>71</ele>
        <time>2015-05-04T10:27:28Z</time>
      </trkpt>
      <trkpt lat="44.30788" lon="4.56024">
        <ele>71</ele>
        <time>2015-05-04T10:27:25Z</time>
      </trkpt>
      <trkpt lat="44.30796" lon="4.5601">
        <ele>71</ele>
        <time>2015-05-04T10:27:23Z</time>
      </trkpt>
      <trkpt lat="44.30806" lon="4.55987">
        <ele>69</ele>
        <time>2015-05-04T10:27:20Z</time>
      </trkpt>
      <trkpt lat="44.30813" lon="4.55961">
        <ele>69</ele>
        <time>2015-05-04T10:27:17Z</time>
      </trkpt>
      <trkpt lat="44.30817" lon="4.55942">
        <ele>69</ele>
        <time>2015-05-04T10:27:15Z</time>
      </trkpt>
      <trkpt lat="44.30821" lon="4.55923">
        <ele>69</ele>
        <time>2015-05-04T10:27:13Z</time>
      </trkpt>
      <trkpt lat="44.30828" lon="4.55893">
        <ele>66</ele>
        <time>2015-05-04T10:27:10Z</time>
      </trkpt>
      <trkpt lat="44.30836" lon="4.55863">
        <ele>68</ele>
        <time>2015-05-04T10:27:07Z</time>
      </trkpt>
      <trkpt lat="44.30853" lon="4.5584">
        <ele>67</ele>
        <time>2015-05-04T10:27:04Z</time>
      </trkpt>
      <trkpt lat="44.30876" lon="4.55825">
        <ele>65</ele>
        <time>2015-05-04T10:27:01Z</time>
      </trkpt>
      <trkpt lat="44.30892" lon="4.55816">
        <ele>65</ele>
        <time>2015-05-04T10:26:59Z</time>
      </trkpt>
      <trkpt lat="44.30918" lon="4.55801">
        <ele>69</ele>
        <time>2015-05-04T10:26:56Z</time>
      </trkpt>
      <trkpt lat="44.30945" lon="4.55786">
        <ele>69</ele>
        <time>2015-05-04T10:26:53Z</time>
      </trkpt>
      <trkpt lat="44.30963" lon="4.55776">
        <ele>69</ele>
        <time>2015-05-04T10:26:51Z</time>
      </trkpt>
      <trkpt lat="44.30992" lon="4.55757">
        <ele>70</ele>
        <time>2015-05-04T10:26:48Z</time>
      </trkpt>
      <trkpt lat="44.31021" lon="4.55735">
        <ele>70</ele>
        <time>2015-05-04T10:26:45Z</time>
      </trkpt>
      <trkpt lat="44.31051" lon="4.55714">
        <ele>70</ele>
        <time>2015-05-04T10:26:43Z</time>
      </trkpt>
      <trkpt lat="44.31072" lon="4.55713">
        <ele>71</ele>
        <time>2015-05-04T10:26:40Z</time>
      </trkpt>
      <trkpt lat="44.31094" lon="4.55719">
        <ele>76</ele>
        <time>2015-05-04T10:26:38Z</time>
      </trkpt>
      <trkpt lat="44.31123" lon="4.55726">
        <ele>78</ele>
        <time>2015-05-04T10:26:35Z</time>
      </trkpt>
      <trkpt lat="44.3115" lon="4.55725">
        <ele>79</ele>
        <time>2015-05-04T10:26:32Z</time>
      </trkpt>
      <trkpt lat="44.31174" lon="4.55707">
        <ele>84</ele>
        <time>2015-05-04T10:26:29Z</time>
      </trkpt>
      <trkpt lat="44.31187" lon="4.5569">
        <ele>83</ele>
        <time>2015-05-04T10:26:27Z</time>
      </trkpt>
      <trkpt lat="44.31207" lon="4.55664">
        <ele>78</ele>
        <time>2015-05-04T10:26:24Z</time>
      </trkpt>
      <trkpt lat="44.31221" lon="4.55647">
        <ele>78</ele>
        <time>2015-05-04T10:26:22Z</time>
      </trkpt>
      <trkpt lat="44.31236" lon="4.55629">
        <ele>78</ele>
        <time>2015-05-04T10:26:20Z</time>
      </trkpt>
      <trkpt lat="44.3126" lon="4.55601">
        <ele>83</ele>
        <time>2015-05-04T10:26:18Z</time>
      </trkpt>
      <trkpt lat="44.31278" lon="4.55585">
        <ele>84</ele>
        <time>2015-05-04T10:26:16Z</time>
      </trkpt>
      <trkpt lat="44.31299" lon="4.55571">
        <ele>81</ele>
        <time>2015-05-04T10:26:13Z</time>
      </trkpt>
      <trkpt lat="44.31321" lon="4.55559">
        <ele>82</ele>
        <time>2015-05-04T10:26:11Z</time>
      </trkpt>
      <trkpt lat="44.31355" lon="4.55539">
        <ele>89</ele>
        <time>2015-05-04T10:26:08Z</time>
      </trkpt>
      <trkpt lat="44.31388" lon="4.55514">
        <ele>91</ele>
        <time>2015-05-04T10:26:05Z</time>
      </trkpt>
      <trkpt lat="44.31421" lon="4.5549">
        <ele>94</ele>
        <time>2015-05-04T10:26:02Z</time>
      </trkpt>
      <trkpt lat="44.31452" lon="4.55467">
        <ele>97</ele>
        <time>2015-05-04T10:25:59Z</time>
      </trkpt>
      <trkpt lat="44.31482" lon="4.55445">
        <ele>99</ele>
        <time>2015-05-04T10:25:56Z</time>
      </trkpt>
      <trkpt lat="44.3151" lon="4.55423">
        <ele>106</ele>
        <time>2015-05-04T10:25:53Z</time>
      </trkpt>
      <trkpt lat="44.31536" lon="4.55404">
        <ele>103</ele>
        <time>2015-05-04T10:25:50Z</time>
      </trkpt>
      <trkpt lat="44.31559" lon="4.55385">
        <ele>104</ele>
        <time>2015-05-04T10:25:48Z</time>
      </trkpt>
      <trkpt lat="44.31575" lon="4.55374">
        <ele>103</ele>
        <time>2015-05-04T10:25:45Z</time>
      </trkpt>
      <trkpt lat="44.31599" lon="4.55367">
        <ele>112</ele>
        <time>2015-05-04T10:25:42Z</time>
      </trkpt>
      <trkpt lat="44.31625" lon="4.5537">
        <ele>115</ele>
        <time>2015-05-04T10:25:39Z</time>
      </trkpt>
      <trkpt lat="44.31647" lon="4.55352">
        <ele>116</ele>
        <time>2015-05-04T10:25:36Z</time>
      </trkpt>
      <trkpt lat="44.31649" lon="4.55316">
        <ele>111</ele>
        <time>2015-05-04T10:25:33Z</time>
      </trkpt>
      <trkpt lat="44.31648" lon="4.55281">
        <ele>109</ele>
        <time>2015-05-04T10:25:30Z</time>
      </trkpt>
      <trkpt lat="44.31653" lon="4.55259">
        <ele>110</ele>
        <time>2015-05-04T10:25:28Z</time>
      </trkpt>
      <trkpt lat="44.31664" lon="4.55228">
        <ele>106</ele>
        <time>2015-05-04T10:25:26Z</time>
      </trkpt>
      <trkpt lat="44.31681" lon="4.55202">
        <ele>118</ele>
        <time>2015-05-04T10:25:23Z</time>
      </trkpt>
      <trkpt lat="44.31693" lon="4.55186">
        <ele>118</ele>
        <time>2015-05-04T10:25:20Z</time>
      </trkpt>
      <trkpt lat="44.31704" lon="4.55171">
        <ele>120</ele>
        <time>2015-05-04T10:25:18Z</time>
      </trkpt>
      <trkpt lat="44.31719" lon="4.55144">
        <ele>115</ele>
        <time>2015-05-04T10:25:15Z</time>
      </trkpt>
      <trkpt lat="44.31726" lon="4.55114">
        <ele>114</ele>
        <time>2015-05-04T10:25:12Z</time>
      </trkpt>
      <trkpt lat="44.31735" lon="4.55085">
        <ele>116</ele>
        <time>2015-05-04T10:25:09Z</time>
      </trkpt>
      <trkpt lat="44.3175" lon="4.55059">
        <ele>121</ele>
        <time>2015-05-04T10:25:06Z</time>
      </trkpt>
      <trkpt lat="44.31766" lon="4.55034">
        <ele>120</ele>
        <time>2015-05-04T10:25:03Z</time>
      </trkpt>
      <trkpt lat="44.31786" lon="4.55016">
        <ele>121</ele>
        <time>2015-05-04T10:25:00Z</time>
      </trkpt>
      <trkpt lat="44.31809" lon="4.55006">
        <ele>124</ele>
        <time>2015-05-04T10:24:58Z</time>
      </trkpt>
      <trkpt lat="44.3183" lon="4.54989">
        <ele>119</ele>
        <time>2015-05-04T10:24:54Z</time>
      </trkpt>
      <trkpt lat="44.31844" lon="4.54963">
        <ele>126</ele>
        <time>2015-05-04T10:24:51Z</time>
      </trkpt>
      <trkpt lat="44.31857" lon="4.54939">
        <ele>123</ele>
        <time>2015-05-04T10:24:48Z</time>
      </trkpt>
      <trkpt lat="44.31872" lon="4.54922">
        <ele>125</ele>
        <time>2015-05-04T10:24:45Z</time>
      </trkpt>
      <trkpt lat="44.31891" lon="4.54912">
        <ele>117</ele>
        <time>2015-05-04T10:24:42Z</time>
      </trkpt>
      <trkpt lat="44.31904" lon="4.54908">
        <ele>121</ele>
        <time>2015-05-04T10:24:40Z</time>
      </trkpt>
      <trkpt lat="44.31922" lon="4.54902">
        <ele>131</ele>
        <time>2015-05-04T10:24:37Z</time>
      </trkpt>
      <trkpt lat="44.31936" lon="4.54885">
        <ele>131</ele>
        <time>2015-05-04T10:24:35Z</time>
      </trkpt>
      <trkpt lat="44.31938" lon="4.54868">
        <ele>130</ele>
        <time>2015-05-04T10:24:32Z</time>
      </trkpt>
      <trkpt lat="44.31936" lon="4.54851">
        <ele>127</ele>
        <time>2015-05-04T10:24:30Z</time>
      </trkpt>
      <trkpt lat="44.31936" lon="4.54826">
        <ele>116</ele>
        <time>2015-05-04T10:24:27Z</time>
      </trkpt>
      <trkpt lat="44.31945" lon="4.54804">
        <ele>115</ele>
        <time>2015-05-04T10:24:24Z</time>
      </trkpt>
      <trkpt lat="44.31954" lon="4.54792">
        <ele>115</ele>
        <time>2015-05-04T10:24:22Z</time>
      </trkpt>
      <trkpt lat="44.31971" lon="4.5478">
        <ele>116</ele>
        <time>2015-05-04T10:24:19Z</time>
      </trkpt>
      <trkpt lat="44.31989" lon="4.54771">
        <ele>117</ele>
        <time>2015-05-04T10:24:16Z</time>
      </trkpt>
      <trkpt lat="44.32007" lon="4.54764">
        <ele>125</ele>
        <time>2015-05-04T10:24:13Z</time>
      </trkpt>
      <trkpt lat="44.32026" lon="4.54758">
        <ele>127</ele>
        <time>2015-05-04T10:24:11Z</time>
      </trkpt>
      <trkpt lat="44.3204" lon="4.54755">
        <ele>127</ele>
        <time>2015-05-04T10:24:09Z</time>
      </trkpt>
      <trkpt lat="44.32053" lon="4.54753">
        <ele>127</ele>
        <time>2015-05-04T10:24:06Z</time>
      </trkpt>
      <trkpt lat="44.32074" lon="4.54755">
        <ele>125</ele>
        <time>2015-05-04T10:24:03Z</time>
      </trkpt>
      <trkpt lat="44.32096" lon="4.54761">
        <ele>125</ele>
        <time>2015-05-04T10:24:00Z</time>
      </trkpt>
      <trkpt lat="44.32111" lon="4.54764">
        <ele>127</ele>
        <time>2015-05-04T10:23:58Z</time>
      </trkpt>
      <trkpt lat="44.32126" lon="4.54768">
        <ele>127</ele>
        <time>2015-05-04T10:23:56Z</time>
      </trkpt>
      <trkpt lat="44.3214" lon="4.54772">
        <ele>126</ele>
        <time>2015-05-04T10:23:54Z</time>
      </trkpt>
      <trkpt lat="44.32161" lon="4.54779">
        <ele>126</ele>
        <time>2015-05-04T10:23:51Z</time>
      </trkpt>
      <trkpt lat="44.32183" lon="4.54785">
        <ele>113</ele>
        <time>2015-05-04T10:23:48Z</time>
      </trkpt>
      <trkpt lat="44.32203" lon="4.54794">
        <ele>110</ele>
        <time>2015-05-04T10:23:46Z</time>
      </trkpt>
      <trkpt lat="44.32213" lon="4.54804">
        <ele>110</ele>
        <time>2015-05-04T10:23:43Z</time>
      </trkpt>
      <trkpt lat="44.32222" lon="4.54825">
        <ele>110</ele>
        <time>2015-05-04T10:23:40Z</time>
      </trkpt>
      <trkpt lat="44.32222" lon="4.54848">
        <ele>122</ele>
        <time>2015-05-04T10:23:37Z</time>
      </trkpt>
      <trkpt lat="44.32221" lon="4.54871">
        <ele>125</ele>
        <time>2015-05-04T10:23:34Z</time>
      </trkpt>
      <trkpt lat="44.32222" lon="4.54886">
        <ele>126</ele>
        <time>2015-05-04T10:23:32Z</time>
      </trkpt>
      <trkpt lat="44.32225" lon="4.54907">
        <ele>125</ele>
        <time>2015-05-04T10:23:29Z</time>
      </trkpt>
      <trkpt lat="44.32229" lon="4.5492">
        <ele>128</ele>
        <time>2015-05-04T10:23:27Z</time>
      </trkpt>
      <trkpt lat="44.32233" lon="4.5494">
        <ele>129</ele>
        <time>2015-05-04T10:23:24Z</time>
      </trkpt>
      <trkpt lat="44.32239" lon="4.54958">
        <ele>129</ele>
        <time>2015-05-04T10:23:22Z</time>
      </trkpt>
      <trkpt lat="44.32242" lon="4.5497">
        <ele>129</ele>
        <time>2015-05-04T10:23:19Z</time>
      </trkpt>
      <trkpt lat="44.32246" lon="4.54987">
        <ele>127</ele>
        <time>2015-05-04T10:23:16Z</time>
      </trkpt>
      <trkpt lat="44.32247" lon="4.55004">
        <ele>124</ele>
        <time>2015-05-04T10:23:13Z</time>
      </trkpt>
      <trkpt lat="44.32243" lon="4.55021">
        <ele>126</ele>
        <time>2015-05-04T10:23:10Z</time>
      </trkpt>
      <trkpt lat="44.32237" lon="4.55031">
        <ele>127</ele>
        <time>2015-05-04T10:23:08Z</time>
      </trkpt>
      <trkpt lat="44.32227" lon="4.55041">
        <ele>127</ele>
        <time>2015-05-04T10:23:05Z</time>
      </trkpt>
      <trkpt lat="44.32218" lon="4.55046">
        <ele>128</ele>
        <time>2015-05-04T10:23:03Z</time>
      </trkpt>
      <trkpt lat="44.32206" lon="4.55052">
        <ele>129</ele>
        <time>2015-05-04T10:23:01Z</time>
      </trkpt>
      <trkpt lat="44.32194" lon="4.55058">
        <ele>130</ele>
        <time>2015-05-04T10:22:58Z</time>
      </trkpt>
      <trkpt lat="44.32186" lon="4.55063">
        <ele>131</ele>
        <time>2015-05-04T10:22:56Z</time>
      </trkpt>
      <trkpt lat="44.32178" lon="4.55068">
        <ele>131</ele>
        <time>2015-05-04T10:22:53Z</time>
      </trkpt>
      <trkpt lat="44.3217" lon="4.55081">
        <ele>132</ele>
        <time>2015-05-04T10:22:51Z</time>
      </trkpt>
      <trkpt lat="44.3217" lon="4.55094">
        <ele>130</ele>
        <time>2015-05-04T10:22:48Z</time>
      </trkpt>
      <trkpt lat="44.32174" lon="4.55105">
        <ele>128</ele>
        <time>2015-05-04T10:22:46Z</time>
      </trkpt>
      <trkpt lat="44.32182" lon="4.55118">
        <ele>126</ele>
        <time>2015-05-04T10:22:44Z</time>
      </trkpt>
      <trkpt lat="44.32188" lon="4.55127">
        <ele>126</ele>
        <time>2015-05-04T10:22:41Z</time>
      </trkpt>
      <trkpt lat="44.32198" lon="4.55138">
        <ele>125</ele>
        <time>2015-05-04T10:22:38Z</time>
      </trkpt>
      <trkpt lat="44.32205" lon="4.55152">
        <ele>124</ele>
        <time>2015-05-04T10:22:35Z</time>
      </trkpt>
      <trkpt lat="44.32209" lon="4.55161">
        <ele>123</ele>
        <time>2015-05-04T10:22:33Z</time>
      </trkpt>
      <trkpt lat="44.32212" lon="4.55177">
        <ele>118</ele>
        <time>2015-05-04T10:22:31Z</time>
      </trkpt>
      <trkpt lat="44.32211" lon="4.55188">
        <ele>117</ele>
        <time>2015-05-04T10:22:28Z</time>
      </trkpt>
      <trkpt lat="44.32205" lon="4.55202">
        <ele>117</ele>
        <time>2015-05-04T10:22:25Z</time>
      </trkpt>
      <trkpt lat="44.322" lon="4.55211">
        <ele>117</ele>
        <time>2015-05-04T10:22:23Z</time>
      </trkpt>
      <trkpt lat="44.32194" lon="4.55219">
        <ele>118</ele>
        <time>2015-05-04T10:22:21Z</time>
      </trkpt>
      <trkpt lat="44.32189" lon="4.55227">
        <ele>118</ele>
        <time>2015-05-04T10:22:19Z</time>
      </trkpt>
      <trkpt lat="44.32184" lon="4.55235">
        <ele>119</ele>
        <time>2015-05-04T10:22:17Z</time>
      </trkpt>
      <trkpt lat="44.32175" lon="4.55247">
        <ele>120</ele>
        <time>2015-05-04T10:22:15Z</time>
      </trkpt>
      <trkpt lat="44.3217" lon="4.55256">
        <ele>118</ele>
        <time>2015-05-04T10:22:12Z</time>
      </trkpt>
      <trkpt lat="44.32164" lon="4.55263">
        <ele>123</ele>
        <time>2015-05-04T10:22:10Z</time>
      </trkpt>
      <trkpt lat="44.32156" lon="4.55276">
        <ele>123</ele>
        <time>2015-05-04T10:22:07Z</time>
      </trkpt>
      <trkpt lat="44.3215" lon="4.55284">
        <ele>123</ele>
        <time>2015-05-04T10:22:05Z</time>
      </trkpt>
      <trkpt lat="44.32142" lon="4.55295">
        <ele>122</ele>
        <time>2015-05-04T10:22:02Z</time>
      </trkpt>
      <trkpt lat="44.32134" lon="4.55307">
        <ele>122</ele>
        <time>2015-05-04T10:22:00Z</time>
      </trkpt>
      <trkpt lat="44.32128" lon="4.55314">
        <ele>123</ele>
        <time>2015-05-04T10:21:57Z</time>
      </trkpt>
      <trkpt lat="44.32119" lon="4.55324">
        <ele>124</ele>
        <time>2015-05-04T10:21:55Z</time>
      </trkpt>
      <trkpt lat="44.32113" lon="4.5533">
        <ele>124</ele>
        <time>2015-05-04T10:21:53Z</time>
      </trkpt>
      <trkpt lat="44.32104" lon="4.55337">
        <ele>120</ele>
        <time>2015-05-04T10:21:50Z</time>
      </trkpt>
      <trkpt lat="44.32094" lon="4.55344">
        <ele>122</ele>
        <time>2015-05-04T10:21:46Z</time>
      </trkpt>
      <trkpt lat="44.32085" lon="4.55352">
        <ele>122</ele>
        <time>2015-05-04T10:21:43Z</time>
      </trkpt>
      <trkpt lat="44.32076" lon="4.5536">
        <ele>134</ele>
        <time>2015-05-04T10:21:40Z</time>
      </trkpt>
      <trkpt lat="44.32071" lon="4.55374">
        <ele>135</ele>
        <time>2015-05-04T10:21:38Z</time>
      </trkpt>
      <trkpt lat="44.32074" lon="4.55388">
        <ele>134</ele>
        <time>2015-05-04T10:21:34Z</time>
      </trkpt>
      <trkpt lat="44.32082" lon="4.55399">
        <ele>132</ele>
        <time>2015-05-04T10:21:31Z</time>
      </trkpt>
      <trkpt lat="44.32091" lon="4.55407">
        <ele>121</ele>
        <time>2015-05-04T10:21:29Z</time>
      </trkpt>
      <trkpt lat="44.32098" lon="4.55413">
        <ele>120</ele>
        <time>2015-05-04T10:21:27Z</time>
      </trkpt>
      <trkpt lat="44.32105" lon="4.55419">
        <ele>119</ele>
        <time>2015-05-04T10:21:24Z</time>
      </trkpt>
      <trkpt lat="44.32114" lon="4.55428">
        <ele>117</ele>
        <time>2015-05-04T10:21:21Z</time>
      </trkpt>
      <trkpt lat="44.32123" lon="4.55439">
        <ele>115</ele>
        <time>2015-05-04T10:21:18Z</time>
      </trkpt>
      <trkpt lat="44.32128" lon="4.55448">
        <ele>114</ele>
        <time>2015-05-04T10:21:16Z</time>
      </trkpt>
      <trkpt lat="44.32134" lon="4.55462">
        <ele>114</ele>
        <time>2015-05-04T10:21:13Z</time>
      </trkpt>
      <trkpt lat="44.32138" lon="4.55476">
        <ele>113</ele>
        <time>2015-05-04T10:21:10Z</time>
      </trkpt>
      <trkpt lat="44.32141" lon="4.55491">
        <ele>112</ele>
        <time>2015-05-04T10:21:07Z</time>
      </trkpt>
      <trkpt lat="44.32143" lon="4.55506">
        <ele>115</ele>
        <time>2015-05-04T10:21:05Z</time>
      </trkpt>
      <trkpt lat="44.32144" lon="4.55516">
        <ele>115</ele>
        <time>2015-05-04T10:21:03Z</time>
      </trkpt>
      <trkpt lat="44.32146" lon="4.55526">
        <ele>116</ele>
        <time>2015-05-04T10:21:00Z</time>
      </trkpt>
      <trkpt lat="44.32148" lon="4.55542">
        <ele>117</ele>
        <time>2015-05-04T10:20:57Z</time>
      </trkpt>
      <trkpt lat="44.32151" lon="4.55559">
        <ele>116</ele>
        <time>2015-05-04T10:20:54Z</time>
      </trkpt>
      <trkpt lat="44.32154" lon="4.55576">
        <ele>112</ele>
        <time>2015-05-04T10:20:51Z</time>
      </trkpt>
      <trkpt lat="44.32159" lon="4.55593">
        <ele>113</ele>
        <time>2015-05-04T10:20:48Z</time>
      </trkpt>
      <trkpt lat="44.32165" lon="4.55611">
        <ele>117</ele>
        <time>2015-05-04T10:20:45Z</time>
      </trkpt>
      <trkpt lat="44.32171" lon="4.55628">
        <ele>106</ele>
        <time>2015-05-04T10:20:42Z</time>
      </trkpt>
      <trkpt lat="44.32178" lon="4.55645">
        <ele>107</ele>
        <time>2015-05-04T10:20:39Z</time>
      </trkpt>
      <trkpt lat="44.32185" lon="4.55664">
        <ele>107</ele>
        <time>2015-05-04T10:20:37Z</time>
      </trkpt>
      <trkpt lat="44.32189" lon="4.55678">
        <ele>106</ele>
        <time>2015-05-04T10:20:34Z</time>
      </trkpt>
      <trkpt lat="44.32191" lon="4.55694">
        <ele>105</ele>
        <time>2015-05-04T10:20:32Z</time>
      </trkpt>
      <trkpt lat="44.32191" lon="4.55721">
        <ele>104</ele>
        <time>2015-05-04T10:20:30Z</time>
      </trkpt>
      <trkpt lat="44.32191" lon="4.55741">
        <ele>103</ele>
        <time>2015-05-04T10:20:27Z</time>
      </trkpt>
      <trkpt lat="44.32204" lon="4.55768">
        <ele>103</ele>
        <time>2015-05-04T10:20:24Z</time>
      </trkpt>
      <trkpt lat="44.3223" lon="4.55776">
        <ele>103</ele>
        <time>2015-05-04T10:20:21Z</time>
      </trkpt>
      <trkpt lat="44.32253" lon="4.55754">
        <ele>104</ele>
        <time>2015-05-04T10:20:19Z</time>
      </trkpt>
      <trkpt lat="44.32259" lon="4.55728">
        <ele>107</ele>
        <time>2015-05-04T10:20:17Z</time>
      </trkpt>
      <trkpt lat="44.32258" lon="4.55685">
        <ele>105</ele>
        <time>2015-05-04T10:20:14Z</time>
      </trkpt>
      <trkpt lat="44.32255" lon="4.55655">
        <ele>105</ele>
        <time>2015-05-04T10:20:11Z</time>
      </trkpt>
      <trkpt lat="44.32251" lon="4.55612">
        <ele>111</ele>
        <time>2015-05-04T10:20:09Z</time>
      </trkpt>
      <trkpt lat="44.32249" lon="4.55583">
        <ele>107</ele>
        <time>2015-05-04T10:20:06Z</time>
      </trkpt>
      <trkpt lat="44.32246" lon="4.55538">
        <ele>106</ele>
        <time>2015-05-04T10:20:04Z</time>
      </trkpt>
      <trkpt lat="44.32244" lon="4.55494">
        <ele>106</ele>
        <time>2015-05-04T10:20:00Z</time>
      </trkpt>
      <trkpt lat="44.32247" lon="4.55448">
        <ele>104</ele>
        <time>2015-05-04T10:19:57Z</time>
      </trkpt>
      <trkpt lat="44.32268" lon="4.55411">
        <ele>108</ele>
        <time>2015-05-04T10:19:55Z</time>
      </trkpt>
      <trkpt lat="44.32288" lon="4.55394">
        <ele>111</ele>
        <time>2015-05-04T10:19:52Z</time>
      </trkpt>
      <trkpt lat="44.32318" lon="4.55369">
        <ele>113</ele>
        <time>2015-05-04T10:19:49Z</time>
      </trkpt>
      <trkpt lat="44.32348" lon="4.55343">
        <ele>123</ele>
        <time>2015-05-04T10:19:47Z</time>
      </trkpt>
      <trkpt lat="44.32374" lon="4.55312">
        <ele>118</ele>
        <time>2015-05-04T10:19:43Z</time>
      </trkpt>
      <trkpt lat="44.32389" lon="4.55289">
        <ele>118</ele>
        <time>2015-05-04T10:19:41Z</time>
      </trkpt>
      <trkpt lat="44.32406" lon="4.5527">
        <ele>118</ele>
        <time>2015-05-04T10:19:39Z</time>
      </trkpt>
      <trkpt lat="44.32433" lon="4.55246">
        <ele>120</ele>
        <time>2015-05-04T10:19:37Z</time>
      </trkpt>
      <trkpt lat="44.32451" lon="4.55232">
        <ele>121</ele>
        <time>2015-05-04T10:19:34Z</time>
      </trkpt>
      <trkpt lat="44.32476" lon="4.5521">
        <ele>122</ele>
        <time>2015-05-04T10:19:31Z</time>
      </trkpt>
      <trkpt lat="44.32498" lon="4.55187">
        <ele>122</ele>
        <time>2015-05-04T10:19:28Z</time>
      </trkpt>
      <trkpt lat="44.32517" lon="4.55164">
        <ele>121</ele>
        <time>2015-05-04T10:19:26Z</time>
      </trkpt>
      <trkpt lat="44.32527" lon="4.55149">
        <ele>121</ele>
        <time>2015-05-04T10:19:23Z</time>
      </trkpt>
      <trkpt lat="44.32537" lon="4.55136">
        <ele>120</ele>
        <time>2015-05-04T10:19:21Z</time>
      </trkpt>
      <trkpt lat="44.32552" lon="4.55127">
        <ele>121</ele>
        <time>2015-05-04T10:19:18Z</time>
      </trkpt>
      <trkpt lat="44.32564" lon="4.55129">
        <ele>122</ele>
        <time>2015-05-04T10:19:16Z</time>
      </trkpt>
      <trkpt lat="44.32571" lon="4.55134">
        <ele>122</ele>
        <time>2015-05-04T10:19:14Z</time>
      </trkpt>
      <trkpt lat="44.32579" lon="4.55144">
        <ele>124</ele>
        <time>2015-05-04T10:19:11Z</time>
      </trkpt>
      <trkpt lat="44.32584" lon="4.55157">
        <ele>125</ele>
        <time>2015-05-04T10:19:08Z</time>
      </trkpt>
      <trkpt lat="44.32586" lon="4.55167">
        <ele>129</ele>
        <time>2015-05-04T10:19:05Z</time>
      </trkpt>
      <trkpt lat="44.32586" lon="4.55181">
        <ele>125</ele>
        <time>2015-05-04T10:19:03Z</time>
      </trkpt>
      <trkpt lat="44.32585" lon="4.55192">
        <ele>123</ele>
        <time>2015-05-04T10:19:00Z</time>
      </trkpt>
      <trkpt lat="44.32584" lon="4.55201">
        <ele>123</ele>
        <time>2015-05-04T10:18:58Z</time>
      </trkpt>
      <trkpt lat="44.32583" lon="4.55212">
        <ele>131</ele>
        <time>2015-05-04T10:18:56Z</time>
      </trkpt>
      <trkpt lat="44.32581" lon="4.55227">
        <ele>131</ele>
        <time>2015-05-04T10:18:54Z</time>
      </trkpt>
      <trkpt lat="44.32581" lon="4.55237">
        <ele>131</ele>
        <time>2015-05-04T10:18:52Z</time>
      </trkpt>
      <trkpt lat="44.3258" lon="4.55247">
        <ele>130</ele>
        <time>2015-05-04T10:18:49Z</time>
      </trkpt>
      <trkpt lat="44.32579" lon="4.55257">
        <ele>132</ele>
        <time>2015-05-04T10:18:47Z</time>
      </trkpt>
      <trkpt lat="44.32578" lon="4.55271">
        <ele>133</ele>
        <time>2015-05-04T10:18:45Z</time>
      </trkpt>
      <trkpt lat="44.32578" lon="4.55281">
        <ele>133</ele>
        <time>2015-05-04T10:18:42Z</time>
      </trkpt>
      <trkpt lat="44.32578" lon="4.55296">
        <ele>133</ele>
        <time>2015-05-04T10:18:40Z</time>
      </trkpt>
      <trkpt lat="44.32578" lon="4.55313">
        <ele>132</ele>
        <time>2015-05-04T10:18:36Z</time>
      </trkpt>
      <trkpt lat="44.32579" lon="4.55329">
        <ele>130</ele>
        <time>2015-05-04T10:18:33Z</time>
      </trkpt>
      <trkpt lat="44.32579" lon="4.55347">
        <ele>132</ele>
        <time>2015-05-04T10:18:31Z</time>
      </trkpt>
      <trkpt lat="44.3258" lon="4.55358">
        <ele>133</ele>
        <time>2015-05-04T10:18:28Z</time>
      </trkpt>
      <trkpt lat="44.32581" lon="4.55376">
        <ele>134</ele>
        <time>2015-05-04T10:18:25Z</time>
      </trkpt>
      <trkpt lat="44.32585" lon="4.55394">
        <ele>122</ele>
        <time>2015-05-04T10:18:22Z</time>
      </trkpt>
      <trkpt lat="44.3259" lon="4.55411">
        <ele>124</ele>
        <time>2015-05-04T10:18:19Z</time>
      </trkpt>
      <trkpt lat="44.32593" lon="4.55423">
        <ele>124</ele>
        <time>2015-05-04T10:18:17Z</time>
      </trkpt>
      <trkpt lat="44.32599" lon="4.5544">
        <ele>121</ele>
        <time>2015-05-04T10:18:15Z</time>
      </trkpt>
      <trkpt lat="44.32605" lon="4.55458">
        <ele>120</ele>
        <time>2015-05-04T10:18:12Z</time>
      </trkpt>
      <trkpt lat="44.32611" lon="4.55476">
        <ele>121</ele>
        <time>2015-05-04T10:18:09Z</time>
      </trkpt>
      <trkpt lat="44.32616" lon="4.55495">
        <ele>121</ele>
        <time>2015-05-04T10:18:06Z</time>
      </trkpt>
      <trkpt lat="44.3262" lon="4.55516">
        <ele>121</ele>
        <time>2015-05-04T10:18:03Z</time>
      </trkpt>
      <trkpt lat="44.32622" lon="4.5553">
        <ele>121</ele>
        <time>2015-05-04T10:18:00Z</time>
      </trkpt>
      <trkpt lat="44.32625" lon="4.55552">
        <ele>121</ele>
        <time>2015-05-04T10:17:58Z</time>
      </trkpt>
      <trkpt lat="44.32627" lon="4.55568">
        <ele>120</ele>
        <time>2015-05-04T10:17:55Z</time>
      </trkpt>
      <trkpt lat="44.3263" lon="4.55592">
        <ele>122</ele>
        <time>2015-05-04T10:17:53Z</time>
      </trkpt>
      <trkpt lat="44.32633" lon="4.5561">
        <ele>122</ele>
        <time>2015-05-04T10:17:51Z</time>
      </trkpt>
      <trkpt lat="44.32646" lon="4.55632">
        <ele>121</ele>
        <time>2015-05-04T10:17:48Z</time>
      </trkpt>
      <trkpt lat="44.32669" lon="4.5564">
        <ele>117</ele>
        <time>2015-05-04T10:17:45Z</time>
      </trkpt>
      <trkpt lat="44.32691" lon="4.55622">
        <ele>117</ele>
        <time>2015-05-04T10:17:42Z</time>
      </trkpt>
      <trkpt lat="44.327" lon="4.55587">
        <ele>117</ele>
        <time>2015-05-04T10:17:39Z</time>
      </trkpt>
      <trkpt lat="44.32702" lon="4.55561">
        <ele>118</ele>
        <time>2015-05-04T10:17:36Z</time>
      </trkpt>
      <trkpt lat="44.32705" lon="4.55536">
        <ele>118</ele>
        <time>2015-05-04T10:17:34Z</time>
      </trkpt>
      <trkpt lat="44.32708" lon="4.5551">
        <ele>119</ele>
        <time>2015-05-04T10:17:32Z</time>
      </trkpt>
      <trkpt lat="44.32715" lon="4.5547">
        <ele>118</ele>
        <time>2015-05-04T10:17:30Z</time>
      </trkpt>
      <trkpt lat="44.32719" lon="4.55443">
        <ele>118</ele>
        <time>2015-05-04T10:17:27Z</time>
      </trkpt>
      <trkpt lat="44.32724" lon="4.55401">
        <ele>119</ele>
        <time>2015-05-04T10:17:25Z</time>
      </trkpt>
      <trkpt lat="44.32728" lon="4.55358">
        <ele>119</ele>
        <time>2015-05-04T10:17:21Z</time>
      </trkpt>
      <trkpt lat="44.32732" lon="4.55314">
        <ele>120</ele>
        <time>2015-05-04T10:17:18Z</time>
      </trkpt>
      <trkpt lat="44.32737" lon="4.5527">
        <ele>119</ele>
        <time>2015-05-04T10:17:15Z</time>
      </trkpt>
      <trkpt lat="44.3274" lon="4.5524">
        <ele>118</ele>
        <time>2015-05-04T10:17:13Z</time>
      </trkpt>
      <trkpt lat="44.3275" lon="4.55198">
        <ele>127</ele>
        <time>2015-05-04T10:17:11Z</time>
      </trkpt>
      <trkpt lat="44.32765" lon="4.55178">
        <ele>125</ele>
        <time>2015-05-04T10:17:08Z</time>
      </trkpt>
      <trkpt lat="44.32793" lon="4.55163">
        <ele>129</ele>
        <time>2015-05-04T10:17:05Z</time>
      </trkpt>
      <trkpt lat="44.32812" lon="4.55154">
        <ele>133</ele>
        <time>2015-05-04T10:17:03Z</time>
      </trkpt>
      <trkpt lat="44.32824" lon="4.55136">
        <ele>134</ele>
        <time>2015-05-04T10:17:01Z</time>
      </trkpt>
      <trkpt lat="44.32812" lon="4.55101">
        <ele>134</ele>
        <time>2015-05-04T10:16:59Z</time>
      </trkpt>
      <trkpt lat="44.3278" lon="4.55083">
        <ele>136</ele>
        <time>2015-05-04T10:16:56Z</time>
      </trkpt>
      <trkpt lat="44.32756" lon="4.55051">
        <ele>136</ele>
        <time>2015-05-04T10:16:53Z</time>
      </trkpt>
      <trkpt lat="44.3275" lon="4.54999">
        <ele>138</ele>
        <time>2015-05-04T10:16:49Z</time>
      </trkpt>
      <trkpt lat="44.32748" lon="4.54943">
        <ele>133</ele>
        <time>2015-05-04T10:16:47Z</time>
      </trkpt>
      <trkpt lat="44.32745" lon="4.54907">
        <ele>139</ele>
        <time>2015-05-04T10:16:45Z</time>
      </trkpt>
      <trkpt lat="44.32744" lon="4.54872">
        <ele>131</ele>
        <time>2015-05-04T10:16:43Z</time>
      </trkpt>
      <trkpt lat="44.32747" lon="4.54838">
        <ele>142</ele>
        <time>2015-05-04T10:16:40Z</time>
      </trkpt>
      <trkpt lat="44.32763" lon="4.54794">
        <ele>154</ele>
        <time>2015-05-04T10:16:38Z</time>
      </trkpt>
      <trkpt lat="44.32775" lon="4.54766">
        <ele>152</ele>
        <time>2015-05-04T10:16:35Z</time>
      </trkpt>
      <trkpt lat="44.32786" lon="4.54736">
        <ele>146</ele>
        <time>2015-05-04T10:16:33Z</time>
      </trkpt>
      <trkpt lat="44.32808" lon="4.54698">
        <ele>148</ele>
        <time>2015-05-04T10:16:31Z</time>
      </trkpt>
      <trkpt lat="44.32837" lon="4.54669">
        <ele>160</ele>
        <time>2015-05-04T10:16:28Z</time>
      </trkpt>
      <trkpt lat="44.32855" lon="4.54648">
        <ele>168</ele>
        <time>2015-05-04T10:16:26Z</time>
      </trkpt>
      <trkpt lat="44.32871" lon="4.54609">
        <ele>172</ele>
        <time>2015-05-04T10:16:23Z</time>
      </trkpt>
      <trkpt lat="44.32857" lon="4.54569">
        <ele>168</ele>
        <time>2015-05-04T10:16:20Z</time>
      </trkpt>
      <trkpt lat="44.32833" lon="4.54538">
        <ele>151</ele>
        <time>2015-05-04T10:16:17Z</time>
      </trkpt>
      <trkpt lat="44.32818" lon="4.54517">
        <ele>154</ele>
        <time>2015-05-04T10:16:15Z</time>
      </trkpt>
      <trkpt lat="44.32814" lon="4.54479">
        <ele>155</ele>
        <time>2015-05-04T10:16:12Z</time>
      </trkpt>
      <trkpt lat="44.3284" lon="4.54462">
        <ele>168</ele>
        <time>2015-05-04T10:16:08Z</time>
      </trkpt>
      <trkpt lat="44.3287" lon="4.54476">
        <ele>171</ele>
        <time>2015-05-04T10:16:05Z</time>
      </trkpt>
      <trkpt lat="44.32898" lon="4.54466">
        <ele>174</ele>
        <time>2015-05-04T10:16:03Z</time>
      </trkpt>
      <trkpt lat="44.32908" lon="4.5444">
        <ele>174</ele>
        <time>2015-05-04T10:16:01Z</time>
      </trkpt>
      <trkpt lat="44.3292" lon="4.54417">
        <ele>178</ele>
        <time>2015-05-04T10:15:58Z</time>
      </trkpt>
      <trkpt lat="44.32947" lon="4.54395">
        <ele>180</ele>
        <time>2015-05-04T10:15:55Z</time>
      </trkpt>
      <trkpt lat="44.32976" lon="4.54378">
        <ele>183</ele>
        <time>2015-05-04T10:15:53Z</time>
      </trkpt>
      <trkpt lat="44.33004" lon="4.54363">
        <ele>195</ele>
        <time>2015-05-04T10:15:50Z</time>
      </trkpt>
      <trkpt lat="44.33017" lon="4.54333">
        <ele>191</ele>
        <time>2015-05-04T10:15:47Z</time>
      </trkpt>
      <trkpt lat="44.3301" lon="4.54299">
        <ele>192</ele>
        <time>2015-05-04T10:15:44Z</time>
      </trkpt>
      <trkpt lat="44.3301" lon="4.54278">
        <ele>191</ele>
        <time>2015-05-04T10:15:41Z</time>
      </trkpt>
      <trkpt lat="44.33023" lon="4.54251">
        <ele>191</ele>
        <time>2015-05-04T10:15:39Z</time>
      </trkpt>
      <trkpt lat="44.33037" lon="4.54237">
        <ele>191</ele>
        <time>2015-05-04T10:15:37Z</time>
      </trkpt>
      <trkpt lat="44.33052" lon="4.54224">
        <ele>193</ele>
        <time>2015-05-04T10:15:34Z</time>
      </trkpt>
      <trkpt lat="44.33075" lon="4.54204">
        <ele>193</ele>
        <time>2015-05-04T10:15:32Z</time>
      </trkpt>
      <trkpt lat="44.33091" lon="4.54191">
        <ele>198</ele>
        <time>2015-05-04T10:15:30Z</time>
      </trkpt>
      <trkpt lat="44.33115" lon="4.54175">
        <ele>199</ele>
        <time>2015-05-04T10:15:26Z</time>
      </trkpt>
      <trkpt lat="44.33141" lon="4.54164">
        <ele>200</ele>
        <time>2015-05-04T10:15:24Z</time>
      </trkpt>
      <trkpt lat="44.33159" lon="4.54157">
        <ele>200</ele>
        <time>2015-05-04T10:15:21Z</time>
      </trkpt>
      <trkpt lat="44.33185" lon="4.54145">
        <ele>202</ele>
        <time>2015-05-04T10:15:19Z</time>
      </trkpt>
      <trkpt lat="44.33198" lon="4.54126">
        <ele>202</ele>
        <time>2015-05-04T10:15:16Z</time>
      </trkpt>
      <trkpt lat="44.3319" lon="4.54087">
        <ele>201</ele>
        <time>2015-05-04T10:15:14Z</time>
      </trkpt>
      <trkpt lat="44.3317" lon="4.54078">
        <ele>201</ele>
        <time>2015-05-04T10:15:11Z</time>
      </trkpt>
      <trkpt lat="44.33139" lon="4.54086">
        <ele>200</ele>
        <time>2015-05-04T10:15:09Z</time>
      </trkpt>
      <trkpt lat="44.33118" lon="4.54095">
        <ele>202</ele>
        <time>2015-05-04T10:15:07Z</time>
      </trkpt>
      <trkpt lat="44.33096" lon="4.54104">
        <ele>202</ele>
        <time>2015-05-04T10:15:04Z</time>
      </trkpt>
      <trkpt lat="44.33061" lon="4.54117">
        <ele>201</ele>
        <time>2015-05-04T10:15:02Z</time>
      </trkpt>
      <trkpt lat="44.33036" lon="4.54125">
        <ele>201</ele>
        <time>2015-05-04T10:14:59Z</time>
      </trkpt>
      <trkpt lat="44.33011" lon="4.54129">
        <ele>200</ele>
        <time>2015-05-04T10:14:57Z</time>
      </trkpt>
      <trkpt lat="44.32986" lon="4.54128">
        <ele>200</ele>
        <time>2015-05-04T10:14:55Z</time>
      </trkpt>
      <trkpt lat="44.32951" lon="4.54125">
        <ele>200</ele>
        <time>2015-05-04T10:14:53Z</time>
      </trkpt>
      <trkpt lat="44.32929" lon="4.54117">
        <ele>201</ele>
        <time>2015-05-04T10:14:50Z</time>
      </trkpt>
      <trkpt lat="44.32906" lon="4.54085">
        <ele>199</ele>
        <time>2015-05-04T10:14:47Z</time>
      </trkpt>
      <trkpt lat="44.32909" lon="4.54042">
        <ele>194</ele>
        <time>2015-05-04T10:14:45Z</time>
      </trkpt>
      <trkpt lat="44.32932" lon="4.54011">
        <ele>204</ele>
        <time>2015-05-04T10:14:42Z</time>
      </trkpt>
      <trkpt lat="44.32962" lon="4.53995">
        <ele>201</ele>
        <time>2015-05-04T10:14:38Z</time>
      </trkpt>
      <trkpt lat="44.32983" lon="4.53987">
        <ele>204</ele>
        <time>2015-05-04T10:14:36Z</time>
      </trkpt>
      <trkpt lat="44.33015" lon="4.53976">
        <ele>211</ele>
        <time>2015-05-04T10:14:34Z</time>
      </trkpt>
      <trkpt lat="44.33046" lon="4.53963">
        <ele>212</ele>
        <time>2015-05-04T10:14:31Z</time>
      </trkpt>
      <trkpt lat="44.33066" lon="4.53954">
        <ele>213</ele>
        <time>2015-05-04T10:14:29Z</time>
      </trkpt>
      <trkpt lat="44.33095" lon="4.53942">
        <ele>219</ele>
        <time>2015-05-04T10:14:26Z</time>
      </trkpt>
      <trkpt lat="44.33123" lon="4.5393">
        <ele>220</ele>
        <time>2015-05-04T10:14:23Z</time>
      </trkpt>
      <trkpt lat="44.33151" lon="4.53918">
        <ele>223</ele>
        <time>2015-05-04T10:14:20Z</time>
      </trkpt>
      <trkpt lat="44.33177" lon="4.53907">
        <ele>226</ele>
        <time>2015-05-04T10:14:17Z</time>
      </trkpt>
      <trkpt lat="44.33202" lon="4.53896">
        <ele>227</ele>
        <time>2015-05-04T10:14:14Z</time>
      </trkpt>
      <trkpt lat="44.33227" lon="4.53886">
        <ele>228</ele>
        <time>2015-05-04T10:14:11Z</time>
      </trkpt>
      <trkpt lat="44.33251" lon="4.53875">
        <ele>232</ele>
        <time>2015-05-04T10:14:08Z</time>
      </trkpt>
      <trkpt lat="44.33275" lon="4.53864">
        <ele>232</ele>
        <time>2015-05-04T10:14:05Z</time>
      </trkpt>
      <trkpt lat="44.33291" lon="4.53856">
        <ele>233</ele>
        <time>2015-05-04T10:14:03Z</time>
      </trkpt>
      <trkpt lat="44.33314" lon="4.53845">
        <ele>234</ele>
        <time>2015-05-04T10:14:00Z</time>
      </trkpt>
      <trkpt lat="44.33337" lon="4.53835">
        <ele>237</ele>
        <time>2015-05-04T10:13:57Z</time>
      </trkpt>
      <trkpt lat="44.3336" lon="4.53826">
        <ele>238</ele>
        <time>2015-05-04T10:13:54Z</time>
      </trkpt>
      <trkpt lat="44.33381" lon="4.53817">
        <ele>238</ele>
        <time>2015-05-04T10:13:51Z</time>
      </trkpt>
      <trkpt lat="44.33402" lon="4.53808">
        <ele>239</ele>
        <time>2015-05-04T10:13:48Z</time>
      </trkpt>
      <trkpt lat="44.33423" lon="4.53799">
        <ele>241</ele>
        <time>2015-05-04T10:13:45Z</time>
      </trkpt>
      <trkpt lat="44.33444" lon="4.53792">
        <ele>241</ele>
        <time>2015-05-04T10:13:42Z</time>
      </trkpt>
      <trkpt lat="44.33457" lon="4.53788">
        <ele>241</ele>
        <time>2015-05-04T10:13:40Z</time>
      </trkpt>
      <trkpt lat="44.3347" lon="4.53785">
        <ele>242</ele>
        <time>2015-05-04T10:13:37Z</time>
      </trkpt>
      <trkpt lat="44.33483" lon="4.53781">
        <ele>242</ele>
        <time>2015-05-04T10:13:35Z</time>
      </trkpt>
      <trkpt lat="44.33503" lon="4.53778">
        <ele>243</ele>
        <time>2015-05-04T10:13:33Z</time>
      </trkpt>
      <trkpt lat="44.33524" lon="4.53777">
        <ele>243</ele>
        <time>2015-05-04T10:13:29Z</time>
      </trkpt>
      <trkpt lat="44.33545" lon="4.53776">
        <ele>243</ele>
        <time>2015-05-04T10:13:26Z</time>
      </trkpt>
      <trkpt lat="44.33565" lon="4.53774">
        <ele>242</ele>
        <time>2015-05-04T10:13:24Z</time>
      </trkpt>
      <trkpt lat="44.33586" lon="4.53772">
        <ele>243</ele>
        <time>2015-05-04T10:13:21Z</time>
      </trkpt>
      <trkpt lat="44.33601" lon="4.53771">
        <ele>244</ele>
        <time>2015-05-04T10:13:19Z</time>
      </trkpt>
      <trkpt lat="44.33622" lon="4.53769">
        <ele>245</ele>
        <time>2015-05-04T10:13:16Z</time>
      </trkpt>
      <trkpt lat="44.33645" lon="4.53767">
        <ele>245</ele>
        <time>2015-05-04T10:13:13Z</time>
      </trkpt>
      <trkpt lat="44.33659" lon="4.53765">
        <ele>244</ele>
        <time>2015-05-04T10:13:10Z</time>
      </trkpt>
      <trkpt lat="44.33681" lon="4.53764">
        <ele>246</ele>
        <time>2015-05-04T10:13:08Z</time>
      </trkpt>
      <trkpt lat="44.33703" lon="4.53762">
        <ele>247</ele>
        <time>2015-05-04T10:13:05Z</time>
      </trkpt>
      <trkpt lat="44.33725" lon="4.5376">
        <ele>247</ele>
        <time>2015-05-04T10:13:02Z</time>
      </trkpt>
      <trkpt lat="44.33748" lon="4.53759">
        <ele>245</ele>
        <time>2015-05-04T10:12:59Z</time>
      </trkpt>
      <trkpt lat="44.3377" lon="4.53757">
        <ele>248</ele>
        <time>2015-05-04T10:12:56Z</time>
      </trkpt>
      <trkpt lat="44.33785" lon="4.53756">
        <ele>249</ele>
        <time>2015-05-04T10:12:54Z</time>
      </trkpt>
      <trkpt lat="44.33809" lon="4.53754">
        <ele>250</ele>
        <time>2015-05-04T10:12:50Z</time>
      </trkpt>
      <trkpt lat="44.33833" lon="4.53752">
        <ele>248</ele>
        <time>2015-05-04T10:12:47Z</time>
      </trkpt>
      <trkpt lat="44.33857" lon="4.5375">
        <ele>245</ele>
        <time>2015-05-04T10:12:44Z</time>
      </trkpt>
      <trkpt lat="44.33882" lon="4.53749">
        <ele>245</ele>
        <time>2015-05-04T10:12:41Z</time>
      </trkpt>
      <trkpt lat="44.33906" lon="4.53746">
        <ele>246</ele>
        <time>2015-05-04T10:12:38Z</time>
      </trkpt>
      <trkpt lat="44.3393" lon="4.53745">
        <ele>247</ele>
        <time>2015-05-04T10:12:36Z</time>
      </trkpt>
      <trkpt lat="44.33954" lon="4.53742">
        <ele>248</ele>
        <time>2015-05-04T10:12:32Z</time>
      </trkpt>
      <trkpt lat="44.33978" lon="4.53737">
        <ele>249</ele>
        <time>2015-05-04T10:12:30Z</time>
      </trkpt>
      <trkpt lat="44.34003" lon="4.53728">
        <ele>253</ele>
        <time>2015-05-04T10:12:27Z</time>
      </trkpt>
      <trkpt lat="44.34018" lon="4.5372">
        <ele>253</ele>
        <time>2015-05-04T10:12:24Z</time>
      </trkpt>
      <trkpt lat="44.34034" lon="4.53713">
        <ele>253</ele>
        <time>2015-05-04T10:12:22Z</time>
      </trkpt>
      <trkpt lat="44.34057" lon="4.53701">
        <ele>254</ele>
        <time>2015-05-04T10:12:20Z</time>
      </trkpt>
      <trkpt lat="44.34081" lon="4.53689">
        <ele>253</ele>
        <time>2015-05-04T10:12:17Z</time>
      </trkpt>
      <trkpt lat="44.34106" lon="4.53677">
        <ele>258</ele>
        <time>2015-05-04T10:12:14Z</time>
      </trkpt>
      <trkpt lat="44.34124" lon="4.53664">
        <ele>255</ele>
        <time>2015-05-04T10:12:12Z</time>
      </trkpt>
      <trkpt lat="44.34138" lon="4.53644">
        <ele>256</ele>
        <time>2015-05-04T10:12:10Z</time>
      </trkpt>
      <trkpt lat="44.34143" lon="4.53599">
        <ele>255</ele>
        <time>2015-05-04T10:12:07Z</time>
      </trkpt>
      <trkpt lat="44.34135" lon="4.53555">
        <ele>257</ele>
        <time>2015-05-04T10:12:04Z</time>
      </trkpt>
      <trkpt lat="44.34126" lon="4.53514">
        <ele>258</ele>
        <time>2015-05-04T10:12:01Z</time>
      </trkpt>
      <trkpt lat="44.34118" lon="4.53477">
        <ele>261</ele>
        <time>2015-05-04T10:11:58Z</time>
      </trkpt>
      <trkpt lat="44.3411" lon="4.53444">
        <ele>261</ele>
        <time>2015-05-04T10:11:55Z</time>
      </trkpt>
      <trkpt lat="44.34105" lon="4.53423">
        <ele>261</ele>
        <time>2015-05-04T10:11:53Z</time>
      </trkpt>
      <trkpt lat="44.34097" lon="4.53391">
        <ele>262</ele>
        <time>2015-05-04T10:11:50Z</time>
      </trkpt>
      <trkpt lat="44.34093" lon="4.53369">
        <ele>263</ele>
        <time>2015-05-04T10:11:48Z</time>
      </trkpt>
      <trkpt lat="44.34088" lon="4.53345">
        <ele>263</ele>
        <time>2015-05-04T10:11:45Z</time>
      </trkpt>
      <trkpt lat="44.3408" lon="4.53308">
        <ele>263</ele>
        <time>2015-05-04T10:11:43Z</time>
      </trkpt>
      <trkpt lat="44.34072" lon="4.53267">
        <ele>264</ele>
        <time>2015-05-04T10:11:40Z</time>
      </trkpt>
      <trkpt lat="44.34067" lon="4.53239">
        <ele>265</ele>
        <time>2015-05-04T10:11:37Z</time>
      </trkpt>
      <trkpt lat="44.34059" lon="4.53193">
        <ele>266</ele>
        <time>2015-05-04T10:11:35Z</time>
      </trkpt>
      <trkpt lat="44.34051" lon="4.53146">
        <ele>268</ele>
        <time>2015-05-04T10:11:32Z</time>
      </trkpt>
      <trkpt lat="44.34042" lon="4.53098">
        <ele>269</ele>
        <time>2015-05-04T10:11:29Z</time>
      </trkpt>
      <trkpt lat="44.34034" lon="4.53051">
        <ele>273</ele>
        <time>2015-05-04T10:11:26Z</time>
      </trkpt>
      <trkpt lat="44.34029" lon="4.53021">
        <ele>274</ele>
        <time>2015-05-04T10:11:24Z</time>
      </trkpt>
      <trkpt lat="44.34024" lon="4.52991">
        <ele>278</ele>
        <time>2015-05-04T10:11:21Z</time>
      </trkpt>
      <trkpt lat="44.34019" lon="4.52962">
        <ele>278</ele>
        <time>2015-05-04T10:11:19Z</time>
      </trkpt>
      <trkpt lat="44.34012" lon="4.52921">
        <ele>279</ele>
        <time>2015-05-04T10:11:16Z</time>
      </trkpt>
      <trkpt lat="44.34005" lon="4.52883">
        <ele>281</ele>
        <time>2015-05-04T10:11:14Z</time>
      </trkpt>
      <trkpt lat="44.33999" lon="4.52847">
        <ele>282</ele>
        <time>2015-05-04T10:11:11Z</time>
      </trkpt>
      <trkpt lat="44.33992" lon="4.52814">
        <ele>284</ele>
        <time>2015-05-04T10:11:07Z</time>
      </trkpt>
      <trkpt lat="44.33983" lon="4.52785">
        <ele>284</ele>
        <time>2015-05-04T10:11:05Z</time>
      </trkpt>
      <trkpt lat="44.33977" lon="4.52767">
        <ele>284</ele>
        <time>2015-05-04T10:11:03Z</time>
      </trkpt>
      <trkpt lat="44.33969" lon="4.52742">
        <ele>286</ele>
        <time>2015-05-04T10:11:00Z</time>
      </trkpt>
      <trkpt lat="44.33964" lon="4.52726">
        <ele>286</ele>
        <time>2015-05-04T10:10:57Z</time>
      </trkpt>
      <trkpt lat="44.33957" lon="4.52703">
        <ele>286</ele>
        <time>2015-05-04T10:10:55Z</time>
      </trkpt>
      <trkpt lat="44.33949" lon="4.52682">
        <ele>286</ele>
        <time>2015-05-04T10:10:52Z</time>
      </trkpt>
      <trkpt lat="44.33943" lon="4.52663">
        <ele>286</ele>
        <time>2015-05-04T10:10:48Z</time>
      </trkpt>
      <trkpt lat="44.33937" lon="4.52644">
        <ele>287</ele>
        <time>2015-05-04T10:10:46Z</time>
      </trkpt>
      <trkpt lat="44.33931" lon="4.52627">
        <ele>287</ele>
        <time>2015-05-04T10:10:43Z</time>
      </trkpt>
      <trkpt lat="44.33927" lon="4.52616">
        <ele>287</ele>
        <time>2015-05-04T10:10:41Z</time>
      </trkpt>
      <trkpt lat="44.33924" lon="4.52605">
        <ele>286</ele>
        <time>2015-05-04T10:10:38Z</time>
      </trkpt>
      <trkpt lat="44.33919" lon="4.52589">
        <ele>286</ele>
        <time>2015-05-04T10:10:36Z</time>
      </trkpt>
      <trkpt lat="44.33913" lon="4.52574">
        <ele>285</ele>
        <time>2015-05-04T10:10:33Z</time>
      </trkpt>
      <trkpt lat="44.33908" lon="4.5256">
        <ele>284</ele>
        <time>2015-05-04T10:10:30Z</time>
      </trkpt>
      <trkpt lat="44.33904" lon="4.5255">
        <ele>284</ele>
        <time>2015-05-04T10:10:27Z</time>
      </trkpt>
      <trkpt lat="44.339" lon="4.52541">
        <ele>284</ele>
        <time>2015-05-04T10:10:25Z</time>
      </trkpt>
      <trkpt lat="44.33893" lon="4.52528">
        <ele>283</ele>
        <time>2015-05-04T10:10:23Z</time>
      </trkpt>
      <trkpt lat="44.33886" lon="4.52515">
        <ele>283</ele>
        <time>2015-05-04T10:10:20Z</time>
      </trkpt>
      <trkpt lat="44.33881" lon="4.52507">
        <ele>283</ele>
        <time>2015-05-04T10:10:18Z</time>
      </trkpt>
      <trkpt lat="44.33873" lon="4.52495">
        <ele>281</ele>
        <time>2015-05-04T10:10:15Z</time>
      </trkpt>
      <trkpt lat="44.33864" lon="4.52484">
        <ele>280</ele>
        <time>2015-05-04T10:10:12Z</time>
      </trkpt>
      <trkpt lat="44.33858" lon="4.52476">
        <ele>280</ele>
        <time>2015-05-04T10:10:09Z</time>
      </trkpt>
      <trkpt lat="44.33852" lon="4.52469">
        <ele>280</ele>
        <time>2015-05-04T10:10:07Z</time>
      </trkpt>
      <trkpt lat="44.33846" lon="4.52462">
        <ele>280</ele>
        <time>2015-05-04T10:10:05Z</time>
      </trkpt>
      <trkpt lat="44.3384" lon="4.52455">
        <ele>280</ele>
        <time>2015-05-04T10:10:03Z</time>
      </trkpt>
      <trkpt lat="44.33833" lon="4.52449">
        <ele>278</ele>
        <time>2015-05-04T10:10:01Z</time>
      </trkpt>
      <trkpt lat="44.33824" lon="4.52439">
        <ele>278</ele>
        <time>2015-05-04T10:09:59Z</time>
      </trkpt>
      <trkpt lat="44.33817" lon="4.52433">
        <ele>278</ele>
        <time>2015-05-04T10:09:57Z</time>
      </trkpt>
      <trkpt lat="44.33807" lon="4.52423">
        <ele>277</ele>
        <time>2015-05-04T10:09:54Z</time>
      </trkpt>
      <trkpt lat="44.33799" lon="4.52417">
        <ele>277</ele>
        <time>2015-05-04T10:09:52Z</time>
      </trkpt>
      <trkpt lat="44.33789" lon="4.52407">
        <ele>277</ele>
        <time>2015-05-04T10:09:49Z</time>
      </trkpt>
      <trkpt lat="44.33777" lon="4.52398">
        <ele>276</ele>
        <time>2015-05-04T10:09:46Z</time>
      </trkpt>
      <trkpt lat="44.33766" lon="4.52388">
        <ele>276</ele>
        <time>2015-05-04T10:09:43Z</time>
      </trkpt>
      <trkpt lat="44.33757" lon="4.52378">
        <ele>276</ele>
        <time>2015-05-04T10:09:40Z</time>
      </trkpt>
      <trkpt lat="44.33746" lon="4.52368">
        <ele>272</ele>
        <time>2015-05-04T10:09:37Z</time>
      </trkpt>
      <trkpt lat="44.33739" lon="4.52362">
        <ele>272</ele>
        <time>2015-05-04T10:09:35Z</time>
      </trkpt>
      <trkpt lat="44.33731" lon="4.52355">
        <ele>272</ele>
        <time>2015-05-04T10:09:33Z</time>
      </trkpt>
      <trkpt lat="44.3372" lon="4.52344">
        <ele>272</ele>
        <time>2015-05-04T10:09:29Z</time>
      </trkpt>
      <trkpt lat="44.3371" lon="4.52333">
        <ele>273</ele>
        <time>2015-05-04T10:09:27Z</time>
      </trkpt>
      <trkpt lat="44.33703" lon="4.52327">
        <ele>272</ele>
        <time>2015-05-04T10:09:24Z</time>
      </trkpt>
      <trkpt lat="44.33692" lon="4.52316">
        <ele>272</ele>
        <time>2015-05-04T10:09:22Z</time>
      </trkpt>
      <trkpt lat="44.33685" lon="4.52309">
        <ele>272</ele>
        <time>2015-05-04T10:09:19Z</time>
      </trkpt>
      <trkpt lat="44.33672" lon="4.52297">
        <ele>272</ele>
        <time>2015-05-04T10:09:17Z</time>
      </trkpt>
      <trkpt lat="44.33658" lon="4.52285">
        <ele>267</ele>
        <time>2015-05-04T10:09:14Z</time>
      </trkpt>
      <trkpt lat="44.33648" lon="4.52277">
        <ele>267</ele>
        <time>2015-05-04T10:09:12Z</time>
      </trkpt>
      <trkpt lat="44.33632" lon="4.52263">
        <ele>267</ele>
        <time>2015-05-04T10:09:09Z</time>
      </trkpt>
      <trkpt lat="44.33614" lon="4.52249">
        <ele>269</ele>
        <time>2015-05-04T10:09:06Z</time>
      </trkpt>
      <trkpt lat="44.33595" lon="4.52236">
        <ele>267</ele>
        <time>2015-05-04T10:09:03Z</time>
      </trkpt>
      <trkpt lat="44.33582" lon="4.52228">
        <ele>266</ele>
        <time>2015-05-04T10:09:00Z</time>
      </trkpt>
      <trkpt lat="44.33562" lon="4.52218">
        <ele>267</ele>
        <time>2015-05-04T10:08:58Z</time>
      </trkpt>
      <trkpt lat="44.3354" lon="4.52213">
        <ele>267</ele>
        <time>2015-05-04T10:08:55Z</time>
      </trkpt>
      <trkpt lat="44.33516" lon="4.5221">
        <ele>267</ele>
        <time>2015-05-04T10:08:52Z</time>
      </trkpt>
      <trkpt lat="44.33501" lon="4.52209">
        <ele>267</ele>
        <time>2015-05-04T10:08:50Z</time>
      </trkpt>
      <trkpt lat="44.33485" lon="4.5221">
        <ele>266</ele>
        <time>2015-05-04T10:08:48Z</time>
      </trkpt>
      <trkpt lat="44.33469" lon="4.52212">
        <ele>266</ele>
        <time>2015-05-04T10:08:46Z</time>
      </trkpt>
      <trkpt lat="44.33446" lon="4.52216">
        <ele>266</ele>
        <time>2015-05-04T10:08:42Z</time>
      </trkpt>
      <trkpt lat="44.3343" lon="4.52219">
        <ele>266</ele>
        <time>2015-05-04T10:08:40Z</time>
      </trkpt>
      <trkpt lat="44.33408" lon="4.52222">
        <ele>265</ele>
        <time>2015-05-04T10:08:38Z</time>
      </trkpt>
      <trkpt lat="44.33392" lon="4.52225">
        <ele>265</ele>
        <time>2015-05-04T10:08:36Z</time>
      </trkpt>
      <trkpt lat="44.3337" lon="4.52227">
        <ele>265</ele>
        <time>2015-05-04T10:08:33Z</time>
      </trkpt>
      <trkpt lat="44.33355" lon="4.52227">
        <ele>264</ele>
        <time>2015-05-04T10:08:31Z</time>
      </trkpt>
      <trkpt lat="44.33341" lon="4.52223">
        <ele>264</ele>
        <time>2015-05-04T10:08:29Z</time>
      </trkpt>
      <trkpt lat="44.33324" lon="4.52209">
        <ele>255</ele>
        <time>2015-05-04T10:08:26Z</time>
      </trkpt>
      <trkpt lat="44.33313" lon="4.52187">
        <ele>254</ele>
        <time>2015-05-04T10:08:23Z</time>
      </trkpt>
      <trkpt lat="44.33309" lon="4.52161">
        <ele>251</ele>
        <time>2015-05-04T10:08:20Z</time>
      </trkpt>
      <trkpt lat="44.3331" lon="4.52136">
        <ele>249</ele>
        <time>2015-05-04T10:08:17Z</time>
      </trkpt>
      <trkpt lat="44.33314" lon="4.5211">
        <ele>250</ele>
        <time>2015-05-04T10:08:14Z</time>
      </trkpt>
      <trkpt lat="44.33318" lon="4.52084">
        <ele>254</ele>
        <time>2015-05-04T10:08:11Z</time>
      </trkpt>
      <trkpt lat="44.33322" lon="4.52056">
        <ele>250</ele>
        <time>2015-05-04T10:08:08Z</time>
      </trkpt>
      <trkpt lat="44.33326" lon="4.52028">
        <ele>250</ele>
        <time>2015-05-04T10:08:05Z</time>
      </trkpt>
      <trkpt lat="44.33329" lon="4.52009">
        <ele>254</ele>
        <time>2015-05-04T10:08:03Z</time>
      </trkpt>
      <trkpt lat="44.33332" lon="4.51991">
        <ele>253</ele>
        <time>2015-05-04T10:08:00Z</time>
      </trkpt>
      <trkpt lat="44.3334" lon="4.51964">
        <ele>260</ele>
        <time>2015-05-04T10:07:58Z</time>
      </trkpt>
      <trkpt lat="44.33347" lon="4.51948">
        <ele>260</ele>
        <time>2015-05-04T10:07:55Z</time>
      </trkpt>
      <trkpt lat="44.3336" lon="4.51925">
        <ele>259</ele>
        <time>2015-05-04T10:07:53Z</time>
      </trkpt>
      <trkpt lat="44.33373" lon="4.51904">
        <ele>260</ele>
        <time>2015-05-04T10:07:50Z</time>
      </trkpt>
      <trkpt lat="44.33387" lon="4.51883">
        <ele>262</ele>
        <time>2015-05-04T10:07:47Z</time>
      </trkpt>
      <trkpt lat="44.33392" lon="4.51854">
        <ele>263</ele>
        <time>2015-05-04T10:07:44Z</time>
      </trkpt>
      <trkpt lat="44.33384" lon="4.51826">
        <ele>267</ele>
        <time>2015-05-04T10:07:41Z</time>
      </trkpt>
      <trkpt lat="44.33373" lon="4.51812">
        <ele>266</ele>
        <time>2015-05-04T10:07:39Z</time>
      </trkpt>
      <trkpt lat="44.33353" lon="4.51796">
        <ele>265</ele>
        <time>2015-05-04T10:07:36Z</time>
      </trkpt>
      <trkpt lat="44.33333" lon="4.51782">
        <ele>257</ele>
        <time>2015-05-04T10:07:33Z</time>
      </trkpt>
      <trkpt lat="44.3332" lon="4.51772">
        <ele>258</ele>
        <time>2015-05-04T10:07:30Z</time>
      </trkpt>
      <trkpt lat="44.33301" lon="4.51757">
        <ele>257</ele>
        <time>2015-05-04T10:07:28Z</time>
      </trkpt>
      <trkpt lat="44.33289" lon="4.51747">
        <ele>263</ele>
        <time>2015-05-04T10:07:25Z</time>
      </trkpt>
      <trkpt lat="44.33272" lon="4.5173">
        <ele>261</ele>
        <time>2015-05-04T10:07:23Z</time>
      </trkpt>
      <trkpt lat="44.33258" lon="4.51707">
        <ele>262</ele>
        <time>2015-05-04T10:07:20Z</time>
      </trkpt>
      <trkpt lat="44.33249" lon="4.51678">
        <ele>258</ele>
        <time>2015-05-04T10:07:17Z</time>
      </trkpt>
      <trkpt lat="44.33246" lon="4.51657">
        <ele>259</ele>
        <time>2015-05-04T10:07:15Z</time>
      </trkpt>
      <trkpt lat="44.33246" lon="4.51621">
        <ele>255</ele>
        <time>2015-05-04T10:07:12Z</time>
      </trkpt>
      <trkpt lat="44.33246" lon="4.51583">
        <ele>259</ele>
        <time>2015-05-04T10:07:09Z</time>
      </trkpt>
      <trkpt lat="44.33246" lon="4.51543">
        <ele>254</ele>
        <time>2015-05-04T10:07:05Z</time>
      </trkpt>
      <trkpt lat="44.33247" lon="4.51507">
        <ele>258</ele>
        <time>2015-05-04T10:07:03Z</time>
      </trkpt>
      <trkpt lat="44.33257" lon="4.51477">
        <ele>264</ele>
        <time>2015-05-04T10:07:00Z</time>
      </trkpt>
      <trkpt lat="44.33267" lon="4.51464">
        <ele>265</ele>
        <time>2015-05-04T10:06:58Z</time>
      </trkpt>
      <trkpt lat="44.33286" lon="4.51455">
        <ele>266</ele>
        <time>2015-05-04T10:06:55Z</time>
      </trkpt>
      <trkpt lat="44.33305" lon="4.51457">
        <ele>267</ele>
        <time>2015-05-04T10:06:51Z</time>
      </trkpt>
      <trkpt lat="44.33322" lon="4.51465">
        <ele>268</ele>
        <time>2015-05-04T10:06:49Z</time>
      </trkpt>
      <trkpt lat="44.33339" lon="4.51473">
        <ele>270</ele>
        <time>2015-05-04T10:06:46Z</time>
      </trkpt>
      <trkpt lat="44.33356" lon="4.5148">
        <ele>270</ele>
        <time>2015-05-04T10:06:43Z</time>
      </trkpt>
      <trkpt lat="44.33372" lon="4.51486">
        <ele>269</ele>
        <time>2015-05-04T10:06:40Z</time>
      </trkpt>
      <trkpt lat="44.33388" lon="4.51493">
        <ele>269</ele>
        <time>2015-05-04T10:06:37Z</time>
      </trkpt>
      <trkpt lat="44.33404" lon="4.51499">
        <ele>269</ele>
        <time>2015-05-04T10:06:34Z</time>
      </trkpt>
      <trkpt lat="44.3342" lon="4.51501">
        <ele>269</ele>
        <time>2015-05-04T10:06:31Z</time>
      </trkpt>
      <trkpt lat="44.3343" lon="4.51501">
        <ele>269</ele>
        <time>2015-05-04T10:06:29Z</time>
      </trkpt>
      <trkpt lat="44.33445" lon="4.51501">
        <ele>269</ele>
        <time>2015-05-04T10:06:26Z</time>
      </trkpt>
      <trkpt lat="44.33454" lon="4.51501">
        <ele>269</ele>
        <time>2015-05-04T10:06:23Z</time>
      </trkpt>
      <trkpt lat="44.33467" lon="4.515">
        <ele>266</ele>
        <time>2015-05-04T10:06:21Z</time>
      </trkpt>
      <trkpt lat="44.3348" lon="4.51499">
        <ele>266</ele>
        <time>2015-05-04T10:06:18Z</time>
      </trkpt>
      <trkpt lat="44.33492" lon="4.51499">
        <ele>267</ele>
        <time>2015-05-04T10:06:15Z</time>
      </trkpt>
      <trkpt lat="44.33505" lon="4.51498">
        <ele>266</ele>
        <time>2015-05-04T10:06:12Z</time>
      </trkpt>
      <trkpt lat="44.33519" lon="4.51497">
        <ele>264</ele>
        <time>2015-05-04T10:06:09Z</time>
      </trkpt>
      <trkpt lat="44.33532" lon="4.51496">
        <ele>263</ele>
        <time>2015-05-04T10:06:06Z</time>
      </trkpt>
      <trkpt lat="44.33541" lon="4.51495">
        <ele>262</ele>
        <time>2015-05-04T10:06:04Z</time>
      </trkpt>
      <trkpt lat="44.3355" lon="4.51495">
        <ele>262</ele>
        <time>2015-05-04T10:06:02Z</time>
      </trkpt>
      <trkpt lat="44.33563" lon="4.51497">
        <ele>262</ele>
        <time>2015-05-04T10:05:59Z</time>
      </trkpt>
      <trkpt lat="44.33577" lon="4.51499">
        <ele>263</ele>
        <time>2015-05-04T10:05:56Z</time>
      </trkpt>
      <trkpt lat="44.3359" lon="4.51504">
        <ele>263</ele>
        <time>2015-05-04T10:05:53Z</time>
      </trkpt>
      <trkpt lat="44.33598" lon="4.51508">
        <ele>263</ele>
        <time>2015-05-04T10:05:50Z</time>
      </trkpt>
      <trkpt lat="44.33608" lon="4.51513">
        <ele>262</ele>
        <time>2015-05-04T10:05:48Z</time>
      </trkpt>
      <trkpt lat="44.33616" lon="4.51518">
        <ele>262</ele>
        <time>2015-05-04T10:05:46Z</time>
      </trkpt>
      <trkpt lat="44.33629" lon="4.51524">
        <ele>262</ele>
        <time>2015-05-04T10:05:44Z</time>
      </trkpt>
      <trkpt lat="44.33643" lon="4.51531">
        <ele>261</ele>
        <time>2015-05-04T10:05:41Z</time>
      </trkpt>
      <trkpt lat="44.33652" lon="4.51536">
        <ele>261</ele>
        <time>2015-05-04T10:05:38Z</time>
      </trkpt>
      <trkpt lat="44.33666" lon="4.51544">
        <ele>262</ele>
        <time>2015-05-04T10:05:35Z</time>
      </trkpt>
      <trkpt lat="44.33679" lon="4.51551">
        <ele>260</ele>
        <time>2015-05-04T10:05:33Z</time>
      </trkpt>
      <trkpt lat="44.33692" lon="4.51558">
        <ele>260</ele>
        <time>2015-05-04T10:05:30Z</time>
      </trkpt>
      <trkpt lat="44.33701" lon="4.51562">
        <ele>261</ele>
        <time>2015-05-04T10:05:28Z</time>
      </trkpt>
      <trkpt lat="44.33714" lon="4.51569">
        <ele>261</ele>
        <time>2015-05-04T10:05:24Z</time>
      </trkpt>
      <trkpt lat="44.33727" lon="4.51576">
        <ele>261</ele>
        <time>2015-05-04T10:05:22Z</time>
      </trkpt>
      <trkpt lat="44.33736" lon="4.5158">
        <ele>262</ele>
        <time>2015-05-04T10:05:19Z</time>
      </trkpt>
      <trkpt lat="44.33746" lon="4.51584">
        <ele>264</ele>
        <time>2015-05-04T10:05:17Z</time>
      </trkpt>
      <trkpt lat="44.33759" lon="4.51591">
        <ele>262</ele>
        <time>2015-05-04T10:05:14Z</time>
      </trkpt>
      <trkpt lat="44.33773" lon="4.51598">
        <ele>261</ele>
        <time>2015-05-04T10:05:11Z</time>
      </trkpt>
      <trkpt lat="44.33787" lon="4.51604">
        <ele>259</ele>
        <time>2015-05-04T10:05:09Z</time>
      </trkpt>
      <trkpt lat="44.33802" lon="4.5161">
        <ele>258</ele>
        <time>2015-05-04T10:05:06Z</time>
      </trkpt>
      <trkpt lat="44.33812" lon="4.51614">
        <ele>258</ele>
        <time>2015-05-04T10:05:04Z</time>
      </trkpt>
      <trkpt lat="44.33828" lon="4.51618">
        <ele>257</ele>
        <time>2015-05-04T10:05:01Z</time>
      </trkpt>
      <trkpt lat="44.33844" lon="4.51618">
        <ele>254</ele>
        <time>2015-05-04T10:04:58Z</time>
      </trkpt>
      <trkpt lat="44.33856" lon="4.51617">
        <ele>254</ele>
        <time>2015-05-04T10:04:55Z</time>
      </trkpt>
      <trkpt lat="44.33874" lon="4.51614">
        <ele>254</ele>
        <time>2015-05-04T10:04:53Z</time>
      </trkpt>
      <trkpt lat="44.33886" lon="4.51612">
        <ele>254</ele>
        <time>2015-05-04T10:04:50Z</time>
      </trkpt>
      <trkpt lat="44.33905" lon="4.51609">
        <ele>253</ele>
        <time>2015-05-04T10:04:48Z</time>
      </trkpt>
      <trkpt lat="44.33918" lon="4.51605">
        <ele>253</ele>
        <time>2015-05-04T10:04:45Z</time>
      </trkpt>
      <trkpt lat="44.33936" lon="4.51589">
        <ele>253</ele>
        <time>2015-05-04T10:04:43Z</time>
      </trkpt>
      <trkpt lat="44.33942" lon="4.51567">
        <ele>252</ele>
        <time>2015-05-04T10:04:41Z</time>
      </trkpt>
      <trkpt lat="44.33932" lon="4.51526">
        <ele>252</ele>
        <time>2015-05-04T10:04:38Z</time>
      </trkpt>
      <trkpt lat="44.33905" lon="4.515">
        <ele>250</ele>
        <time>2015-05-04T10:04:35Z</time>
      </trkpt>
      <trkpt lat="44.33883" lon="4.5147">
        <ele>250</ele>
        <time>2015-05-04T10:04:31Z</time>
      </trkpt>
      <trkpt lat="44.33872" lon="4.51431">
        <ele>251</ele>
        <time>2015-05-04T10:04:29Z</time>
      </trkpt>
      <trkpt lat="44.33865" lon="4.51391">
        <ele>255</ele>
        <time>2015-05-04T10:04:26Z</time>
      </trkpt>
      <trkpt lat="44.33857" lon="4.51353">
        <ele>255</ele>
        <time>2015-05-04T10:04:23Z</time>
      </trkpt>
      <trkpt lat="44.33848" lon="4.51331">
        <ele>257</ele>
        <time>2015-05-04T10:04:20Z</time>
      </trkpt>
      <trkpt lat="44.33833" lon="4.51302">
        <ele>253</ele>
        <time>2015-05-04T10:04:18Z</time>
      </trkpt>
      <trkpt lat="44.33823" lon="4.51284">
        <ele>254</ele>
        <time>2015-05-04T10:04:16Z</time>
      </trkpt>
      <trkpt lat="44.33813" lon="4.51255">
        <ele>257</ele>
        <time>2015-05-04T10:04:13Z</time>
      </trkpt>
      <trkpt lat="44.33809" lon="4.51226">
        <ele>262</ele>
        <time>2015-05-04T10:04:09Z</time>
      </trkpt>
      <trkpt lat="44.33809" lon="4.51199">
        <ele>262</ele>
        <time>2015-05-04T10:04:07Z</time>
      </trkpt>
      <trkpt lat="44.33813" lon="4.51173">
        <ele>264</ele>
        <time>2015-05-04T10:04:04Z</time>
      </trkpt>
      <trkpt lat="44.3382" lon="4.51149">
        <ele>265</ele>
        <time>2015-05-04T10:04:01Z</time>
      </trkpt>
      <trkpt lat="44.3383" lon="4.51126">
        <ele>265</ele>
        <time>2015-05-04T10:03:58Z</time>
      </trkpt>
      <trkpt lat="44.33842" lon="4.51104">
        <ele>266</ele>
        <time>2015-05-04T10:03:55Z</time>
      </trkpt>
      <trkpt lat="44.33851" lon="4.51089">
        <ele>265</ele>
        <time>2015-05-04T10:03:53Z</time>
      </trkpt>
      <trkpt lat="44.33864" lon="4.51064">
        <ele>262</ele>
        <time>2015-05-04T10:03:50Z</time>
      </trkpt>
      <trkpt lat="44.3388" lon="4.51038">
        <ele>261</ele>
        <time>2015-05-04T10:03:46Z</time>
      </trkpt>
      <trkpt lat="44.33892" lon="4.51022">
        <ele>260</ele>
        <time>2015-05-04T10:03:44Z</time>
      </trkpt>
      <trkpt lat="44.33913" lon="4.50998">
        <ele>256</ele>
        <time>2015-05-04T10:03:42Z</time>
      </trkpt>
      <trkpt lat="44.33941" lon="4.50979">
        <ele>257</ele>
        <time>2015-05-04T10:03:39Z</time>
      </trkpt>
      <trkpt lat="44.33973" lon="4.5097">
        <ele>258</ele>
        <time>2015-05-04T10:03:36Z</time>
      </trkpt>
      <trkpt lat="44.34005" lon="4.50969">
        <ele>262</ele>
        <time>2015-05-04T10:03:33Z</time>
      </trkpt>
      <trkpt lat="44.34025" lon="4.50968">
        <ele>262</ele>
        <time>2015-05-04T10:03:31Z</time>
      </trkpt>
      <trkpt lat="44.34045" lon="4.50968">
        <ele>262</ele>
        <time>2015-05-04T10:03:29Z</time>
      </trkpt>
      <trkpt lat="44.34076" lon="4.50967">
        <ele>263</ele>
        <time>2015-05-04T10:03:26Z</time>
      </trkpt>
      <trkpt lat="44.34105" lon="4.50967">
        <ele>266</ele>
        <time>2015-05-04T10:03:23Z</time>
      </trkpt>
      <trkpt lat="44.34123" lon="4.50966">
        <ele>266</ele>
        <time>2015-05-04T10:03:21Z</time>
      </trkpt>
      <trkpt lat="44.34142" lon="4.50965">
        <ele>267</ele>
        <time>2015-05-04T10:03:19Z</time>
      </trkpt>
      <trkpt lat="44.3416" lon="4.50964">
        <ele>267</ele>
        <time>2015-05-04T10:03:17Z</time>
      </trkpt>
      <trkpt lat="44.34187" lon="4.50964">
        <ele>270</ele>
        <time>2015-05-04T10:03:14Z</time>
      </trkpt>
      <trkpt lat="44.34205" lon="4.50964">
        <ele>270</ele>
        <time>2015-05-04T10:03:11Z</time>
      </trkpt>
      <trkpt lat="44.34231" lon="4.50963">
        <ele>270</ele>
        <time>2015-05-04T10:03:09Z</time>
      </trkpt>
      <trkpt lat="44.34248" lon="4.50962">
        <ele>270</ele>
        <time>2015-05-04T10:03:06Z</time>
      </trkpt>
      <trkpt lat="44.34274" lon="4.50961">
        <ele>273</ele>
        <time>2015-05-04T10:03:04Z</time>
      </trkpt>
      <trkpt lat="44.343" lon="4.50958">
        <ele>274</ele>
        <time>2015-05-04T10:03:01Z</time>
      </trkpt>
      <trkpt lat="44.34325" lon="4.50951">
        <ele>274</ele>
        <time>2015-05-04T10:02:58Z</time>
      </trkpt>
      <trkpt lat="44.34349" lon="4.50939">
        <ele>277</ele>
        <time>2015-05-04T10:02:55Z</time>
      </trkpt>
      <trkpt lat="44.34372" lon="4.50924">
        <ele>278</ele>
        <time>2015-05-04T10:02:52Z</time>
      </trkpt>
      <trkpt lat="44.34387" lon="4.50913">
        <ele>274</ele>
        <time>2015-05-04T10:02:50Z</time>
      </trkpt>
      <trkpt lat="44.34411" lon="4.50896">
        <ele>274</ele>
        <time>2015-05-04T10:02:46Z</time>
      </trkpt>
      <trkpt lat="44.34434" lon="4.5088">
        <ele>277</ele>
        <time>2015-05-04T10:02:44Z</time>
      </trkpt>
      <trkpt lat="44.34458" lon="4.50864">
        <ele>278</ele>
        <time>2015-05-04T10:02:41Z</time>
      </trkpt>
      <trkpt lat="44.34473" lon="4.50853">
        <ele>279</ele>
        <time>2015-05-04T10:02:39Z</time>
      </trkpt>
      <trkpt lat="44.34489" lon="4.50842">
        <ele>280</ele>
        <time>2015-05-04T10:02:37Z</time>
      </trkpt>
      <trkpt lat="44.34505" lon="4.50831">
        <ele>282</ele>
        <time>2015-05-04T10:02:35Z</time>
      </trkpt>
      <trkpt lat="44.34528" lon="4.50815">
        <ele>284</ele>
        <time>2015-05-04T10:02:32Z</time>
      </trkpt>
      <trkpt lat="44.34542" lon="4.50804">
        <ele>285</ele>
        <time>2015-05-04T10:02:30Z</time>
      </trkpt>
      <trkpt lat="44.34555" lon="4.50793">
        <ele>285</ele>
        <time>2015-05-04T10:02:28Z</time>
      </trkpt>
      <trkpt lat="44.34566" lon="4.5078">
        <ele>286</ele>
        <time>2015-05-04T10:02:26Z</time>
      </trkpt>
      <trkpt lat="44.34581" lon="4.5076">
        <ele>288</ele>
        <time>2015-05-04T10:02:23Z</time>
      </trkpt>
      <trkpt lat="44.34593" lon="4.5074">
        <ele>288</ele>
        <time>2015-05-04T10:02:20Z</time>
      </trkpt>
      <trkpt lat="44.34602" lon="4.50723">
        <ele>288</ele>
        <time>2015-05-04T10:02:17Z</time>
      </trkpt>
      <trkpt lat="44.34608" lon="4.50713">
        <ele>287</ele>
        <time>2015-05-04T10:02:15Z</time>
      </trkpt>
      <trkpt lat="44.34616" lon="4.50698">
        <ele>286</ele>
        <time>2015-05-04T10:02:12Z</time>
      </trkpt>
      <trkpt lat="44.34621" lon="4.50689">
        <ele>286</ele>
        <time>2015-05-04T10:02:10Z</time>
      </trkpt>
      <trkpt lat="44.34629" lon="4.50677">
        <ele>287</ele>
        <time>2015-05-04T10:02:07Z</time>
      </trkpt>
      <trkpt lat="44.34636" lon="4.50664">
        <ele>270</ele>
        <time>2015-05-04T10:02:04Z</time>
      </trkpt>
      <trkpt lat="44.34641" lon="4.50655">
        <ele>270</ele>
        <time>2015-05-04T10:02:02Z</time>
      </trkpt>
      <trkpt lat="44.34648" lon="4.50642">
        <ele>268</ele>
        <time>2015-05-04T10:01:59Z</time>
      </trkpt>
      <trkpt lat="44.34653" lon="4.50635">
        <ele>267</ele>
        <time>2015-05-04T10:01:57Z</time>
      </trkpt>
      <trkpt lat="44.3466" lon="4.50622">
        <ele>263</ele>
        <time>2015-05-04T10:01:54Z</time>
      </trkpt>
      <trkpt lat="44.34667" lon="4.50609">
        <ele>272</ele>
        <time>2015-05-04T10:01:51Z</time>
      </trkpt>
      <trkpt lat="44.34672" lon="4.50599">
        <ele>268</ele>
        <time>2015-05-04T10:01:49Z</time>
      </trkpt>
      <trkpt lat="44.34679" lon="4.50586">
        <ele>265</ele>
        <time>2015-05-04T10:01:46Z</time>
      </trkpt>
      <trkpt lat="44.34686" lon="4.50573">
        <ele>261</ele>
        <time>2015-05-04T10:01:43Z</time>
      </trkpt>
      <trkpt lat="44.34691" lon="4.50565">
        <ele>262</ele>
        <time>2015-05-04T10:01:40Z</time>
      </trkpt>
      <trkpt lat="44.34697" lon="4.50552">
        <ele>263</ele>
        <time>2015-05-04T10:01:38Z</time>
      </trkpt>
      <trkpt lat="44.34704" lon="4.50539">
        <ele>264</ele>
        <time>2015-05-04T10:01:35Z</time>
      </trkpt>
      <trkpt lat="44.34708" lon="4.50526">
        <ele>264</ele>
        <time>2015-05-04T10:01:32Z</time>
      </trkpt>
      <trkpt lat="44.3471" lon="4.50511">
        <ele>264</ele>
        <time>2015-05-04T10:01:29Z</time>
      </trkpt>
      <trkpt lat="44.34708" lon="4.50495">
        <ele>260</ele>
        <time>2015-05-04T10:01:26Z</time>
      </trkpt>
      <trkpt lat="44.34704" lon="4.5048">
        <ele>259</ele>
        <time>2015-05-04T10:01:23Z</time>
      </trkpt>
      <trkpt lat="44.34697" lon="4.50467">
        <ele>258</ele>
        <time>2015-05-04T10:01:20Z</time>
      </trkpt>
      <trkpt lat="44.34691" lon="4.50454">
        <ele>257</ele>
        <time>2015-05-04T10:01:17Z</time>
      </trkpt>
      <trkpt lat="44.34684" lon="4.50439">
        <ele>256</ele>
        <time>2015-05-04T10:01:14Z</time>
      </trkpt>
      <trkpt lat="44.34679" lon="4.50422">
        <ele>254</ele>
        <time>2015-05-04T10:01:11Z</time>
      </trkpt>
      <trkpt lat="44.34677" lon="4.5041">
        <ele>253</ele>
        <time>2015-05-04T10:01:09Z</time>
      </trkpt>
      <trkpt lat="44.34679" lon="4.50393">
        <ele>256</ele>
        <time>2015-05-04T10:01:06Z</time>
      </trkpt>
      <trkpt lat="44.34683" lon="4.50383">
        <ele>257</ele>
        <time>2015-05-04T10:01:04Z</time>
      </trkpt>
      <trkpt lat="44.34689" lon="4.50374">
        <ele>257</ele>
        <time>2015-05-04T10:01:02Z</time>
      </trkpt>
      <trkpt lat="44.347" lon="4.50364">
        <ele>259</ele>
        <time>2015-05-04T10:00:59Z</time>
      </trkpt>
      <trkpt lat="44.34708" lon="4.50359">
        <ele>259</ele>
        <time>2015-05-04T10:00:57Z</time>
      </trkpt>
      <trkpt lat="44.3472" lon="4.50355">
        <ele>261</ele>
        <time>2015-05-04T10:00:54Z</time>
      </trkpt>
      <trkpt lat="44.34729" lon="4.50352">
        <ele>262</ele>
        <time>2015-05-04T10:00:52Z</time>
      </trkpt>
      <trkpt lat="44.34742" lon="4.50349">
        <ele>263</ele>
        <time>2015-05-04T10:00:49Z</time>
      </trkpt>
      <trkpt lat="44.34756" lon="4.50346">
        <ele>269</ele>
        <time>2015-05-04T10:00:46Z</time>
      </trkpt>
      <trkpt lat="44.34769" lon="4.50341">
        <ele>270</ele>
        <time>2015-05-04T10:00:43Z</time>
      </trkpt>
      <trkpt lat="44.34778" lon="4.50338">
        <ele>271</ele>
        <time>2015-05-04T10:00:41Z</time>
      </trkpt>
      <trkpt lat="44.3479" lon="4.50331">
        <ele>269</ele>
        <time>2015-05-04T10:00:38Z</time>
      </trkpt>
      <trkpt lat="44.348" lon="4.5032">
        <ele>269</ele>
        <time>2015-05-04T10:00:35Z</time>
      </trkpt>
      <trkpt lat="44.34807" lon="4.50305">
        <ele>270</ele>
        <time>2015-05-04T10:00:32Z</time>
      </trkpt>
      <trkpt lat="44.34812" lon="4.50289">
        <ele>270</ele>
        <time>2015-05-04T10:00:29Z</time>
      </trkpt>
      <trkpt lat="44.34815" lon="4.50276">
        <ele>271</ele>
        <time>2015-05-04T10:00:27Z</time>
      </trkpt>
      <trkpt lat="44.34816" lon="4.50258">
        <ele>273</ele>
        <time>2015-05-04T10:00:24Z</time>
      </trkpt>
      <trkpt lat="44.34815" lon="4.5024">
        <ele>275</ele>
        <time>2015-05-04T10:00:21Z</time>
      </trkpt>
      <trkpt lat="44.34809" lon="4.50223">
        <ele>274</ele>
        <time>2015-05-04T10:00:18Z</time>
      </trkpt>
      <trkpt lat="44.34801" lon="4.50208">
        <ele>273</ele>
        <time>2015-05-04T10:00:15Z</time>
      </trkpt>
      <trkpt lat="44.34792" lon="4.50196">
        <ele>272</ele>
        <time>2015-05-04T10:00:12Z</time>
      </trkpt>
      <trkpt lat="44.34785" lon="4.50189">
        <ele>271</ele>
        <time>2015-05-04T10:00:10Z</time>
      </trkpt>
      <trkpt lat="44.34774" lon="4.50181">
        <ele>269</ele>
        <time>2015-05-04T10:00:07Z</time>
      </trkpt>
      <trkpt lat="44.34761" lon="4.50174">
        <ele>266</ele>
        <time>2015-05-04T10:00:04Z</time>
      </trkpt>
      <trkpt lat="44.34748" lon="4.50168">
        <ele>260</ele>
        <time>2015-05-04T10:00:01Z</time>
      </trkpt>
      <trkpt lat="44.34739" lon="4.50165">
        <ele>261</ele>
        <time>2015-05-04T09:59:59Z</time>
      </trkpt>
      <trkpt lat="44.34726" lon="4.50159">
        <ele>260</ele>
        <time>2015-05-04T09:59:56Z</time>
      </trkpt>
      <trkpt lat="44.34717" lon="4.50155">
        <ele>260</ele>
        <time>2015-05-04T09:59:54Z</time>
      </trkpt>
      <trkpt lat="44.34703" lon="4.50148">
        <ele>259</ele>
        <time>2015-05-04T09:59:51Z</time>
      </trkpt>
      <trkpt lat="44.34693" lon="4.50143">
        <ele>258</ele>
        <time>2015-05-04T09:59:49Z</time>
      </trkpt>
      <trkpt lat="44.34679" lon="4.50134">
        <ele>258</ele>
        <time>2015-05-04T09:59:46Z</time>
      </trkpt>
      <trkpt lat="44.34664" lon="4.50123">
        <ele>245</ele>
        <time>2015-05-04T09:59:43Z</time>
      </trkpt>
      <trkpt lat="44.34651" lon="4.50111">
        <ele>246</ele>
        <time>2015-05-04T09:59:40Z</time>
      </trkpt>
      <trkpt lat="44.34637" lon="4.50098">
        <ele>245</ele>
        <time>2015-05-04T09:59:37Z</time>
      </trkpt>
      <trkpt lat="44.34625" lon="4.50082">
        <ele>253</ele>
        <time>2015-05-04T09:59:34Z</time>
      </trkpt>
      <trkpt lat="44.3461" lon="4.50069">
        <ele>250</ele>
        <time>2015-05-04T09:59:31Z</time>
      </trkpt>
      <trkpt lat="44.34596" lon="4.50053">
        <ele>251</ele>
        <time>2015-05-04T09:59:28Z</time>
      </trkpt>
      <trkpt lat="44.3458" lon="4.50039">
        <ele>236</ele>
        <time>2015-05-04T09:59:25Z</time>
      </trkpt>
      <trkpt lat="44.34565" lon="4.50024">
        <ele>238</ele>
        <time>2015-05-04T09:59:22Z</time>
      </trkpt>
      <trkpt lat="44.34549" lon="4.50006">
        <ele>237</ele>
        <time>2015-05-04T09:59:19Z</time>
      </trkpt>
      <trkpt lat="44.34538" lon="4.49991">
        <ele>249</ele>
        <time>2015-05-04T09:59:17Z</time>
      </trkpt>
      <trkpt lat="44.3452" lon="4.49969">
        <ele>249</ele>
        <time>2015-05-04T09:59:14Z</time>
      </trkpt>
      <trkpt lat="44.34501" lon="4.49944">
        <ele>251</ele>
        <time>2015-05-04T09:59:11Z</time>
      </trkpt>
      <trkpt lat="44.34481" lon="4.49918">
        <ele>245</ele>
        <time>2015-05-04T09:59:08Z</time>
      </trkpt>
      <trkpt lat="44.3446" lon="4.49896">
        <ele>253</ele>
        <time>2015-05-04T09:59:05Z</time>
      </trkpt>
      <trkpt lat="44.3444" lon="4.49875">
        <ele>253</ele>
        <time>2015-05-04T09:59:02Z</time>
      </trkpt>
      <trkpt lat="44.34421" lon="4.49856">
        <ele>255</ele>
        <time>2015-05-04T09:58:59Z</time>
      </trkpt>
      <trkpt lat="44.34403" lon="4.49838">
        <ele>252</ele>
        <time>2015-05-04T09:58:56Z</time>
      </trkpt>
      <trkpt lat="44.34386" lon="4.49822">
        <ele>256</ele>
        <time>2015-05-04T09:58:53Z</time>
      </trkpt>
      <trkpt lat="44.34376" lon="4.49811">
        <ele>256</ele>
        <time>2015-05-04T09:58:51Z</time>
      </trkpt>
      <trkpt lat="44.34361" lon="4.49795">
        <ele>256</ele>
        <time>2015-05-04T09:58:48Z</time>
      </trkpt>
      <trkpt lat="44.34351" lon="4.49784">
        <ele>256</ele>
        <time>2015-05-04T09:58:46Z</time>
      </trkpt>
      <trkpt lat="44.34342" lon="4.49774">
        <ele>257</ele>
        <time>2015-05-04T09:58:44Z</time>
      </trkpt>
      <trkpt lat="44.34328" lon="4.49757">
        <ele>255</ele>
        <time>2015-05-04T09:58:41Z</time>
      </trkpt>
      <trkpt lat="44.34313" lon="4.49741">
        <ele>257</ele>
        <time>2015-05-04T09:58:38Z</time>
      </trkpt>
      <trkpt lat="44.34299" lon="4.49725">
        <ele>257</ele>
        <time>2015-05-04T09:58:35Z</time>
      </trkpt>
      <trkpt lat="44.34285" lon="4.49709">
        <ele>257</ele>
        <time>2015-05-04T09:58:32Z</time>
      </trkpt>
      <trkpt lat="44.34272" lon="4.49694">
        <ele>257</ele>
        <time>2015-05-04T09:58:29Z</time>
      </trkpt>
      <trkpt lat="44.34263" lon="4.49683">
        <ele>258</ele>
        <time>2015-05-04T09:58:27Z</time>
      </trkpt>
      <trkpt lat="44.34251" lon="4.49668">
        <ele>259</ele>
        <time>2015-05-04T09:58:24Z</time>
      </trkpt>
      <trkpt lat="44.34239" lon="4.49654">
        <ele>257</ele>
        <time>2015-05-04T09:58:21Z</time>
      </trkpt>
      <trkpt lat="44.34227" lon="4.4964">
        <ele>256</ele>
        <time>2015-05-04T09:58:18Z</time>
      </trkpt>
      <trkpt lat="44.34217" lon="4.49627">
        <ele>256</ele>
        <time>2015-05-04T09:58:15Z</time>
      </trkpt>
      <trkpt lat="44.34206" lon="4.49614">
        <ele>255</ele>
        <time>2015-05-04T09:58:12Z</time>
      </trkpt>
      <trkpt lat="44.34196" lon="4.49602">
        <ele>255</ele>
        <time>2015-05-04T09:58:09Z</time>
      </trkpt>
      <trkpt lat="44.3419" lon="4.49594">
        <ele>255</ele>
        <time>2015-05-04T09:58:07Z</time>
      </trkpt>
      <trkpt lat="44.34181" lon="4.49581">
        <ele>254</ele>
        <time>2015-05-04T09:58:04Z</time>
      </trkpt>
      <trkpt lat="44.34173" lon="4.49568">
        <ele>254</ele>
        <time>2015-05-04T09:58:01Z</time>
      </trkpt>
      <trkpt lat="44.34168" lon="4.49559">
        <ele>254</ele>
        <time>2015-05-04T09:57:59Z</time>
      </trkpt>
      <trkpt lat="44.3416" lon="4.49545">
        <ele>240</ele>
        <time>2015-05-04T09:57:56Z</time>
      </trkpt>
      <trkpt lat="44.34153" lon="4.49531">
        <ele>239</ele>
        <time>2015-05-04T09:57:53Z</time>
      </trkpt>
      <trkpt lat="44.34148" lon="4.4952">
        <ele>239</ele>
        <time>2015-05-04T09:57:51Z</time>
      </trkpt>
      <trkpt lat="44.34141" lon="4.49505">
        <ele>239</ele>
        <time>2015-05-04T09:57:48Z</time>
      </trkpt>
      <trkpt lat="44.34136" lon="4.49494">
        <ele>238</ele>
        <time>2015-05-04T09:57:46Z</time>
      </trkpt>
      <trkpt lat="44.34129" lon="4.49478">
        <ele>235</ele>
        <time>2015-05-04T09:57:43Z</time>
      </trkpt>
      <trkpt lat="44.34123" lon="4.49462">
        <ele>234</ele>
        <time>2015-05-04T09:57:40Z</time>
      </trkpt>
      <trkpt lat="44.34116" lon="4.49446">
        <ele>232</ele>
        <time>2015-05-04T09:57:37Z</time>
      </trkpt>
      <trkpt lat="44.34111" lon="4.49435">
        <ele>231</ele>
        <time>2015-05-04T09:57:35Z</time>
      </trkpt>
      <trkpt lat="44.34107" lon="4.49418">
        <ele>229</ele>
        <time>2015-05-04T09:57:32Z</time>
      </trkpt>
      <trkpt lat="44.34106" lon="4.494">
        <ele>228</ele>
        <time>2015-05-04T09:57:29Z</time>
      </trkpt>
      <trkpt lat="44.3411" lon="4.49383">
        <ele>230</ele>
        <time>2015-05-04T09:57:26Z</time>
      </trkpt>
      <trkpt lat="44.34119" lon="4.4937">
        <ele>231</ele>
        <time>2015-05-04T09:57:23Z</time>
      </trkpt>
      <trkpt lat="44.34128" lon="4.49363">
        <ele>232</ele>
        <time>2015-05-04T09:57:21Z</time>
      </trkpt>
      <trkpt lat="44.34137" lon="4.49359">
        <ele>234</ele>
        <time>2015-05-04T09:57:19Z</time>
      </trkpt>
      <trkpt lat="44.34152" lon="4.4936">
        <ele>236</ele>
        <time>2015-05-04T09:57:16Z</time>
      </trkpt>
      <trkpt lat="44.34162" lon="4.49364">
        <ele>236</ele>
        <time>2015-05-04T09:57:14Z</time>
      </trkpt>
      <trkpt lat="44.34172" lon="4.49371">
        <ele>243</ele>
        <time>2015-05-04T09:57:12Z</time>
      </trkpt>
      <trkpt lat="44.34186" lon="4.49384">
        <ele>244</ele>
        <time>2015-05-04T09:57:09Z</time>
      </trkpt>
      <trkpt lat="44.342" lon="4.49396">
        <ele>244</ele>
        <time>2015-05-04T09:57:06Z</time>
      </trkpt>
      <trkpt lat="44.34214" lon="4.49408">
        <ele>244</ele>
        <time>2015-05-04T09:57:03Z</time>
      </trkpt>
      <trkpt lat="44.34229" lon="4.49421">
        <ele>249</ele>
        <time>2015-05-04T09:57:00Z</time>
      </trkpt>
      <trkpt lat="44.34246" lon="4.49432">
        <ele>249</ele>
        <time>2015-05-04T09:56:57Z</time>
      </trkpt>
      <trkpt lat="44.34264" lon="4.49443">
        <ele>247</ele>
        <time>2015-05-04T09:56:54Z</time>
      </trkpt>
      <trkpt lat="44.34283" lon="4.4945">
        <ele>246</ele>
        <time>2015-05-04T09:56:51Z</time>
      </trkpt>
      <trkpt lat="44.34303" lon="4.49457">
        <ele>246</ele>
        <time>2015-05-04T09:56:48Z</time>
      </trkpt>
      <trkpt lat="44.34316" lon="4.49462">
        <ele>246</ele>
        <time>2015-05-04T09:56:46Z</time>
      </trkpt>
      <trkpt lat="44.34336" lon="4.49469">
        <ele>244</ele>
        <time>2015-05-04T09:56:43Z</time>
      </trkpt>
      <trkpt lat="44.34356" lon="4.49475">
        <ele>245</ele>
        <time>2015-05-04T09:56:40Z</time>
      </trkpt>
      <trkpt lat="44.34376" lon="4.49481">
        <ele>245</ele>
        <time>2015-05-04T09:56:37Z</time>
      </trkpt>
      <trkpt lat="44.34397" lon="4.49485">
        <ele>246</ele>
        <time>2015-05-04T09:56:34Z</time>
      </trkpt>
      <trkpt lat="44.34419" lon="4.49488">
        <ele>248</ele>
        <time>2015-05-04T09:56:31Z</time>
      </trkpt>
      <trkpt lat="44.3444" lon="4.49491">
        <ele>246</ele>
        <time>2015-05-04T09:56:28Z</time>
      </trkpt>
      <trkpt lat="44.34462" lon="4.49495">
        <ele>246</ele>
        <time>2015-05-04T09:56:25Z</time>
      </trkpt>
      <trkpt lat="44.34484" lon="4.49498">
        <ele>246</ele>
        <time>2015-05-04T09:56:22Z</time>
      </trkpt>
      <trkpt lat="44.34499" lon="4.49501">
        <ele>247</ele>
        <time>2015-05-04T09:56:20Z</time>
      </trkpt>
      <trkpt lat="44.34515" lon="4.49503">
        <ele>248</ele>
        <time>2015-05-04T09:56:18Z</time>
      </trkpt>
      <trkpt lat="44.34539" lon="4.49504">
        <ele>249</ele>
        <time>2015-05-04T09:56:15Z</time>
      </trkpt>
      <trkpt lat="44.34561" lon="4.49488">
        <ele>246</ele>
        <time>2015-05-04T09:56:12Z</time>
      </trkpt>
      <trkpt lat="44.34569" lon="4.49467">
        <ele>246</ele>
        <time>2015-05-04T09:56:10Z</time>
      </trkpt>
      <trkpt lat="44.34567" lon="4.4943">
        <ele>247</ele>
        <time>2015-05-04T09:56:07Z</time>
      </trkpt>
      <trkpt lat="44.34555" lon="4.49399">
        <ele>248</ele>
        <time>2015-05-04T09:56:04Z</time>
      </trkpt>
      <trkpt lat="44.34542" lon="4.4937">
        <ele>249</ele>
        <time>2015-05-04T09:56:01Z</time>
      </trkpt>
      <trkpt lat="44.34529" lon="4.49342">
        <ele>248</ele>
        <time>2015-05-04T09:55:58Z</time>
      </trkpt>
      <trkpt lat="44.34516" lon="4.49314">
        <ele>252</ele>
        <time>2015-05-04T09:55:55Z</time>
      </trkpt>
      <trkpt lat="44.34508" lon="4.49297">
        <ele>253</ele>
        <time>2015-05-04T09:55:53Z</time>
      </trkpt>
      <trkpt lat="44.34497" lon="4.49272">
        <ele>247</ele>
        <time>2015-05-04T09:55:50Z</time>
      </trkpt>
      <trkpt lat="44.34489" lon="4.49256">
        <ele>248</ele>
        <time>2015-05-04T09:55:48Z</time>
      </trkpt>
      <trkpt lat="44.34482" lon="4.4924">
        <ele>249</ele>
        <time>2015-05-04T09:55:46Z</time>
      </trkpt>
      <trkpt lat="44.34471" lon="4.49216">
        <ele>248</ele>
        <time>2015-05-04T09:55:43Z</time>
      </trkpt>
      <trkpt lat="44.34459" lon="4.49193">
        <ele>248</ele>
        <time>2015-05-04T09:55:40Z</time>
      </trkpt>
      <trkpt lat="44.34445" lon="4.49171">
        <ele>247</ele>
        <time>2015-05-04T09:55:37Z</time>
      </trkpt>
      <trkpt lat="44.34432" lon="4.49148">
        <ele>248</ele>
        <time>2015-05-04T09:55:34Z</time>
      </trkpt>
      <trkpt lat="44.34419" lon="4.49124">
        <ele>250</ele>
        <time>2015-05-04T09:55:31Z</time>
      </trkpt>
      <trkpt lat="44.3441" lon="4.49108">
        <ele>244</ele>
        <time>2015-05-04T09:55:29Z</time>
      </trkpt>
      <trkpt lat="44.34401" lon="4.49093">
        <ele>245</ele>
        <time>2015-05-04T09:55:27Z</time>
      </trkpt>
      <trkpt lat="44.34386" lon="4.4907">
        <ele>247</ele>
        <time>2015-05-04T09:55:24Z</time>
      </trkpt>
      <trkpt lat="44.34372" lon="4.49046">
        <ele>247</ele>
        <time>2015-05-04T09:55:21Z</time>
      </trkpt>
      <trkpt lat="44.34357" lon="4.49022">
        <ele>246</ele>
        <time>2015-05-04T09:55:18Z</time>
      </trkpt>
      <trkpt lat="44.34346" lon="4.49005">
        <ele>245</ele>
        <time>2015-05-04T09:55:16Z</time>
      </trkpt>
      <trkpt lat="44.34331" lon="4.4898">
        <ele>244</ele>
        <time>2015-05-04T09:55:13Z</time>
      </trkpt>
      <trkpt lat="44.34316" lon="4.48954">
        <ele>245</ele>
        <time>2015-05-04T09:55:10Z</time>
      </trkpt>
      <trkpt lat="44.34299" lon="4.48929">
        <ele>246</ele>
        <time>2015-05-04T09:55:07Z</time>
      </trkpt>
      <trkpt lat="44.34283" lon="4.48904">
        <ele>249</ele>
        <time>2015-05-04T09:55:04Z</time>
      </trkpt>
      <trkpt lat="44.34272" lon="4.48886">
        <ele>249</ele>
        <time>2015-05-04T09:55:02Z</time>
      </trkpt>
      <trkpt lat="44.34261" lon="4.48869">
        <ele>249</ele>
        <time>2015-05-04T09:55:00Z</time>
      </trkpt>
      <trkpt lat="44.34244" lon="4.48841">
        <ele>246</ele>
        <time>2015-05-04T09:54:57Z</time>
      </trkpt>
      <trkpt lat="44.34227" lon="4.48811">
        <ele>246</ele>
        <time>2015-05-04T09:54:54Z</time>
      </trkpt>
      <trkpt lat="44.34217" lon="4.4879">
        <ele>246</ele>
        <time>2015-05-04T09:54:52Z</time>
      </trkpt>
      <trkpt lat="44.34211" lon="4.48751">
        <ele>246</ele>
        <time>2015-05-04T09:54:49Z</time>
      </trkpt>
      <trkpt lat="44.34219" lon="4.48711">
        <ele>248</ele>
        <time>2015-05-04T09:54:46Z</time>
      </trkpt>
      <trkpt lat="44.34238" lon="4.48672">
        <ele>250</ele>
        <time>2015-05-04T09:54:43Z</time>
      </trkpt>
      <trkpt lat="44.34254" lon="4.48645">
        <ele>257</ele>
        <time>2015-05-04T09:54:41Z</time>
      </trkpt>
      <trkpt lat="44.34268" lon="4.48619">
        <ele>258</ele>
        <time>2015-05-04T09:54:39Z</time>
      </trkpt>
      <trkpt lat="44.34282" lon="4.4857">
        <ele>261</ele>
        <time>2015-05-04T09:54:36Z</time>
      </trkpt>
      <trkpt lat="44.34288" lon="4.48518">
        <ele>262</ele>
        <time>2015-05-04T09:54:33Z</time>
      </trkpt>
      <trkpt lat="44.34294" lon="4.48466">
        <ele>264</ele>
        <time>2015-05-04T09:54:30Z</time>
      </trkpt>
      <trkpt lat="44.34306" lon="4.48417">
        <ele>265</ele>
        <time>2015-05-04T09:54:27Z</time>
      </trkpt>
      <trkpt lat="44.34331" lon="4.48381">
        <ele>265</ele>
        <time>2015-05-04T09:54:24Z</time>
      </trkpt>
      <trkpt lat="44.34358" lon="4.48351">
        <ele>268</ele>
        <time>2015-05-04T09:54:21Z</time>
      </trkpt>
      <trkpt lat="44.34381" lon="4.48317">
        <ele>270</ele>
        <time>2015-05-04T09:54:18Z</time>
      </trkpt>
      <trkpt lat="44.34384" lon="4.48286">
        <ele>270</ele>
        <time>2015-05-04T09:54:16Z</time>
      </trkpt>
      <trkpt lat="44.34367" lon="4.48243">
        <ele>273</ele>
        <time>2015-05-04T09:54:13Z</time>
      </trkpt>
      <trkpt lat="44.34349" lon="4.48219">
        <ele>274</ele>
        <time>2015-05-04T09:54:11Z</time>
      </trkpt>
      <trkpt lat="44.34325" lon="4.48182">
        <ele>274</ele>
        <time>2015-05-04T09:54:08Z</time>
      </trkpt>
      <trkpt lat="44.34302" lon="4.48146">
        <ele>280</ele>
        <time>2015-05-04T09:54:05Z</time>
      </trkpt>
      <trkpt lat="44.3428" lon="4.48112">
        <ele>281</ele>
        <time>2015-05-04T09:54:02Z</time>
      </trkpt>
      <trkpt lat="44.34264" lon="4.48093">
        <ele>283</ele>
        <time>2015-05-04T09:54:00Z</time>
      </trkpt>
      <trkpt lat="44.34233" lon="4.48078">
        <ele>288</ele>
        <time>2015-05-04T09:53:57Z</time>
      </trkpt>
      <trkpt lat="44.34213" lon="4.4807">
        <ele>289</ele>
        <time>2015-05-04T09:53:55Z</time>
      </trkpt>
      <trkpt lat="44.34183" lon="4.48059">
        <ele>289</ele>
        <time>2015-05-04T09:53:52Z</time>
      </trkpt>
      <trkpt lat="44.34165" lon="4.48052">
        <ele>290</ele>
        <time>2015-05-04T09:53:50Z</time>
      </trkpt>
      <trkpt lat="44.34138" lon="4.48042">
        <ele>291</ele>
        <time>2015-05-04T09:53:47Z</time>
      </trkpt>
      <trkpt lat="44.34113" lon="4.48033">
        <ele>292</ele>
        <time>2015-05-04T09:53:44Z</time>
      </trkpt>
      <trkpt lat="44.34096" lon="4.48031">
        <ele>292</ele>
        <time>2015-05-04T09:53:42Z</time>
      </trkpt>
      <trkpt lat="44.34079" lon="4.48033">
        <ele>292</ele>
        <time>2015-05-04T09:53:40Z</time>
      </trkpt>
      <trkpt lat="44.34056" lon="4.48044">
        <ele>291</ele>
        <time>2015-05-04T09:53:37Z</time>
      </trkpt>
      <trkpt lat="44.34041" lon="4.48055">
        <ele>291</ele>
        <time>2015-05-04T09:53:35Z</time>
      </trkpt>
      <trkpt lat="44.34028" lon="4.48066">
        <ele>290</ele>
        <time>2015-05-04T09:53:33Z</time>
      </trkpt>
      <trkpt lat="44.34005" lon="4.48068">
        <ele>290</ele>
        <time>2015-05-04T09:53:30Z</time>
      </trkpt>
      <trkpt lat="44.33995" lon="4.48052">
        <ele>269</ele>
        <time>2015-05-04T09:53:28Z</time>
      </trkpt>
      <trkpt lat="44.33995" lon="4.48021">
        <ele>271</ele>
        <time>2015-05-04T09:53:25Z</time>
      </trkpt>
      <trkpt lat="44.34" lon="4.4799">
        <ele>286</ele>
        <time>2015-05-04T09:53:22Z</time>
      </trkpt>
      <trkpt lat="44.34005" lon="4.4796">
        <ele>278</ele>
        <time>2015-05-04T09:53:19Z</time>
      </trkpt>
      <trkpt lat="44.34012" lon="4.47942">
        <ele>272</ele>
        <time>2015-05-04T09:53:17Z</time>
      </trkpt>
      <trkpt lat="44.34026" lon="4.47922">
        <ele>271</ele>
        <time>2015-05-04T09:53:14Z</time>
      </trkpt>
      <trkpt lat="44.34038" lon="4.47915">
        <ele>247</ele>
        <time>2015-05-04T09:53:12Z</time>
      </trkpt>
      <trkpt lat="44.34049" lon="4.4791">
        <ele>253</ele>
        <time>2015-05-04T09:53:10Z</time>
      </trkpt>
      <trkpt lat="44.34067" lon="4.47904">
        <ele>266</ele>
        <time>2015-05-04T09:53:07Z</time>
      </trkpt>
      <trkpt lat="44.34084" lon="4.47896">
        <ele>292</ele>
        <time>2015-05-04T09:53:04Z</time>
      </trkpt>
      <trkpt lat="44.34095" lon="4.47891">
        <ele>290</ele>
        <time>2015-05-04T09:53:02Z</time>
      </trkpt>
      <trkpt lat="44.34111" lon="4.47884">
        <ele>289</ele>
        <time>2015-05-04T09:52:59Z</time>
      </trkpt>
      <trkpt lat="44.34121" lon="4.47879">
        <ele>288</ele>
        <time>2015-05-04T09:52:57Z</time>
      </trkpt>
      <trkpt lat="44.34135" lon="4.47871">
        <ele>289</ele>
        <time>2015-05-04T09:52:54Z</time>
      </trkpt>
      <trkpt lat="44.34147" lon="4.47862">
        <ele>290</ele>
        <time>2015-05-04T09:52:51Z</time>
      </trkpt>
      <trkpt lat="44.34154" lon="4.47855">
        <ele>290</ele>
        <time>2015-05-04T09:52:49Z</time>
      </trkpt>
      <trkpt lat="44.34164" lon="4.47846">
        <ele>292</ele>
        <time>2015-05-04T09:52:46Z</time>
      </trkpt>
      <trkpt lat="44.34171" lon="4.4784">
        <ele>297</ele>
        <time>2015-05-04T09:52:44Z</time>
      </trkpt>
      <trkpt lat="44.34182" lon="4.47831">
        <ele>290</ele>
        <time>2015-05-04T09:52:41Z</time>
      </trkpt>
      <trkpt lat="44.3419" lon="4.4782">
        <ele>288</ele>
        <time>2015-05-04T09:52:38Z</time>
      </trkpt>
      <trkpt lat="44.34198" lon="4.47806">
        <ele>286</ele>
        <time>2015-05-04T09:52:35Z</time>
      </trkpt>
      <trkpt lat="44.342" lon="4.47796">
        <ele>284</ele>
        <time>2015-05-04T09:52:33Z</time>
      </trkpt>
      <trkpt lat="44.34205" lon="4.47778">
        <ele>281</ele>
        <time>2015-05-04T09:52:30Z</time>
      </trkpt>
      <trkpt lat="44.34207" lon="4.47767">
        <ele>280</ele>
        <time>2015-05-04T09:52:28Z</time>
      </trkpt>
      <trkpt lat="44.34213" lon="4.47749">
        <ele>250</ele>
        <time>2015-05-04T09:52:25Z</time>
      </trkpt>
      <trkpt lat="44.34222" lon="4.47736">
        <ele>252</ele>
        <time>2015-05-04T09:52:22Z</time>
      </trkpt>
      <trkpt lat="44.34234" lon="4.47725">
        <ele>253</ele>
        <time>2015-05-04T09:52:19Z</time>
      </trkpt>
      <trkpt lat="44.34246" lon="4.47715">
        <ele>250</ele>
        <time>2015-05-04T09:52:16Z</time>
      </trkpt>
      <trkpt lat="44.34259" lon="4.47705">
        <ele>272</ele>
        <time>2015-05-04T09:52:13Z</time>
      </trkpt>
      <trkpt lat="44.34269" lon="4.47698">
        <ele>270</ele>
        <time>2015-05-04T09:52:11Z</time>
      </trkpt>
      <trkpt lat="44.34285" lon="4.47688">
        <ele>271</ele>
        <time>2015-05-04T09:52:08Z</time>
      </trkpt>
      <trkpt lat="44.34302" lon="4.47682">
        <ele>274</ele>
        <time>2015-05-04T09:52:05Z</time>
      </trkpt>
      <trkpt lat="44.3432" lon="4.47682">
        <ele>277</ele>
        <time>2015-05-04T09:52:02Z</time>
      </trkpt>
      <trkpt lat="44.34332" lon="4.47683">
        <ele>278</ele>
        <time>2015-05-04T09:52:00Z</time>
      </trkpt>
      <trkpt lat="44.3435" lon="4.47686">
        <ele>287</ele>
        <time>2015-05-04T09:51:57Z</time>
      </trkpt>
      <trkpt lat="44.34366" lon="4.47689">
        <ele>290</ele>
        <time>2015-05-04T09:51:54Z</time>
      </trkpt>
      <trkpt lat="44.34376" lon="4.47689">
        <ele>291</ele>
        <time>2015-05-04T09:51:52Z</time>
      </trkpt>
      <trkpt lat="44.34386" lon="4.47687">
        <ele>291</ele>
        <time>2015-05-04T09:51:50Z</time>
      </trkpt>
      <trkpt lat="44.34399" lon="4.47681">
        <ele>290</ele>
        <time>2015-05-04T09:51:47Z</time>
      </trkpt>
      <trkpt lat="44.34414" lon="4.47675">
        <ele>289</ele>
        <time>2015-05-04T09:51:44Z</time>
      </trkpt>
      <trkpt lat="44.34427" lon="4.4767">
        <ele>292</ele>
        <time>2015-05-04T09:51:41Z</time>
      </trkpt>
      <trkpt lat="44.34436" lon="4.47666">
        <ele>283</ele>
        <time>2015-05-04T09:51:39Z</time>
      </trkpt>
      <trkpt lat="44.34444" lon="4.47663">
        <ele>282</ele>
        <time>2015-05-04T09:51:37Z</time>
      </trkpt>
      <trkpt lat="44.34453" lon="4.47659">
        <ele>281</ele>
        <time>2015-05-04T09:51:35Z</time>
      </trkpt>
      <trkpt lat="44.34465" lon="4.4765">
        <ele>281</ele>
        <time>2015-05-04T09:51:32Z</time>
      </trkpt>
      <trkpt lat="44.34474" lon="4.47637">
        <ele>280</ele>
        <time>2015-05-04T09:51:29Z</time>
      </trkpt>
      <trkpt lat="44.34482" lon="4.47621">
        <ele>278</ele>
        <time>2015-05-04T09:51:26Z</time>
      </trkpt>
      <trkpt lat="44.34491" lon="4.47607">
        <ele>277</ele>
        <time>2015-05-04T09:51:23Z</time>
      </trkpt>
      <trkpt lat="44.34502" lon="4.47596">
        <ele>282</ele>
        <time>2015-05-04T09:51:20Z</time>
      </trkpt>
      <trkpt lat="44.34514" lon="4.4759">
        <ele>283</ele>
        <time>2015-05-04T09:51:17Z</time>
      </trkpt>
      <trkpt lat="44.34527" lon="4.47585">
        <ele>285</ele>
        <time>2015-05-04T09:51:14Z</time>
      </trkpt>
      <trkpt lat="44.34539" lon="4.4758">
        <ele>275</ele>
        <time>2015-05-04T09:51:11Z</time>
      </trkpt>
      <trkpt lat="44.34551" lon="4.47576">
        <ele>276</ele>
        <time>2015-05-04T09:51:08Z</time>
      </trkpt>
      <trkpt lat="44.34559" lon="4.47572">
        <ele>277</ele>
        <time>2015-05-04T09:51:06Z</time>
      </trkpt>
      <trkpt lat="44.34567" lon="4.47568">
        <ele>278</ele>
        <time>2015-05-04T09:51:04Z</time>
      </trkpt>
      <trkpt lat="44.3458" lon="4.47563">
        <ele>279</ele>
        <time>2015-05-04T09:51:01Z</time>
      </trkpt>
      <trkpt lat="44.34593" lon="4.47557">
        <ele>282</ele>
        <time>2015-05-04T09:50:58Z</time>
      </trkpt>
      <trkpt lat="44.34603" lon="4.47554">
        <ele>282</ele>
        <time>2015-05-04T09:50:56Z</time>
      </trkpt>
      <trkpt lat="44.34617" lon="4.47548">
        <ele>281</ele>
        <time>2015-05-04T09:50:53Z</time>
      </trkpt>
      <trkpt lat="44.34626" lon="4.47544">
        <ele>281</ele>
        <time>2015-05-04T09:50:51Z</time>
      </trkpt>
      <trkpt lat="44.34645" lon="4.47536">
        <ele>281</ele>
        <time>2015-05-04T09:50:48Z</time>
      </trkpt>
      <trkpt lat="44.34668" lon="4.47524">
        <ele>285</ele>
        <time>2015-05-04T09:50:45Z</time>
      </trkpt>
      <trkpt lat="44.34679" lon="4.47503">
        <ele>282</ele>
        <time>2015-05-04T09:50:43Z</time>
      </trkpt>
      <trkpt lat="44.34668" lon="4.47464">
        <ele>284</ele>
        <time>2015-05-04T09:50:40Z</time>
      </trkpt>
      <trkpt lat="44.34645" lon="4.47438">
        <ele>276</ele>
        <time>2015-05-04T09:50:37Z</time>
      </trkpt>
      <trkpt lat="44.34634" lon="4.47417">
        <ele>275</ele>
        <time>2015-05-04T09:50:35Z</time>
      </trkpt>
      <trkpt lat="44.34631" lon="4.47395">
        <ele>275</ele>
        <time>2015-05-04T09:50:33Z</time>
      </trkpt>
      <trkpt lat="44.34638" lon="4.47367">
        <ele>276</ele>
        <time>2015-05-04T09:50:30Z</time>
      </trkpt>
      <trkpt lat="44.34648" lon="4.47346">
        <ele>280</ele>
        <time>2015-05-04T09:50:27Z</time>
      </trkpt>
      <trkpt lat="44.34653" lon="4.47325">
        <ele>283</ele>
        <time>2015-05-04T09:50:24Z</time>
      </trkpt>
      <trkpt lat="44.3465" lon="4.47303">
        <ele>280</ele>
        <time>2015-05-04T09:50:21Z</time>
      </trkpt>
      <trkpt lat="44.34639" lon="4.47287">
        <ele>279</ele>
        <time>2015-05-04T09:50:18Z</time>
      </trkpt>
      <trkpt lat="44.3463" lon="4.47278">
        <ele>278</ele>
        <time>2015-05-04T09:50:16Z</time>
      </trkpt>
      <trkpt lat="44.34617" lon="4.47262">
        <ele>276</ele>
        <time>2015-05-04T09:50:13Z</time>
      </trkpt>
      <trkpt lat="44.34609" lon="4.4725">
        <ele>274</ele>
        <time>2015-05-04T09:50:11Z</time>
      </trkpt>
      <trkpt lat="44.346" lon="4.47228">
        <ele>276</ele>
        <time>2015-05-04T09:50:08Z</time>
      </trkpt>
      <trkpt lat="44.34594" lon="4.472">
        <ele>277</ele>
        <time>2015-05-04T09:50:05Z</time>
      </trkpt>
      <trkpt lat="44.34591" lon="4.47169">
        <ele>274</ele>
        <time>2015-05-04T09:50:02Z</time>
      </trkpt>
      <trkpt lat="44.34583" lon="4.47136">
        <ele>263</ele>
        <time>2015-05-04T09:49:59Z</time>
      </trkpt>
      <trkpt lat="44.34575" lon="4.47115">
        <ele>264</ele>
        <time>2015-05-04T09:49:57Z</time>
      </trkpt>
      <trkpt lat="44.34567" lon="4.47094">
        <ele>267</ele>
        <time>2015-05-04T09:49:55Z</time>
      </trkpt>
      <trkpt lat="44.34561" lon="4.47058">
        <ele>270</ele>
        <time>2015-05-04T09:49:52Z</time>
      </trkpt>
      <trkpt lat="44.34562" lon="4.47033">
        <ele>270</ele>
        <time>2015-05-04T09:49:50Z</time>
      </trkpt>
      <trkpt lat="44.34565" lon="4.47007">
        <ele>274</ele>
        <time>2015-05-04T09:49:48Z</time>
      </trkpt>
      <trkpt lat="44.34567" lon="4.46967">
        <ele>273</ele>
        <time>2015-05-04T09:49:45Z</time>
      </trkpt>
      <trkpt lat="44.3457" lon="4.46924">
        <ele>276</ele>
        <time>2015-05-04T09:49:42Z</time>
      </trkpt>
      <trkpt lat="44.34574" lon="4.4688">
        <ele>273</ele>
        <time>2015-05-04T09:49:39Z</time>
      </trkpt>
      <trkpt lat="44.34586" lon="4.46838">
        <ele>280</ele>
        <time>2015-05-04T09:49:36Z</time>
      </trkpt>
      <trkpt lat="44.34601" lon="4.46818">
        <ele>275</ele>
        <time>2015-05-04T09:49:34Z</time>
      </trkpt>
      <trkpt lat="44.34631" lon="4.46809">
        <ele>275</ele>
        <time>2015-05-04T09:49:31Z</time>
      </trkpt>
      <trkpt lat="44.3465" lon="4.46814">
        <ele>278</ele>
        <time>2015-05-04T09:49:29Z</time>
      </trkpt>
      <trkpt lat="44.34677" lon="4.46826">
        <ele>285</ele>
        <time>2015-05-04T09:49:26Z</time>
      </trkpt>
      <trkpt lat="44.34693" lon="4.46835">
        <ele>292</ele>
        <time>2015-05-04T09:49:24Z</time>
      </trkpt>
      <trkpt lat="44.34716" lon="4.46844">
        <ele>293</ele>
        <time>2015-05-04T09:49:21Z</time>
      </trkpt>
      <trkpt lat="44.34731" lon="4.46847">
        <ele>293</ele>
        <time>2015-05-04T09:49:19Z</time>
      </trkpt>
      <trkpt lat="44.3475" lon="4.46844">
        <ele>293</ele>
        <time>2015-05-04T09:49:16Z</time>
      </trkpt>
      <trkpt lat="44.34766" lon="4.46835">
        <ele>295</ele>
        <time>2015-05-04T09:49:13Z</time>
      </trkpt>
      <trkpt lat="44.34782" lon="4.46828">
        <ele>291</ele>
        <time>2015-05-04T09:49:10Z</time>
      </trkpt>
      <trkpt lat="44.34796" lon="4.46821">
        <ele>291</ele>
        <time>2015-05-04T09:49:07Z</time>
      </trkpt>
      <trkpt lat="44.34804" lon="4.46816">
        <ele>292</ele>
        <time>2015-05-04T09:49:05Z</time>
      </trkpt>
      <trkpt lat="44.34812" lon="4.46812">
        <ele>292</ele>
        <time>2015-05-04T09:49:03Z</time>
      </trkpt>
      <trkpt lat="44.34819" lon="4.46806">
        <ele>292</ele>
        <time>2015-05-04T09:49:01Z</time>
      </trkpt>
      <trkpt lat="44.34825" lon="4.468">
        <ele>292</ele>
        <time>2015-05-04T09:48:59Z</time>
      </trkpt>
      <trkpt lat="44.34832" lon="4.4679">
        <ele>291</ele>
        <time>2015-05-04T09:48:56Z</time>
      </trkpt>
      <trkpt lat="44.34835" lon="4.46783">
        <ele>297</ele>
        <time>2015-05-04T09:48:54Z</time>
      </trkpt>
      <trkpt lat="44.34837" lon="4.46775">
        <ele>296</ele>
        <time>2015-05-04T09:48:52Z</time>
      </trkpt>
      <trkpt lat="44.3484" lon="4.46762">
        <ele>295</ele>
        <time>2015-05-04T09:48:49Z</time>
      </trkpt>
      <trkpt lat="44.34842" lon="4.46753">
        <ele>294</ele>
        <time>2015-05-04T09:48:47Z</time>
      </trkpt>
      <trkpt lat="44.34842" lon="4.46744">
        <ele>293</ele>
        <time>2015-05-04T09:48:45Z</time>
      </trkpt>
      <trkpt lat="44.34842" lon="4.46735">
        <ele>292</ele>
        <time>2015-05-04T09:48:43Z</time>
      </trkpt>
      <trkpt lat="44.34841" lon="4.46726">
        <ele>292</ele>
        <time>2015-05-04T09:48:41Z</time>
      </trkpt>
      <trkpt lat="44.34839" lon="4.46712">
        <ele>291</ele>
        <time>2015-05-04T09:48:38Z</time>
      </trkpt>
      <trkpt lat="44.34837" lon="4.46703">
        <ele>290</ele>
        <time>2015-05-04T09:48:36Z</time>
      </trkpt>
      <trkpt lat="44.34834" lon="4.46689">
        <ele>289</ele>
        <time>2015-05-04T09:48:33Z</time>
      </trkpt>
      <trkpt lat="44.34831" lon="4.46675">
        <ele>281</ele>
        <time>2015-05-04T09:48:30Z</time>
      </trkpt>
      <trkpt lat="44.34829" lon="4.46665">
        <ele>279</ele>
        <time>2015-05-04T09:48:28Z</time>
      </trkpt>
      <trkpt lat="44.34827" lon="4.46655">
        <ele>271</ele>
        <time>2015-05-04T09:48:26Z</time>
      </trkpt>
      <trkpt lat="44.34827" lon="4.4664">
        <ele>264</ele>
        <time>2015-05-04T09:48:23Z</time>
      </trkpt>
      <trkpt lat="44.34828" lon="4.46625">
        <ele>260</ele>
        <time>2015-05-04T09:48:20Z</time>
      </trkpt>
      <trkpt lat="44.34832" lon="4.46611">
        <ele>259</ele>
        <time>2015-05-04T09:48:17Z</time>
      </trkpt>
      <trkpt lat="44.34839" lon="4.46598">
        <ele>271</ele>
        <time>2015-05-04T09:48:14Z</time>
      </trkpt>
      <trkpt lat="44.34849" lon="4.46588">
        <ele>271</ele>
        <time>2015-05-04T09:48:11Z</time>
      </trkpt>
      <trkpt lat="44.3486" lon="4.46581">
        <ele>257</ele>
        <time>2015-05-04T09:48:08Z</time>
      </trkpt>
      <trkpt lat="44.34868" lon="4.46578">
        <ele>257</ele>
        <time>2015-05-04T09:48:06Z</time>
      </trkpt>
      <trkpt lat="44.34882" lon="4.46574">
        <ele>258</ele>
        <time>2015-05-04T09:48:03Z</time>
      </trkpt>
      <trkpt lat="44.34892" lon="4.46573">
        <ele>261</ele>
        <time>2015-05-04T09:48:01Z</time>
      </trkpt>
      <trkpt lat="44.34902" lon="4.46577">
        <ele>265</ele>
        <time>2015-05-04T09:47:59Z</time>
      </trkpt>
      <trkpt lat="44.34916" lon="4.46589">
        <ele>277</ele>
        <time>2015-05-04T09:47:56Z</time>
      </trkpt>
      <trkpt lat="44.3493" lon="4.46605">
        <ele>281</ele>
        <time>2015-05-04T09:47:53Z</time>
      </trkpt>
      <trkpt lat="44.34946" lon="4.46622">
        <ele>282</ele>
        <time>2015-05-04T09:47:50Z</time>
      </trkpt>
      <trkpt lat="44.34966" lon="4.46633">
        <ele>282</ele>
        <time>2015-05-04T09:47:47Z</time>
      </trkpt>
      <trkpt lat="44.34987" lon="4.46621">
        <ele>281</ele>
        <time>2015-05-04T09:47:44Z</time>
      </trkpt>
      <trkpt lat="44.34999" lon="4.46594">
        <ele>279</ele>
        <time>2015-05-04T09:47:41Z</time>
      </trkpt>
      <trkpt lat="44.35006" lon="4.46561">
        <ele>277</ele>
        <time>2015-05-04T09:47:38Z</time>
      </trkpt>
      <trkpt lat="44.3501" lon="4.46539">
        <ele>275</ele>
        <time>2015-05-04T09:47:36Z</time>
      </trkpt>
      <trkpt lat="44.35016" lon="4.46516">
        <ele>271</ele>
        <time>2015-05-04T09:47:34Z</time>
      </trkpt>
      <trkpt lat="44.3503" lon="4.46482">
        <ele>255</ele>
        <time>2015-05-04T09:47:31Z</time>
      </trkpt>
      <trkpt lat="44.35046" lon="4.46466">
        <ele>254</ele>
        <time>2015-05-04T09:47:29Z</time>
      </trkpt>
      <trkpt lat="44.35077" lon="4.46465">
        <ele>258</ele>
        <time>2015-05-04T09:47:26Z</time>
      </trkpt>
      <trkpt lat="44.35096" lon="4.46475">
        <ele>269</ele>
        <time>2015-05-04T09:47:24Z</time>
      </trkpt>
      <trkpt lat="44.35125" lon="4.46488">
        <ele>269</ele>
        <time>2015-05-04T09:47:21Z</time>
      </trkpt>
      <trkpt lat="44.35151" lon="4.46501">
        <ele>282</ele>
        <time>2015-05-04T09:47:18Z</time>
      </trkpt>
      <trkpt lat="44.35168" lon="4.46509">
        <ele>281</ele>
        <time>2015-05-04T09:47:16Z</time>
      </trkpt>
      <trkpt lat="44.35191" lon="4.46522">
        <ele>284</ele>
        <time>2015-05-04T09:47:13Z</time>
      </trkpt>
      <trkpt lat="44.35207" lon="4.46527">
        <ele>285</ele>
        <time>2015-05-04T09:47:11Z</time>
      </trkpt>
      <trkpt lat="44.35222" lon="4.46529">
        <ele>285</ele>
        <time>2015-05-04T09:47:09Z</time>
      </trkpt>
      <trkpt lat="44.35243" lon="4.46527">
        <ele>284</ele>
        <time>2015-05-04T09:47:06Z</time>
      </trkpt>
      <trkpt lat="44.35263" lon="4.46522">
        <ele>283</ele>
        <time>2015-05-04T09:47:03Z</time>
      </trkpt>
      <trkpt lat="44.35284" lon="4.4652">
        <ele>283</ele>
        <time>2015-05-04T09:47:00Z</time>
      </trkpt>
      <trkpt lat="44.35298" lon="4.4652">
        <ele>283</ele>
        <time>2015-05-04T09:46:58Z</time>
      </trkpt>
      <trkpt lat="44.35317" lon="4.46528">
        <ele>283</ele>
        <time>2015-05-04T09:46:55Z</time>
      </trkpt>
      <trkpt lat="44.35327" lon="4.46537">
        <ele>284</ele>
        <time>2015-05-04T09:46:53Z</time>
      </trkpt>
      <trkpt lat="44.35338" lon="4.46554">
        <ele>276</ele>
        <time>2015-05-04T09:46:50Z</time>
      </trkpt>
      <trkpt lat="44.35342" lon="4.46566">
        <ele>279</ele>
        <time>2015-05-04T09:46:48Z</time>
      </trkpt>
      <trkpt lat="44.35348" lon="4.46584">
        <ele>287</ele>
        <time>2015-05-04T09:46:45Z</time>
      </trkpt>
      <trkpt lat="44.35354" lon="4.46599">
        <ele>286</ele>
        <time>2015-05-04T09:46:42Z</time>
      </trkpt>
      <trkpt lat="44.35362" lon="4.46612">
        <ele>285</ele>
        <time>2015-05-04T09:46:39Z</time>
      </trkpt>
      <trkpt lat="44.35369" lon="4.46623">
        <ele>285</ele>
        <time>2015-05-04T09:46:36Z</time>
      </trkpt>
      <trkpt lat="44.35374" lon="4.4663">
        <ele>285</ele>
        <time>2015-05-04T09:46:34Z</time>
      </trkpt>
      <trkpt lat="44.35381" lon="4.46641">
        <ele>285</ele>
        <time>2015-05-04T09:46:31Z</time>
      </trkpt>
      <trkpt lat="44.35386" lon="4.46648">
        <ele>284</ele>
        <time>2015-05-04T09:46:29Z</time>
      </trkpt>
      <trkpt lat="44.35391" lon="4.46655">
        <ele>284</ele>
        <time>2015-05-04T09:46:27Z</time>
      </trkpt>
      <trkpt lat="44.35398" lon="4.46664">
        <ele>283</ele>
        <time>2015-05-04T09:46:24Z</time>
      </trkpt>
      <trkpt lat="44.35407" lon="4.46673">
        <ele>287</ele>
        <time>2015-05-04T09:46:21Z</time>
      </trkpt>
      <trkpt lat="44.35418" lon="4.46682">
        <ele>277</ele>
        <time>2015-05-04T09:46:18Z</time>
      </trkpt>
      <trkpt lat="44.35428" lon="4.4669">
        <ele>276</ele>
        <time>2015-05-04T09:46:15Z</time>
      </trkpt>
      <trkpt lat="44.35433" lon="4.46697">
        <ele>275</ele>
        <time>2015-05-04T09:46:13Z</time>
      </trkpt>
      <trkpt lat="44.3544" lon="4.4671">
        <ele>275</ele>
        <time>2015-05-04T09:46:10Z</time>
      </trkpt>
      <trkpt lat="44.35443" lon="4.46719">
        <ele>276</ele>
        <time>2015-05-04T09:46:08Z</time>
      </trkpt>
      <trkpt lat="44.35448" lon="4.46734">
        <ele>277</ele>
        <time>2015-05-04T09:46:05Z</time>
      </trkpt>
      <trkpt lat="44.35451" lon="4.46744">
        <ele>277</ele>
        <time>2015-05-04T09:46:03Z</time>
      </trkpt>
      <trkpt lat="44.35455" lon="4.46759">
        <ele>284</ele>
        <time>2015-05-04T09:46:00Z</time>
      </trkpt>
      <trkpt lat="44.35461" lon="4.46773">
        <ele>283</ele>
        <time>2015-05-04T09:45:57Z</time>
      </trkpt>
      <trkpt lat="44.35465" lon="4.46782">
        <ele>283</ele>
        <time>2015-05-04T09:45:55Z</time>
      </trkpt>
      <trkpt lat="44.35472" lon="4.46796">
        <ele>283</ele>
        <time>2015-05-04T09:45:52Z</time>
      </trkpt>
      <trkpt lat="44.35477" lon="4.46804">
        <ele>283</ele>
        <time>2015-05-04T09:45:50Z</time>
      </trkpt>
      <trkpt lat="44.35482" lon="4.46811">
        <ele>282</ele>
        <time>2015-05-04T09:45:48Z</time>
      </trkpt>
      <trkpt lat="44.35488" lon="4.46823">
        <ele>281</ele>
        <time>2015-05-04T09:45:45Z</time>
      </trkpt>
      <trkpt lat="44.35493" lon="4.46832">
        <ele>280</ele>
        <time>2015-05-04T09:45:43Z</time>
      </trkpt>
      <trkpt lat="44.35498" lon="4.4684">
        <ele>282</ele>
        <time>2015-05-04T09:45:41Z</time>
      </trkpt>
      <trkpt lat="44.35505" lon="4.46853">
        <ele>272</ele>
        <time>2015-05-04T09:45:38Z</time>
      </trkpt>
      <trkpt lat="44.35513" lon="4.46866">
        <ele>271</ele>
        <time>2015-05-04T09:45:35Z</time>
      </trkpt>
      <trkpt lat="44.35521" lon="4.46879">
        <ele>271</ele>
        <time>2015-05-04T09:45:32Z</time>
      </trkpt>
      <trkpt lat="44.35526" lon="4.46887">
        <ele>271</ele>
        <time>2015-05-04T09:45:30Z</time>
      </trkpt>
      <trkpt lat="44.35532" lon="4.46894">
        <ele>270</ele>
        <time>2015-05-04T09:45:28Z</time>
      </trkpt>
      <trkpt lat="44.35541" lon="4.46906">
        <ele>269</ele>
        <time>2015-05-04T09:45:25Z</time>
      </trkpt>
      <trkpt lat="44.3555" lon="4.46918">
        <ele>276</ele>
        <time>2015-05-04T09:45:22Z</time>
      </trkpt>
      <trkpt lat="44.3556" lon="4.4693">
        <ele>275</ele>
        <time>2015-05-04T09:45:19Z</time>
      </trkpt>
      <trkpt lat="44.35571" lon="4.46942">
        <ele>275</ele>
        <time>2015-05-04T09:45:16Z</time>
      </trkpt>
      <trkpt lat="44.35579" lon="4.46951">
        <ele>276</ele>
        <time>2015-05-04T09:45:14Z</time>
      </trkpt>
      <trkpt lat="44.35586" lon="4.4696">
        <ele>261</ele>
        <time>2015-05-04T09:45:12Z</time>
      </trkpt>
      <trkpt lat="44.35598" lon="4.46974">
        <ele>263</ele>
        <time>2015-05-04T09:45:09Z</time>
      </trkpt>
      <trkpt lat="44.35609" lon="4.46989">
        <ele>264</ele>
        <time>2015-05-04T09:45:06Z</time>
      </trkpt>
      <trkpt lat="44.35618" lon="4.46999">
        <ele>263</ele>
        <time>2015-05-04T09:45:04Z</time>
      </trkpt>
      <trkpt lat="44.35634" lon="4.4701">
        <ele>275</ele>
        <time>2015-05-04T09:45:01Z</time>
      </trkpt>
      <trkpt lat="44.35647" lon="4.47009">
        <ele>272</ele>
        <time>2015-05-04T09:44:59Z</time>
      </trkpt>
      <trkpt lat="44.35667" lon="4.47007">
        <ele>262</ele>
        <time>2015-05-04T09:44:56Z</time>
      </trkpt>
      <trkpt lat="44.3568" lon="4.47006">
        <ele>263</ele>
        <time>2015-05-04T09:44:54Z</time>
      </trkpt>
      <trkpt lat="44.357" lon="4.47011">
        <ele>263</ele>
        <time>2015-05-04T09:44:51Z</time>
      </trkpt>
      <trkpt lat="44.35712" lon="4.47021">
        <ele>263</ele>
        <time>2015-05-04T09:44:49Z</time>
      </trkpt>
      <trkpt lat="44.35732" lon="4.47037">
        <ele>264</ele>
        <time>2015-05-04T09:44:46Z</time>
      </trkpt>
      <trkpt lat="44.35753" lon="4.47054">
        <ele>248</ele>
        <time>2015-05-04T09:44:43Z</time>
      </trkpt>
      <trkpt lat="44.35765" lon="4.4707">
        <ele>252</ele>
        <time>2015-05-04T09:44:41Z</time>
      </trkpt>
      <trkpt lat="44.35779" lon="4.47097">
        <ele>261</ele>
        <time>2015-05-04T09:44:38Z</time>
      </trkpt>
      <trkpt lat="44.35791" lon="4.47128">
        <ele>261</ele>
        <time>2015-05-04T09:44:35Z</time>
      </trkpt>
      <trkpt lat="44.35804" lon="4.4716">
        <ele>260</ele>
        <time>2015-05-04T09:44:32Z</time>
      </trkpt>
      <trkpt lat="44.35815" lon="4.47181">
        <ele>270</ele>
        <time>2015-05-04T09:44:30Z</time>
      </trkpt>
      <trkpt lat="44.35834" lon="4.47208">
        <ele>255</ele>
        <time>2015-05-04T09:44:27Z</time>
      </trkpt>
      <trkpt lat="44.35847" lon="4.47226">
        <ele>259</ele>
        <time>2015-05-04T09:44:25Z</time>
      </trkpt>
      <trkpt lat="44.35864" lon="4.47254">
        <ele>274</ele>
        <time>2015-05-04T09:44:22Z</time>
      </trkpt>
      <trkpt lat="44.35878" lon="4.47283">
        <ele>273</ele>
        <time>2015-05-04T09:44:19Z</time>
      </trkpt>
      <trkpt lat="44.3589" lon="4.47298">
        <ele>274</ele>
        <time>2015-05-04T09:44:17Z</time>
      </trkpt>
      <trkpt lat="44.35908" lon="4.47314">
        <ele>274</ele>
        <time>2015-05-04T09:44:14Z</time>
      </trkpt>
      <trkpt lat="44.3592" lon="4.47325">
        <ele>266</ele>
        <time>2015-05-04T09:44:12Z</time>
      </trkpt>
      <trkpt lat="44.3593" lon="4.47335">
        <ele>272</ele>
        <time>2015-05-04T09:44:10Z</time>
      </trkpt>
      <trkpt lat="44.3594" lon="4.47354">
        <ele>270</ele>
        <time>2015-05-04T09:44:07Z</time>
      </trkpt>
      <trkpt lat="44.35945" lon="4.47368">
        <ele>270</ele>
        <time>2015-05-04T09:44:05Z</time>
      </trkpt>
      <trkpt lat="44.3595" lon="4.47381">
        <ele>271</ele>
        <time>2015-05-04T09:44:03Z</time>
      </trkpt>
      <trkpt lat="44.35962" lon="4.47398">
        <ele>271</ele>
        <time>2015-05-04T09:44:00Z</time>
      </trkpt>
      <trkpt lat="44.35972" lon="4.47407">
        <ele>271</ele>
        <time>2015-05-04T09:43:58Z</time>
      </trkpt>
      <trkpt lat="44.35988" lon="4.47417">
        <ele>276</ele>
        <time>2015-05-04T09:43:55Z</time>
      </trkpt>
      <trkpt lat="44.36004" lon="4.47427">
        <ele>268</ele>
        <time>2015-05-04T09:43:52Z</time>
      </trkpt>
      <trkpt lat="44.36019" lon="4.47438">
        <ele>266</ele>
        <time>2015-05-04T09:43:49Z</time>
      </trkpt>
      <trkpt lat="44.36027" lon="4.47446">
        <ele>265</ele>
        <time>2015-05-04T09:43:47Z</time>
      </trkpt>
      <trkpt lat="44.36037" lon="4.4746">
        <ele>264</ele>
        <time>2015-05-04T09:43:44Z</time>
      </trkpt>
      <trkpt lat="44.36043" lon="4.47471">
        <ele>264</ele>
        <time>2015-05-04T09:43:42Z</time>
      </trkpt>
      <trkpt lat="44.36051" lon="4.47488">
        <ele>264</ele>
        <time>2015-05-04T09:43:39Z</time>
      </trkpt>
      <trkpt lat="44.3606" lon="4.47505">
        <ele>267</ele>
        <time>2015-05-04T09:43:36Z</time>
      </trkpt>
      <trkpt lat="44.36065" lon="4.47518">
        <ele>267</ele>
        <time>2015-05-04T09:43:34Z</time>
      </trkpt>
      <trkpt lat="44.3607" lon="4.4754">
        <ele>269</ele>
        <time>2015-05-04T09:43:31Z</time>
      </trkpt>
      <trkpt lat="44.36075" lon="4.47564">
        <ele>268</ele>
        <time>2015-05-04T09:43:28Z</time>
      </trkpt>
      <trkpt lat="44.36085" lon="4.47588">
        <ele>264</ele>
        <time>2015-05-04T09:43:25Z</time>
      </trkpt>
      <trkpt lat="44.36101" lon="4.47606">
        <ele>264</ele>
        <time>2015-05-04T09:43:22Z</time>
      </trkpt>
      <trkpt lat="44.36113" lon="4.47616">
        <ele>264</ele>
        <time>2015-05-04T09:43:20Z</time>
      </trkpt>
      <trkpt lat="44.3613" lon="4.47631">
        <ele>264</ele>
        <time>2015-05-04T09:43:17Z</time>
      </trkpt>
      <trkpt lat="44.36149" lon="4.47648">
        <ele>263</ele>
        <time>2015-05-04T09:43:14Z</time>
      </trkpt>
      <trkpt lat="44.36161" lon="4.47658">
        <ele>263</ele>
        <time>2015-05-04T09:43:12Z</time>
      </trkpt>
      <trkpt lat="44.36181" lon="4.47676">
        <ele>263</ele>
        <time>2015-05-04T09:43:09Z</time>
      </trkpt>
      <trkpt lat="44.36201" lon="4.47694">
        <ele>263</ele>
        <time>2015-05-04T09:43:06Z</time>
      </trkpt>
      <trkpt lat="44.36221" lon="4.47713">
        <ele>263</ele>
        <time>2015-05-04T09:43:03Z</time>
      </trkpt>
      <trkpt lat="44.36233" lon="4.47728">
        <ele>263</ele>
        <time>2015-05-04T09:43:01Z</time>
      </trkpt>
      <trkpt lat="44.36248" lon="4.47754">
        <ele>263</ele>
        <time>2015-05-04T09:42:58Z</time>
      </trkpt>
      <trkpt lat="44.36257" lon="4.47773">
        <ele>263</ele>
        <time>2015-05-04T09:42:56Z</time>
      </trkpt>
      <trkpt lat="44.36271" lon="4.47801">
        <ele>264</ele>
        <time>2015-05-04T09:42:53Z</time>
      </trkpt>
      <trkpt lat="44.36284" lon="4.4783">
        <ele>264</ele>
        <time>2015-05-04T09:42:50Z</time>
      </trkpt>
      <trkpt lat="44.36294" lon="4.47848">
        <ele>266</ele>
        <time>2015-05-04T09:42:48Z</time>
      </trkpt>
      <trkpt lat="44.36318" lon="4.47862">
        <ele>264</ele>
        <time>2015-05-04T09:42:45Z</time>
      </trkpt>
      <trkpt lat="44.36337" lon="4.47853">
        <ele>262</ele>
        <time>2015-05-04T09:42:43Z</time>
      </trkpt>
      <trkpt lat="44.36348" lon="4.47812">
        <ele>265</ele>
        <time>2015-05-04T09:42:40Z</time>
      </trkpt>
      <trkpt lat="44.36337" lon="4.47768">
        <ele>265</ele>
        <time>2015-05-04T09:42:37Z</time>
      </trkpt>
      <trkpt lat="44.36329" lon="4.4774">
        <ele>263</ele>
        <time>2015-05-04T09:42:35Z</time>
      </trkpt>
      <trkpt lat="44.36318" lon="4.477">
        <ele>264</ele>
        <time>2015-05-04T09:42:32Z</time>
      </trkpt>
      <trkpt lat="44.36306" lon="4.47661">
        <ele>267</ele>
        <time>2015-05-04T09:42:29Z</time>
      </trkpt>
      <trkpt lat="44.36291" lon="4.47627">
        <ele>266</ele>
        <time>2015-05-04T09:42:26Z</time>
      </trkpt>
      <trkpt lat="44.36274" lon="4.47594">
        <ele>265</ele>
        <time>2015-05-04T09:42:23Z</time>
      </trkpt>
      <trkpt lat="44.36258" lon="4.47562">
        <ele>268</ele>
        <time>2015-05-04T09:42:20Z</time>
      </trkpt>
      <trkpt lat="44.36245" lon="4.47529">
        <ele>263</ele>
        <time>2015-05-04T09:42:17Z</time>
      </trkpt>
      <trkpt lat="44.36244" lon="4.47493">
        <ele>269</ele>
        <time>2015-05-04T09:42:14Z</time>
      </trkpt>
      <trkpt lat="44.36254" lon="4.47462">
        <ele>274</ele>
        <time>2015-05-04T09:42:11Z</time>
      </trkpt>
      <trkpt lat="44.36271" lon="4.47443">
        <ele>274</ele>
        <time>2015-05-04T09:42:08Z</time>
      </trkpt>
      <trkpt lat="44.36291" lon="4.47435">
        <ele>274</ele>
        <time>2015-05-04T09:42:05Z</time>
      </trkpt>
      <trkpt lat="44.36306" lon="4.47435">
        <ele>275</ele>
        <time>2015-05-04T09:42:03Z</time>
      </trkpt>
      <trkpt lat="44.3632" lon="4.47437">
        <ele>275</ele>
        <time>2015-05-04T09:42:01Z</time>
      </trkpt>
      <trkpt lat="44.3634" lon="4.47442">
        <ele>276</ele>
        <time>2015-05-04T09:41:58Z</time>
      </trkpt>
      <trkpt lat="44.36361" lon="4.47445">
        <ele>276</ele>
        <time>2015-05-04T09:41:55Z</time>
      </trkpt>
      <trkpt lat="44.36375" lon="4.47448">
        <ele>276</ele>
        <time>2015-05-04T09:41:53Z</time>
      </trkpt>
      <trkpt lat="44.3639" lon="4.4745">
        <ele>276</ele>
        <time>2015-05-04T09:41:51Z</time>
      </trkpt>
      <trkpt lat="44.36412" lon="4.47453">
        <ele>276</ele>
        <time>2015-05-04T09:41:48Z</time>
      </trkpt>
      <trkpt lat="44.36426" lon="4.47455">
        <ele>277</ele>
        <time>2015-05-04T09:41:46Z</time>
      </trkpt>
      <trkpt lat="44.36448" lon="4.47459">
        <ele>278</ele>
        <time>2015-05-04T09:41:43Z</time>
      </trkpt>
      <trkpt lat="44.36463" lon="4.47459">
        <ele>278</ele>
        <time>2015-05-04T09:41:41Z</time>
      </trkpt>
      <trkpt lat="44.36478" lon="4.47455">
        <ele>278</ele>
        <time>2015-05-04T09:41:39Z</time>
      </trkpt>
      <trkpt lat="44.36496" lon="4.47436">
        <ele>279</ele>
        <time>2015-05-04T09:41:36Z</time>
      </trkpt>
      <trkpt lat="44.36507" lon="4.47408">
        <ele>280</ele>
        <time>2015-05-04T09:41:33Z</time>
      </trkpt>
      <trkpt lat="44.36508" lon="4.47385">
        <ele>281</ele>
        <time>2015-05-04T09:41:31Z</time>
      </trkpt>
      <trkpt lat="44.36506" lon="4.47361">
        <ele>281</ele>
        <time>2015-05-04T09:41:29Z</time>
      </trkpt>
      <trkpt lat="44.36498" lon="4.47325">
        <ele>277</ele>
        <time>2015-05-04T09:41:26Z</time>
      </trkpt>
      <trkpt lat="44.36489" lon="4.47291">
        <ele>276</ele>
        <time>2015-05-04T09:41:23Z</time>
      </trkpt>
      <trkpt lat="44.36481" lon="4.47258">
        <ele>278</ele>
        <time>2015-05-04T09:41:20Z</time>
      </trkpt>
      <trkpt lat="44.36472" lon="4.47227">
        <ele>279</ele>
        <time>2015-05-04T09:41:17Z</time>
      </trkpt>
      <trkpt lat="44.36464" lon="4.47196">
        <ele>279</ele>
        <time>2015-05-04T09:41:14Z</time>
      </trkpt>
      <trkpt lat="44.36457" lon="4.47166">
        <ele>281</ele>
        <time>2015-05-04T09:41:11Z</time>
      </trkpt>
      <trkpt lat="44.36449" lon="4.47136">
        <ele>281</ele>
        <time>2015-05-04T09:41:08Z</time>
      </trkpt>
      <trkpt lat="44.36442" lon="4.47107">
        <ele>281</ele>
        <time>2015-05-04T09:41:05Z</time>
      </trkpt>
      <trkpt lat="44.36435" lon="4.47077">
        <ele>282</ele>
        <time>2015-05-04T09:41:02Z</time>
      </trkpt>
      <trkpt lat="44.36424" lon="4.47045">
        <ele>283</ele>
        <time>2015-05-04T09:40:59Z</time>
      </trkpt>
      <trkpt lat="44.36416" lon="4.47025">
        <ele>279</ele>
        <time>2015-05-04T09:40:57Z</time>
      </trkpt>
      <trkpt lat="44.36406" lon="4.47004">
        <ele>280</ele>
        <time>2015-05-04T09:40:55Z</time>
      </trkpt>
      <trkpt lat="44.36393" lon="4.46972">
        <ele>280</ele>
        <time>2015-05-04T09:40:52Z</time>
      </trkpt>
      <trkpt lat="44.36379" lon="4.46941">
        <ele>280</ele>
        <time>2015-05-04T09:40:49Z</time>
      </trkpt>
      <trkpt lat="44.36367" lon="4.46909">
        <ele>281</ele>
        <time>2015-05-04T09:40:46Z</time>
      </trkpt>
      <trkpt lat="44.36353" lon="4.46878">
        <ele>281</ele>
        <time>2015-05-04T09:40:43Z</time>
      </trkpt>
      <trkpt lat="44.36343" lon="4.46847">
        <ele>281</ele>
        <time>2015-05-04T09:40:40Z</time>
      </trkpt>
      <trkpt lat="44.36345" lon="4.46814">
        <ele>282</ele>
        <time>2015-05-04T09:40:37Z</time>
      </trkpt>
      <trkpt lat="44.36353" lon="4.46795">
        <ele>282</ele>
        <time>2015-05-04T09:40:35Z</time>
      </trkpt>
      <trkpt lat="44.36373" lon="4.46779">
        <ele>282</ele>
        <time>2015-05-04T09:40:32Z</time>
      </trkpt>
      <trkpt lat="44.3639" lon="4.46776">
        <ele>282</ele>
        <time>2015-05-04T09:40:30Z</time>
      </trkpt>
      <trkpt lat="44.36406" lon="4.4678">
        <ele>282</ele>
        <time>2015-05-04T09:40:28Z</time>
      </trkpt>
      <trkpt lat="44.3643" lon="4.46792">
        <ele>282</ele>
        <time>2015-05-04T09:40:25Z</time>
      </trkpt>
      <trkpt lat="44.36455" lon="4.46805">
        <ele>283</ele>
        <time>2015-05-04T09:40:22Z</time>
      </trkpt>
      <trkpt lat="44.36473" lon="4.46814">
        <ele>284</ele>
        <time>2015-05-04T09:40:20Z</time>
      </trkpt>
      <trkpt lat="44.36491" lon="4.46823">
        <ele>286</ele>
        <time>2015-05-04T09:40:18Z</time>
      </trkpt>
      <trkpt lat="44.36509" lon="4.46832">
        <ele>285</ele>
        <time>2015-05-04T09:40:16Z</time>
      </trkpt>
      <trkpt lat="44.36535" lon="4.46845">
        <ele>289</ele>
        <time>2015-05-04T09:40:13Z</time>
      </trkpt>
      <trkpt lat="44.3656" lon="4.46859">
        <ele>289</ele>
        <time>2015-05-04T09:40:10Z</time>
      </trkpt>
      <trkpt lat="44.36584" lon="4.46872">
        <ele>290</ele>
        <time>2015-05-04T09:40:07Z</time>
      </trkpt>
      <trkpt lat="44.36606" lon="4.46889">
        <ele>291</ele>
        <time>2015-05-04T09:40:04Z</time>
      </trkpt>
      <trkpt lat="44.36628" lon="4.46908">
        <ele>292</ele>
        <time>2015-05-04T09:40:01Z</time>
      </trkpt>
      <trkpt lat="44.36643" lon="4.4692">
        <ele>298</ele>
        <time>2015-05-04T09:39:59Z</time>
      </trkpt>
      <trkpt lat="44.36666" lon="4.4693">
        <ele>297</ele>
        <time>2015-05-04T09:39:56Z</time>
      </trkpt>
      <trkpt lat="44.36688" lon="4.46918">
        <ele>301</ele>
        <time>2015-05-04T09:39:53Z</time>
      </trkpt>
      <trkpt lat="44.36696" lon="4.46898">
        <ele>298</ele>
        <time>2015-05-04T09:39:51Z</time>
      </trkpt>
      <trkpt lat="44.36699" lon="4.46876">
        <ele>298</ele>
        <time>2015-05-04T09:39:49Z</time>
      </trkpt>
      <trkpt lat="44.367" lon="4.46854">
        <ele>297</ele>
        <time>2015-05-04T09:39:47Z</time>
      </trkpt>
      <trkpt lat="44.36701" lon="4.46832">
        <ele>293</ele>
        <time>2015-05-04T09:39:45Z</time>
      </trkpt>
      <trkpt lat="44.36705" lon="4.46798">
        <ele>294</ele>
        <time>2015-05-04T09:39:42Z</time>
      </trkpt>
      <trkpt lat="44.36713" lon="4.46763">
        <ele>295</ele>
        <time>2015-05-04T09:39:39Z</time>
      </trkpt>
      <trkpt lat="44.36725" lon="4.46732">
        <ele>296</ele>
        <time>2015-05-04T09:39:36Z</time>
      </trkpt>
      <trkpt lat="44.36742" lon="4.46704">
        <ele>296</ele>
        <time>2015-05-04T09:39:33Z</time>
      </trkpt>
      <trkpt lat="44.36761" lon="4.46683">
        <ele>304</ele>
        <time>2015-05-04T09:39:30Z</time>
      </trkpt>
      <trkpt lat="44.36782" lon="4.46669">
        <ele>305</ele>
        <time>2015-05-04T09:39:27Z</time>
      </trkpt>
      <trkpt lat="44.36796" lon="4.46661">
        <ele>304</ele>
        <time>2015-05-04T09:39:25Z</time>
      </trkpt>
      <trkpt lat="44.36811" lon="4.46654">
        <ele>305</ele>
        <time>2015-05-04T09:39:23Z</time>
      </trkpt>
      <trkpt lat="44.36832" lon="4.46643">
        <ele>306</ele>
        <time>2015-05-04T09:39:20Z</time>
      </trkpt>
      <trkpt lat="44.36845" lon="4.46632">
        <ele>310</ele>
        <time>2015-05-04T09:39:18Z</time>
      </trkpt>
      <trkpt lat="44.36858" lon="4.46605">
        <ele>309</ele>
        <time>2015-05-04T09:39:15Z</time>
      </trkpt>
      <trkpt lat="44.36858" lon="4.46583">
        <ele>309</ele>
        <time>2015-05-04T09:39:13Z</time>
      </trkpt>
      <trkpt lat="44.36845" lon="4.46553">
        <ele>310</ele>
        <time>2015-05-04T09:39:10Z</time>
      </trkpt>
      <trkpt lat="44.36824" lon="4.46531">
        <ele>305</ele>
        <time>2015-05-04T09:39:07Z</time>
      </trkpt>
      <trkpt lat="44.36803" lon="4.46509">
        <ele>305</ele>
        <time>2015-05-04T09:39:04Z</time>
      </trkpt>
      <trkpt lat="44.36783" lon="4.46485">
        <ele>309</ele>
        <time>2015-05-04T09:39:01Z</time>
      </trkpt>
      <trkpt lat="44.36761" lon="4.4646">
        <ele>310</ele>
        <time>2015-05-04T09:38:58Z</time>
      </trkpt>
      <trkpt lat="44.36748" lon="4.46441">
        <ele>302</ele>
        <time>2015-05-04T09:38:56Z</time>
      </trkpt>
      <trkpt lat="44.36728" lon="4.4641">
        <ele>307</ele>
        <time>2015-05-04T09:38:53Z</time>
      </trkpt>
      <trkpt lat="44.3671" lon="4.46373">
        <ele>305</ele>
        <time>2015-05-04T09:38:50Z</time>
      </trkpt>
      <trkpt lat="44.36701" lon="4.46329">
        <ele>309</ele>
        <time>2015-05-04T09:38:47Z</time>
      </trkpt>
      <trkpt lat="44.36702" lon="4.46284">
        <ele>311</ele>
        <time>2015-05-04T09:38:44Z</time>
      </trkpt>
      <trkpt lat="44.36705" lon="4.46252">
        <ele>312</ele>
        <time>2015-05-04T09:38:42Z</time>
      </trkpt>
      <trkpt lat="44.36704" lon="4.46205">
        <ele>317</ele>
        <time>2015-05-04T09:38:39Z</time>
      </trkpt>
      <trkpt lat="44.36696" lon="4.46159">
        <ele>319</ele>
        <time>2015-05-04T09:38:36Z</time>
      </trkpt>
      <trkpt lat="44.36689" lon="4.4613">
        <ele>320</ele>
        <time>2015-05-04T09:38:34Z</time>
      </trkpt>
      <trkpt lat="44.3668" lon="4.46088">
        <ele>316</ele>
        <time>2015-05-04T09:38:31Z</time>
      </trkpt>
      <trkpt lat="44.36674" lon="4.46062">
        <ele>322</ele>
        <time>2015-05-04T09:38:29Z</time>
      </trkpt>
      <trkpt lat="44.36665" lon="4.46025">
        <ele>310</ele>
        <time>2015-05-04T09:38:26Z</time>
      </trkpt>
      <trkpt lat="44.36659" lon="4.46002">
        <ele>318</ele>
        <time>2015-05-04T09:38:24Z</time>
      </trkpt>
      <trkpt lat="44.36652" lon="4.45968">
        <ele>317</ele>
        <time>2015-05-04T09:38:21Z</time>
      </trkpt>
      <trkpt lat="44.36644" lon="4.45933">
        <ele>319</ele>
        <time>2015-05-04T09:38:18Z</time>
      </trkpt>
      <trkpt lat="44.3664" lon="4.45909">
        <ele>322</ele>
        <time>2015-05-04T09:38:16Z</time>
      </trkpt>
      <trkpt lat="44.36636" lon="4.45869">
        <ele>321</ele>
        <time>2015-05-04T09:38:13Z</time>
      </trkpt>
      <trkpt lat="44.36636" lon="4.45828">
        <ele>329</ele>
        <time>2015-05-04T09:38:10Z</time>
      </trkpt>
      <trkpt lat="44.36636" lon="4.45784">
        <ele>332</ele>
        <time>2015-05-04T09:38:07Z</time>
      </trkpt>
      <trkpt lat="44.36636" lon="4.45742">
        <ele>341</ele>
        <time>2015-05-04T09:38:04Z</time>
      </trkpt>
      <trkpt lat="44.3664" lon="4.45705">
        <ele>341</ele>
        <time>2015-05-04T09:38:01Z</time>
      </trkpt>
      <trkpt lat="44.36647" lon="4.45678">
        <ele>342</ele>
        <time>2015-05-04T09:37:58Z</time>
      </trkpt>
      <trkpt lat="44.36658" lon="4.45659">
        <ele>343</ele>
        <time>2015-05-04T09:37:55Z</time>
      </trkpt>
      <trkpt lat="44.36665" lon="4.45649">
        <ele>342</ele>
        <time>2015-05-04T09:37:53Z</time>
      </trkpt>
      <trkpt lat="44.36673" lon="4.45633">
        <ele>340</ele>
        <time>2015-05-04T09:37:50Z</time>
      </trkpt>
      <trkpt lat="44.36679" lon="4.45618">
        <ele>339</ele>
        <time>2015-05-04T09:37:47Z</time>
      </trkpt>
      <trkpt lat="44.36681" lon="4.45608">
        <ele>339</ele>
        <time>2015-05-04T09:37:45Z</time>
      </trkpt>
      <trkpt lat="44.36682" lon="4.45593">
        <ele>338</ele>
        <time>2015-05-04T09:37:42Z</time>
      </trkpt>
      <trkpt lat="44.36681" lon="4.45579">
        <ele>335</ele>
        <time>2015-05-04T09:37:39Z</time>
      </trkpt>
      <trkpt lat="44.3668" lon="4.4557">
        <ele>334</ele>
        <time>2015-05-04T09:37:37Z</time>
      </trkpt>
      <trkpt lat="44.36677" lon="4.45557">
        <ele>333</ele>
        <time>2015-05-04T09:37:34Z</time>
      </trkpt>
      <trkpt lat="44.36675" lon="4.45543">
        <ele>332</ele>
        <time>2015-05-04T09:37:31Z</time>
      </trkpt>
      <trkpt lat="44.36672" lon="4.45531">
        <ele>332</ele>
        <time>2015-05-04T09:37:28Z</time>
      </trkpt>
      <trkpt lat="44.36671" lon="4.45522">
        <ele>332</ele>
        <time>2015-05-04T09:37:26Z</time>
      </trkpt>
      <trkpt lat="44.3667" lon="4.45513">
        <ele>332</ele>
        <time>2015-05-04T09:37:24Z</time>
      </trkpt>
      <trkpt lat="44.36668" lon="4.455">
        <ele>332</ele>
        <time>2015-05-04T09:37:21Z</time>
      </trkpt>
      <trkpt lat="44.36666" lon="4.45487">
        <ele>327</ele>
        <time>2015-05-04T09:37:18Z</time>
      </trkpt>
      <trkpt lat="44.36665" lon="4.45478">
        <ele>324</ele>
        <time>2015-05-04T09:37:16Z</time>
      </trkpt>
      <trkpt lat="44.36664" lon="4.45465">
        <ele>322</ele>
        <time>2015-05-04T09:37:13Z</time>
      </trkpt>
      <trkpt lat="44.36665" lon="4.45453">
        <ele>320</ele>
        <time>2015-05-04T09:37:10Z</time>
      </trkpt>
      <trkpt lat="44.36666" lon="4.45441">
        <ele>319</ele>
        <time>2015-05-04T09:37:07Z</time>
      </trkpt>
      <trkpt lat="44.3667" lon="4.45431">
        <ele>319</ele>
        <time>2015-05-04T09:37:04Z</time>
      </trkpt>
      <trkpt lat="44.36674" lon="4.45425">
        <ele>319</ele>
        <time>2015-05-04T09:37:02Z</time>
      </trkpt>
      <trkpt lat="44.36678" lon="4.45422">
        <ele>319</ele>
        <time>2015-05-04T09:37:00Z</time>
      </trkpt>
      <trkpt lat="44.36686" lon="4.45419">
        <ele>318</ele>
        <time>2015-05-04T09:36:57Z</time>
      </trkpt>
      <trkpt lat="44.36694" lon="4.45421">
        <ele>316</ele>
        <time>2015-05-04T09:36:54Z</time>
      </trkpt>
      <trkpt lat="44.36702" lon="4.45428">
        <ele>315</ele>
        <time>2015-05-04T09:36:51Z</time>
      </trkpt>
      <trkpt lat="44.36708" lon="4.45436">
        <ele>315</ele>
        <time>2015-05-04T09:36:48Z</time>
      </trkpt>
      <trkpt lat="44.36713" lon="4.45446">
        <ele>315</ele>
        <time>2015-05-04T09:36:45Z</time>
      </trkpt>
      <trkpt lat="44.36718" lon="4.45457">
        <ele>316</ele>
        <time>2015-05-04T09:36:42Z</time>
      </trkpt>
      <trkpt lat="44.36725" lon="4.45467">
        <ele>317</ele>
        <time>2015-05-04T09:36:39Z</time>
      </trkpt>
      <trkpt lat="44.36728" lon="4.45475">
        <ele>318</ele>
        <time>2015-05-04T09:36:37Z</time>
      </trkpt>
      <trkpt lat="44.36733" lon="4.45486">
        <ele>319</ele>
        <time>2015-05-04T09:36:34Z</time>
      </trkpt>
      <trkpt lat="44.36736" lon="4.45493">
        <ele>319</ele>
        <time>2015-05-04T09:36:32Z</time>
      </trkpt>
      <trkpt lat="44.36741" lon="4.45503">
        <ele>324</ele>
        <time>2015-05-04T09:36:29Z</time>
      </trkpt>
      <trkpt lat="44.36746" lon="4.45512">
        <ele>325</ele>
        <time>2015-05-04T09:36:26Z</time>
      </trkpt>
      <trkpt lat="44.36752" lon="4.4552">
        <ele>314</ele>
        <time>2015-05-04T09:36:23Z</time>
      </trkpt>
      <trkpt lat="44.36758" lon="4.45529">
        <ele>313</ele>
        <time>2015-05-04T09:36:20Z</time>
      </trkpt>
      <trkpt lat="44.36764" lon="4.45537">
        <ele>312</ele>
        <time>2015-05-04T09:36:17Z</time>
      </trkpt>
      <trkpt lat="44.36768" lon="4.45543">
        <ele>312</ele>
        <time>2015-05-04T09:36:15Z</time>
      </trkpt>
      <trkpt lat="44.36774" lon="4.45551">
        <ele>312</ele>
        <time>2015-05-04T09:36:12Z</time>
      </trkpt>
      <trkpt lat="44.36779" lon="4.45556">
        <ele>311</ele>
        <time>2015-05-04T09:36:10Z</time>
      </trkpt>
      <trkpt lat="44.36783" lon="4.45561">
        <ele>311</ele>
        <time>2015-05-04T09:36:08Z</time>
      </trkpt>
      <trkpt lat="44.36789" lon="4.45569">
        <ele>310</ele>
        <time>2015-05-04T09:36:05Z</time>
      </trkpt>
      <trkpt lat="44.36795" lon="4.45577">
        <ele>309</ele>
        <time>2015-05-04T09:36:02Z</time>
      </trkpt>
      <trkpt lat="44.368" lon="4.45585">
        <ele>317</ele>
        <time>2015-05-04T09:35:59Z</time>
      </trkpt>
      <trkpt lat="44.36807" lon="4.45592">
        <ele>315</ele>
        <time>2015-05-04T09:35:56Z</time>
      </trkpt>
      <trkpt lat="44.36813" lon="4.456">
        <ele>314</ele>
        <time>2015-05-04T09:35:53Z</time>
      </trkpt>
      <trkpt lat="44.36818" lon="4.45608">
        <ele>314</ele>
        <time>2015-05-04T09:35:50Z</time>
      </trkpt>
      <trkpt lat="44.36824" lon="4.45616">
        <ele>315</ele>
        <time>2015-05-04T09:35:47Z</time>
      </trkpt>
      <trkpt lat="44.36831" lon="4.45623">
        <ele>316</ele>
        <time>2015-05-04T09:35:44Z</time>
      </trkpt>
      <trkpt lat="44.36835" lon="4.45629">
        <ele>299</ele>
        <time>2015-05-04T09:35:42Z</time>
      </trkpt>
      <trkpt lat="44.36839" lon="4.45634">
        <ele>300</ele>
        <time>2015-05-04T09:35:40Z</time>
      </trkpt>
      <trkpt lat="44.36845" lon="4.45642">
        <ele>301</ele>
        <time>2015-05-04T09:35:37Z</time>
      </trkpt>
      <trkpt lat="44.36851" lon="4.45649">
        <ele>302</ele>
        <time>2015-05-04T09:35:34Z</time>
      </trkpt>
      <trkpt lat="44.36857" lon="4.45657">
        <ele>301</ele>
        <time>2015-05-04T09:35:31Z</time>
      </trkpt>
      <trkpt lat="44.36862" lon="4.45665">
        <ele>300</ele>
        <time>2015-05-04T09:35:28Z</time>
      </trkpt>
      <trkpt lat="44.36868" lon="4.45673">
        <ele>310</ele>
        <time>2015-05-04T09:35:25Z</time>
      </trkpt>
      <trkpt lat="44.36874" lon="4.4568">
        <ele>309</ele>
        <time>2015-05-04T09:35:22Z</time>
      </trkpt>
      <trkpt lat="44.36879" lon="4.45689">
        <ele>309</ele>
        <time>2015-05-04T09:35:19Z</time>
      </trkpt>
      <trkpt lat="44.36883" lon="4.45694">
        <ele>308</ele>
        <time>2015-05-04T09:35:17Z</time>
      </trkpt>
      <trkpt lat="44.36889" lon="4.45702">
        <ele>308</ele>
        <time>2015-05-04T09:35:14Z</time>
      </trkpt>
      <trkpt lat="44.36892" lon="4.45708">
        <ele>308</ele>
        <time>2015-05-04T09:35:12Z</time>
      </trkpt>
      <trkpt lat="44.36896" lon="4.45713">
        <ele>308</ele>
        <time>2015-05-04T09:35:10Z</time>
      </trkpt>
      <trkpt lat="44.36902" lon="4.45722">
        <ele>308</ele>
        <time>2015-05-04T09:35:07Z</time>
      </trkpt>
      <trkpt lat="44.36908" lon="4.45731">
        <ele>308</ele>
        <time>2015-05-04T09:35:04Z</time>
      </trkpt>
      <trkpt lat="44.36913" lon="4.45739">
        <ele>307</ele>
        <time>2015-05-04T09:35:01Z</time>
      </trkpt>
      <trkpt lat="44.36919" lon="4.45747">
        <ele>302</ele>
        <time>2015-05-04T09:34:58Z</time>
      </trkpt>
      <trkpt lat="44.36924" lon="4.45755">
        <ele>302</ele>
        <time>2015-05-04T09:34:55Z</time>
      </trkpt>
      <trkpt lat="44.36931" lon="4.45763">
        <ele>300</ele>
        <time>2015-05-04T09:34:52Z</time>
      </trkpt>
      <trkpt lat="44.36936" lon="4.45771">
        <ele>299</ele>
        <time>2015-05-04T09:34:49Z</time>
      </trkpt>
      <trkpt lat="44.36942" lon="4.4578">
        <ele>298</ele>
        <time>2015-05-04T09:34:46Z</time>
      </trkpt>
      <trkpt lat="44.36947" lon="4.45789">
        <ele>298</ele>
        <time>2015-05-04T09:34:43Z</time>
      </trkpt>
      <trkpt lat="44.36951" lon="4.45794">
        <ele>298</ele>
        <time>2015-05-04T09:34:41Z</time>
      </trkpt>
      <trkpt lat="44.36956" lon="4.45802">
        <ele>297</ele>
        <time>2015-05-04T09:34:38Z</time>
      </trkpt>
      <trkpt lat="44.36962" lon="4.4581">
        <ele>296</ele>
        <time>2015-05-04T09:34:35Z</time>
      </trkpt>
      <trkpt lat="44.36968" lon="4.45819">
        <ele>295</ele>
        <time>2015-05-04T09:34:32Z</time>
      </trkpt>
      <trkpt lat="44.36973" lon="4.45827">
        <ele>294</ele>
        <time>2015-05-04T09:34:29Z</time>
      </trkpt>
      <trkpt lat="44.36979" lon="4.45836">
        <ele>300</ele>
        <time>2015-05-04T09:34:26Z</time>
      </trkpt>
      <trkpt lat="44.36985" lon="4.45844">
        <ele>298</ele>
        <time>2015-05-04T09:34:23Z</time>
      </trkpt>
      <trkpt lat="44.3699" lon="4.45853">
        <ele>300</ele>
        <time>2015-05-04T09:34:20Z</time>
      </trkpt>
      <trkpt lat="44.36995" lon="4.45863">
        <ele>302</ele>
        <time>2015-05-04T09:34:17Z</time>
      </trkpt>
      <trkpt lat="44.36999" lon="4.45869">
        <ele>302</ele>
        <time>2015-05-04T09:34:15Z</time>
      </trkpt>
      <trkpt lat="44.37002" lon="4.45875">
        <ele>286</ele>
        <time>2015-05-04T09:34:13Z</time>
      </trkpt>
      <trkpt lat="44.37006" lon="4.45881">
        <ele>287</ele>
        <time>2015-05-04T09:34:11Z</time>
      </trkpt>
      <trkpt lat="44.37011" lon="4.45891">
        <ele>288</ele>
        <time>2015-05-04T09:34:08Z</time>
      </trkpt>
      <trkpt lat="44.37016" lon="4.459">
        <ele>289</ele>
        <time>2015-05-04T09:34:05Z</time>
      </trkpt>
      <trkpt lat="44.37021" lon="4.4591">
        <ele>289</ele>
        <time>2015-05-04T09:34:02Z</time>
      </trkpt>
      <trkpt lat="44.37027" lon="4.4592">
        <ele>293</ele>
        <time>2015-05-04T09:33:59Z</time>
      </trkpt>
      <trkpt lat="44.37032" lon="4.4593">
        <ele>291</ele>
        <time>2015-05-04T09:33:56Z</time>
      </trkpt>
      <trkpt lat="44.37036" lon="4.45938">
        <ele>291</ele>
        <time>2015-05-04T09:33:54Z</time>
      </trkpt>
      <trkpt lat="44.3704" lon="4.45945">
        <ele>290</ele>
        <time>2015-05-04T09:33:52Z</time>
      </trkpt>
      <trkpt lat="44.37045" lon="4.45955">
        <ele>289</ele>
        <time>2015-05-04T09:33:49Z</time>
      </trkpt>
      <trkpt lat="44.37051" lon="4.45966">
        <ele>289</ele>
        <time>2015-05-04T09:33:46Z</time>
      </trkpt>
      <trkpt lat="44.37056" lon="4.45977">
        <ele>288</ele>
        <time>2015-05-04T09:33:43Z</time>
      </trkpt>
      <trkpt lat="44.37059" lon="4.45989">
        <ele>286</ele>
        <time>2015-05-04T09:33:40Z</time>
      </trkpt>
      <trkpt lat="44.37062" lon="4.46004">
        <ele>289</ele>
        <time>2015-05-04T09:33:37Z</time>
      </trkpt>
      <trkpt lat="44.37063" lon="4.46019">
        <ele>290</ele>
        <time>2015-05-04T09:33:34Z</time>
      </trkpt>
      <trkpt lat="44.37064" lon="4.46029">
        <ele>292</ele>
        <time>2015-05-04T09:33:32Z</time>
      </trkpt>
      <trkpt lat="44.37065" lon="4.46044">
        <ele>293</ele>
        <time>2015-05-04T09:33:29Z</time>
      </trkpt>
      <trkpt lat="44.37067" lon="4.46057">
        <ele>292</ele>
        <time>2015-05-04T09:33:26Z</time>
      </trkpt>
      <trkpt lat="44.37069" lon="4.46066">
        <ele>291</ele>
        <time>2015-05-04T09:33:24Z</time>
      </trkpt>
      <trkpt lat="44.37076" lon="4.46077">
        <ele>287</ele>
        <time>2015-05-04T09:33:21Z</time>
      </trkpt>
      <trkpt lat="44.37086" lon="4.46083">
        <ele>283</ele>
        <time>2015-05-04T09:33:18Z</time>
      </trkpt>
      <trkpt lat="44.37097" lon="4.46083">
        <ele>285</ele>
        <time>2015-05-04T09:33:15Z</time>
      </trkpt>
      <trkpt lat="44.37107" lon="4.46077">
        <ele>287</ele>
        <time>2015-05-04T09:33:12Z</time>
      </trkpt>
      <trkpt lat="44.37113" lon="4.46064">
        <ele>288</ele>
        <time>2015-05-04T09:33:09Z</time>
      </trkpt>
      <trkpt lat="44.37117" lon="4.4605">
        <ele>288</ele>
        <time>2015-05-04T09:33:06Z</time>
      </trkpt>
      <trkpt lat="44.37121" lon="4.46035">
        <ele>288</ele>
        <time>2015-05-04T09:33:03Z</time>
      </trkpt>
      <trkpt lat="44.37124" lon="4.4602">
        <ele>287</ele>
        <time>2015-05-04T09:33:00Z</time>
      </trkpt>
      <trkpt lat="44.37125" lon="4.4601">
        <ele>287</ele>
        <time>2015-05-04T09:32:58Z</time>
      </trkpt>
      <trkpt lat="44.37125" lon="4.45999">
        <ele>285</ele>
        <time>2015-05-04T09:32:56Z</time>
      </trkpt>
      <trkpt lat="44.37126" lon="4.45983">
        <ele>285</ele>
        <time>2015-05-04T09:32:53Z</time>
      </trkpt>
      <trkpt lat="44.37126" lon="4.45967">
        <ele>285</ele>
        <time>2015-05-04T09:32:50Z</time>
      </trkpt>
      <trkpt lat="44.37125" lon="4.45951">
        <ele>285</ele>
        <time>2015-05-04T09:32:47Z</time>
      </trkpt>
      <trkpt lat="44.37125" lon="4.4594">
        <ele>285</ele>
        <time>2015-05-04T09:32:45Z</time>
      </trkpt>
      <trkpt lat="44.37125" lon="4.45923">
        <ele>285</ele>
        <time>2015-05-04T09:32:42Z</time>
      </trkpt>
      <trkpt lat="44.37125" lon="4.45912">
        <ele>284</ele>
        <time>2015-05-04T09:32:40Z</time>
      </trkpt>
      <trkpt lat="44.37125" lon="4.45895">
        <ele>284</ele>
        <time>2015-05-04T09:32:37Z</time>
      </trkpt>
      <trkpt lat="44.37124" lon="4.45879">
        <ele>284</ele>
        <time>2015-05-04T09:32:34Z</time>
      </trkpt>
      <trkpt lat="44.37122" lon="4.45868">
        <ele>284</ele>
        <time>2015-05-04T09:32:32Z</time>
      </trkpt>
      <trkpt lat="44.37119" lon="4.45853">
        <ele>283</ele>
        <time>2015-05-04T09:32:29Z</time>
      </trkpt>
      <trkpt lat="44.37115" lon="4.45838">
        <ele>281</ele>
        <time>2015-05-04T09:32:26Z</time>
      </trkpt>
      <trkpt lat="44.37112" lon="4.45824">
        <ele>281</ele>
        <time>2015-05-04T09:32:23Z</time>
      </trkpt>
      <trkpt lat="44.3711" lon="4.45811">
        <ele>281</ele>
        <time>2015-05-04T09:32:20Z</time>
      </trkpt>
      <trkpt lat="44.37108" lon="4.45797">
        <ele>281</ele>
        <time>2015-05-04T09:32:17Z</time>
      </trkpt>
      <trkpt lat="44.37108" lon="4.45783">
        <ele>281</ele>
        <time>2015-05-04T09:32:14Z</time>
      </trkpt>
      <trkpt lat="44.37108" lon="4.45768">
        <ele>280</ele>
        <time>2015-05-04T09:32:11Z</time>
      </trkpt>
      <trkpt lat="44.37106" lon="4.45759">
        <ele>278</ele>
        <time>2015-05-04T09:32:09Z</time>
      </trkpt>
      <trkpt lat="44.37103" lon="4.45746">
        <ele>279</ele>
        <time>2015-05-04T09:32:06Z</time>
      </trkpt>
      <trkpt lat="44.371" lon="4.45737">
        <ele>279</ele>
        <time>2015-05-04T09:32:04Z</time>
      </trkpt>
      <trkpt lat="44.37096" lon="4.45729">
        <ele>279</ele>
        <time>2015-05-04T09:32:02Z</time>
      </trkpt>
      <trkpt lat="44.3709" lon="4.45717">
        <ele>281</ele>
        <time>2015-05-04T09:31:59Z</time>
      </trkpt>
      <trkpt lat="44.37084" lon="4.45705">
        <ele>282</ele>
        <time>2015-05-04T09:31:56Z</time>
      </trkpt>
      <trkpt lat="44.37078" lon="4.45692">
        <ele>269</ele>
        <time>2015-05-04T09:31:53Z</time>
      </trkpt>
      <trkpt lat="44.37071" lon="4.4568">
        <ele>269</ele>
        <time>2015-05-04T09:31:50Z</time>
      </trkpt>
      <trkpt lat="44.37066" lon="4.45666">
        <ele>270</ele>
        <time>2015-05-04T09:31:47Z</time>
      </trkpt>
      <trkpt lat="44.37062" lon="4.45657">
        <ele>269</ele>
        <time>2015-05-04T09:31:45Z</time>
      </trkpt>
      <trkpt lat="44.37057" lon="4.45642">
        <ele>268</ele>
        <time>2015-05-04T09:31:42Z</time>
      </trkpt>
      <trkpt lat="44.37055" lon="4.45632">
        <ele>268</ele>
        <time>2015-05-04T09:31:40Z</time>
      </trkpt>
      <trkpt lat="44.3705" lon="4.45617">
        <ele>268</ele>
        <time>2015-05-04T09:31:37Z</time>
      </trkpt>
      <trkpt lat="44.37046" lon="4.45602">
        <ele>268</ele>
        <time>2015-05-04T09:31:34Z</time>
      </trkpt>
      <trkpt lat="44.37043" lon="4.45586">
        <ele>267</ele>
        <time>2015-05-04T09:31:31Z</time>
      </trkpt>
      <trkpt lat="44.37042" lon="4.45569">
        <ele>267</ele>
        <time>2015-05-04T09:31:28Z</time>
      </trkpt>
      <trkpt lat="44.37042" lon="4.45558">
        <ele>266</ele>
        <time>2015-05-04T09:31:26Z</time>
      </trkpt>
      <trkpt lat="44.37042" lon="4.4554">
        <ele>266</ele>
        <time>2015-05-04T09:31:23Z</time>
      </trkpt>
      <trkpt lat="44.37041" lon="4.45523">
        <ele>266</ele>
        <time>2015-05-04T09:31:20Z</time>
      </trkpt>
      <trkpt lat="44.37037" lon="4.45506">
        <ele>264</ele>
        <time>2015-05-04T09:31:17Z</time>
      </trkpt>
      <trkpt lat="44.3703" lon="4.4549">
        <ele>264</ele>
        <time>2015-05-04T09:31:14Z</time>
      </trkpt>
      <trkpt lat="44.37025" lon="4.4548">
        <ele>264</ele>
        <time>2015-05-04T09:31:12Z</time>
      </trkpt>
      <trkpt lat="44.37016" lon="4.45467">
        <ele>264</ele>
        <time>2015-05-04T09:31:09Z</time>
      </trkpt>
      <trkpt lat="44.37008" lon="4.45452">
        <ele>264</ele>
        <time>2015-05-04T09:31:06Z</time>
      </trkpt>
      <trkpt lat="44.37001" lon="4.45437">
        <ele>263</ele>
        <time>2015-05-04T09:31:03Z</time>
      </trkpt>
      <trkpt lat="44.36997" lon="4.4542">
        <ele>254</ele>
        <time>2015-05-04T09:31:00Z</time>
      </trkpt>
      <trkpt lat="44.36992" lon="4.45403">
        <ele>253</ele>
        <time>2015-05-04T09:30:57Z</time>
      </trkpt>
      <trkpt lat="44.36988" lon="4.45385">
        <ele>252</ele>
        <time>2015-05-04T09:30:54Z</time>
      </trkpt>
      <trkpt lat="44.36984" lon="4.45368">
        <ele>253</ele>
        <time>2015-05-04T09:30:51Z</time>
      </trkpt>
      <trkpt lat="44.36979" lon="4.45351">
        <ele>255</ele>
        <time>2015-05-04T09:30:48Z</time>
      </trkpt>
      <trkpt lat="44.36974" lon="4.45341">
        <ele>255</ele>
        <time>2015-05-04T09:30:46Z</time>
      </trkpt>
      <trkpt lat="44.36969" lon="4.45331">
        <ele>259</ele>
        <time>2015-05-04T09:30:44Z</time>
      </trkpt>
      <trkpt lat="44.36961" lon="4.45318">
        <ele>256</ele>
        <time>2015-05-04T09:30:41Z</time>
      </trkpt>
      <trkpt lat="44.36951" lon="4.45305">
        <ele>254</ele>
        <time>2015-05-04T09:30:38Z</time>
      </trkpt>
      <trkpt lat="44.36942" lon="4.45291">
        <ele>253</ele>
        <time>2015-05-04T09:30:35Z</time>
      </trkpt>
      <trkpt lat="44.36933" lon="4.45277">
        <ele>251</ele>
        <time>2015-05-04T09:30:32Z</time>
      </trkpt>
      <trkpt lat="44.36925" lon="4.45262">
        <ele>248</ele>
        <time>2015-05-04T09:30:29Z</time>
      </trkpt>
      <trkpt lat="44.3692" lon="4.45245">
        <ele>245</ele>
        <time>2015-05-04T09:30:26Z</time>
      </trkpt>
      <trkpt lat="44.36921" lon="4.45227">
        <ele>250</ele>
        <time>2015-05-04T09:30:23Z</time>
      </trkpt>
      <trkpt lat="44.36927" lon="4.45211">
        <ele>252</ele>
        <time>2015-05-04T09:30:20Z</time>
      </trkpt>
      <trkpt lat="44.36932" lon="4.45201">
        <ele>252</ele>
        <time>2015-05-04T09:30:18Z</time>
      </trkpt>
      <trkpt lat="44.36939" lon="4.45191">
        <ele>252</ele>
        <time>2015-05-04T09:30:16Z</time>
      </trkpt>
      <trkpt lat="44.36949" lon="4.45176">
        <ele>253</ele>
        <time>2015-05-04T09:30:13Z</time>
      </trkpt>
      <trkpt lat="44.3696" lon="4.45159">
        <ele>247</ele>
        <time>2015-05-04T09:30:10Z</time>
      </trkpt>
      <trkpt lat="44.36972" lon="4.45143">
        <ele>248</ele>
        <time>2015-05-04T09:30:07Z</time>
      </trkpt>
      <trkpt lat="44.36984" lon="4.45125">
        <ele>246</ele>
        <time>2015-05-04T09:30:04Z</time>
      </trkpt>
      <trkpt lat="44.36998" lon="4.45109">
        <ele>245</ele>
        <time>2015-05-04T09:30:01Z</time>
      </trkpt>
      <trkpt lat="44.37012" lon="4.45093">
        <ele>257</ele>
        <time>2015-05-04T09:29:58Z</time>
      </trkpt>
      <trkpt lat="44.37027" lon="4.45076">
        <ele>251</ele>
        <time>2015-05-04T09:29:55Z</time>
      </trkpt>
      <trkpt lat="44.37042" lon="4.45057">
        <ele>253</ele>
        <time>2015-05-04T09:29:52Z</time>
      </trkpt>
      <trkpt lat="44.3705" lon="4.45041">
        <ele>253</ele>
        <time>2015-05-04T09:29:50Z</time>
      </trkpt>
      <trkpt lat="44.37058" lon="4.45024">
        <ele>252</ele>
        <time>2015-05-04T09:29:48Z</time>
      </trkpt>
      <trkpt lat="44.37067" lon="4.45006">
        <ele>253</ele>
        <time>2015-05-04T09:29:46Z</time>
      </trkpt>
      <trkpt lat="44.37075" lon="4.44987">
        <ele>244</ele>
        <time>2015-05-04T09:29:44Z</time>
      </trkpt>
      <trkpt lat="44.37088" lon="4.44957">
        <ele>261</ele>
        <time>2015-05-04T09:29:41Z</time>
      </trkpt>
      <trkpt lat="44.37099" lon="4.44925">
        <ele>253</ele>
        <time>2015-05-04T09:29:38Z</time>
      </trkpt>
      <trkpt lat="44.37111" lon="4.44893">
        <ele>244</ele>
        <time>2015-05-04T09:29:35Z</time>
      </trkpt>
      <trkpt lat="44.3713" lon="4.4487">
        <ele>245</ele>
        <time>2015-05-04T09:29:32Z</time>
      </trkpt>
      <trkpt lat="44.37154" lon="4.44862">
        <ele>248</ele>
        <time>2015-05-04T09:29:29Z</time>
      </trkpt>
      <trkpt lat="44.37171" lon="4.44864">
        <ele>260</ele>
        <time>2015-05-04T09:29:27Z</time>
      </trkpt>
      <trkpt lat="44.37198" lon="4.44874">
        <ele>264</ele>
        <time>2015-05-04T09:29:24Z</time>
      </trkpt>
      <trkpt lat="44.37219" lon="4.44883">
        <ele>266</ele>
        <time>2015-05-04T09:29:22Z</time>
      </trkpt>
      <trkpt lat="44.37244" lon="4.44901">
        <ele>272</ele>
        <time>2015-05-04T09:29:19Z</time>
      </trkpt>
      <trkpt lat="44.37264" lon="4.4492">
        <ele>285</ele>
        <time>2015-05-04T09:29:16Z</time>
      </trkpt>
      <trkpt lat="44.37276" lon="4.44928">
        <ele>289</ele>
        <time>2015-05-04T09:29:14Z</time>
      </trkpt>
      <trkpt lat="44.37294" lon="4.44922">
        <ele>289</ele>
        <time>2015-05-04T09:29:11Z</time>
      </trkpt>
      <trkpt lat="44.37305" lon="4.44898">
        <ele>276</ele>
        <time>2015-05-04T09:29:08Z</time>
      </trkpt>
      <trkpt lat="44.37317" lon="4.44866">
        <ele>273</ele>
        <time>2015-05-04T09:29:05Z</time>
      </trkpt>
      <trkpt lat="44.37325" lon="4.44845">
        <ele>272</ele>
        <time>2015-05-04T09:29:03Z</time>
      </trkpt>
      <trkpt lat="44.37336" lon="4.44827">
        <ele>273</ele>
        <time>2015-05-04T09:29:01Z</time>
      </trkpt>
      <trkpt lat="44.37357" lon="4.4481">
        <ele>279</ele>
        <time>2015-05-04T09:28:58Z</time>
      </trkpt>
      <trkpt lat="44.37378" lon="4.44794">
        <ele>281</ele>
        <time>2015-05-04T09:28:55Z</time>
      </trkpt>
      <trkpt lat="44.37381" lon="4.44762">
        <ele>281</ele>
        <time>2015-05-04T09:28:52Z</time>
      </trkpt>
      <trkpt lat="44.37353" lon="4.44748">
        <ele>285</ele>
        <time>2015-05-04T09:28:49Z</time>
      </trkpt>
      <trkpt lat="44.37318" lon="4.44737">
        <ele>277</ele>
        <time>2015-05-04T09:28:46Z</time>
      </trkpt>
      <trkpt lat="44.37287" lon="4.44711">
        <ele>276</ele>
        <time>2015-05-04T09:28:43Z</time>
      </trkpt>
      <trkpt lat="44.37263" lon="4.4467">
        <ele>275</ele>
        <time>2015-05-04T09:28:40Z</time>
      </trkpt>
      <trkpt lat="44.37252" lon="4.44618">
        <ele>287</ele>
        <time>2015-05-04T09:28:37Z</time>
      </trkpt>
      <trkpt lat="44.37246" lon="4.44582">
        <ele>282</ele>
        <time>2015-05-04T09:28:35Z</time>
      </trkpt>
      <trkpt lat="44.3724" lon="4.44546">
        <ele>276</ele>
        <time>2015-05-04T09:28:33Z</time>
      </trkpt>
      <trkpt lat="44.37232" lon="4.44493">
        <ele>282</ele>
        <time>2015-05-04T09:28:30Z</time>
      </trkpt>
      <trkpt lat="44.37232" lon="4.4444">
        <ele>280</ele>
        <time>2015-05-04T09:28:27Z</time>
      </trkpt>
      <trkpt lat="44.37237" lon="4.44406">
        <ele>283</ele>
        <time>2015-05-04T09:28:25Z</time>
      </trkpt>
      <trkpt lat="44.37253" lon="4.4438">
        <ele>292</ele>
        <time>2015-05-04T09:28:23Z</time>
      </trkpt>
      <trkpt lat="44.37289" lon="4.44379">
        <ele>295</ele>
        <time>2015-05-04T09:28:20Z</time>
      </trkpt>
      <trkpt lat="44.37314" lon="4.44385">
        <ele>298</ele>
        <time>2015-05-04T09:28:18Z</time>
      </trkpt>
      <trkpt lat="44.37349" lon="4.44367">
        <ele>310</ele>
        <time>2015-05-04T09:28:15Z</time>
      </trkpt>
      <trkpt lat="44.37363" lon="4.4434">
        <ele>310</ele>
        <time>2015-05-04T09:28:13Z</time>
      </trkpt>
      <trkpt lat="44.37368" lon="4.44289">
        <ele>309</ele>
        <time>2015-05-04T09:28:10Z</time>
      </trkpt>
      <trkpt lat="44.37368" lon="4.44239">
        <ele>306</ele>
        <time>2015-05-04T09:28:07Z</time>
      </trkpt>
      <trkpt lat="44.37374" lon="4.44193">
        <ele>307</ele>
        <time>2015-05-04T09:28:04Z</time>
      </trkpt>
      <trkpt lat="44.37385" lon="4.44168">
        <ele>310</ele>
        <time>2015-05-04T09:28:02Z</time>
      </trkpt>
      <trkpt lat="44.37399" lon="4.44147">
        <ele>309</ele>
        <time>2015-05-04T09:28:00Z</time>
      </trkpt>
      <trkpt lat="44.37418" lon="4.44117">
        <ele>323</ele>
        <time>2015-05-04T09:27:57Z</time>
      </trkpt>
      <trkpt lat="44.3743" lon="4.44099">
        <ele>320</ele>
        <time>2015-05-04T09:27:55Z</time>
      </trkpt>
      <trkpt lat="44.37442" lon="4.44082">
        <ele>318</ele>
        <time>2015-05-04T09:27:53Z</time>
      </trkpt>
      <trkpt lat="44.37456" lon="4.44057">
        <ele>321</ele>
        <time>2015-05-04T09:27:50Z</time>
      </trkpt>
      <trkpt lat="44.37459" lon="4.44029">
        <ele>321</ele>
        <time>2015-05-04T09:27:47Z</time>
      </trkpt>
      <trkpt lat="44.37454" lon="4.44011">
        <ele>320</ele>
        <time>2015-05-04T09:27:45Z</time>
      </trkpt>
      <trkpt lat="44.37446" lon="4.43997">
        <ele>320</ele>
        <time>2015-05-04T09:27:43Z</time>
      </trkpt>
      <trkpt lat="44.3743" lon="4.43981">
        <ele>319</ele>
        <time>2015-05-04T09:27:40Z</time>
      </trkpt>
      <trkpt lat="44.37414" lon="4.43968">
        <ele>313</ele>
        <time>2015-05-04T09:27:37Z</time>
      </trkpt>
      <trkpt lat="44.37403" lon="4.43958">
        <ele>313</ele>
        <time>2015-05-04T09:27:35Z</time>
      </trkpt>
      <trkpt lat="44.37394" lon="4.43947">
        <ele>314</ele>
        <time>2015-05-04T09:27:33Z</time>
      </trkpt>
      <trkpt lat="44.37388" lon="4.43933">
        <ele>315</ele>
        <time>2015-05-04T09:27:31Z</time>
      </trkpt>
      <trkpt lat="44.37389" lon="4.43917">
        <ele>316</ele>
        <time>2015-05-04T09:27:29Z</time>
      </trkpt>
      <trkpt lat="44.37394" lon="4.43907">
        <ele>312</ele>
        <time>2015-05-04T09:27:27Z</time>
      </trkpt>
      <trkpt lat="44.37402" lon="4.43901">
        <ele>313</ele>
        <time>2015-05-04T09:27:25Z</time>
      </trkpt>
      <trkpt lat="44.37412" lon="4.43896">
        <ele>313</ele>
        <time>2015-05-04T09:27:22Z</time>
      </trkpt>
      <trkpt lat="44.37421" lon="4.43891">
        <ele>315</ele>
        <time>2015-05-04T09:27:19Z</time>
      </trkpt>
      <trkpt lat="44.37426" lon="4.43889">
        <ele>314</ele>
        <time>2015-05-04T09:27:17Z</time>
      </trkpt>
      <trkpt lat="44.37434" lon="4.43887">
        <ele>314</ele>
        <time>2015-05-04T09:27:14Z</time>
      </trkpt>
      <trkpt lat="44.37443" lon="4.43888">
        <ele>314</ele>
        <time>2015-05-04T09:27:11Z</time>
      </trkpt>
      <trkpt lat="44.37451" lon="4.4389">
        <ele>314</ele>
        <time>2015-05-04T09:27:08Z</time>
      </trkpt>
      <trkpt lat="44.3746" lon="4.43893">
        <ele>315</ele>
        <time>2015-05-04T09:27:05Z</time>
      </trkpt>
      <trkpt lat="44.37468" lon="4.43894">
        <ele>315</ele>
        <time>2015-05-04T09:27:02Z</time>
      </trkpt>
      <trkpt lat="44.37474" lon="4.43895">
        <ele>316</ele>
        <time>2015-05-04T09:27:00Z</time>
      </trkpt>
      <trkpt lat="44.37483" lon="4.43893">
        <ele>316</ele>
        <time>2015-05-04T09:26:57Z</time>
      </trkpt>
      <trkpt lat="44.37489" lon="4.43891">
        <ele>316</ele>
        <time>2015-05-04T09:26:55Z</time>
      </trkpt>
      <trkpt lat="44.37495" lon="4.43888">
        <ele>316</ele>
        <time>2015-05-04T09:26:53Z</time>
      </trkpt>
      <trkpt lat="44.37504" lon="4.43884">
        <ele>320</ele>
        <time>2015-05-04T09:26:50Z</time>
      </trkpt>
      <trkpt lat="44.37512" lon="4.4388">
        <ele>320</ele>
        <time>2015-05-04T09:26:47Z</time>
      </trkpt>
      <trkpt lat="44.3752" lon="4.43877">
        <ele>320</ele>
        <time>2015-05-04T09:26:44Z</time>
      </trkpt>
      <trkpt lat="44.37526" lon="4.43874">
        <ele>320</ele>
        <time>2015-05-04T09:26:42Z</time>
      </trkpt>
      <trkpt lat="44.37534" lon="4.43871">
        <ele>320</ele>
        <time>2015-05-04T09:26:39Z</time>
      </trkpt>
      <trkpt lat="44.37541" lon="4.43867">
        <ele>320</ele>
        <time>2015-05-04T09:26:36Z</time>
      </trkpt>
      <trkpt lat="44.37549" lon="4.43864">
        <ele>320</ele>
        <time>2015-05-04T09:26:33Z</time>
      </trkpt>
      <trkpt lat="44.37554" lon="4.43861">
        <ele>319</ele>
        <time>2015-05-04T09:26:31Z</time>
      </trkpt>
      <trkpt lat="44.37559" lon="4.43859">
        <ele>319</ele>
        <time>2015-05-04T09:26:29Z</time>
      </trkpt>
      <trkpt lat="44.37567" lon="4.43855">
        <ele>319</ele>
        <time>2015-05-04T09:26:26Z</time>
      </trkpt>
      <trkpt lat="44.37573" lon="4.43852">
        <ele>318</ele>
        <time>2015-05-04T09:26:24Z</time>
      </trkpt>
      <trkpt lat="44.37582" lon="4.43849">
        <ele>317</ele>
        <time>2015-05-04T09:26:21Z</time>
      </trkpt>
      <trkpt lat="44.3759" lon="4.43844">
        <ele>319</ele>
        <time>2015-05-04T09:26:18Z</time>
      </trkpt>
      <trkpt lat="44.37599" lon="4.4384">
        <ele>320</ele>
        <time>2015-05-04T09:26:15Z</time>
      </trkpt>
      <trkpt lat="44.37608" lon="4.43836">
        <ele>321</ele>
        <time>2015-05-04T09:26:12Z</time>
      </trkpt>
      <trkpt lat="44.37616" lon="4.43832">
        <ele>300</ele>
        <time>2015-05-04T09:26:09Z</time>
      </trkpt>
      <trkpt lat="44.37623" lon="4.4383">
        <ele>299</ele>
        <time>2015-05-04T09:26:07Z</time>
      </trkpt>
      <trkpt lat="44.37628" lon="4.43827">
        <ele>299</ele>
        <time>2015-05-04T09:26:05Z</time>
      </trkpt>
      <trkpt lat="44.37637" lon="4.43823">
        <ele>299</ele>
        <time>2015-05-04T09:26:02Z</time>
      </trkpt>
      <trkpt lat="44.37646" lon="4.4382">
        <ele>299</ele>
        <time>2015-05-04T09:25:59Z</time>
      </trkpt>
      <trkpt lat="44.37652" lon="4.43818">
        <ele>299</ele>
        <time>2015-05-04T09:25:57Z</time>
      </trkpt>
      <trkpt lat="44.37659" lon="4.43817">
        <ele>300</ele>
        <time>2015-05-04T09:25:55Z</time>
      </trkpt>
      <trkpt lat="44.37669" lon="4.43816">
        <ele>296</ele>
        <time>2015-05-04T09:25:52Z</time>
      </trkpt>
      <trkpt lat="44.3768" lon="4.43816">
        <ele>294</ele>
        <time>2015-05-04T09:25:49Z</time>
      </trkpt>
      <trkpt lat="44.3769" lon="4.43818">
        <ele>292</ele>
        <time>2015-05-04T09:25:46Z</time>
      </trkpt>
      <trkpt lat="44.37698" lon="4.43821">
        <ele>291</ele>
        <time>2015-05-04T09:25:44Z</time>
      </trkpt>
      <trkpt lat="44.37705" lon="4.43824">
        <ele>290</ele>
        <time>2015-05-04T09:25:42Z</time>
      </trkpt>
      <trkpt lat="44.37716" lon="4.4383">
        <ele>290</ele>
        <time>2015-05-04T09:25:39Z</time>
      </trkpt>
      <trkpt lat="44.37726" lon="4.43836">
        <ele>314</ele>
        <time>2015-05-04T09:25:36Z</time>
      </trkpt>
      <trkpt lat="44.37737" lon="4.43841">
        <ele>310</ele>
        <time>2015-05-04T09:25:33Z</time>
      </trkpt>
      <trkpt lat="44.37747" lon="4.43848">
        <ele>311</ele>
        <time>2015-05-04T09:25:30Z</time>
      </trkpt>
      <trkpt lat="44.37756" lon="4.43856">
        <ele>285</ele>
        <time>2015-05-04T09:25:27Z</time>
      </trkpt>
      <trkpt lat="44.37765" lon="4.43865">
        <ele>283</ele>
        <time>2015-05-04T09:25:24Z</time>
      </trkpt>
      <trkpt lat="44.3777" lon="4.43873">
        <ele>284</ele>
        <time>2015-05-04T09:25:22Z</time>
      </trkpt>
      <trkpt lat="44.37775" lon="4.4388">
        <ele>284</ele>
        <time>2015-05-04T09:25:20Z</time>
      </trkpt>
      <trkpt lat="44.37783" lon="4.43891">
        <ele>284</ele>
        <time>2015-05-04T09:25:17Z</time>
      </trkpt>
      <trkpt lat="44.37787" lon="4.43897">
        <ele>283</ele>
        <time>2015-05-04T09:25:15Z</time>
      </trkpt>
      <trkpt lat="44.37792" lon="4.43904">
        <ele>280</ele>
        <time>2015-05-04T09:25:13Z</time>
      </trkpt>
      <trkpt lat="44.37798" lon="4.43915">
        <ele>276</ele>
        <time>2015-05-04T09:25:10Z</time>
      </trkpt>
      <trkpt lat="44.37804" lon="4.43925">
        <ele>301</ele>
        <time>2015-05-04T09:25:07Z</time>
      </trkpt>
      <trkpt lat="44.3781" lon="4.43935">
        <ele>299</ele>
        <time>2015-05-04T09:25:04Z</time>
      </trkpt>
      <trkpt lat="44.37816" lon="4.43944">
        <ele>301</ele>
        <time>2015-05-04T09:25:01Z</time>
      </trkpt>
      <trkpt lat="44.3782" lon="4.43953">
        <ele>304</ele>
        <time>2015-05-04T09:24:58Z</time>
      </trkpt>
      <trkpt lat="44.37823" lon="4.4396">
        <ele>307</ele>
        <time>2015-05-04T09:24:56Z</time>
      </trkpt>
      <trkpt lat="44.37827" lon="4.43968">
        <ele>309</ele>
        <time>2015-05-04T09:24:53Z</time>
      </trkpt>
      <trkpt lat="44.3783" lon="4.43974">
        <ele>310</ele>
        <time>2015-05-04T09:24:51Z</time>
      </trkpt>
      <trkpt lat="44.37834" lon="4.43982">
        <ele>274</ele>
        <time>2015-05-04T09:24:48Z</time>
      </trkpt>
      <trkpt lat="44.37839" lon="4.43989">
        <ele>282</ele>
        <time>2015-05-04T09:24:45Z</time>
      </trkpt>
      <trkpt lat="44.37845" lon="4.43996">
        <ele>282</ele>
        <time>2015-05-04T09:24:42Z</time>
      </trkpt>
      <trkpt lat="44.37848" lon="4.44">
        <ele>296</ele>
        <time>2015-05-04T09:24:40Z</time>
      </trkpt>
      <trkpt lat="44.37852" lon="4.44004">
        <ele>293</ele>
        <time>2015-05-04T09:24:38Z</time>
      </trkpt>
      <trkpt lat="44.37858" lon="4.44009">
        <ele>289</ele>
        <time>2015-05-04T09:24:35Z</time>
      </trkpt>
      <trkpt lat="44.37863" lon="4.44011">
        <ele>286</ele>
        <time>2015-05-04T09:24:33Z</time>
      </trkpt>
      <trkpt lat="44.37869" lon="4.44016">
        <ele>283</ele>
        <time>2015-05-04T09:24:30Z</time>
      </trkpt>
      <trkpt lat="44.37875" lon="4.44021">
        <ele>280</ele>
        <time>2015-05-04T09:24:27Z</time>
      </trkpt>
      <trkpt lat="44.3788" lon="4.44028">
        <ele>278</ele>
        <time>2015-05-04T09:24:24Z</time>
      </trkpt>
      <trkpt lat="44.37883" lon="4.44037">
        <ele>279</ele>
        <time>2015-05-04T09:24:21Z</time>
      </trkpt>
      <trkpt lat="44.37885" lon="4.44047">
        <ele>280</ele>
        <time>2015-05-04T09:24:18Z</time>
      </trkpt>
      <trkpt lat="44.37886" lon="4.44057">
        <ele>281</ele>
        <time>2015-05-04T09:24:15Z</time>
      </trkpt>
      <trkpt lat="44.37885" lon="4.44067">
        <ele>282</ele>
        <time>2015-05-04T09:24:12Z</time>
      </trkpt>
      <trkpt lat="44.37885" lon="4.44076">
        <ele>283</ele>
        <time>2015-05-04T09:24:09Z</time>
      </trkpt>
      <trkpt lat="44.37885" lon="4.44085">
        <ele>306</ele>
        <time>2015-05-04T09:24:06Z</time>
      </trkpt>
      <trkpt lat="44.37887" lon="4.44095">
        <ele>306</ele>
        <time>2015-05-04T09:24:03Z</time>
      </trkpt>
      <trkpt lat="44.37889" lon="4.44104">
        <ele>307</ele>
        <time>2015-05-04T09:24:00Z</time>
      </trkpt>
      <trkpt lat="44.37893" lon="4.44111">
        <ele>308</ele>
        <time>2015-05-04T09:23:57Z</time>
      </trkpt>
      <trkpt lat="44.37896" lon="4.44116">
        <ele>308</ele>
        <time>2015-05-04T09:23:55Z</time>
      </trkpt>
      <trkpt lat="44.379" lon="4.4412">
        <ele>308</ele>
        <time>2015-05-04T09:23:53Z</time>
      </trkpt>
      <trkpt lat="44.37904" lon="4.44123">
        <ele>308</ele>
        <time>2015-05-04T09:23:51Z</time>
      </trkpt>
      <trkpt lat="44.37908" lon="4.44126">
        <ele>308</ele>
        <time>2015-05-04T09:23:49Z</time>
      </trkpt>
      <trkpt lat="44.37915" lon="4.44131">
        <ele>308</ele>
        <time>2015-05-04T09:23:46Z</time>
      </trkpt>
      <trkpt lat="44.37919" lon="4.44135">
        <ele>271</ele>
        <time>2015-05-04T09:23:44Z</time>
      </trkpt>
      <trkpt lat="44.37924" lon="4.44141">
        <ele>274</ele>
        <time>2015-05-04T09:23:41Z</time>
      </trkpt>
      <trkpt lat="44.37927" lon="4.44145">
        <ele>276</ele>
        <time>2015-05-04T09:23:39Z</time>
      </trkpt>
      <trkpt lat="44.37933" lon="4.44151">
        <ele>277</ele>
        <time>2015-05-04T09:23:36Z</time>
      </trkpt>
      <trkpt lat="44.37938" lon="4.44157">
        <ele>276</ele>
        <time>2015-05-04T09:23:33Z</time>
      </trkpt>
      <trkpt lat="44.37943" lon="4.44162">
        <ele>274</ele>
        <time>2015-05-04T09:23:30Z</time>
      </trkpt>
      <trkpt lat="44.37946" lon="4.44166">
        <ele>272</ele>
        <time>2015-05-04T09:23:28Z</time>
      </trkpt>
      <trkpt lat="44.37951" lon="4.44172">
        <ele>296</ele>
        <time>2015-05-04T09:23:25Z</time>
      </trkpt>
      <trkpt lat="44.37955" lon="4.44177">
        <ele>295</ele>
        <time>2015-05-04T09:23:22Z</time>
      </trkpt>
      <trkpt lat="44.37957" lon="4.44181">
        <ele>295</ele>
        <time>2015-05-04T09:23:20Z</time>
      </trkpt>
      <trkpt lat="44.37961" lon="4.44186">
        <ele>294</ele>
        <time>2015-05-04T09:23:17Z</time>
      </trkpt>
      <trkpt lat="44.37965" lon="4.44191">
        <ele>294</ele>
        <time>2015-05-04T09:23:14Z</time>
      </trkpt>
      <trkpt lat="44.37965" lon="4.44195">
        <ele>295</ele>
        <time>2015-05-04T09:23:11Z</time>
      </trkpt>
      <trkpt lat="44.38072" lon="4.44306">
        <ele>294</ele>
        <time>2015-05-04T09:22:17Z</time>
      </trkpt>
      <trkpt lat="44.38074" lon="4.44308">
        <ele>295</ele>
        <time>2015-05-04T09:22:15Z</time>
      </trkpt>
      <trkpt lat="44.38078" lon="4.44311">
        <ele>295</ele>
        <time>2015-05-04T09:22:12Z</time>
      </trkpt>
      <trkpt lat="44.38082" lon="4.44314">
        <ele>296</ele>
        <time>2015-05-04T09:22:10Z</time>
      </trkpt>
      <trkpt lat="44.38088" lon="4.44316">
        <ele>275</ele>
        <time>2015-05-04T09:22:07Z</time>
      </trkpt>
      <trkpt lat="44.38093" lon="4.44319">
        <ele>275</ele>
        <time>2015-05-04T09:22:04Z</time>
      </trkpt>
      <trkpt lat="44.38097" lon="4.44322">
        <ele>274</ele>
        <time>2015-05-04T09:22:02Z</time>
      </trkpt>
      <trkpt lat="44.38101" lon="4.44324">
        <ele>272</ele>
        <time>2015-05-04T09:22:00Z</time>
      </trkpt>
      <trkpt lat="44.38105" lon="4.44326">
        <ele>270</ele>
        <time>2015-05-04T09:21:58Z</time>
      </trkpt>
      <trkpt lat="44.38111" lon="4.44329">
        <ele>266</ele>
        <time>2015-05-04T09:21:55Z</time>
      </trkpt>
      <trkpt lat="44.38115" lon="4.44332">
        <ele>263</ele>
        <time>2015-05-04T09:21:53Z</time>
      </trkpt>
      <trkpt lat="44.38121" lon="4.44335">
        <ele>283</ele>
        <time>2015-05-04T09:21:50Z</time>
      </trkpt>
      <trkpt lat="44.38125" lon="4.44337">
        <ele>281</ele>
        <time>2015-05-04T09:21:48Z</time>
      </trkpt>
      <trkpt lat="44.38129" lon="4.44339">
        <ele>279</ele>
        <time>2015-05-04T09:21:46Z</time>
      </trkpt>
      <trkpt lat="44.38135" lon="4.44343">
        <ele>276</ele>
        <time>2015-05-04T09:21:43Z</time>
      </trkpt>
      <trkpt lat="44.38141" lon="4.44346">
        <ele>273</ele>
        <time>2015-05-04T09:21:40Z</time>
      </trkpt>
      <trkpt lat="44.38146" lon="4.4435">
        <ele>271</ele>
        <time>2015-05-04T09:21:37Z</time>
      </trkpt>
      <trkpt lat="44.38152" lon="4.44354">
        <ele>269</ele>
        <time>2015-05-04T09:21:34Z</time>
      </trkpt>
      <trkpt lat="44.38158" lon="4.44358">
        <ele>269</ele>
        <time>2015-05-04T09:21:31Z</time>
      </trkpt>
      <trkpt lat="44.38163" lon="4.44363">
        <ele>270</ele>
        <time>2015-05-04T09:21:28Z</time>
      </trkpt>
      <trkpt lat="44.38168" lon="4.44368">
        <ele>244</ele>
        <time>2015-05-04T09:21:25Z</time>
      </trkpt>
      <trkpt lat="44.38174" lon="4.44374">
        <ele>245</ele>
        <time>2015-05-04T09:21:22Z</time>
      </trkpt>
      <trkpt lat="44.38177" lon="4.44377">
        <ele>246</ele>
        <time>2015-05-04T09:21:20Z</time>
      </trkpt>
      <trkpt lat="44.38182" lon="4.44382">
        <ele>246</ele>
        <time>2015-05-04T09:21:17Z</time>
      </trkpt>
      <trkpt lat="44.38187" lon="4.44387">
        <ele>247</ele>
        <time>2015-05-04T09:21:14Z</time>
      </trkpt>
      <trkpt lat="44.38193" lon="4.44392">
        <ele>247</ele>
        <time>2015-05-04T09:21:11Z</time>
      </trkpt>
      <trkpt lat="44.38198" lon="4.44396">
        <ele>246</ele>
        <time>2015-05-04T09:21:08Z</time>
      </trkpt>
      <trkpt lat="44.38202" lon="4.44399">
        <ele>246</ele>
        <time>2015-05-04T09:21:06Z</time>
      </trkpt>
      <trkpt lat="44.38207" lon="4.44404">
        <ele>245</ele>
        <time>2015-05-04T09:21:03Z</time>
      </trkpt>
      <trkpt lat="44.38211" lon="4.44408">
        <ele>244</ele>
        <time>2015-05-04T09:21:01Z</time>
      </trkpt>
      <trkpt lat="44.38216" lon="4.44413">
        <ele>243</ele>
        <time>2015-05-04T09:20:58Z</time>
      </trkpt>
      <trkpt lat="44.3822" lon="4.44416">
        <ele>242</ele>
        <time>2015-05-04T09:20:56Z</time>
      </trkpt>
      <trkpt lat="44.38225" lon="4.44421">
        <ele>257</ele>
        <time>2015-05-04T09:20:53Z</time>
      </trkpt>
      <trkpt lat="44.38229" lon="4.44424">
        <ele>255</ele>
        <time>2015-05-04T09:20:51Z</time>
      </trkpt>
      <trkpt lat="44.38233" lon="4.44429">
        <ele>255</ele>
        <time>2015-05-04T09:20:48Z</time>
      </trkpt>
      <trkpt lat="44.38237" lon="4.44432">
        <ele>254</ele>
        <time>2015-05-04T09:20:46Z</time>
      </trkpt>
      <trkpt lat="44.3824" lon="4.44436">
        <ele>254</ele>
        <time>2015-05-04T09:20:44Z</time>
      </trkpt>
      <trkpt lat="44.38244" lon="4.44439">
        <ele>255</ele>
        <time>2015-05-04T09:20:42Z</time>
      </trkpt>
      <trkpt lat="44.38248" lon="4.44445">
        <ele>256</ele>
        <time>2015-05-04T09:20:39Z</time>
      </trkpt>
      <trkpt lat="44.38253" lon="4.44451">
        <ele>227</ele>
        <time>2015-05-04T09:20:36Z</time>
      </trkpt>
      <trkpt lat="44.38258" lon="4.44456">
        <ele>227</ele>
        <time>2015-05-04T09:20:33Z</time>
      </trkpt>
      <trkpt lat="44.38263" lon="4.44462">
        <ele>227</ele>
        <time>2015-05-04T09:20:30Z</time>
      </trkpt>
      <trkpt lat="44.38266" lon="4.44467">
        <ele>227</ele>
        <time>2015-05-04T09:20:28Z</time>
      </trkpt>
      <trkpt lat="44.3827" lon="4.44474">
        <ele>227</ele>
        <time>2015-05-04T09:20:25Z</time>
      </trkpt>
      <trkpt lat="44.38273" lon="4.44478">
        <ele>227</ele>
        <time>2015-05-04T09:20:23Z</time>
      </trkpt>
      <trkpt lat="44.38277" lon="4.44485">
        <ele>227</ele>
        <time>2015-05-04T09:20:20Z</time>
      </trkpt>
      <trkpt lat="44.38279" lon="4.4449">
        <ele>227</ele>
        <time>2015-05-04T09:20:18Z</time>
      </trkpt>
      <trkpt lat="44.38282" lon="4.44495">
        <ele>226</ele>
        <time>2015-05-04T09:20:16Z</time>
      </trkpt>
      <trkpt lat="44.38284" lon="4.445">
        <ele>232</ele>
        <time>2015-05-04T09:20:14Z</time>
      </trkpt>
      <trkpt lat="44.38286" lon="4.44505">
        <ele>231</ele>
        <time>2015-05-04T09:20:12Z</time>
      </trkpt>
      <trkpt lat="44.38289" lon="4.4451">
        <ele>230</ele>
        <time>2015-05-04T09:20:10Z</time>
      </trkpt>
      <trkpt lat="44.38292" lon="4.44517">
        <ele>230</ele>
        <time>2015-05-04T09:20:07Z</time>
      </trkpt>
      <trkpt lat="44.38296" lon="4.44524">
        <ele>229</ele>
        <time>2015-05-04T09:20:04Z</time>
      </trkpt>
      <trkpt lat="44.38298" lon="4.44529">
        <ele>229</ele>
        <time>2015-05-04T09:20:02Z</time>
      </trkpt>
      <trkpt lat="44.38301" lon="4.44534">
        <ele>229</ele>
        <time>2015-05-04T09:20:00Z</time>
      </trkpt>
      <trkpt lat="44.38303" lon="4.4454">
        <ele>229</ele>
        <time>2015-05-04T09:19:58Z</time>
      </trkpt>
      <trkpt lat="44.38306" lon="4.44545">
        <ele>229</ele>
        <time>2015-05-04T09:19:56Z</time>
      </trkpt>
      <trkpt lat="44.3831" lon="4.44552">
        <ele>228</ele>
        <time>2015-05-04T09:19:53Z</time>
      </trkpt>
      <trkpt lat="44.38312" lon="4.44558">
        <ele>228</ele>
        <time>2015-05-04T09:19:51Z</time>
      </trkpt>
      <trkpt lat="44.38316" lon="4.44565">
        <ele>227</ele>
        <time>2015-05-04T09:19:48Z</time>
      </trkpt>
      <trkpt lat="44.3832" lon="4.44572">
        <ele>226</ele>
        <time>2015-05-04T09:19:45Z</time>
      </trkpt>
      <trkpt lat="44.38324" lon="4.44579">
        <ele>224</ele>
        <time>2015-05-04T09:19:42Z</time>
      </trkpt>
      <trkpt lat="44.38327" lon="4.44584">
        <ele>229</ele>
        <time>2015-05-04T09:19:40Z</time>
      </trkpt>
      <trkpt lat="44.38329" lon="4.44588">
        <ele>229</ele>
        <time>2015-05-04T09:19:38Z</time>
      </trkpt>
      <trkpt lat="44.38332" lon="4.44593">
        <ele>232</ele>
        <time>2015-05-04T09:19:36Z</time>
      </trkpt>
      <trkpt lat="44.38337" lon="4.446">
        <ele>215</ele>
        <time>2015-05-04T09:19:33Z</time>
      </trkpt>
      <trkpt lat="44.38341" lon="4.44607">
        <ele>213</ele>
        <time>2015-05-04T09:19:30Z</time>
      </trkpt>
      <trkpt lat="44.38345" lon="4.44611">
        <ele>213</ele>
        <time>2015-05-04T09:19:28Z</time>
      </trkpt>
      <trkpt lat="44.38349" lon="4.44618">
        <ele>212</ele>
        <time>2015-05-04T09:19:25Z</time>
      </trkpt>
      <trkpt lat="44.38352" lon="4.44623">
        <ele>212</ele>
        <time>2015-05-04T09:19:23Z</time>
      </trkpt>
      <trkpt lat="44.38357" lon="4.44629">
        <ele>211</ele>
        <time>2015-05-04T09:19:20Z</time>
      </trkpt>
      <trkpt lat="44.3836" lon="4.44633">
        <ele>211</ele>
        <time>2015-05-04T09:19:18Z</time>
      </trkpt>
      <trkpt lat="44.38364" lon="4.4464">
        <ele>211</ele>
        <time>2015-05-04T09:19:15Z</time>
      </trkpt>
      <trkpt lat="44.38368" lon="4.44644">
        <ele>210</ele>
        <time>2015-05-04T09:19:13Z</time>
      </trkpt>
      <trkpt lat="44.38372" lon="4.44651">
        <ele>210</ele>
        <time>2015-05-04T09:19:10Z</time>
      </trkpt>
      <trkpt lat="44.38376" lon="4.44656">
        <ele>209</ele>
        <time>2015-05-04T09:19:08Z</time>
      </trkpt>
      <trkpt lat="44.3838" lon="4.44661">
        <ele>208</ele>
        <time>2015-05-04T09:19:06Z</time>
      </trkpt>
      <trkpt lat="44.38383" lon="4.44665">
        <ele>207</ele>
        <time>2015-05-04T09:19:04Z</time>
      </trkpt>
      <trkpt lat="44.38388" lon="4.44672">
        <ele>215</ele>
        <time>2015-05-04T09:19:01Z</time>
      </trkpt>
      <trkpt lat="44.38393" lon="4.44678">
        <ele>213</ele>
        <time>2015-05-04T09:18:58Z</time>
      </trkpt>
      <trkpt lat="44.38399" lon="4.44685">
        <ele>213</ele>
        <time>2015-05-04T09:18:55Z</time>
      </trkpt>
      <trkpt lat="44.38404" lon="4.44693">
        <ele>213</ele>
        <time>2015-05-04T09:18:52Z</time>
      </trkpt>
      <trkpt lat="44.38408" lon="4.44699">
        <ele>214</ele>
        <time>2015-05-04T09:18:50Z</time>
      </trkpt>
      <trkpt lat="44.38411" lon="4.44704">
        <ele>215</ele>
        <time>2015-05-04T09:18:48Z</time>
      </trkpt>
      <trkpt lat="44.38415" lon="4.44712">
        <ele>216</ele>
        <time>2015-05-04T09:18:45Z</time>
      </trkpt>
      <trkpt lat="44.38419" lon="4.44722">
        <ele>195</ele>
        <time>2015-05-04T09:18:42Z</time>
      </trkpt>
      <trkpt lat="44.38421" lon="4.44728">
        <ele>197</ele>
        <time>2015-05-04T09:18:40Z</time>
      </trkpt>
      <trkpt lat="44.38423" lon="4.44734">
        <ele>199</ele>
        <time>2015-05-04T09:18:38Z</time>
      </trkpt>
      <trkpt lat="44.38424" lon="4.44744">
        <ele>204</ele>
        <time>2015-05-04T09:18:35Z</time>
      </trkpt>
      <trkpt lat="44.38425" lon="4.4475">
        <ele>205</ele>
        <time>2015-05-04T09:18:33Z</time>
      </trkpt>
      <trkpt lat="44.38425" lon="4.4476">
        <ele>210</ele>
        <time>2015-05-04T09:18:30Z</time>
      </trkpt>
      <trkpt lat="44.38424" lon="4.44769">
        <ele>210</ele>
        <time>2015-05-04T09:18:27Z</time>
      </trkpt>
      <trkpt lat="44.38423" lon="4.44776">
        <ele>210</ele>
        <time>2015-05-04T09:18:25Z</time>
      </trkpt>
      <trkpt lat="44.38422" lon="4.44786">
        <ele>211</ele>
        <time>2015-05-04T09:18:22Z</time>
      </trkpt>
      <trkpt lat="44.38425" lon="4.44794">
        <ele>212</ele>
        <time>2015-05-04T09:18:19Z</time>
      </trkpt>
      <trkpt lat="44.38429" lon="4.44796">
        <ele>212</ele>
        <time>2015-05-04T09:18:17Z</time>
      </trkpt>
      <trkpt lat="44.38435" lon="4.44792">
        <ele>210</ele>
        <time>2015-05-04T09:18:14Z</time>
      </trkpt>
      <trkpt lat="44.38438" lon="4.44786">
        <ele>209</ele>
        <time>2015-05-04T09:18:12Z</time>
      </trkpt>
      <trkpt lat="44.38438" lon="4.4478">
        <ele>208</ele>
        <time>2015-05-04T09:18:10Z</time>
      </trkpt>
      <trkpt lat="44.38439" lon="4.44774">
        <ele>208</ele>
        <time>2015-05-04T09:18:08Z</time>
      </trkpt>
      <trkpt lat="44.38439" lon="4.44765">
        <ele>207</ele>
        <time>2015-05-04T09:18:05Z</time>
      </trkpt>
      <trkpt lat="44.38439" lon="4.44759">
        <ele>207</ele>
        <time>2015-05-04T09:18:03Z</time>
      </trkpt>
      <trkpt lat="44.38438" lon="4.44749">
        <ele>197</ele>
        <time>2015-05-04T09:18:00Z</time>
      </trkpt>
      <trkpt lat="44.38438" lon="4.44743">
        <ele>196</ele>
        <time>2015-05-04T09:17:58Z</time>
      </trkpt>
      <trkpt lat="44.38437" lon="4.44734">
        <ele>194</ele>
        <time>2015-05-04T09:17:55Z</time>
      </trkpt>
      <trkpt lat="44.38435" lon="4.44724">
        <ele>193</ele>
        <time>2015-05-04T09:17:52Z</time>
      </trkpt>
      <trkpt lat="44.38435" lon="4.44715">
        <ele>191</ele>
        <time>2015-05-04T09:17:49Z</time>
      </trkpt>
      <trkpt lat="44.38434" lon="4.44708">
        <ele>190</ele>
        <time>2015-05-04T09:17:47Z</time>
      </trkpt>
      <trkpt lat="44.38432" lon="4.44699">
        <ele>189</ele>
        <time>2015-05-04T09:17:44Z</time>
      </trkpt>
      <trkpt lat="44.38431" lon="4.44689">
        <ele>189</ele>
        <time>2015-05-04T09:17:41Z</time>
      </trkpt>
      <trkpt lat="44.38429" lon="4.44683">
        <ele>189</ele>
        <time>2015-05-04T09:17:39Z</time>
      </trkpt>
      <trkpt lat="44.38427" lon="4.44675">
        <ele>191</ele>
        <time>2015-05-04T09:17:36Z</time>
      </trkpt>
      <trkpt lat="44.38424" lon="4.44669">
        <ele>192</ele>
        <time>2015-05-04T09:17:34Z</time>
      </trkpt>
      <trkpt lat="44.38421" lon="4.44661">
        <ele>188</ele>
        <time>2015-05-04T09:17:31Z</time>
      </trkpt>
      <trkpt lat="44.38418" lon="4.44656">
        <ele>185</ele>
        <time>2015-05-04T09:17:29Z</time>
      </trkpt>
      <trkpt lat="44.38416" lon="4.44652">
        <ele>199</ele>
        <time>2015-05-04T09:17:27Z</time>
      </trkpt>
      <trkpt lat="44.38413" lon="4.44647">
        <ele>200</ele>
        <time>2015-05-04T09:17:25Z</time>
      </trkpt>
      <trkpt lat="44.38409" lon="4.44639">
        <ele>201</ele>
        <time>2015-05-04T09:17:22Z</time>
      </trkpt>
      <trkpt lat="44.38407" lon="4.44633">
        <ele>201</ele>
        <time>2015-05-04T09:17:20Z</time>
      </trkpt>
      <trkpt lat="44.38404" lon="4.44628">
        <ele>201</ele>
        <time>2015-05-04T09:17:18Z</time>
      </trkpt>
      <trkpt lat="44.38402" lon="4.44623">
        <ele>201</ele>
        <time>2015-05-04T09:17:16Z</time>
      </trkpt>
      <trkpt lat="44.38398" lon="4.44614">
        <ele>200</ele>
        <time>2015-05-04T09:17:13Z</time>
      </trkpt>
      <trkpt lat="44.38396" lon="4.44606">
        <ele>199</ele>
        <time>2015-05-04T09:17:10Z</time>
      </trkpt>
      <trkpt lat="44.38395" lon="4.446">
        <ele>198</ele>
        <time>2015-05-04T09:17:08Z</time>
      </trkpt>
      <trkpt lat="44.38393" lon="4.44591">
        <ele>197</ele>
        <time>2015-05-04T09:17:05Z</time>
      </trkpt>
      <trkpt lat="44.38391" lon="4.44585">
        <ele>197</ele>
        <time>2015-05-04T09:17:03Z</time>
      </trkpt>
      <trkpt lat="44.3839" lon="4.44579">
        <ele>189</ele>
        <time>2015-05-04T09:17:01Z</time>
      </trkpt>
      <trkpt lat="44.38389" lon="4.44573">
        <ele>189</ele>
        <time>2015-05-04T09:16:59Z</time>
      </trkpt>
      <trkpt lat="44.38388" lon="4.44564">
        <ele>189</ele>
        <time>2015-05-04T09:16:56Z</time>
      </trkpt>
      <trkpt lat="44.38387" lon="4.44555">
        <ele>189</ele>
        <time>2015-05-04T09:16:53Z</time>
      </trkpt>
      <trkpt lat="44.38385" lon="4.44548">
        <ele>189</ele>
        <time>2015-05-04T09:16:51Z</time>
      </trkpt>
      <trkpt lat="44.38384" lon="4.44539">
        <ele>189</ele>
        <time>2015-05-04T09:16:48Z</time>
      </trkpt>
      <trkpt lat="44.38382" lon="4.44529">
        <ele>188</ele>
        <time>2015-05-04T09:16:45Z</time>
      </trkpt>
      <trkpt lat="44.38382" lon="4.44523">
        <ele>187</ele>
        <time>2015-05-04T09:16:43Z</time>
      </trkpt>
      <trkpt lat="44.3838" lon="4.44515">
        <ele>187</ele>
        <time>2015-05-04T09:16:40Z</time>
      </trkpt>
      <trkpt lat="44.38379" lon="4.44506">
        <ele>187</ele>
        <time>2015-05-04T09:16:37Z</time>
      </trkpt>
      <trkpt lat="44.38377" lon="4.445">
        <ele>187</ele>
        <time>2015-05-04T09:16:35Z</time>
      </trkpt>
      <trkpt lat="44.38376" lon="4.44491">
        <ele>177</ele>
        <time>2015-05-04T09:16:32Z</time>
      </trkpt>
      <trkpt lat="44.38374" lon="4.44482">
        <ele>177</ele>
        <time>2015-05-04T09:16:29Z</time>
      </trkpt>
      <trkpt lat="44.38374" lon="4.44476">
        <ele>177</ele>
        <time>2015-05-04T09:16:27Z</time>
      </trkpt>
      <trkpt lat="44.38372" lon="4.44471">
        <ele>177</ele>
        <time>2015-05-04T09:16:25Z</time>
      </trkpt>
      <trkpt lat="44.3837" lon="4.44463">
        <ele>177</ele>
        <time>2015-05-04T09:16:22Z</time>
      </trkpt>
      <trkpt lat="44.38369" lon="4.44457">
        <ele>177</ele>
        <time>2015-05-04T09:16:20Z</time>
      </trkpt>
      <trkpt lat="44.38368" lon="4.44448">
        <ele>176</ele>
        <time>2015-05-04T09:16:17Z</time>
      </trkpt>
      <trkpt lat="44.38366" lon="4.4444">
        <ele>176</ele>
        <time>2015-05-04T09:16:14Z</time>
      </trkpt>
      <trkpt lat="44.38365" lon="4.44431">
        <ele>176</ele>
        <time>2015-05-04T09:16:11Z</time>
      </trkpt>
      <trkpt lat="44.38363" lon="4.44423">
        <ele>177</ele>
        <time>2015-05-04T09:16:08Z</time>
      </trkpt>
      <trkpt lat="44.38362" lon="4.44417">
        <ele>178</ele>
        <time>2015-05-04T09:16:06Z</time>
      </trkpt>
      <trkpt lat="44.38361" lon="4.44411">
        <ele>169</ele>
        <time>2015-05-04T09:16:04Z</time>
      </trkpt>
      <trkpt lat="44.3836" lon="4.44406">
        <ele>169</ele>
        <time>2015-05-04T09:16:02Z</time>
      </trkpt>
      <trkpt lat="44.38358" lon="4.44397">
        <ele>169</ele>
        <time>2015-05-04T09:15:59Z</time>
      </trkpt>
      <trkpt lat="44.38356" lon="4.44388">
        <ele>168</ele>
        <time>2015-05-04T09:15:56Z</time>
      </trkpt>
      <trkpt lat="44.38355" lon="4.44381">
        <ele>167</ele>
        <time>2015-05-04T09:15:54Z</time>
      </trkpt>
      <trkpt lat="44.38354" lon="4.44372">
        <ele>166</ele>
        <time>2015-05-04T09:15:51Z</time>
      </trkpt>
      <trkpt lat="44.38352" lon="4.44363">
        <ele>166</ele>
        <time>2015-05-04T09:15:48Z</time>
      </trkpt>
      <trkpt lat="44.38351" lon="4.44357">
        <ele>167</ele>
        <time>2015-05-04T09:15:46Z</time>
      </trkpt>
      <trkpt lat="44.3835" lon="4.44351">
        <ele>168</ele>
        <time>2015-05-04T09:15:44Z</time>
      </trkpt>
      <trkpt lat="44.38348" lon="4.44343">
        <ele>170</ele>
        <time>2015-05-04T09:15:41Z</time>
      </trkpt>
      <trkpt lat="44.38348" lon="4.44337">
        <ele>170</ele>
        <time>2015-05-04T09:15:39Z</time>
      </trkpt>
      <trkpt lat="44.38346" lon="4.44328">
        <ele>165</ele>
        <time>2015-05-04T09:15:36Z</time>
      </trkpt>
      <trkpt lat="44.38344" lon="4.44322">
        <ele>164</ele>
        <time>2015-05-04T09:15:34Z</time>
      </trkpt>
      <trkpt lat="44.38343" lon="4.44316">
        <ele>162</ele>
        <time>2015-05-04T09:15:32Z</time>
      </trkpt>
      <trkpt lat="44.38342" lon="4.4431">
        <ele>159</ele>
        <time>2015-05-04T09:15:30Z</time>
      </trkpt>
      <trkpt lat="44.3834" lon="4.44301">
        <ele>157</ele>
        <time>2015-05-04T09:15:27Z</time>
      </trkpt>
      <trkpt lat="44.38339" lon="4.44295">
        <ele>155</ele>
        <time>2015-05-04T09:15:25Z</time>
      </trkpt>
      <trkpt lat="44.38337" lon="4.44286">
        <ele>154</ele>
        <time>2015-05-04T09:15:22Z</time>
      </trkpt>
      <trkpt lat="44.38336" lon="4.4428">
        <ele>154</ele>
        <time>2015-05-04T09:15:20Z</time>
      </trkpt>
      <trkpt lat="44.38334" lon="4.44271">
        <ele>155</ele>
        <time>2015-05-04T09:15:17Z</time>
      </trkpt>
      <trkpt lat="44.38332" lon="4.44266">
        <ele>173</ele>
        <time>2015-05-04T09:15:15Z</time>
      </trkpt>
      <trkpt lat="44.38329" lon="4.44257">
        <ele>168</ele>
        <time>2015-05-04T09:15:12Z</time>
      </trkpt>
      <trkpt lat="44.38327" lon="4.44251">
        <ele>167</ele>
        <time>2015-05-04T09:15:10Z</time>
      </trkpt>
      <trkpt lat="44.38325" lon="4.44245">
        <ele>161</ele>
        <time>2015-05-04T09:15:08Z</time>
      </trkpt>
      <trkpt lat="44.38322" lon="4.44236">
        <ele>161</ele>
        <time>2015-05-04T09:15:05Z</time>
      </trkpt>
      <trkpt lat="44.38318" lon="4.44228">
        <ele>161</ele>
        <time>2015-05-04T09:15:02Z</time>
      </trkpt>
      <trkpt lat="44.38316" lon="4.44223">
        <ele>160</ele>
        <time>2015-05-04T09:15:00Z</time>
      </trkpt>
      <trkpt lat="44.38314" lon="4.44217">
        <ele>160</ele>
        <time>2015-05-04T09:14:58Z</time>
      </trkpt>
      <trkpt lat="44.38311" lon="4.44209">
        <ele>159</ele>
        <time>2015-05-04T09:14:55Z</time>
      </trkpt>
      <trkpt lat="44.38308" lon="4.44201">
        <ele>158</ele>
        <time>2015-05-04T09:14:52Z</time>
      </trkpt>
      <trkpt lat="44.38305" lon="4.44195">
        <ele>157</ele>
        <time>2015-05-04T09:14:50Z</time>
      </trkpt>
      <trkpt lat="44.38303" lon="4.4419">
        <ele>156</ele>
        <time>2015-05-04T09:14:48Z</time>
      </trkpt>
      <trkpt lat="44.383" lon="4.44182">
        <ele>156</ele>
        <time>2015-05-04T09:14:45Z</time>
      </trkpt>
      <trkpt lat="44.38298" lon="4.44177">
        <ele>156</ele>
        <time>2015-05-04T09:14:43Z</time>
      </trkpt>
      <trkpt lat="44.38295" lon="4.44169">
        <ele>156</ele>
        <time>2015-05-04T09:14:40Z</time>
      </trkpt>
      <trkpt lat="44.38293" lon="4.44163">
        <ele>141</ele>
        <time>2015-05-04T09:14:38Z</time>
      </trkpt>
      <trkpt lat="44.38289" lon="4.44155">
        <ele>142</ele>
        <time>2015-05-04T09:14:35Z</time>
      </trkpt>
      <trkpt lat="44.38285" lon="4.44148">
        <ele>142</ele>
        <time>2015-05-04T09:14:32Z</time>
      </trkpt>
      <trkpt lat="44.3828" lon="4.44142">
        <ele>142</ele>
        <time>2015-05-04T09:14:29Z</time>
      </trkpt>
      <trkpt lat="44.38276" lon="4.44138">
        <ele>143</ele>
        <time>2015-05-04T09:14:27Z</time>
      </trkpt>
      <trkpt lat="44.38271" lon="4.44132">
        <ele>142</ele>
        <time>2015-05-04T09:14:24Z</time>
      </trkpt>
      <trkpt lat="44.38265" lon="4.44127">
        <ele>142</ele>
        <time>2015-05-04T09:14:21Z</time>
      </trkpt>
      <trkpt lat="44.38259" lon="4.44123">
        <ele>142</ele>
        <time>2015-05-04T09:14:18Z</time>
      </trkpt>
      <trkpt lat="44.38253" lon="4.44118">
        <ele>142</ele>
        <time>2015-05-04T09:14:15Z</time>
      </trkpt>
      <trkpt lat="44.38249" lon="4.44115">
        <ele>157</ele>
        <time>2015-05-04T09:14:13Z</time>
      </trkpt>
      <trkpt lat="44.38246" lon="4.44111">
        <ele>156</ele>
        <time>2015-05-04T09:14:11Z</time>
      </trkpt>
      <trkpt lat="44.38242" lon="4.44107">
        <ele>155</ele>
        <time>2015-05-04T09:14:09Z</time>
      </trkpt>
      <trkpt lat="44.38239" lon="4.44103">
        <ele>154</ele>
        <time>2015-05-04T09:14:07Z</time>
      </trkpt>
      <trkpt lat="44.38235" lon="4.44095">
        <ele>153</ele>
        <time>2015-05-04T09:14:04Z</time>
      </trkpt>
      <trkpt lat="44.38231" lon="4.44088">
        <ele>153</ele>
        <time>2015-05-04T09:14:01Z</time>
      </trkpt>
      <trkpt lat="44.38228" lon="4.4408">
        <ele>143</ele>
        <time>2015-05-04T09:13:58Z</time>
      </trkpt>
      <trkpt lat="44.38224" lon="4.44072">
        <ele>143</ele>
        <time>2015-05-04T09:13:55Z</time>
      </trkpt>
      <trkpt lat="44.38222" lon="4.44067">
        <ele>143</ele>
        <time>2015-05-04T09:13:53Z</time>
      </trkpt>
      <trkpt lat="44.3822" lon="4.44061">
        <ele>142</ele>
        <time>2015-05-04T09:13:51Z</time>
      </trkpt>
      <trkpt lat="44.38218" lon="4.44055">
        <ele>142</ele>
        <time>2015-05-04T09:13:49Z</time>
      </trkpt>
      <trkpt lat="44.38216" lon="4.4405">
        <ele>142</ele>
        <time>2015-05-04T09:13:47Z</time>
      </trkpt>
      <trkpt lat="44.38212" lon="4.44042">
        <ele>141</ele>
        <time>2015-05-04T09:13:44Z</time>
      </trkpt>
      <trkpt lat="44.38209" lon="4.44034">
        <ele>140</ele>
        <time>2015-05-04T09:13:41Z</time>
      </trkpt>
      <trkpt lat="44.38207" lon="4.44028">
        <ele>140</ele>
        <time>2015-05-04T09:13:39Z</time>
      </trkpt>
      <trkpt lat="44.38204" lon="4.44022">
        <ele>140</ele>
        <time>2015-05-04T09:13:37Z</time>
      </trkpt>
      <trkpt lat="44.382" lon="4.44015">
        <ele>140</ele>
        <time>2015-05-04T09:13:34Z</time>
      </trkpt>
      <trkpt lat="44.38196" lon="4.44007">
        <ele>139</ele>
        <time>2015-05-04T09:13:31Z</time>
      </trkpt>
      <trkpt lat="44.38193" lon="4.44002">
        <ele>140</ele>
        <time>2015-05-04T09:13:29Z</time>
      </trkpt>
      <trkpt lat="44.38188" lon="4.43995">
        <ele>127</ele>
        <time>2015-05-04T09:13:26Z</time>
      </trkpt>
      <trkpt lat="44.38185" lon="4.43991">
        <ele>128</ele>
        <time>2015-05-04T09:13:24Z</time>
      </trkpt>
      <trkpt lat="44.38182" lon="4.43986">
        <ele>127</ele>
        <time>2015-05-04T09:13:22Z</time>
      </trkpt>
      <trkpt lat="44.38178" lon="4.43979">
        <ele>126</ele>
        <time>2015-05-04T09:13:19Z</time>
      </trkpt>
      <trkpt lat="44.38174" lon="4.43974">
        <ele>125</ele>
        <time>2015-05-04T09:13:17Z</time>
      </trkpt>
      <trkpt lat="44.38171" lon="4.4397">
        <ele>124</ele>
        <time>2015-05-04T09:13:15Z</time>
      </trkpt>
      <trkpt lat="44.38166" lon="4.43963">
        <ele>135</ele>
        <time>2015-05-04T09:13:12Z</time>
      </trkpt>
      <trkpt lat="44.38163" lon="4.43959">
        <ele>134</ele>
        <time>2015-05-04T09:13:10Z</time>
      </trkpt>
      <trkpt lat="44.38159" lon="4.43952">
        <ele>132</ele>
        <time>2015-05-04T09:13:07Z</time>
      </trkpt>
      <trkpt lat="44.38156" lon="4.43947">
        <ele>131</ele>
        <time>2015-05-04T09:13:05Z</time>
      </trkpt>
      <trkpt lat="44.38151" lon="4.4394">
        <ele>130</ele>
        <time>2015-05-04T09:13:02Z</time>
      </trkpt>
      <trkpt lat="44.38148" lon="4.43935">
        <ele>129</ele>
        <time>2015-05-04T09:13:00Z</time>
      </trkpt>
      <trkpt lat="44.38144" lon="4.43931">
        <ele>129</ele>
        <time>2015-05-04T09:12:58Z</time>
      </trkpt>
      <trkpt lat="44.38139" lon="4.43923">
        <ele>130</ele>
        <time>2015-05-04T09:12:55Z</time>
      </trkpt>
      <trkpt lat="44.38135" lon="4.43918">
        <ele>131</ele>
        <time>2015-05-04T09:12:53Z</time>
      </trkpt>
      <trkpt lat="44.38131" lon="4.43913">
        <ele>116</ele>
        <time>2015-05-04T09:12:51Z</time>
      </trkpt>
      <trkpt lat="44.38126" lon="4.43905">
        <ele>117</ele>
        <time>2015-05-04T09:12:48Z</time>
      </trkpt>
      <trkpt lat="44.38122" lon="4.439">
        <ele>117</ele>
        <time>2015-05-04T09:12:46Z</time>
      </trkpt>
      <trkpt lat="44.38117" lon="4.43893">
        <ele>117</ele>
        <time>2015-05-04T09:12:43Z</time>
      </trkpt>
      <trkpt lat="44.38111" lon="4.43885">
        <ele>117</ele>
        <time>2015-05-04T09:12:40Z</time>
      </trkpt>
      <trkpt lat="44.38107" lon="4.4388">
        <ele>116</ele>
        <time>2015-05-04T09:12:38Z</time>
      </trkpt>
      <trkpt lat="44.38101" lon="4.43874">
        <ele>116</ele>
        <time>2015-05-04T09:12:35Z</time>
      </trkpt>
      <trkpt lat="44.38096" lon="4.43867">
        <ele>115</ele>
        <time>2015-05-04T09:12:32Z</time>
      </trkpt>
      <trkpt lat="44.3809" lon="4.43859">
        <ele>114</ele>
        <time>2015-05-04T09:12:29Z</time>
      </trkpt>
      <trkpt lat="44.38085" lon="4.43854">
        <ele>113</ele>
        <time>2015-05-04T09:12:27Z</time>
      </trkpt>
      <trkpt lat="44.38079" lon="4.43848">
        <ele>122</ele>
        <time>2015-05-04T09:12:24Z</time>
      </trkpt>
      <trkpt lat="44.38072" lon="4.43841">
        <ele>121</ele>
        <time>2015-05-04T09:12:21Z</time>
      </trkpt>
      <trkpt lat="44.38069" lon="4.43836">
        <ele>121</ele>
        <time>2015-05-04T09:12:19Z</time>
      </trkpt>
      <trkpt lat="44.38065" lon="4.43831">
        <ele>110</ele>
        <time>2015-05-04T09:12:17Z</time>
      </trkpt>
      <trkpt lat="44.38059" lon="4.43825">
        <ele>111</ele>
        <time>2015-05-04T09:12:14Z</time>
      </trkpt>
      <trkpt lat="44.38054" lon="4.43821">
        <ele>111</ele>
        <time>2015-05-04T09:12:12Z</time>
      </trkpt>
      <trkpt lat="44.38048" lon="4.43815">
        <ele>111</ele>
        <time>2015-05-04T09:12:09Z</time>
      </trkpt>
      <trkpt lat="44.38042" lon="4.43808">
        <ele>111</ele>
        <time>2015-05-04T09:12:06Z</time>
      </trkpt>
      <trkpt lat="44.38036" lon="4.43801">
        <ele>111</ele>
        <time>2015-05-04T09:12:03Z</time>
      </trkpt>
      <trkpt lat="44.38031" lon="4.43797">
        <ele>111</ele>
        <time>2015-05-04T09:12:01Z</time>
      </trkpt>
      <trkpt lat="44.38025" lon="4.4379">
        <ele>111</ele>
        <time>2015-05-04T09:11:58Z</time>
      </trkpt>
      <trkpt lat="44.38021" lon="4.43785">
        <ele>110</ele>
        <time>2015-05-04T09:11:56Z</time>
      </trkpt>
      <trkpt lat="44.38017" lon="4.43781">
        <ele>110</ele>
        <time>2015-05-04T09:11:54Z</time>
      </trkpt>
      <trkpt lat="44.38012" lon="4.43776">
        <ele>109</ele>
        <time>2015-05-04T09:11:52Z</time>
      </trkpt>
      <trkpt lat="44.38008" lon="4.43771">
        <ele>108</ele>
        <time>2015-05-04T09:11:50Z</time>
      </trkpt>
      <trkpt lat="44.38003" lon="4.43766">
        <ele>108</ele>
        <time>2015-05-04T09:11:48Z</time>
      </trkpt>
      <trkpt lat="44.37997" lon="4.43759">
        <ele>113</ele>
        <time>2015-05-04T09:11:45Z</time>
      </trkpt>
      <trkpt lat="44.37991" lon="4.43751">
        <ele>112</ele>
        <time>2015-05-04T09:11:42Z</time>
      </trkpt>
      <trkpt lat="44.37986" lon="4.43746">
        <ele>105</ele>
        <time>2015-05-04T09:11:40Z</time>
      </trkpt>
      <trkpt lat="44.37981" lon="4.43741">
        <ele>105</ele>
        <time>2015-05-04T09:11:38Z</time>
      </trkpt>
      <trkpt lat="44.37975" lon="4.43733">
        <ele>105</ele>
        <time>2015-05-04T09:11:35Z</time>
      </trkpt>
      <trkpt lat="44.37968" lon="4.43725">
        <ele>105</ele>
        <time>2015-05-04T09:11:32Z</time>
      </trkpt>
      <trkpt lat="44.37964" lon="4.4372">
        <ele>105</ele>
        <time>2015-05-04T09:11:30Z</time>
      </trkpt>
      <trkpt lat="44.37957" lon="4.43711">
        <ele>105</ele>
        <time>2015-05-04T09:11:27Z</time>
      </trkpt>
      <trkpt lat="44.37952" lon="4.43705">
        <ele>104</ele>
        <time>2015-05-04T09:11:25Z</time>
      </trkpt>
      <trkpt lat="44.37947" lon="4.43698">
        <ele>104</ele>
        <time>2015-05-04T09:11:23Z</time>
      </trkpt>
      <trkpt lat="44.3794" lon="4.43689">
        <ele>103</ele>
        <time>2015-05-04T09:11:20Z</time>
      </trkpt>
      <trkpt lat="44.37936" lon="4.43682">
        <ele>102</ele>
        <time>2015-05-04T09:11:18Z</time>
      </trkpt>
      <trkpt lat="44.37931" lon="4.43675">
        <ele>101</ele>
        <time>2015-05-04T09:11:16Z</time>
      </trkpt>
      <trkpt lat="44.37923" lon="4.43665">
        <ele>97</ele>
        <time>2015-05-04T09:11:13Z</time>
      </trkpt>
      <trkpt lat="44.37916" lon="4.43654">
        <ele>98</ele>
        <time>2015-05-04T09:11:10Z</time>
      </trkpt>
      <trkpt lat="44.37908" lon="4.43642">
        <ele>96</ele>
        <time>2015-05-04T09:11:07Z</time>
      </trkpt>
      <trkpt lat="44.379" lon="4.43629">
        <ele>95</ele>
        <time>2015-05-04T09:11:04Z</time>
      </trkpt>
      <trkpt lat="44.37892" lon="4.43614">
        <ele>94</ele>
        <time>2015-05-04T09:11:01Z</time>
      </trkpt>
      <trkpt lat="44.37888" lon="4.43602">
        <ele>93</ele>
        <time>2015-05-04T09:10:59Z</time>
      </trkpt>
      <trkpt lat="44.3789" lon="4.43583">
        <ele>85</ele>
        <time>2015-05-04T09:10:56Z</time>
      </trkpt>
      <trkpt lat="44.37893" lon="4.43571">
        <ele>85</ele>
        <time>2015-05-04T09:10:54Z</time>
      </trkpt>
      <trkpt lat="44.37902" lon="4.43551">
        <ele>85</ele>
        <time>2015-05-04T09:10:51Z</time>
      </trkpt>
      <trkpt lat="44.37909" lon="4.43537">
        <ele>85</ele>
        <time>2015-05-04T09:10:49Z</time>
      </trkpt>
      <trkpt lat="44.37915" lon="4.43521">
        <ele>86</ele>
        <time>2015-05-04T09:10:47Z</time>
      </trkpt>
      <trkpt lat="44.37927" lon="4.43496">
        <ele>93</ele>
        <time>2015-05-04T09:10:44Z</time>
      </trkpt>
      <trkpt lat="44.37933" lon="4.43478">
        <ele>99</ele>
        <time>2015-05-04T09:10:42Z</time>
      </trkpt>
      <trkpt lat="44.37934" lon="4.43447">
        <ele>101</ele>
        <time>2015-05-04T09:10:39Z</time>
      </trkpt>
      <trkpt lat="44.37934" lon="4.43427">
        <ele>99</ele>
        <time>2015-05-04T09:10:37Z</time>
      </trkpt>
      <trkpt lat="44.37933" lon="4.43396">
        <ele>104</ele>
        <time>2015-05-04T09:10:34Z</time>
      </trkpt>
      <trkpt lat="44.37932" lon="4.43365">
        <ele>106</ele>
        <time>2015-05-04T09:10:31Z</time>
      </trkpt>
      <trkpt lat="44.37931" lon="4.43334">
        <ele>100</ele>
        <time>2015-05-04T09:10:28Z</time>
      </trkpt>
      <trkpt lat="44.37929" lon="4.43303">
        <ele>110</ele>
        <time>2015-05-04T09:10:25Z</time>
      </trkpt>
      <trkpt lat="44.37925" lon="4.43273">
        <ele>110</ele>
        <time>2015-05-04T09:10:22Z</time>
      </trkpt>
      <trkpt lat="44.3792" lon="4.43242">
        <ele>104</ele>
        <time>2015-05-04T09:10:19Z</time>
      </trkpt>
      <trkpt lat="44.37918" lon="4.43223">
        <ele>109</ele>
        <time>2015-05-04T09:10:17Z</time>
      </trkpt>
      <trkpt lat="44.37913" lon="4.43193">
        <ele>92</ele>
        <time>2015-05-04T09:10:14Z</time>
      </trkpt>
      <trkpt lat="44.37909" lon="4.43163">
        <ele>93</ele>
        <time>2015-05-04T09:10:11Z</time>
      </trkpt>
      <trkpt lat="44.37905" lon="4.43133">
        <ele>90</ele>
        <time>2015-05-04T09:10:08Z</time>
      </trkpt>
      <trkpt lat="44.37902" lon="4.43112">
        <ele>91</ele>
        <time>2015-05-04T09:10:06Z</time>
      </trkpt>
      <trkpt lat="44.37897" lon="4.43082">
        <ele>96</ele>
        <time>2015-05-04T09:10:03Z</time>
      </trkpt>
      <trkpt lat="44.3789" lon="4.43053">
        <ele>97</ele>
        <time>2015-05-04T09:10:00Z</time>
      </trkpt>
      <trkpt lat="44.37885" lon="4.43034">
        <ele>98</ele>
        <time>2015-05-04T09:09:58Z</time>
      </trkpt>
      <trkpt lat="44.37876" lon="4.43006">
        <ele>99</ele>
        <time>2015-05-04T09:09:55Z</time>
      </trkpt>
      <trkpt lat="44.3787" lon="4.42988">
        <ele>105</ele>
        <time>2015-05-04T09:09:53Z</time>
      </trkpt>
      <trkpt lat="44.37864" lon="4.4297">
        <ele>105</ele>
        <time>2015-05-04T09:09:51Z</time>
      </trkpt>
      <trkpt lat="44.37854" lon="4.42942">
        <ele>104</ele>
        <time>2015-05-04T09:09:48Z</time>
      </trkpt>
      <trkpt lat="44.37845" lon="4.42914">
        <ele>104</ele>
        <time>2015-05-04T09:09:45Z</time>
      </trkpt>
      <trkpt lat="44.37838" lon="4.42895">
        <ele>108</ele>
        <time>2015-05-04T09:09:43Z</time>
      </trkpt>
      <trkpt lat="44.3783" lon="4.42877">
        <ele>95</ele>
        <time>2015-05-04T09:09:41Z</time>
      </trkpt>
      <trkpt lat="44.37818" lon="4.42851">
        <ele>97</ele>
        <time>2015-05-04T09:09:38Z</time>
      </trkpt>
      <trkpt lat="44.37806" lon="4.42825">
        <ele>101</ele>
        <time>2015-05-04T09:09:35Z</time>
      </trkpt>
      <trkpt lat="44.37795" lon="4.42798">
        <ele>100</ele>
        <time>2015-05-04T09:09:32Z</time>
      </trkpt>
      <trkpt lat="44.37787" lon="4.4278">
        <ele>100</ele>
        <time>2015-05-04T09:09:30Z</time>
      </trkpt>
      <trkpt lat="44.37779" lon="4.42763">
        <ele>99</ele>
        <time>2015-05-04T09:09:28Z</time>
      </trkpt>
      <trkpt lat="44.37771" lon="4.42745">
        <ele>103</ele>
        <time>2015-05-04T09:09:26Z</time>
      </trkpt>
      <trkpt lat="44.37759" lon="4.42719">
        <ele>104</ele>
        <time>2015-05-04T09:09:23Z</time>
      </trkpt>
      <trkpt lat="44.37746" lon="4.42693">
        <ele>94</ele>
        <time>2015-05-04T09:09:20Z</time>
      </trkpt>
      <trkpt lat="44.37734" lon="4.42667">
        <ele>96</ele>
        <time>2015-05-04T09:09:17Z</time>
      </trkpt>
      <trkpt lat="44.37721" lon="4.42642">
        <ele>97</ele>
        <time>2015-05-04T09:09:14Z</time>
      </trkpt>
      <trkpt lat="44.37709" lon="4.42616">
        <ele>97</ele>
        <time>2015-05-04T09:09:11Z</time>
      </trkpt>
      <trkpt lat="44.37701" lon="4.426">
        <ele>97</ele>
        <time>2015-05-04T09:09:09Z</time>
      </trkpt>
      <trkpt lat="44.37689" lon="4.42575">
        <ele>99</ele>
        <time>2015-05-04T09:09:06Z</time>
      </trkpt>
      <trkpt lat="44.37683" lon="4.42556">
        <ele>100</ele>
        <time>2015-05-04T09:09:04Z</time>
      </trkpt>
      <trkpt lat="44.37678" lon="4.42525">
        <ele>102</ele>
        <time>2015-05-04T09:09:01Z</time>
      </trkpt>
      <trkpt lat="44.37675" lon="4.42491">
        <ele>105</ele>
        <time>2015-05-04T09:08:58Z</time>
      </trkpt>
      <trkpt lat="44.37666" lon="4.42459">
        <ele>99</ele>
        <time>2015-05-04T09:08:55Z</time>
      </trkpt>
      <trkpt lat="44.37656" lon="4.42432">
        <ele>103</ele>
        <time>2015-05-04T09:08:52Z</time>
      </trkpt>
      <trkpt lat="44.37645" lon="4.42407">
        <ele>106</ele>
        <time>2015-05-04T09:08:49Z</time>
      </trkpt>
      <trkpt lat="44.37639" lon="4.42391">
        <ele>105</ele>
        <time>2015-05-04T09:08:47Z</time>
      </trkpt>
      <trkpt lat="44.37633" lon="4.42375">
        <ele>105</ele>
        <time>2015-05-04T09:08:45Z</time>
      </trkpt>
      <trkpt lat="44.37628" lon="4.4235">
        <ele>106</ele>
        <time>2015-05-04T09:08:42Z</time>
      </trkpt>
      <trkpt lat="44.37625" lon="4.42333">
        <ele>108</ele>
        <time>2015-05-04T09:08:40Z</time>
      </trkpt>
      <trkpt lat="44.37623" lon="4.42316">
        <ele>108</ele>
        <time>2015-05-04T09:08:38Z</time>
      </trkpt>
      <trkpt lat="44.37621" lon="4.42289">
        <ele>108</ele>
        <time>2015-05-04T09:08:35Z</time>
      </trkpt>
      <trkpt lat="44.37622" lon="4.42262">
        <ele>108</ele>
        <time>2015-05-04T09:08:32Z</time>
      </trkpt>
      <trkpt lat="44.37625" lon="4.42237">
        <ele>107</ele>
        <time>2015-05-04T09:08:29Z</time>
      </trkpt>
      <trkpt lat="44.3763" lon="4.42213">
        <ele>107</ele>
        <time>2015-05-04T09:08:26Z</time>
      </trkpt>
      <trkpt lat="44.37639" lon="4.42191">
        <ele>108</ele>
        <time>2015-05-04T09:08:23Z</time>
      </trkpt>
      <trkpt lat="44.37645" lon="4.42176">
        <ele>109</ele>
        <time>2015-05-04T09:08:21Z</time>
      </trkpt>
      <trkpt lat="44.37653" lon="4.42155">
        <ele>106</ele>
        <time>2015-05-04T09:08:18Z</time>
      </trkpt>
      <trkpt lat="44.37661" lon="4.42134">
        <ele>104</ele>
        <time>2015-05-04T09:08:15Z</time>
      </trkpt>
      <trkpt lat="44.37666" lon="4.4212">
        <ele>103</ele>
        <time>2015-05-04T09:08:13Z</time>
      </trkpt>
      <trkpt lat="44.37676" lon="4.42101">
        <ele>113</ele>
        <time>2015-05-04T09:08:10Z</time>
      </trkpt>
      <trkpt lat="44.37681" lon="4.42087">
        <ele>111</ele>
        <time>2015-05-04T09:08:08Z</time>
      </trkpt>
      <trkpt lat="44.3769" lon="4.42065">
        <ele>109</ele>
        <time>2015-05-04T09:08:05Z</time>
      </trkpt>
      <trkpt lat="44.37697" lon="4.42051">
        <ele>110</ele>
        <time>2015-05-04T09:08:03Z</time>
      </trkpt>
      <trkpt lat="44.37705" lon="4.4203">
        <ele>110</ele>
        <time>2015-05-04T09:08:00Z</time>
      </trkpt>
      <trkpt lat="44.37713" lon="4.42009">
        <ele>110</ele>
        <time>2015-05-04T09:07:57Z</time>
      </trkpt>
      <trkpt lat="44.37718" lon="4.41997">
        <ele>105</ele>
        <time>2015-05-04T09:07:55Z</time>
      </trkpt>
      <trkpt lat="44.37725" lon="4.41986">
        <ele>105</ele>
        <time>2015-05-04T09:07:53Z</time>
      </trkpt>
      <trkpt lat="44.37737" lon="4.41972">
        <ele>105</ele>
        <time>2015-05-04T09:07:50Z</time>
      </trkpt>
      <trkpt lat="44.3775" lon="4.41958">
        <ele>104</ele>
        <time>2015-05-04T09:07:47Z</time>
      </trkpt>
      <trkpt lat="44.37758" lon="4.41947">
        <ele>110</ele>
        <time>2015-05-04T09:07:45Z</time>
      </trkpt>
      <trkpt lat="44.37769" lon="4.41931">
        <ele>109</ele>
        <time>2015-05-04T09:07:42Z</time>
      </trkpt>
      <trkpt lat="44.3778" lon="4.41913">
        <ele>103</ele>
        <time>2015-05-04T09:07:39Z</time>
      </trkpt>
      <trkpt lat="44.37793" lon="4.41897">
        <ele>103</ele>
        <time>2015-05-04T09:07:36Z</time>
      </trkpt>
      <trkpt lat="44.37803" lon="4.41889">
        <ele>103</ele>
        <time>2015-05-04T09:07:34Z</time>
      </trkpt>
      <trkpt lat="44.37812" lon="4.41883">
        <ele>103</ele>
        <time>2015-05-04T09:07:32Z</time>
      </trkpt>
      <trkpt lat="44.37828" lon="4.41876">
        <ele>103</ele>
        <time>2015-05-04T09:07:29Z</time>
      </trkpt>
      <trkpt lat="44.37839" lon="4.4187">
        <ele>106</ele>
        <time>2015-05-04T09:07:27Z</time>
      </trkpt>
      <trkpt lat="44.3785" lon="4.41865">
        <ele>106</ele>
        <time>2015-05-04T09:07:25Z</time>
      </trkpt>
      <trkpt lat="44.3786" lon="4.4186">
        <ele>105</ele>
        <time>2015-05-04T09:07:23Z</time>
      </trkpt>
      <trkpt lat="44.37876" lon="4.41855">
        <ele>106</ele>
        <time>2015-05-04T09:07:20Z</time>
      </trkpt>
      <trkpt lat="44.37892" lon="4.41851">
        <ele>106</ele>
        <time>2015-05-04T09:07:17Z</time>
      </trkpt>
      <trkpt lat="44.37908" lon="4.41846">
        <ele>104</ele>
        <time>2015-05-04T09:07:14Z</time>
      </trkpt>
      <trkpt lat="44.37923" lon="4.41842">
        <ele>106</ele>
        <time>2015-05-04T09:07:11Z</time>
      </trkpt>
      <trkpt lat="44.37934" lon="4.41839">
        <ele>108</ele>
        <time>2015-05-04T09:07:09Z</time>
      </trkpt>
      <trkpt lat="44.3795" lon="4.41835">
        <ele>110</ele>
        <time>2015-05-04T09:07:06Z</time>
      </trkpt>
      <trkpt lat="44.37966" lon="4.4183">
        <ele>96</ele>
        <time>2015-05-04T09:07:03Z</time>
      </trkpt>
      <trkpt lat="44.37982" lon="4.41828">
        <ele>98</ele>
        <time>2015-05-04T09:07:00Z</time>
      </trkpt>
      <trkpt lat="44.37999" lon="4.41828">
        <ele>102</ele>
        <time>2015-05-04T09:06:57Z</time>
      </trkpt>
      <trkpt lat="44.38015" lon="4.41829">
        <ele>101</ele>
        <time>2015-05-04T09:06:54Z</time>
      </trkpt>
      <trkpt lat="44.38025" lon="4.41828">
        <ele>100</ele>
        <time>2015-05-04T09:06:52Z</time>
      </trkpt>
      <trkpt lat="44.38041" lon="4.41826">
        <ele>99</ele>
        <time>2015-05-04T09:06:49Z</time>
      </trkpt>
      <trkpt lat="44.38051" lon="4.41826">
        <ele>100</ele>
        <time>2015-05-04T09:06:47Z</time>
      </trkpt>
      <trkpt lat="44.38067" lon="4.41827">
        <ele>104</ele>
        <time>2015-05-04T09:06:44Z</time>
      </trkpt>
      <trkpt lat="44.38076" lon="4.41829">
        <ele>107</ele>
        <time>2015-05-04T09:06:42Z</time>
      </trkpt>
      <trkpt lat="44.38091" lon="4.41833">
        <ele>108</ele>
        <time>2015-05-04T09:06:39Z</time>
      </trkpt>
      <trkpt lat="44.38105" lon="4.41832">
        <ele>103</ele>
        <time>2015-05-04T09:06:36Z</time>
      </trkpt>
      <trkpt lat="44.3812" lon="4.41831">
        <ele>101</ele>
        <time>2015-05-04T09:06:33Z</time>
      </trkpt>
      <trkpt lat="44.38129" lon="4.41831">
        <ele>100</ele>
        <time>2015-05-04T09:06:31Z</time>
      </trkpt>
      <trkpt lat="44.38144" lon="4.41831">
        <ele>101</ele>
        <time>2015-05-04T09:06:28Z</time>
      </trkpt>
      <trkpt lat="44.3816" lon="4.41831">
        <ele>104</ele>
        <time>2015-05-04T09:06:25Z</time>
      </trkpt>
      <trkpt lat="44.38175" lon="4.41831">
        <ele>104</ele>
        <time>2015-05-04T09:06:22Z</time>
      </trkpt>
      <trkpt lat="44.38189" lon="4.41832">
        <ele>101</ele>
        <time>2015-05-04T09:06:19Z</time>
      </trkpt>
      <trkpt lat="44.38199" lon="4.41832">
        <ele>100</ele>
        <time>2015-05-04T09:06:17Z</time>
      </trkpt>
      <trkpt lat="44.38214" lon="4.41833">
        <ele>101</ele>
        <time>2015-05-04T09:06:14Z</time>
      </trkpt>
      <trkpt lat="44.38229" lon="4.41837">
        <ele>122</ele>
        <time>2015-05-04T09:06:11Z</time>
      </trkpt>
      <trkpt lat="44.38245" lon="4.41842">
        <ele>118</ele>
        <time>2015-05-04T09:06:08Z</time>
      </trkpt>
      <trkpt lat="44.38261" lon="4.41846">
        <ele>123</ele>
        <time>2015-05-04T09:06:05Z</time>
      </trkpt>
      <trkpt lat="44.38272" lon="4.41849">
        <ele>127</ele>
        <time>2015-05-04T09:06:03Z</time>
      </trkpt>
      <trkpt lat="44.38289" lon="4.41854">
        <ele>130</ele>
        <time>2015-05-04T09:06:00Z</time>
      </trkpt>
      <trkpt lat="44.38302" lon="4.41856">
        <ele>130</ele>
        <time>2015-05-04T09:05:58Z</time>
      </trkpt>
      <trkpt lat="44.38314" lon="4.41859">
        <ele>130</ele>
        <time>2015-05-04T09:05:56Z</time>
      </trkpt>
      <trkpt lat="44.38333" lon="4.4186">
        <ele>128</ele>
        <time>2015-05-04T09:05:53Z</time>
      </trkpt>
      <trkpt lat="44.38345" lon="4.41861">
        <ele>126</ele>
        <time>2015-05-04T09:05:51Z</time>
      </trkpt>
      <trkpt lat="44.38366" lon="4.41858">
        <ele>125</ele>
        <time>2015-05-04T09:05:48Z</time>
      </trkpt>
      <trkpt lat="44.38378" lon="4.41852">
        <ele>123</ele>
        <time>2015-05-04T09:05:46Z</time>
      </trkpt>
      <trkpt lat="44.38391" lon="4.41844">
        <ele>118</ele>
        <time>2015-05-04T09:05:44Z</time>
      </trkpt>
      <trkpt lat="44.3841" lon="4.41829">
        <ele>96</ele>
        <time>2015-05-04T09:05:41Z</time>
      </trkpt>
      <trkpt lat="44.38423" lon="4.41819">
        <ele>97</ele>
        <time>2015-05-04T09:05:39Z</time>
      </trkpt>
      <trkpt lat="44.38443" lon="4.4181">
        <ele>99</ele>
        <time>2015-05-04T09:05:36Z</time>
      </trkpt>
      <trkpt lat="44.38456" lon="4.41805">
        <ele>100</ele>
        <time>2015-05-04T09:05:34Z</time>
      </trkpt>
      <trkpt lat="44.3847" lon="4.41802">
        <ele>99</ele>
        <time>2015-05-04T09:05:32Z</time>
      </trkpt>
      <trkpt lat="44.3849" lon="4.41797">
        <ele>100</ele>
        <time>2015-05-04T09:05:29Z</time>
      </trkpt>
      <trkpt lat="44.38503" lon="4.41791">
        <ele>99</ele>
        <time>2015-05-04T09:05:27Z</time>
      </trkpt>
      <trkpt lat="44.38522" lon="4.41778">
        <ele>100</ele>
        <time>2015-05-04T09:05:24Z</time>
      </trkpt>
      <trkpt lat="44.38534" lon="4.41768">
        <ele>100</ele>
        <time>2015-05-04T09:05:22Z</time>
      </trkpt>
      <trkpt lat="44.38545" lon="4.41757">
        <ele>99</ele>
        <time>2015-05-04T09:05:20Z</time>
      </trkpt>
      <trkpt lat="44.38556" lon="4.41745">
        <ele>106</ele>
        <time>2015-05-04T09:05:18Z</time>
      </trkpt>
      <trkpt lat="44.38567" lon="4.41732">
        <ele>105</ele>
        <time>2015-05-04T09:05:16Z</time>
      </trkpt>
      <trkpt lat="44.38576" lon="4.41718">
        <ele>106</ele>
        <time>2015-05-04T09:05:14Z</time>
      </trkpt>
      <trkpt lat="44.38585" lon="4.41702">
        <ele>102</ele>
        <time>2015-05-04T09:05:12Z</time>
      </trkpt>
      <trkpt lat="44.38596" lon="4.41676">
        <ele>104</ele>
        <time>2015-05-04T09:05:09Z</time>
      </trkpt>
      <trkpt lat="44.38607" lon="4.41652">
        <ele>106</ele>
        <time>2015-05-04T09:05:06Z</time>
      </trkpt>
      <trkpt lat="44.38617" lon="4.41625">
        <ele>106</ele>
        <time>2015-05-04T09:05:03Z</time>
      </trkpt>
      <trkpt lat="44.38621" lon="4.41605">
        <ele>106</ele>
        <time>2015-05-04T09:05:01Z</time>
      </trkpt>
      <trkpt lat="44.38621" lon="4.41574">
        <ele>108</ele>
        <time>2015-05-04T09:04:58Z</time>
      </trkpt>
      <trkpt lat="44.38619" lon="4.41553">
        <ele>108</ele>
        <time>2015-05-04T09:04:56Z</time>
      </trkpt>
      <trkpt lat="44.38615" lon="4.41533">
        <ele>109</ele>
        <time>2015-05-04T09:04:54Z</time>
      </trkpt>
      <trkpt lat="44.3861" lon="4.41505">
        <ele>110</ele>
        <time>2015-05-04T09:04:51Z</time>
      </trkpt>
      <trkpt lat="44.38607" lon="4.41488">
        <ele>109</ele>
        <time>2015-05-04T09:04:49Z</time>
      </trkpt>
      <trkpt lat="44.38601" lon="4.41465">
        <ele>107</ele>
        <time>2015-05-04T09:04:46Z</time>
      </trkpt>
      <trkpt lat="44.38597" lon="4.41451">
        <ele>107</ele>
        <time>2015-05-04T09:04:44Z</time>
      </trkpt>
      <trkpt lat="44.38589" lon="4.4143">
        <ele>106</ele>
        <time>2015-05-04T09:04:41Z</time>
      </trkpt>
      <trkpt lat="44.38581" lon="4.4141">
        <ele>104</ele>
        <time>2015-05-04T09:04:38Z</time>
      </trkpt>
      <trkpt lat="44.38571" lon="4.41391">
        <ele>102</ele>
        <time>2015-05-04T09:04:35Z</time>
      </trkpt>
      <trkpt lat="44.38561" lon="4.41382">
        <ele>101</ele>
        <time>2015-05-04T09:04:33Z</time>
      </trkpt>
      <trkpt lat="44.38545" lon="4.41376">
        <ele>101</ele>
        <time>2015-05-04T09:04:30Z</time>
      </trkpt>
      <trkpt lat="44.38527" lon="4.41379">
        <ele>102</ele>
        <time>2015-05-04T09:04:27Z</time>
      </trkpt>
      <trkpt lat="44.38515" lon="4.41383">
        <ele>103</ele>
        <time>2015-05-04T09:04:25Z</time>
      </trkpt>
      <trkpt lat="44.38503" lon="4.41388">
        <ele>104</ele>
        <time>2015-05-04T09:04:23Z</time>
      </trkpt>
      <trkpt lat="44.38485" lon="4.41395">
        <ele>104</ele>
        <time>2015-05-04T09:04:20Z</time>
      </trkpt>
      <trkpt lat="44.38468" lon="4.41401">
        <ele>102</ele>
        <time>2015-05-04T09:04:17Z</time>
      </trkpt>
      <trkpt lat="44.3845" lon="4.4141">
        <ele>101</ele>
        <time>2015-05-04T09:04:14Z</time>
      </trkpt>
      <trkpt lat="44.38432" lon="4.41418">
        <ele>107</ele>
        <time>2015-05-04T09:04:11Z</time>
      </trkpt>
      <trkpt lat="44.3842" lon="4.4142">
        <ele>101</ele>
        <time>2015-05-04T09:04:09Z</time>
      </trkpt>
      <trkpt lat="44.38407" lon="4.41417">
        <ele>99</ele>
        <time>2015-05-04T09:04:07Z</time>
      </trkpt>
      <trkpt lat="44.38389" lon="4.41405">
        <ele>95</ele>
        <time>2015-05-04T09:04:04Z</time>
      </trkpt>
      <trkpt lat="44.3837" lon="4.41392">
        <ele>94</ele>
        <time>2015-05-04T09:04:01Z</time>
      </trkpt>
      <trkpt lat="44.38352" lon="4.4138">
        <ele>94</ele>
        <time>2015-05-04T09:03:58Z</time>
      </trkpt>
      <trkpt lat="44.38334" lon="4.41368">
        <ele>94</ele>
        <time>2015-05-04T09:03:55Z</time>
      </trkpt>
      <trkpt lat="44.38314" lon="4.41359">
        <ele>95</ele>
        <time>2015-05-04T09:03:52Z</time>
      </trkpt>
      <trkpt lat="44.38294" lon="4.4136">
        <ele>95</ele>
        <time>2015-05-04T09:03:49Z</time>
      </trkpt>
      <trkpt lat="44.38273" lon="4.41368">
        <ele>95</ele>
        <time>2015-05-04T09:03:46Z</time>
      </trkpt>
      <trkpt lat="44.38251" lon="4.41368">
        <ele>96</ele>
        <time>2015-05-04T09:03:43Z</time>
      </trkpt>
      <trkpt lat="44.38239" lon="4.41359">
        <ele>95</ele>
        <time>2015-05-04T09:03:41Z</time>
      </trkpt>
      <trkpt lat="44.38223" lon="4.41338">
        <ele>95</ele>
        <time>2015-05-04T09:03:38Z</time>
      </trkpt>
      <trkpt lat="44.38214" lon="4.4132">
        <ele>99</ele>
        <time>2015-05-04T09:03:36Z</time>
      </trkpt>
      <trkpt lat="44.38206" lon="4.41302">
        <ele>98</ele>
        <time>2015-05-04T09:03:34Z</time>
      </trkpt>
      <trkpt lat="44.38199" lon="4.41282">
        <ele>98</ele>
        <time>2015-05-04T09:03:32Z</time>
      </trkpt>
      <trkpt lat="44.38192" lon="4.41252">
        <ele>97</ele>
        <time>2015-05-04T09:03:29Z</time>
      </trkpt>
      <trkpt lat="44.38189" lon="4.41221">
        <ele>100</ele>
        <time>2015-05-04T09:03:26Z</time>
      </trkpt>
      <trkpt lat="44.38189" lon="4.41189">
        <ele>100</ele>
        <time>2015-05-04T09:03:23Z</time>
      </trkpt>
      <trkpt lat="44.3819" lon="4.41168">
        <ele>99</ele>
        <time>2015-05-04T09:03:21Z</time>
      </trkpt>
      <trkpt lat="44.38192" lon="4.41148">
        <ele>100</ele>
        <time>2015-05-04T09:03:19Z</time>
      </trkpt>
      <trkpt lat="44.38194" lon="4.41127">
        <ele>101</ele>
        <time>2015-05-04T09:03:17Z</time>
      </trkpt>
      <trkpt lat="44.38199" lon="4.41096">
        <ele>101</ele>
        <time>2015-05-04T09:03:14Z</time>
      </trkpt>
      <trkpt lat="44.38205" lon="4.41066">
        <ele>100</ele>
        <time>2015-05-04T09:03:11Z</time>
      </trkpt>
      <trkpt lat="44.38211" lon="4.41046">
        <ele>101</ele>
        <time>2015-05-04T09:03:09Z</time>
      </trkpt>
      <trkpt lat="44.38218" lon="4.41016">
        <ele>102</ele>
        <time>2015-05-04T09:03:06Z</time>
      </trkpt>
      <trkpt lat="44.38224" lon="4.40999">
        <ele>100</ele>
        <time>2015-05-04T09:03:04Z</time>
      </trkpt>
      <trkpt lat="44.3823" lon="4.40981">
        <ele>100</ele>
        <time>2015-05-04T09:03:02Z</time>
      </trkpt>
      <trkpt lat="44.38238" lon="4.40955">
        <ele>98</ele>
        <time>2015-05-04T09:02:59Z</time>
      </trkpt>
      <trkpt lat="44.38245" lon="4.40929">
        <ele>99</ele>
        <time>2015-05-04T09:02:56Z</time>
      </trkpt>
      <trkpt lat="44.38248" lon="4.40912">
        <ele>100</ele>
        <time>2015-05-04T09:02:54Z</time>
      </trkpt>
      <trkpt lat="44.38252" lon="4.40896">
        <ele>104</ele>
        <time>2015-05-04T09:02:52Z</time>
      </trkpt>
      <trkpt lat="44.38257" lon="4.40879">
        <ele>104</ele>
        <time>2015-05-04T09:02:50Z</time>
      </trkpt>
      <trkpt lat="44.38262" lon="4.40863">
        <ele>103</ele>
        <time>2015-05-04T09:02:48Z</time>
      </trkpt>
      <trkpt lat="44.38269" lon="4.40848">
        <ele>101</ele>
        <time>2015-05-04T09:02:46Z</time>
      </trkpt>
      <trkpt lat="44.38276" lon="4.40834">
        <ele>102</ele>
        <time>2015-05-04T09:02:44Z</time>
      </trkpt>
      <trkpt lat="44.38289" lon="4.40816">
        <ele>95</ele>
        <time>2015-05-04T09:02:41Z</time>
      </trkpt>
      <trkpt lat="44.383" lon="4.40808">
        <ele>96</ele>
        <time>2015-05-04T09:02:39Z</time>
      </trkpt>
      <trkpt lat="44.38312" lon="4.40806">
        <ele>97</ele>
        <time>2015-05-04T09:02:37Z</time>
      </trkpt>
      <trkpt lat="44.3833" lon="4.40807">
        <ele>98</ele>
        <time>2015-05-04T09:02:34Z</time>
      </trkpt>
      <trkpt lat="44.38342" lon="4.40808">
        <ele>101</ele>
        <time>2015-05-04T09:02:32Z</time>
      </trkpt>
      <trkpt lat="44.38354" lon="4.40807">
        <ele>100</ele>
        <time>2015-05-04T09:02:30Z</time>
      </trkpt>
      <trkpt lat="44.38365" lon="4.40808">
        <ele>100</ele>
        <time>2015-05-04T09:02:28Z</time>
      </trkpt>
      <trkpt lat="44.38381" lon="4.40819">
        <ele>102</ele>
        <time>2015-05-04T09:02:25Z</time>
      </trkpt>
      <trkpt lat="44.38392" lon="4.40839">
        <ele>120</ele>
        <time>2015-05-04T09:02:22Z</time>
      </trkpt>
      <trkpt lat="44.38401" lon="4.4085">
        <ele>121</ele>
        <time>2015-05-04T09:02:20Z</time>
      </trkpt>
      <trkpt lat="44.38417" lon="4.40864">
        <ele>130</ele>
        <time>2015-05-04T09:02:17Z</time>
      </trkpt>
      <trkpt lat="44.38434" lon="4.40878">
        <ele>136</ele>
        <time>2015-05-04T09:02:14Z</time>
      </trkpt>
      <trkpt lat="44.3845" lon="4.40892">
        <ele>140</ele>
        <time>2015-05-04T09:02:11Z</time>
      </trkpt>
      <trkpt lat="44.38468" lon="4.40902">
        <ele>145</ele>
        <time>2015-05-04T09:02:08Z</time>
      </trkpt>
      <trkpt lat="44.38486" lon="4.4091">
        <ele>154</ele>
        <time>2015-05-04T09:02:05Z</time>
      </trkpt>
      <trkpt lat="44.38504" lon="4.40917">
        <ele>172</ele>
        <time>2015-05-04T09:02:02Z</time>
      </trkpt>
      <trkpt lat="44.38515" lon="4.4092">
        <ele>173</ele>
        <time>2015-05-04T09:02:00Z</time>
      </trkpt>
      <trkpt lat="44.38532" lon="4.4092">
        <ele>173</ele>
        <time>2015-05-04T09:01:57Z</time>
      </trkpt>
      <trkpt lat="44.38543" lon="4.4092">
        <ele>173</ele>
        <time>2015-05-04T09:01:55Z</time>
      </trkpt>
      <trkpt lat="44.38554" lon="4.40921">
        <ele>172</ele>
        <time>2015-05-04T09:01:53Z</time>
      </trkpt>
      <trkpt lat="44.38585" lon="4.40906">
        <ele>157</ele>
        <time>2015-05-04T09:01:47Z</time>
      </trkpt>
      <trkpt lat="44.38598" lon="4.40898">
        <ele>151</ele>
        <time>2015-05-04T09:01:44Z</time>
      </trkpt>
      <trkpt lat="44.38615" lon="4.40892">
        <ele>149</ele>
        <time>2015-05-04T09:01:41Z</time>
      </trkpt>
      <trkpt lat="44.38626" lon="4.40887">
        <ele>148</ele>
        <time>2015-05-04T09:01:39Z</time>
      </trkpt>
      <trkpt lat="44.38644" lon="4.40879">
        <ele>148</ele>
        <time>2015-05-04T09:01:36Z</time>
      </trkpt>
      <trkpt lat="44.38699" lon="4.40865">
        <ele>145</ele>
        <time>2015-05-04T09:01:28Z</time>
      </trkpt>
      <trkpt lat="44.38714" lon="4.40863">
        <ele>143</ele>
        <time>2015-05-04T09:01:26Z</time>
      </trkpt>
      <trkpt lat="44.38736" lon="4.40862">
        <ele>140</ele>
        <time>2015-05-04T09:01:23Z</time>
      </trkpt>
      <trkpt lat="44.38758" lon="4.40856">
        <ele>131</ele>
        <time>2015-05-04T09:01:20Z</time>
      </trkpt>
      <trkpt lat="44.38781" lon="4.40846">
        <ele>130</ele>
        <time>2015-05-04T09:01:17Z</time>
      </trkpt>
      <trkpt lat="44.38796" lon="4.40835">
        <ele>128</ele>
        <time>2015-05-04T09:01:15Z</time>
      </trkpt>
      <trkpt lat="44.38809" lon="4.4082">
        <ele>107</ele>
        <time>2015-05-04T09:01:13Z</time>
      </trkpt>
      <trkpt lat="44.38829" lon="4.40796">
        <ele>103</ele>
        <time>2015-05-04T09:01:10Z</time>
      </trkpt>
      <trkpt lat="44.38849" lon="4.40773">
        <ele>105</ele>
        <time>2015-05-04T09:01:07Z</time>
      </trkpt>
      <trkpt lat="44.38873" lon="4.40763">
        <ele>109</ele>
        <time>2015-05-04T09:01:04Z</time>
      </trkpt>
      <trkpt lat="44.38889" lon="4.40765">
        <ele>112</ele>
        <time>2015-05-04T09:01:02Z</time>
      </trkpt>
      <trkpt lat="44.38912" lon="4.40761">
        <ele>112</ele>
        <time>2015-05-04T09:00:59Z</time>
      </trkpt>
      <trkpt lat="44.3893" lon="4.40739">
        <ele>115</ele>
        <time>2015-05-04T09:00:56Z</time>
      </trkpt>
      <trkpt lat="44.38944" lon="4.40711">
        <ele>117</ele>
        <time>2015-05-04T09:00:53Z</time>
      </trkpt>
      <trkpt lat="44.38957" lon="4.40685">
        <ele>117</ele>
        <time>2015-05-04T09:00:50Z</time>
      </trkpt>
      <trkpt lat="44.38964" lon="4.40667">
        <ele>118</ele>
        <time>2015-05-04T09:00:48Z</time>
      </trkpt>
      <trkpt lat="44.38972" lon="4.4064">
        <ele>105</ele>
        <time>2015-05-04T09:00:45Z</time>
      </trkpt>
      <trkpt lat="44.38978" lon="4.40614">
        <ele>102</ele>
        <time>2015-05-04T09:00:42Z</time>
      </trkpt>
      <trkpt lat="44.38985" lon="4.40598">
        <ele>101</ele>
        <time>2015-05-04T09:00:40Z</time>
      </trkpt>
      <trkpt lat="44.38998" lon="4.40575">
        <ele>98</ele>
        <time>2015-05-04T09:00:37Z</time>
      </trkpt>
      <trkpt lat="44.39014" lon="4.40556">
        <ele>103</ele>
        <time>2015-05-04T09:00:34Z</time>
      </trkpt>
      <trkpt lat="44.39025" lon="4.40546">
        <ele>103</ele>
        <time>2015-05-04T09:00:32Z</time>
      </trkpt>
      <trkpt lat="44.39042" lon="4.40531">
        <ele>104</ele>
        <time>2015-05-04T09:00:29Z</time>
      </trkpt>
      <trkpt lat="44.39052" lon="4.40518">
        <ele>104</ele>
        <time>2015-05-04T09:00:27Z</time>
      </trkpt>
      <trkpt lat="44.39061" lon="4.40505">
        <ele>104</ele>
        <time>2015-05-04T09:00:25Z</time>
      </trkpt>
      <trkpt lat="44.39072" lon="4.40484">
        <ele>100</ele>
        <time>2015-05-04T09:00:22Z</time>
      </trkpt>
      <trkpt lat="44.39083" lon="4.40462">
        <ele>99</ele>
        <time>2015-05-04T09:00:19Z</time>
      </trkpt>
      <trkpt lat="44.39087" lon="4.40445">
        <ele>109</ele>
        <time>2015-05-04T09:00:17Z</time>
      </trkpt>
      <trkpt lat="44.39089" lon="4.40417">
        <ele>106</ele>
        <time>2015-05-04T09:00:14Z</time>
      </trkpt>
      <trkpt lat="44.39088" lon="4.4039">
        <ele>111</ele>
        <time>2015-05-04T09:00:11Z</time>
      </trkpt>
      <trkpt lat="44.39086" lon="4.40372">
        <ele>112</ele>
        <time>2015-05-04T09:00:09Z</time>
      </trkpt>
      <trkpt lat="44.39084" lon="4.40345">
        <ele>110</ele>
        <time>2015-05-04T09:00:06Z</time>
      </trkpt>
      <trkpt lat="44.39084" lon="4.40321">
        <ele>109</ele>
        <time>2015-05-04T09:00:03Z</time>
      </trkpt>
      <trkpt lat="44.39089" lon="4.40296">
        <ele>110</ele>
        <time>2015-05-04T09:00:00Z</time>
      </trkpt>
      <trkpt lat="44.39096" lon="4.40274">
        <ele>108</ele>
        <time>2015-05-04T08:59:57Z</time>
      </trkpt>
      <trkpt lat="44.39102" lon="4.40261">
        <ele>107</ele>
        <time>2015-05-04T08:59:55Z</time>
      </trkpt>
      <trkpt lat="44.39111" lon="4.40243">
        <ele>101</ele>
        <time>2015-05-04T08:59:52Z</time>
      </trkpt>
      <trkpt lat="44.39118" lon="4.40231">
        <ele>101</ele>
        <time>2015-05-04T08:59:50Z</time>
      </trkpt>
      <trkpt lat="44.39131" lon="4.40207">
        <ele>101</ele>
        <time>2015-05-04T08:59:46Z</time>
      </trkpt>
      <trkpt lat="44.39141" lon="4.40189">
        <ele>100</ele>
        <time>2015-05-04T08:59:43Z</time>
      </trkpt>
      <trkpt lat="44.39153" lon="4.40176">
        <ele>100</ele>
        <time>2015-05-04T08:59:40Z</time>
      </trkpt>
      <trkpt lat="44.39166" lon="4.40169">
        <ele>100</ele>
        <time>2015-05-04T08:59:37Z</time>
      </trkpt>
      <trkpt lat="44.3918" lon="4.40168">
        <ele>101</ele>
        <time>2015-05-04T08:59:34Z</time>
      </trkpt>
      <trkpt lat="44.39189" lon="4.4017">
        <ele>101</ele>
        <time>2015-05-04T08:59:32Z</time>
      </trkpt>
      <trkpt lat="44.392" lon="4.40175">
        <ele>101</ele>
        <time>2015-05-04T08:59:29Z</time>
      </trkpt>
      <trkpt lat="44.39211" lon="4.40184">
        <ele>101</ele>
        <time>2015-05-04T08:59:26Z</time>
      </trkpt>
      <trkpt lat="44.39221" lon="4.40196">
        <ele>101</ele>
        <time>2015-05-04T08:59:23Z</time>
      </trkpt>
      <trkpt lat="44.3923" lon="4.4021">
        <ele>101</ele>
        <time>2015-05-04T08:59:20Z</time>
      </trkpt>
      <trkpt lat="44.39235" lon="4.4022">
        <ele>102</ele>
        <time>2015-05-04T08:59:18Z</time>
      </trkpt>
      <trkpt lat="44.39245" lon="4.40234">
        <ele>102</ele>
        <time>2015-05-04T08:59:15Z</time>
      </trkpt>
      <trkpt lat="44.39252" lon="4.40243">
        <ele>99</ele>
        <time>2015-05-04T08:59:13Z</time>
      </trkpt>
      <trkpt lat="44.39259" lon="4.4025">
        <ele>99</ele>
        <time>2015-05-04T08:59:11Z</time>
      </trkpt>
      <trkpt lat="44.39268" lon="4.40263">
        <ele>99</ele>
        <time>2015-05-04T08:59:08Z</time>
      </trkpt>
      <trkpt lat="44.39277" lon="4.40279">
        <ele>98</ele>
        <time>2015-05-04T08:59:05Z</time>
      </trkpt>
      <trkpt lat="44.39282" lon="4.4029">
        <ele>98</ele>
        <time>2015-05-04T08:59:03Z</time>
      </trkpt>
      <trkpt lat="44.39286" lon="4.40302">
        <ele>98</ele>
        <time>2015-05-04T08:59:01Z</time>
      </trkpt>
      <trkpt lat="44.39293" lon="4.40319">
        <ele>98</ele>
        <time>2015-05-04T08:58:58Z</time>
      </trkpt>
      <trkpt lat="44.39298" lon="4.40331">
        <ele>97</ele>
        <time>2015-05-04T08:58:56Z</time>
      </trkpt>
      <trkpt lat="44.39305" lon="4.40349">
        <ele>99</ele>
        <time>2015-05-04T08:58:53Z</time>
      </trkpt>
      <trkpt lat="44.39311" lon="4.40362">
        <ele>99</ele>
        <time>2015-05-04T08:58:51Z</time>
      </trkpt>
      <trkpt lat="44.39324" lon="4.40377">
        <ele>99</ele>
        <time>2015-05-04T08:58:48Z</time>
      </trkpt>
      <trkpt lat="44.39336" lon="4.40383">
        <ele>90</ele>
        <time>2015-05-04T08:58:46Z</time>
      </trkpt>
      <trkpt lat="44.39355" lon="4.40382">
        <ele>89</ele>
        <time>2015-05-04T08:58:43Z</time>
      </trkpt>
      <trkpt lat="44.39374" lon="4.40378">
        <ele>89</ele>
        <time>2015-05-04T08:58:40Z</time>
      </trkpt>
      <trkpt lat="44.39388" lon="4.40375">
        <ele>88</ele>
        <time>2015-05-04T08:58:38Z</time>
      </trkpt>
      <trkpt lat="44.39401" lon="4.40372">
        <ele>88</ele>
        <time>2015-05-04T08:58:36Z</time>
      </trkpt>
      <trkpt lat="44.39414" lon="4.40369">
        <ele>88</ele>
        <time>2015-05-04T08:58:34Z</time>
      </trkpt>
      <trkpt lat="44.39427" lon="4.40366">
        <ele>86</ele>
        <time>2015-05-04T08:58:32Z</time>
      </trkpt>
      <trkpt lat="44.39447" lon="4.40362">
        <ele>86</ele>
        <time>2015-05-04T08:58:29Z</time>
      </trkpt>
      <trkpt lat="44.3946" lon="4.40359">
        <ele>86</ele>
        <time>2015-05-04T08:58:27Z</time>
      </trkpt>
      <trkpt lat="44.39473" lon="4.40356">
        <ele>86</ele>
        <time>2015-05-04T08:58:25Z</time>
      </trkpt>
      <trkpt lat="44.39486" lon="4.40353">
        <ele>85</ele>
        <time>2015-05-04T08:58:23Z</time>
      </trkpt>
      <trkpt lat="44.39499" lon="4.4035">
        <ele>85</ele>
        <time>2015-05-04T08:58:21Z</time>
      </trkpt>
      <trkpt lat="44.39512" lon="4.40347">
        <ele>86</ele>
        <time>2015-05-04T08:58:19Z</time>
      </trkpt>
      <trkpt lat="44.39524" lon="4.40345">
        <ele>87</ele>
        <time>2015-05-04T08:58:17Z</time>
      </trkpt>
      <trkpt lat="44.39537" lon="4.40343">
        <ele>87</ele>
        <time>2015-05-04T08:58:15Z</time>
      </trkpt>
      <trkpt lat="44.39556" lon="4.40338">
        <ele>88</ele>
        <time>2015-05-04T08:58:12Z</time>
      </trkpt>
      <trkpt lat="44.39574" lon="4.40333">
        <ele>90</ele>
        <time>2015-05-04T08:58:09Z</time>
      </trkpt>
      <trkpt lat="44.39587" lon="4.4033">
        <ele>91</ele>
        <time>2015-05-04T08:58:07Z</time>
      </trkpt>
      <trkpt lat="44.39605" lon="4.40322">
        <ele>90</ele>
        <time>2015-05-04T08:58:04Z</time>
      </trkpt>
      <trkpt lat="44.39617" lon="4.40313">
        <ele>89</ele>
        <time>2015-05-04T08:58:02Z</time>
      </trkpt>
      <trkpt lat="44.39633" lon="4.40299">
        <ele>89</ele>
        <time>2015-05-04T08:57:59Z</time>
      </trkpt>
      <trkpt lat="44.39644" lon="4.40289">
        <ele>89</ele>
        <time>2015-05-04T08:57:57Z</time>
      </trkpt>
      <trkpt lat="44.39654" lon="4.40278">
        <ele>89</ele>
        <time>2015-05-04T08:57:55Z</time>
      </trkpt>
      <trkpt lat="44.39669" lon="4.4026">
        <ele>88</ele>
        <time>2015-05-04T08:57:52Z</time>
      </trkpt>
      <trkpt lat="44.39684" lon="4.40242">
        <ele>87</ele>
        <time>2015-05-04T08:57:49Z</time>
      </trkpt>
      <trkpt lat="44.39699" lon="4.40224">
        <ele>86</ele>
        <time>2015-05-04T08:57:46Z</time>
      </trkpt>
      <trkpt lat="44.39709" lon="4.40211">
        <ele>86</ele>
        <time>2015-05-04T08:57:44Z</time>
      </trkpt>
      <trkpt lat="44.39718" lon="4.40198">
        <ele>86</ele>
        <time>2015-05-04T08:57:42Z</time>
      </trkpt>
      <trkpt lat="44.3973" lon="4.40176">
        <ele>86</ele>
        <time>2015-05-04T08:57:39Z</time>
      </trkpt>
      <trkpt lat="44.3974" lon="4.40152">
        <ele>86</ele>
        <time>2015-05-04T08:57:36Z</time>
      </trkpt>
      <trkpt lat="44.3975" lon="4.40128">
        <ele>88</ele>
        <time>2015-05-04T08:57:33Z</time>
      </trkpt>
      <trkpt lat="44.3976" lon="4.40103">
        <ele>89</ele>
        <time>2015-05-04T08:57:30Z</time>
      </trkpt>
      <trkpt lat="44.3977" lon="4.40077">
        <ele>88</ele>
        <time>2015-05-04T08:57:27Z</time>
      </trkpt>
      <trkpt lat="44.3978" lon="4.40051">
        <ele>89</ele>
        <time>2015-05-04T08:57:24Z</time>
      </trkpt>
      <trkpt lat="44.39789" lon="4.40025">
        <ele>89</ele>
        <time>2015-05-04T08:57:21Z</time>
      </trkpt>
      <trkpt lat="44.39795" lon="4.40007">
        <ele>89</ele>
        <time>2015-05-04T08:57:19Z</time>
      </trkpt>
      <trkpt lat="44.39801" lon="4.39978">
        <ele>89</ele>
        <time>2015-05-04T08:57:16Z</time>
      </trkpt>
      <trkpt lat="44.39805" lon="4.39959">
        <ele>89</ele>
        <time>2015-05-04T08:57:14Z</time>
      </trkpt>
      <trkpt lat="44.39809" lon="4.39932">
        <ele>90</ele>
        <time>2015-05-04T08:57:11Z</time>
      </trkpt>
      <trkpt lat="44.39814" lon="4.39906">
        <ele>90</ele>
        <time>2015-05-04T08:57:08Z</time>
      </trkpt>
      <trkpt lat="44.3982" lon="4.3988">
        <ele>90</ele>
        <time>2015-05-04T08:57:05Z</time>
      </trkpt>
      <trkpt lat="44.39825" lon="4.39852">
        <ele>91</ele>
        <time>2015-05-04T08:57:02Z</time>
      </trkpt>
      <trkpt lat="44.39828" lon="4.39825">
        <ele>92</ele>
        <time>2015-05-04T08:56:59Z</time>
      </trkpt>
      <trkpt lat="44.3983" lon="4.39807">
        <ele>92</ele>
        <time>2015-05-04T08:56:57Z</time>
      </trkpt>
      <trkpt lat="44.39831" lon="4.3978">
        <ele>92</ele>
        <time>2015-05-04T08:56:54Z</time>
      </trkpt>
      <trkpt lat="44.39832" lon="4.3976">
        <ele>93</ele>
        <time>2015-05-04T08:56:52Z</time>
      </trkpt>
      <trkpt lat="44.39832" lon="4.39732">
        <ele>92</ele>
        <time>2015-05-04T08:56:49Z</time>
      </trkpt>
      <trkpt lat="44.39831" lon="4.39703">
        <ele>91</ele>
        <time>2015-05-04T08:56:46Z</time>
      </trkpt>
      <trkpt lat="44.39832" lon="4.39674">
        <ele>90</ele>
        <time>2015-05-04T08:56:43Z</time>
      </trkpt>
      <trkpt lat="44.39835" lon="4.39646">
        <ele>90</ele>
        <time>2015-05-04T08:56:40Z</time>
      </trkpt>
      <trkpt lat="44.39839" lon="4.39627">
        <ele>90</ele>
        <time>2015-05-04T08:56:38Z</time>
      </trkpt>
      <trkpt lat="44.39847" lon="4.396">
        <ele>89</ele>
        <time>2015-05-04T08:56:35Z</time>
      </trkpt>
      <trkpt lat="44.3985" lon="4.39581">
        <ele>88</ele>
        <time>2015-05-04T08:56:33Z</time>
      </trkpt>
      <trkpt lat="44.39865" lon="4.39562">
        <ele>88</ele>
        <time>2015-05-04T08:56:30Z</time>
      </trkpt>
      <trkpt lat="44.39885" lon="4.39567">
        <ele>88</ele>
        <time>2015-05-04T08:56:27Z</time>
      </trkpt>
      <trkpt lat="44.39907" lon="4.39565">
        <ele>89</ele>
        <time>2015-05-04T08:56:24Z</time>
      </trkpt>
      <trkpt lat="44.39922" lon="4.39561">
        <ele>90</ele>
        <time>2015-05-04T08:56:22Z</time>
      </trkpt>
      <trkpt lat="44.39945" lon="4.39552">
        <ele>91</ele>
        <time>2015-05-04T08:56:19Z</time>
      </trkpt>
      <trkpt lat="44.39969" lon="4.39546">
        <ele>92</ele>
        <time>2015-05-04T08:56:16Z</time>
      </trkpt>
      <trkpt lat="44.39994" lon="4.39541">
        <ele>92</ele>
        <time>2015-05-04T08:56:13Z</time>
      </trkpt>
      <trkpt lat="44.40018" lon="4.39534">
        <ele>93</ele>
        <time>2015-05-04T08:56:10Z</time>
      </trkpt>
      <trkpt lat="44.40033" lon="4.39528">
        <ele>93</ele>
        <time>2015-05-04T08:56:08Z</time>
      </trkpt>
      <trkpt lat="44.40048" lon="4.39523">
        <ele>93</ele>
        <time>2015-05-04T08:56:06Z</time>
      </trkpt>
      <trkpt lat="44.40069" lon="4.39517">
        <ele>92</ele>
        <time>2015-05-04T08:56:03Z</time>
      </trkpt>
      <trkpt lat="44.40091" lon="4.39509">
        <ele>92</ele>
        <time>2015-05-04T08:56:00Z</time>
      </trkpt>
      <trkpt lat="44.40112" lon="4.39504">
        <ele>92</ele>
        <time>2015-05-04T08:55:57Z</time>
      </trkpt>
      <trkpt lat="44.40134" lon="4.39502">
        <ele>92</ele>
        <time>2015-05-04T08:55:54Z</time>
      </trkpt>
      <trkpt lat="44.4015" lon="4.39505">
        <ele>92</ele>
        <time>2015-05-04T08:55:52Z</time>
      </trkpt>
      <trkpt lat="44.40172" lon="4.39509">
        <ele>92</ele>
        <time>2015-05-04T08:55:49Z</time>
      </trkpt>
      <trkpt lat="44.40195" lon="4.39512">
        <ele>93</ele>
        <time>2015-05-04T08:55:46Z</time>
      </trkpt>
      <trkpt lat="44.40218" lon="4.39517">
        <ele>94</ele>
        <time>2015-05-04T08:55:43Z</time>
      </trkpt>
      <trkpt lat="44.40234" lon="4.3952">
        <ele>94</ele>
        <time>2015-05-04T08:55:41Z</time>
      </trkpt>
      <trkpt lat="44.40257" lon="4.39525">
        <ele>96</ele>
        <time>2015-05-04T08:55:38Z</time>
      </trkpt>
      <trkpt lat="44.40287" lon="4.39531">
        <ele>96</ele>
        <time>2015-05-04T08:55:34Z</time>
      </trkpt>
      <trkpt lat="44.40302" lon="4.39534">
        <ele>96</ele>
        <time>2015-05-04T08:55:32Z</time>
      </trkpt>
      <trkpt lat="44.40325" lon="4.39535">
        <ele>96</ele>
        <time>2015-05-04T08:55:29Z</time>
      </trkpt>
      <trkpt lat="44.40349" lon="4.39537">
        <ele>98</ele>
        <time>2015-05-04T08:55:26Z</time>
      </trkpt>
      <trkpt lat="44.40365" lon="4.39543">
        <ele>98</ele>
        <time>2015-05-04T08:55:24Z</time>
      </trkpt>
      <trkpt lat="44.40389" lon="4.39552">
        <ele>99</ele>
        <time>2015-05-04T08:55:21Z</time>
      </trkpt>
      <trkpt lat="44.40411" lon="4.3956">
        <ele>99</ele>
        <time>2015-05-04T08:55:18Z</time>
      </trkpt>
      <trkpt lat="44.40434" lon="4.39568">
        <ele>102</ele>
        <time>2015-05-04T08:55:15Z</time>
      </trkpt>
      <trkpt lat="44.40448" lon="4.39574">
        <ele>103</ele>
        <time>2015-05-04T08:55:13Z</time>
      </trkpt>
      <trkpt lat="44.40462" lon="4.3958">
        <ele>103</ele>
        <time>2015-05-04T08:55:11Z</time>
      </trkpt>
      <trkpt lat="44.40483" lon="4.39589">
        <ele>103</ele>
        <time>2015-05-04T08:55:08Z</time>
      </trkpt>
      <trkpt lat="44.40505" lon="4.39598">
        <ele>105</ele>
        <time>2015-05-04T08:55:05Z</time>
      </trkpt>
      <trkpt lat="44.40519" lon="4.39604">
        <ele>105</ele>
        <time>2015-05-04T08:55:03Z</time>
      </trkpt>
      <trkpt lat="44.40532" lon="4.3961">
        <ele>105</ele>
        <time>2015-05-04T08:55:01Z</time>
      </trkpt>
      <trkpt lat="44.40553" lon="4.39621">
        <ele>105</ele>
        <time>2015-05-04T08:54:58Z</time>
      </trkpt>
      <trkpt lat="44.40572" lon="4.39636">
        <ele>105</ele>
        <time>2015-05-04T08:54:55Z</time>
      </trkpt>
      <trkpt lat="44.40584" lon="4.39647">
        <ele>107</ele>
        <time>2015-05-04T08:54:53Z</time>
      </trkpt>
      <trkpt lat="44.40602" lon="4.39664">
        <ele>107</ele>
        <time>2015-05-04T08:54:50Z</time>
      </trkpt>
      <trkpt lat="44.4062" lon="4.39679">
        <ele>105</ele>
        <time>2015-05-04T08:54:47Z</time>
      </trkpt>
      <trkpt lat="44.40638" lon="4.39693">
        <ele>105</ele>
        <time>2015-05-04T08:54:44Z</time>
      </trkpt>
      <trkpt lat="44.40657" lon="4.39708">
        <ele>105</ele>
        <time>2015-05-04T08:54:41Z</time>
      </trkpt>
      <trkpt lat="44.40676" lon="4.39722">
        <ele>108</ele>
        <time>2015-05-04T08:54:38Z</time>
      </trkpt>
      <trkpt lat="44.40698" lon="4.39731">
        <ele>108</ele>
        <time>2015-05-04T08:54:35Z</time>
      </trkpt>
      <trkpt lat="44.40719" lon="4.39739">
        <ele>109</ele>
        <time>2015-05-04T08:54:32Z</time>
      </trkpt>
      <trkpt lat="44.40741" lon="4.39747">
        <ele>109</ele>
        <time>2015-05-04T08:54:29Z</time>
      </trkpt>
      <trkpt lat="44.40755" lon="4.39754">
        <ele>109</ele>
        <time>2015-05-04T08:54:27Z</time>
      </trkpt>
      <trkpt lat="44.40776" lon="4.3976">
        <ele>108</ele>
        <time>2015-05-04T08:54:24Z</time>
      </trkpt>
      <trkpt lat="44.40796" lon="4.39762">
        <ele>109</ele>
        <time>2015-05-04T08:54:21Z</time>
      </trkpt>
      <trkpt lat="44.40815" lon="4.39759">
        <ele>109</ele>
        <time>2015-05-04T08:54:18Z</time>
      </trkpt>
      <trkpt lat="44.40831" lon="4.39763">
        <ele>110</ele>
        <time>2015-05-04T08:54:15Z</time>
      </trkpt>
      <trkpt lat="44.40838" lon="4.39778">
        <ele>111</ele>
        <time>2015-05-04T08:54:13Z</time>
      </trkpt>
      <trkpt lat="44.40847" lon="4.39804">
        <ele>110</ele>
        <time>2015-05-04T08:54:10Z</time>
      </trkpt>
      <trkpt lat="44.40855" lon="4.39833">
        <ele>110</ele>
        <time>2015-05-04T08:54:07Z</time>
      </trkpt>
      <trkpt lat="44.40859" lon="4.39852">
        <ele>109</ele>
        <time>2015-05-04T08:54:05Z</time>
      </trkpt>
      <trkpt lat="44.40865" lon="4.39882">
        <ele>109</ele>
        <time>2015-05-04T08:54:02Z</time>
      </trkpt>
      <trkpt lat="44.40868" lon="4.39902">
        <ele>109</ele>
        <time>2015-05-04T08:54:00Z</time>
      </trkpt>
      <trkpt lat="44.40871" lon="4.39921">
        <ele>107</ele>
        <time>2015-05-04T08:53:58Z</time>
      </trkpt>
      <trkpt lat="44.40875" lon="4.3994">
        <ele>107</ele>
        <time>2015-05-04T08:53:56Z</time>
      </trkpt>
      <trkpt lat="44.40878" lon="4.39958">
        <ele>107</ele>
        <time>2015-05-04T08:53:54Z</time>
      </trkpt>
      <trkpt lat="44.40881" lon="4.39977">
        <ele>106</ele>
        <time>2015-05-04T08:53:52Z</time>
      </trkpt>
      <trkpt lat="44.40884" lon="4.39996">
        <ele>106</ele>
        <time>2015-05-04T08:53:50Z</time>
      </trkpt>
      <trkpt lat="44.40889" lon="4.40024">
        <ele>105</ele>
        <time>2015-05-04T08:53:47Z</time>
      </trkpt>
      <trkpt lat="44.40894" lon="4.40052">
        <ele>105</ele>
        <time>2015-05-04T08:53:44Z</time>
      </trkpt>
      <trkpt lat="44.40898" lon="4.40071">
        <ele>105</ele>
        <time>2015-05-04T08:53:42Z</time>
      </trkpt>
      <trkpt lat="44.40902" lon="4.401">
        <ele>104</ele>
        <time>2015-05-04T08:53:39Z</time>
      </trkpt>
      <trkpt lat="44.40906" lon="4.40128">
        <ele>104</ele>
        <time>2015-05-04T08:53:36Z</time>
      </trkpt>
      <trkpt lat="44.4091" lon="4.40155">
        <ele>104</ele>
        <time>2015-05-04T08:53:33Z</time>
      </trkpt>
      <trkpt lat="44.40915" lon="4.40183">
        <ele>103</ele>
        <time>2015-05-04T08:53:30Z</time>
      </trkpt>
      <trkpt lat="44.40919" lon="4.40211">
        <ele>104</ele>
        <time>2015-05-04T08:53:27Z</time>
      </trkpt>
      <trkpt lat="44.40923" lon="4.40237">
        <ele>104</ele>
        <time>2015-05-04T08:53:24Z</time>
      </trkpt>
      <trkpt lat="44.40924" lon="4.40264">
        <ele>103</ele>
        <time>2015-05-04T08:53:21Z</time>
      </trkpt>
      <trkpt lat="44.40923" lon="4.40282">
        <ele>104</ele>
        <time>2015-05-04T08:53:19Z</time>
      </trkpt>
      <trkpt lat="44.40921" lon="4.40299">
        <ele>104</ele>
        <time>2015-05-04T08:53:17Z</time>
      </trkpt>
      <trkpt lat="44.40918" lon="4.40316">
        <ele>103</ele>
        <time>2015-05-04T08:53:15Z</time>
      </trkpt>
      <trkpt lat="44.40916" lon="4.40333">
        <ele>103</ele>
        <time>2015-05-04T08:53:13Z</time>
      </trkpt>
      <trkpt lat="44.40913" lon="4.4035">
        <ele>103</ele>
        <time>2015-05-04T08:53:11Z</time>
      </trkpt>
      <trkpt lat="44.4091" lon="4.40367">
        <ele>102</ele>
        <time>2015-05-04T08:53:09Z</time>
      </trkpt>
      <trkpt lat="44.40906" lon="4.40394">
        <ele>102</ele>
        <time>2015-05-04T08:53:06Z</time>
      </trkpt>
      <trkpt lat="44.40902" lon="4.4042">
        <ele>102</ele>
        <time>2015-05-04T08:53:03Z</time>
      </trkpt>
      <trkpt lat="44.409" lon="4.40437">
        <ele>101</ele>
        <time>2015-05-04T08:53:01Z</time>
      </trkpt>
      <trkpt lat="44.40896" lon="4.40463">
        <ele>101</ele>
        <time>2015-05-04T08:52:58Z</time>
      </trkpt>
      <trkpt lat="44.40894" lon="4.40481">
        <ele>101</ele>
        <time>2015-05-04T08:52:56Z</time>
      </trkpt>
      <trkpt lat="44.40891" lon="4.40498">
        <ele>101</ele>
        <time>2015-05-04T08:52:54Z</time>
      </trkpt>
      <trkpt lat="44.40889" lon="4.40516">
        <ele>101</ele>
        <time>2015-05-04T08:52:52Z</time>
      </trkpt>
      <trkpt lat="44.40886" lon="4.40533">
        <ele>102</ele>
        <time>2015-05-04T08:52:50Z</time>
      </trkpt>
      <trkpt lat="44.40882" lon="4.40559">
        <ele>102</ele>
        <time>2015-05-04T08:52:47Z</time>
      </trkpt>
      <trkpt lat="44.40878" lon="4.40585">
        <ele>103</ele>
        <time>2015-05-04T08:52:44Z</time>
      </trkpt>
      <trkpt lat="44.40876" lon="4.40603">
        <ele>103</ele>
        <time>2015-05-04T08:52:42Z</time>
      </trkpt>
      <trkpt lat="44.40872" lon="4.40629">
        <ele>104</ele>
        <time>2015-05-04T08:52:39Z</time>
      </trkpt>
      <trkpt lat="44.40868" lon="4.40654">
        <ele>104</ele>
        <time>2015-05-04T08:52:36Z</time>
      </trkpt>
      <trkpt lat="44.40864" lon="4.40679">
        <ele>104</ele>
        <time>2015-05-04T08:52:33Z</time>
      </trkpt>
      <trkpt lat="44.4086" lon="4.40704">
        <ele>104</ele>
        <time>2015-05-04T08:52:30Z</time>
      </trkpt>
      <trkpt lat="44.40855" lon="4.40728">
        <ele>105</ele>
        <time>2015-05-04T08:52:27Z</time>
      </trkpt>
      <trkpt lat="44.40848" lon="4.40751">
        <ele>105</ele>
        <time>2015-05-04T08:52:24Z</time>
      </trkpt>
      <trkpt lat="44.40839" lon="4.40774">
        <ele>104</ele>
        <time>2015-05-04T08:52:21Z</time>
      </trkpt>
      <trkpt lat="44.40829" lon="4.40793">
        <ele>107</ele>
        <time>2015-05-04T08:52:18Z</time>
      </trkpt>
      <trkpt lat="44.40822" lon="4.40806">
        <ele>107</ele>
        <time>2015-05-04T08:52:16Z</time>
      </trkpt>
      <trkpt lat="44.40813" lon="4.40817">
        <ele>107</ele>
        <time>2015-05-04T08:52:14Z</time>
      </trkpt>
      <trkpt lat="44.40805" lon="4.40828">
        <ele>107</ele>
        <time>2015-05-04T08:52:12Z</time>
      </trkpt>
      <trkpt lat="44.40796" lon="4.40839">
        <ele>106</ele>
        <time>2015-05-04T08:52:10Z</time>
      </trkpt>
      <trkpt lat="44.40787" lon="4.40851">
        <ele>106</ele>
        <time>2015-05-04T08:52:08Z</time>
      </trkpt>
      <trkpt lat="44.40774" lon="4.40868">
        <ele>106</ele>
        <time>2015-05-04T08:52:05Z</time>
      </trkpt>
      <trkpt lat="44.40765" lon="4.40879">
        <ele>105</ele>
        <time>2015-05-04T08:52:03Z</time>
      </trkpt>
      <trkpt lat="44.40756" lon="4.4089">
        <ele>104</ele>
        <time>2015-05-04T08:52:01Z</time>
      </trkpt>
      <trkpt lat="44.40747" lon="4.40902">
        <ele>105</ele>
        <time>2015-05-04T08:51:59Z</time>
      </trkpt>
      <trkpt lat="44.40733" lon="4.4092">
        <ele>103</ele>
        <time>2015-05-04T08:51:56Z</time>
      </trkpt>
      <trkpt lat="44.40723" lon="4.40932">
        <ele>103</ele>
        <time>2015-05-04T08:51:54Z</time>
      </trkpt>
      <trkpt lat="44.40709" lon="4.4095">
        <ele>104</ele>
        <time>2015-05-04T08:51:51Z</time>
      </trkpt>
      <trkpt lat="44.407" lon="4.40961">
        <ele>104</ele>
        <time>2015-05-04T08:51:49Z</time>
      </trkpt>
      <trkpt lat="44.40686" lon="4.40979">
        <ele>104</ele>
        <time>2015-05-04T08:51:46Z</time>
      </trkpt>
      <trkpt lat="44.40672" lon="4.40997">
        <ele>105</ele>
        <time>2015-05-04T08:51:43Z</time>
      </trkpt>
      <trkpt lat="44.40663" lon="4.41009">
        <ele>105</ele>
        <time>2015-05-04T08:51:41Z</time>
      </trkpt>
      <trkpt lat="44.40649" lon="4.41026">
        <ele>105</ele>
        <time>2015-05-04T08:51:38Z</time>
      </trkpt>
      <trkpt lat="44.4064" lon="4.41038">
        <ele>105</ele>
        <time>2015-05-04T08:51:36Z</time>
      </trkpt>
      <trkpt lat="44.4063" lon="4.41049">
        <ele>105</ele>
        <time>2015-05-04T08:51:34Z</time>
      </trkpt>
      <trkpt lat="44.40616" lon="4.41066">
        <ele>105</ele>
        <time>2015-05-04T08:51:31Z</time>
      </trkpt>
      <trkpt lat="44.40607" lon="4.41078">
        <ele>105</ele>
        <time>2015-05-04T08:51:29Z</time>
      </trkpt>
      <trkpt lat="44.40593" lon="4.41095">
        <ele>103</ele>
        <time>2015-05-04T08:51:26Z</time>
      </trkpt>
      <trkpt lat="44.40583" lon="4.41107">
        <ele>106</ele>
        <time>2015-05-04T08:51:24Z</time>
      </trkpt>
      <trkpt lat="44.40567" lon="4.41121">
        <ele>105</ele>
        <time>2015-05-04T08:51:21Z</time>
      </trkpt>
      <trkpt lat="44.40556" lon="4.41128">
        <ele>105</ele>
        <time>2015-05-04T08:51:19Z</time>
      </trkpt>
      <trkpt lat="44.40537" lon="4.41137">
        <ele>105</ele>
        <time>2015-05-04T08:51:16Z</time>
      </trkpt>
      <trkpt lat="44.40518" lon="4.41146">
        <ele>106</ele>
        <time>2015-05-04T08:51:13Z</time>
      </trkpt>
      <trkpt lat="44.40498" lon="4.41155">
        <ele>108</ele>
        <time>2015-05-04T08:51:10Z</time>
      </trkpt>
      <trkpt lat="44.40481" lon="4.4117">
        <ele>106</ele>
        <time>2015-05-04T08:51:07Z</time>
      </trkpt>
      <trkpt lat="44.40466" lon="4.41192">
        <ele>106</ele>
        <time>2015-05-04T08:51:04Z</time>
      </trkpt>
      <trkpt lat="44.40456" lon="4.4122">
        <ele>106</ele>
        <time>2015-05-04T08:51:01Z</time>
      </trkpt>
      <trkpt lat="44.40444" lon="4.41247">
        <ele>108</ele>
        <time>2015-05-04T08:50:58Z</time>
      </trkpt>
      <trkpt lat="44.40429" lon="4.41271">
        <ele>107</ele>
        <time>2015-05-04T08:50:55Z</time>
      </trkpt>
      <trkpt lat="44.40418" lon="4.41286">
        <ele>105</ele>
        <time>2015-05-04T08:50:53Z</time>
      </trkpt>
      <trkpt lat="44.40407" lon="4.41301">
        <ele>117</ele>
        <time>2015-05-04T08:50:51Z</time>
      </trkpt>
      <trkpt lat="44.4039" lon="4.41325">
        <ele>117</ele>
        <time>2015-05-04T08:50:48Z</time>
      </trkpt>
      <trkpt lat="44.4038" lon="4.41342">
        <ele>110</ele>
        <time>2015-05-04T08:50:46Z</time>
      </trkpt>
      <trkpt lat="44.40374" lon="4.41362">
        <ele>109</ele>
        <time>2015-05-04T08:50:44Z</time>
      </trkpt>
      <trkpt lat="44.40382" lon="4.41395">
        <ele>105</ele>
        <time>2015-05-04T08:50:41Z</time>
      </trkpt>
      <trkpt lat="44.4039" lon="4.41415">
        <ele>103</ele>
        <time>2015-05-04T08:50:39Z</time>
      </trkpt>
      <trkpt lat="44.40402" lon="4.41447">
        <ele>96</ele>
        <time>2015-05-04T08:50:36Z</time>
      </trkpt>
      <trkpt lat="44.40414" lon="4.4148">
        <ele>95</ele>
        <time>2015-05-04T08:50:33Z</time>
      </trkpt>
      <trkpt lat="44.40423" lon="4.41503">
        <ele>97</ele>
        <time>2015-05-04T08:50:31Z</time>
      </trkpt>
      <trkpt lat="44.40427" lon="4.41531">
        <ele>101</ele>
        <time>2015-05-04T08:50:29Z</time>
      </trkpt>
      <trkpt lat="44.40421" lon="4.41561">
        <ele>104</ele>
        <time>2015-05-04T08:50:27Z</time>
      </trkpt>
      <trkpt lat="44.40395" lon="4.41596">
        <ele>110</ele>
        <time>2015-05-04T08:50:24Z</time>
      </trkpt>
      <trkpt lat="44.40361" lon="4.4162">
        <ele>112</ele>
        <time>2015-05-04T08:50:21Z</time>
      </trkpt>
      <trkpt lat="44.40333" lon="4.41651">
        <ele>110</ele>
        <time>2015-05-04T08:50:18Z</time>
      </trkpt>
      <trkpt lat="44.40316" lon="4.41694">
        <ele>115</ele>
        <time>2015-05-04T08:50:15Z</time>
      </trkpt>
      <trkpt lat="44.40289" lon="4.41726">
        <ele>115</ele>
        <time>2015-05-04T08:50:12Z</time>
      </trkpt>
      <trkpt lat="44.40275" lon="4.41753">
        <ele>122</ele>
        <time>2015-05-04T08:50:10Z</time>
      </trkpt>
      <trkpt lat="44.40253" lon="4.41787">
        <ele>125</ele>
        <time>2015-05-04T08:50:07Z</time>
      </trkpt>
      <trkpt lat="44.40223" lon="4.41807">
        <ele>117</ele>
        <time>2015-05-04T08:50:04Z</time>
      </trkpt>
      <trkpt lat="44.40205" lon="4.41822">
        <ele>116</ele>
        <time>2015-05-04T08:50:02Z</time>
      </trkpt>
      <trkpt lat="44.40189" lon="4.41839">
        <ele>126</ele>
        <time>2015-05-04T08:50:00Z</time>
      </trkpt>
      <trkpt lat="44.40174" lon="4.41852">
        <ele>126</ele>
        <time>2015-05-04T08:49:58Z</time>
      </trkpt>
      <trkpt lat="44.40159" lon="4.41863">
        <ele>120</ele>
        <time>2015-05-04T08:49:56Z</time>
      </trkpt>
      <trkpt lat="44.40159" lon="4.4189">
        <ele>125</ele>
        <time>2015-05-04T08:49:53Z</time>
      </trkpt>
      <trkpt lat="44.40173" lon="4.41889">
        <ele>133</ele>
        <time>2015-05-04T08:49:51Z</time>
      </trkpt>
      <trkpt lat="44.40194" lon="4.41857">
        <ele>130</ele>
        <time>2015-05-04T08:49:48Z</time>
      </trkpt>
      <trkpt lat="44.40225" lon="4.41838">
        <ele>131</ele>
        <time>2015-05-04T08:49:45Z</time>
      </trkpt>
      <trkpt lat="44.40247" lon="4.41847">
        <ele>132</ele>
        <time>2015-05-04T08:49:43Z</time>
      </trkpt>
      <trkpt lat="44.40278" lon="4.41861">
        <ele>143</ele>
        <time>2015-05-04T08:49:40Z</time>
      </trkpt>
      <trkpt lat="44.40297" lon="4.41845">
        <ele>144</ele>
        <time>2015-05-04T08:49:38Z</time>
      </trkpt>
      <trkpt lat="44.40313" lon="4.41821">
        <ele>136</ele>
        <time>2015-05-04T08:49:36Z</time>
      </trkpt>
      <trkpt lat="44.40339" lon="4.41785">
        <ele>142</ele>
        <time>2015-05-04T08:49:33Z</time>
      </trkpt>
      <trkpt lat="44.40374" lon="4.41772">
        <ele>144</ele>
        <time>2015-05-04T08:49:30Z</time>
      </trkpt>
      <trkpt lat="44.40397" lon="4.4176">
        <ele>146</ele>
        <time>2015-05-04T08:49:28Z</time>
      </trkpt>
      <trkpt lat="44.40417" lon="4.41742">
        <ele>147</ele>
        <time>2015-05-04T08:49:26Z</time>
      </trkpt>
      <trkpt lat="44.40439" lon="4.4173">
        <ele>144</ele>
        <time>2015-05-04T08:49:24Z</time>
      </trkpt>
      <trkpt lat="44.40475" lon="4.41722">
        <ele>145</ele>
        <time>2015-05-04T08:49:21Z</time>
      </trkpt>
      <trkpt lat="44.40511" lon="4.41719">
        <ele>151</ele>
        <time>2015-05-04T08:49:18Z</time>
      </trkpt>
      <trkpt lat="44.40534" lon="4.41719">
        <ele>151</ele>
        <time>2015-05-04T08:49:16Z</time>
      </trkpt>
      <trkpt lat="44.40558" lon="4.41724">
        <ele>153</ele>
        <time>2015-05-04T08:49:14Z</time>
      </trkpt>
      <trkpt lat="44.40591" lon="4.41737">
        <ele>154</ele>
        <time>2015-05-04T08:49:11Z</time>
      </trkpt>
      <trkpt lat="44.40606" lon="4.4176">
        <ele>159</ele>
        <time>2015-05-04T08:49:09Z</time>
      </trkpt>
      <trkpt lat="44.40616" lon="4.41806">
        <ele>161</ele>
        <time>2015-05-04T08:49:06Z</time>
      </trkpt>
      <trkpt lat="44.40627" lon="4.41834">
        <ele>169</ele>
        <time>2015-05-04T08:49:04Z</time>
      </trkpt>
      <trkpt lat="44.4065" lon="4.4187">
        <ele>170</ele>
        <time>2015-05-04T08:49:01Z</time>
      </trkpt>
      <trkpt lat="44.40673" lon="4.41905">
        <ele>173</ele>
        <time>2015-05-04T08:48:58Z</time>
      </trkpt>
      <trkpt lat="44.40695" lon="4.41912">
        <ele>172</ele>
        <time>2015-05-04T08:48:56Z</time>
      </trkpt>
      <trkpt lat="44.40717" lon="4.41901">
        <ele>172</ele>
        <time>2015-05-04T08:48:54Z</time>
      </trkpt>
      <trkpt lat="44.4074" lon="4.4189">
        <ele>173</ele>
        <time>2015-05-04T08:48:52Z</time>
      </trkpt>
      <trkpt lat="44.40775" lon="4.41892">
        <ele>175</ele>
        <time>2015-05-04T08:48:49Z</time>
      </trkpt>
      <trkpt lat="44.40798" lon="4.41898">
        <ele>176</ele>
        <time>2015-05-04T08:48:47Z</time>
      </trkpt>
      <trkpt lat="44.4082" lon="4.41898">
        <ele>178</ele>
        <time>2015-05-04T08:48:45Z</time>
      </trkpt>
      <trkpt lat="44.40852" lon="4.41884">
        <ele>183</ele>
        <time>2015-05-04T08:48:42Z</time>
      </trkpt>
      <trkpt lat="44.40881" lon="4.41867">
        <ele>184</ele>
        <time>2015-05-04T08:48:39Z</time>
      </trkpt>
      <trkpt lat="44.409" lon="4.41856">
        <ele>184</ele>
        <time>2015-05-04T08:48:37Z</time>
      </trkpt>
      <trkpt lat="44.40928" lon="4.41843">
        <ele>187</ele>
        <time>2015-05-04T08:48:34Z</time>
      </trkpt>
      <trkpt lat="44.40947" lon="4.41839">
        <ele>189</ele>
        <time>2015-05-04T08:48:32Z</time>
      </trkpt>
      <trkpt lat="44.40974" lon="4.41836">
        <ele>188</ele>
        <time>2015-05-04T08:48:29Z</time>
      </trkpt>
      <trkpt lat="44.40993" lon="4.41855">
        <ele>189</ele>
        <time>2015-05-04T08:48:26Z</time>
      </trkpt>
      <trkpt lat="44.40976" lon="4.41878">
        <ele>194</ele>
        <time>2015-05-04T08:48:23Z</time>
      </trkpt>
      <trkpt lat="44.40955" lon="4.41882">
        <ele>194</ele>
        <time>2015-05-04T08:48:21Z</time>
      </trkpt>
      <trkpt lat="44.40932" lon="4.41892">
        <ele>196</ele>
        <time>2015-05-04T08:48:19Z</time>
      </trkpt>
      <trkpt lat="44.40912" lon="4.4191">
        <ele>198</ele>
        <time>2015-05-04T08:48:17Z</time>
      </trkpt>
      <trkpt lat="44.40896" lon="4.41933">
        <ele>204</ele>
        <time>2015-05-04T08:48:15Z</time>
      </trkpt>
      <trkpt lat="44.40871" lon="4.41967">
        <ele>205</ele>
        <time>2015-05-04T08:48:12Z</time>
      </trkpt>
      <trkpt lat="44.40844" lon="4.41996">
        <ele>206</ele>
        <time>2015-05-04T08:48:09Z</time>
      </trkpt>
      <trkpt lat="44.40825" lon="4.42013">
        <ele>207</ele>
        <time>2015-05-04T08:48:07Z</time>
      </trkpt>
      <trkpt lat="44.40795" lon="4.42037">
        <ele>208</ele>
        <time>2015-05-04T08:48:04Z</time>
      </trkpt>
      <trkpt lat="44.40776" lon="4.42053">
        <ele>208</ele>
        <time>2015-05-04T08:48:02Z</time>
      </trkpt>
      <trkpt lat="44.40766" lon="4.42095">
        <ele>213</ele>
        <time>2015-05-04T08:47:59Z</time>
      </trkpt>
      <trkpt lat="44.40786" lon="4.4213">
        <ele>218</ele>
        <time>2015-05-04T08:47:56Z</time>
      </trkpt>
      <trkpt lat="44.40804" lon="4.42149">
        <ele>219</ele>
        <time>2015-05-04T08:47:54Z</time>
      </trkpt>
      <trkpt lat="44.40822" lon="4.42168">
        <ele>224</ele>
        <time>2015-05-04T08:47:52Z</time>
      </trkpt>
      <trkpt lat="44.40839" lon="4.42187">
        <ele>226</ele>
        <time>2015-05-04T08:47:50Z</time>
      </trkpt>
      <trkpt lat="44.40862" lon="4.42217">
        <ele>227</ele>
        <time>2015-05-04T08:47:47Z</time>
      </trkpt>
      <trkpt lat="44.40863" lon="4.42257">
        <ele>229</ele>
        <time>2015-05-04T08:47:44Z</time>
      </trkpt>
      <trkpt lat="44.40836" lon="4.4227">
        <ele>229</ele>
        <time>2015-05-04T08:47:41Z</time>
      </trkpt>
      <trkpt lat="44.40806" lon="4.42266">
        <ele>231</ele>
        <time>2015-05-04T08:47:38Z</time>
      </trkpt>
      <trkpt lat="44.40777" lon="4.42261">
        <ele>232</ele>
        <time>2015-05-04T08:47:35Z</time>
      </trkpt>
      <trkpt lat="44.40758" lon="4.42257">
        <ele>231</ele>
        <time>2015-05-04T08:47:33Z</time>
      </trkpt>
      <trkpt lat="44.40739" lon="4.42254">
        <ele>233</ele>
        <time>2015-05-04T08:47:31Z</time>
      </trkpt>
      <trkpt lat="44.40712" lon="4.42246">
        <ele>229</ele>
        <time>2015-05-04T08:47:28Z</time>
      </trkpt>
      <trkpt lat="44.40687" lon="4.42233">
        <ele>230</ele>
        <time>2015-05-04T08:47:25Z</time>
      </trkpt>
      <trkpt lat="44.4067" lon="4.42224">
        <ele>230</ele>
        <time>2015-05-04T08:47:23Z</time>
      </trkpt>
      <trkpt lat="44.40645" lon="4.42227">
        <ele>226</ele>
        <time>2015-05-04T08:47:20Z</time>
      </trkpt>
      <trkpt lat="44.40634" lon="4.42247">
        <ele>226</ele>
        <time>2015-05-04T08:47:18Z</time>
      </trkpt>
      <trkpt lat="44.4063" lon="4.42287">
        <ele>228</ele>
        <time>2015-05-04T08:47:15Z</time>
      </trkpt>
      <trkpt lat="44.40626" lon="4.42327">
        <ele>229</ele>
        <time>2015-05-04T08:47:12Z</time>
      </trkpt>
      <trkpt lat="44.40623" lon="4.42354">
        <ele>232</ele>
        <time>2015-05-04T08:47:10Z</time>
      </trkpt>
      <trkpt lat="44.40619" lon="4.42381">
        <ele>233</ele>
        <time>2015-05-04T08:47:08Z</time>
      </trkpt>
      <trkpt lat="44.40609" lon="4.42421">
        <ele>238</ele>
        <time>2015-05-04T08:47:05Z</time>
      </trkpt>
      <trkpt lat="44.406" lon="4.42446">
        <ele>239</ele>
        <time>2015-05-04T08:47:03Z</time>
      </trkpt>
      <trkpt lat="44.40586" lon="4.42483">
        <ele>240</ele>
        <time>2015-05-04T08:47:00Z</time>
      </trkpt>
      <trkpt lat="44.40573" lon="4.42521">
        <ele>240</ele>
        <time>2015-05-04T08:46:57Z</time>
      </trkpt>
      <trkpt lat="44.40562" lon="4.4256">
        <ele>241</ele>
        <time>2015-05-04T08:46:54Z</time>
      </trkpt>
      <trkpt lat="44.40551" lon="4.42598">
        <ele>245</ele>
        <time>2015-05-04T08:46:51Z</time>
      </trkpt>
      <trkpt lat="44.40535" lon="4.42633">
        <ele>246</ele>
        <time>2015-05-04T08:46:48Z</time>
      </trkpt>
      <trkpt lat="44.40519" lon="4.42648">
        <ele>246</ele>
        <time>2015-05-04T08:46:46Z</time>
      </trkpt>
      <trkpt lat="44.40499" lon="4.42655">
        <ele>246</ele>
        <time>2015-05-04T08:46:44Z</time>
      </trkpt>
      <trkpt lat="44.40469" lon="4.4266">
        <ele>246</ele>
        <time>2015-05-04T08:46:41Z</time>
      </trkpt>
      <trkpt lat="44.4044" lon="4.42669">
        <ele>250</ele>
        <time>2015-05-04T08:46:38Z</time>
      </trkpt>
      <trkpt lat="44.40414" lon="4.42687">
        <ele>249</ele>
        <time>2015-05-04T08:46:35Z</time>
      </trkpt>
      <trkpt lat="44.404" lon="4.42705">
        <ele>249</ele>
        <time>2015-05-04T08:46:33Z</time>
      </trkpt>
      <trkpt lat="44.40384" lon="4.42738">
        <ele>249</ele>
        <time>2015-05-04T08:46:30Z</time>
      </trkpt>
      <trkpt lat="44.40377" lon="4.42762">
        <ele>251</ele>
        <time>2015-05-04T08:46:28Z</time>
      </trkpt>
      <trkpt lat="44.40374" lon="4.42802">
        <ele>251</ele>
        <time>2015-05-04T08:46:25Z</time>
      </trkpt>
      <trkpt lat="44.40379" lon="4.42841">
        <ele>254</ele>
        <time>2015-05-04T08:46:22Z</time>
      </trkpt>
      <trkpt lat="44.40386" lon="4.42867">
        <ele>254</ele>
        <time>2015-05-04T08:46:20Z</time>
      </trkpt>
      <trkpt lat="44.404" lon="4.42903">
        <ele>257</ele>
        <time>2015-05-04T08:46:17Z</time>
      </trkpt>
      <trkpt lat="44.40413" lon="4.4294">
        <ele>257</ele>
        <time>2015-05-04T08:46:14Z</time>
      </trkpt>
      <trkpt lat="44.40427" lon="4.42976">
        <ele>261</ele>
        <time>2015-05-04T08:46:11Z</time>
      </trkpt>
      <trkpt lat="44.40441" lon="4.43012">
        <ele>260</ele>
        <time>2015-05-04T08:46:08Z</time>
      </trkpt>
      <trkpt lat="44.40457" lon="4.43044">
        <ele>261</ele>
        <time>2015-05-04T08:46:05Z</time>
      </trkpt>
      <trkpt lat="44.4047" lon="4.43063">
        <ele>262</ele>
        <time>2015-05-04T08:46:03Z</time>
      </trkpt>
      <trkpt lat="44.40485" lon="4.4308">
        <ele>263</ele>
        <time>2015-05-04T08:46:01Z</time>
      </trkpt>
      <trkpt lat="44.40507" lon="4.43103">
        <ele>264</ele>
        <time>2015-05-04T08:45:58Z</time>
      </trkpt>
      <trkpt lat="44.4053" lon="4.43127">
        <ele>265</ele>
        <time>2015-05-04T08:45:55Z</time>
      </trkpt>
      <trkpt lat="44.40545" lon="4.43143">
        <ele>265</ele>
        <time>2015-05-04T08:45:53Z</time>
      </trkpt>
      <trkpt lat="44.40562" lon="4.43157">
        <ele>265</ele>
        <time>2015-05-04T08:45:51Z</time>
      </trkpt>
      <trkpt lat="44.40587" lon="4.43175">
        <ele>266</ele>
        <time>2015-05-04T08:45:48Z</time>
      </trkpt>
      <trkpt lat="44.40606" lon="4.4321">
        <ele>266</ele>
        <time>2015-05-04T08:45:45Z</time>
      </trkpt>
      <trkpt lat="44.40622" lon="4.43229">
        <ele>266</ele>
        <time>2015-05-04T08:45:43Z</time>
      </trkpt>
      <trkpt lat="44.40648" lon="4.43258">
        <ele>268</ele>
        <time>2015-05-04T08:45:40Z</time>
      </trkpt>
      <trkpt lat="44.40664" lon="4.43279">
        <ele>268</ele>
        <time>2015-05-04T08:45:38Z</time>
      </trkpt>
      <trkpt lat="44.40682" lon="4.4332">
        <ele>266</ele>
        <time>2015-05-04T08:45:35Z</time>
      </trkpt>
      <trkpt lat="44.40688" lon="4.4335">
        <ele>267</ele>
        <time>2015-05-04T08:45:33Z</time>
      </trkpt>
      <trkpt lat="44.40691" lon="4.43383">
        <ele>267</ele>
        <time>2015-05-04T08:45:31Z</time>
      </trkpt>
      <trkpt lat="44.40686" lon="4.43416">
        <ele>269</ele>
        <time>2015-05-04T08:45:29Z</time>
      </trkpt>
      <trkpt lat="44.40674" lon="4.43466">
        <ele>272</ele>
        <time>2015-05-04T08:45:26Z</time>
      </trkpt>
      <trkpt lat="44.40668" lon="4.43502">
        <ele>274</ele>
        <time>2015-05-04T08:45:24Z</time>
      </trkpt>
      <trkpt lat="44.40679" lon="4.43554">
        <ele>277</ele>
        <time>2015-05-04T08:45:21Z</time>
      </trkpt>
      <trkpt lat="44.40691" lon="4.43587">
        <ele>281</ele>
        <time>2015-05-04T08:45:19Z</time>
      </trkpt>
      <trkpt lat="44.40697" lon="4.43623">
        <ele>282</ele>
        <time>2015-05-04T08:45:17Z</time>
      </trkpt>
      <trkpt lat="44.40703" lon="4.43678">
        <ele>287</ele>
        <time>2015-05-04T08:45:14Z</time>
      </trkpt>
      <trkpt lat="44.40707" lon="4.43715">
        <ele>288</ele>
        <time>2015-05-04T08:45:12Z</time>
      </trkpt>
      <trkpt lat="44.40713" lon="4.4377">
        <ele>293</ele>
        <time>2015-05-04T08:45:09Z</time>
      </trkpt>
      <trkpt lat="44.40716" lon="4.43808">
        <ele>294</ele>
        <time>2015-05-04T08:45:07Z</time>
      </trkpt>
      <trkpt lat="44.40712" lon="4.43864">
        <ele>300</ele>
        <time>2015-05-04T08:45:04Z</time>
      </trkpt>
      <trkpt lat="44.40707" lon="4.43901">
        <ele>302</ele>
        <time>2015-05-04T08:45:02Z</time>
      </trkpt>
      <trkpt lat="44.40699" lon="4.43955">
        <ele>309</ele>
        <time>2015-05-04T08:44:59Z</time>
      </trkpt>
      <trkpt lat="44.40689" lon="4.44006">
        <ele>315</ele>
        <time>2015-05-04T08:44:56Z</time>
      </trkpt>
      <trkpt lat="44.40678" lon="4.44038">
        <ele>316</ele>
        <time>2015-05-04T08:44:54Z</time>
      </trkpt>
      <trkpt lat="44.40664" lon="4.44087">
        <ele>319</ele>
        <time>2015-05-04T08:44:51Z</time>
      </trkpt>
      <trkpt lat="44.40657" lon="4.44137">
        <ele>330</ele>
        <time>2015-05-04T08:44:48Z</time>
      </trkpt>
      <trkpt lat="44.40648" lon="4.44185">
        <ele>334</ele>
        <time>2015-05-04T08:44:45Z</time>
      </trkpt>
      <trkpt lat="44.40637" lon="4.44215">
        <ele>337</ele>
        <time>2015-05-04T08:44:43Z</time>
      </trkpt>
      <trkpt lat="44.40621" lon="4.44259">
        <ele>340</ele>
        <time>2015-05-04T08:44:40Z</time>
      </trkpt>
      <trkpt lat="44.40614" lon="4.44291">
        <ele>340</ele>
        <time>2015-05-04T08:44:38Z</time>
      </trkpt>
      <trkpt lat="44.40614" lon="4.44324">
        <ele>340</ele>
        <time>2015-05-04T08:44:36Z</time>
      </trkpt>
      <trkpt lat="44.40621" lon="4.44372">
        <ele>342</ele>
        <time>2015-05-04T08:44:33Z</time>
      </trkpt>
      <trkpt lat="44.40626" lon="4.44405">
        <ele>343</ele>
        <time>2015-05-04T08:44:31Z</time>
      </trkpt>
      <trkpt lat="44.40631" lon="4.44438">
        <ele>343</ele>
        <time>2015-05-04T08:44:29Z</time>
      </trkpt>
      <trkpt lat="44.40636" lon="4.44488">
        <ele>344</ele>
        <time>2015-05-04T08:44:26Z</time>
      </trkpt>
      <trkpt lat="44.40636" lon="4.44522">
        <ele>347</ele>
        <time>2015-05-04T08:44:24Z</time>
      </trkpt>
      <trkpt lat="44.40633" lon="4.44556">
        <ele>348</ele>
        <time>2015-05-04T08:44:22Z</time>
      </trkpt>
      <trkpt lat="44.40628" lon="4.44609">
        <ele>352</ele>
        <time>2015-05-04T08:44:19Z</time>
      </trkpt>
      <trkpt lat="44.40625" lon="4.44645">
        <ele>351</ele>
        <time>2015-05-04T08:44:17Z</time>
      </trkpt>
      <trkpt lat="44.40621" lon="4.44682">
        <ele>352</ele>
        <time>2015-05-04T08:44:15Z</time>
      </trkpt>
      <trkpt lat="44.40613" lon="4.44737">
        <ele>351</ele>
        <time>2015-05-04T08:44:12Z</time>
      </trkpt>
      <trkpt lat="44.40606" lon="4.44773">
        <ele>353</ele>
        <time>2015-05-04T08:44:10Z</time>
      </trkpt>
      <trkpt lat="44.40599" lon="4.44808">
        <ele>353</ele>
        <time>2015-05-04T08:44:08Z</time>
      </trkpt>
      <trkpt lat="44.40589" lon="4.44861">
        <ele>354</ele>
        <time>2015-05-04T08:44:05Z</time>
      </trkpt>
      <trkpt lat="44.40588" lon="4.44897">
        <ele>354</ele>
        <time>2015-05-04T08:44:03Z</time>
      </trkpt>
      <trkpt lat="44.40589" lon="4.44932">
        <ele>356</ele>
        <time>2015-05-04T08:44:01Z</time>
      </trkpt>
      <trkpt lat="44.40591" lon="4.44985">
        <ele>358</ele>
        <time>2015-05-04T08:43:58Z</time>
      </trkpt>
      <trkpt lat="44.40593" lon="4.45019">
        <ele>361</ele>
        <time>2015-05-04T08:43:56Z</time>
      </trkpt>
      <trkpt lat="44.40591" lon="4.4507">
        <ele>361</ele>
        <time>2015-05-04T08:43:53Z</time>
      </trkpt>
      <trkpt lat="44.40586" lon="4.45102">
        <ele>365</ele>
        <time>2015-05-04T08:43:51Z</time>
      </trkpt>
      <trkpt lat="44.40578" lon="4.4515">
        <ele>363</ele>
        <time>2015-05-04T08:43:48Z</time>
      </trkpt>
      <trkpt lat="44.40575" lon="4.45183">
        <ele>365</ele>
        <time>2015-05-04T08:43:46Z</time>
      </trkpt>
      <trkpt lat="44.40576" lon="4.45232">
        <ele>366</ele>
        <time>2015-05-04T08:43:43Z</time>
      </trkpt>
      <trkpt lat="44.40581" lon="4.45265">
        <ele>369</ele>
        <time>2015-05-04T08:43:41Z</time>
      </trkpt>
      <trkpt lat="44.40588" lon="4.45296">
        <ele>373</ele>
        <time>2015-05-04T08:43:39Z</time>
      </trkpt>
      <trkpt lat="44.40603" lon="4.45339">
        <ele>374</ele>
        <time>2015-05-04T08:43:36Z</time>
      </trkpt>
      <trkpt lat="44.40616" lon="4.45366">
        <ele>376</ele>
        <time>2015-05-04T08:43:34Z</time>
      </trkpt>
      <trkpt lat="44.40634" lon="4.45403">
        <ele>378</ele>
        <time>2015-05-04T08:43:31Z</time>
      </trkpt>
      <trkpt lat="44.40646" lon="4.45428">
        <ele>381</ele>
        <time>2015-05-04T08:43:29Z</time>
      </trkpt>
      <trkpt lat="44.40656" lon="4.45452">
        <ele>382</ele>
        <time>2015-05-04T08:43:27Z</time>
      </trkpt>
      <trkpt lat="44.40658" lon="4.4548">
        <ele>381</ele>
        <time>2015-05-04T08:43:25Z</time>
      </trkpt>
      <trkpt lat="44.40636" lon="4.45508">
        <ele>386</ele>
        <time>2015-05-04T08:43:22Z</time>
      </trkpt>
      <trkpt lat="44.40615" lon="4.45501">
        <ele>388</ele>
        <time>2015-05-04T08:43:20Z</time>
      </trkpt>
      <trkpt lat="44.40589" lon="4.45466">
        <ele>384</ele>
        <time>2015-05-04T08:43:17Z</time>
      </trkpt>
      <trkpt lat="44.40572" lon="4.4544">
        <ele>390</ele>
        <time>2015-05-04T08:43:15Z</time>
      </trkpt>
      <trkpt lat="44.40545" lon="4.45401">
        <ele>385</ele>
        <time>2015-05-04T08:43:12Z</time>
      </trkpt>
      <trkpt lat="44.40527" lon="4.45375">
        <ele>385</ele>
        <time>2015-05-04T08:43:10Z</time>
      </trkpt>
      <trkpt lat="44.40503" lon="4.45331">
        <ele>382</ele>
        <time>2015-05-04T08:43:07Z</time>
      </trkpt>
      <trkpt lat="44.40488" lon="4.45302">
        <ele>385</ele>
        <time>2015-05-04T08:43:05Z</time>
      </trkpt>
      <trkpt lat="44.40469" lon="4.45278">
        <ele>385</ele>
        <time>2015-05-04T08:43:03Z</time>
      </trkpt>
      <trkpt lat="44.40445" lon="4.45266">
        <ele>387</ele>
        <time>2015-05-04T08:43:01Z</time>
      </trkpt>
      <trkpt lat="44.40408" lon="4.45265">
        <ele>395</ele>
        <time>2015-05-04T08:42:58Z</time>
      </trkpt>
      <trkpt lat="44.40385" lon="4.45266">
        <ele>398</ele>
        <time>2015-05-04T08:42:56Z</time>
      </trkpt>
      <trkpt lat="44.4035" lon="4.45259">
        <ele>401</ele>
        <time>2015-05-04T08:42:53Z</time>
      </trkpt>
      <trkpt lat="44.4033" lon="4.45246">
        <ele>401</ele>
        <time>2015-05-04T08:42:51Z</time>
      </trkpt>
      <trkpt lat="44.40304" lon="4.45219">
        <ele>400</ele>
        <time>2015-05-04T08:42:48Z</time>
      </trkpt>
      <trkpt lat="44.40289" lon="4.45198">
        <ele>400</ele>
        <time>2015-05-04T08:42:46Z</time>
      </trkpt>
      <trkpt lat="44.40267" lon="4.45169">
        <ele>402</ele>
        <time>2015-05-04T08:42:43Z</time>
      </trkpt>
      <trkpt lat="44.40246" lon="4.45143">
        <ele>406</ele>
        <time>2015-05-04T08:42:40Z</time>
      </trkpt>
      <trkpt lat="44.40223" lon="4.45131">
        <ele>407</ele>
        <time>2015-05-04T08:42:37Z</time>
      </trkpt>
      <trkpt lat="44.40202" lon="4.45138">
        <ele>407</ele>
        <time>2015-05-04T08:42:34Z</time>
      </trkpt>
      <trkpt lat="44.40191" lon="4.4515">
        <ele>407</ele>
        <time>2015-05-04T08:42:32Z</time>
      </trkpt>
      <trkpt lat="44.40184" lon="4.45175">
        <ele>408</ele>
        <time>2015-05-04T08:42:29Z</time>
      </trkpt>
      <trkpt lat="44.40181" lon="4.45203">
        <ele>408</ele>
        <time>2015-05-04T08:42:26Z</time>
      </trkpt>
      <trkpt lat="44.40179" lon="4.45233">
        <ele>408</ele>
        <time>2015-05-04T08:42:23Z</time>
      </trkpt>
      <trkpt lat="44.40178" lon="4.45253">
        <ele>409</ele>
        <time>2015-05-04T08:42:21Z</time>
      </trkpt>
      <trkpt lat="44.40176" lon="4.45283">
        <ele>409</ele>
        <time>2015-05-04T08:42:18Z</time>
      </trkpt>
      <trkpt lat="44.40174" lon="4.45303">
        <ele>409</ele>
        <time>2015-05-04T08:42:16Z</time>
      </trkpt>
      <trkpt lat="44.40173" lon="4.45334">
        <ele>410</ele>
        <time>2015-05-04T08:42:13Z</time>
      </trkpt>
      <trkpt lat="44.40171" lon="4.45364">
        <ele>411</ele>
        <time>2015-05-04T08:42:10Z</time>
      </trkpt>
      <trkpt lat="44.40169" lon="4.45384">
        <ele>411</ele>
        <time>2015-05-04T08:42:08Z</time>
      </trkpt>
      <trkpt lat="44.40168" lon="4.45405">
        <ele>412</ele>
        <time>2015-05-04T08:42:06Z</time>
      </trkpt>
      <trkpt lat="44.40167" lon="4.45425">
        <ele>412</ele>
        <time>2015-05-04T08:42:04Z</time>
      </trkpt>
      <trkpt lat="44.40165" lon="4.45445">
        <ele>411</ele>
        <time>2015-05-04T08:42:02Z</time>
      </trkpt>
      <trkpt lat="44.40163" lon="4.45475">
        <ele>411</ele>
        <time>2015-05-04T08:41:59Z</time>
      </trkpt>
      <trkpt lat="44.40162" lon="4.45504">
        <ele>410</ele>
        <time>2015-05-04T08:41:56Z</time>
      </trkpt>
      <trkpt lat="44.40164" lon="4.45533">
        <ele>409</ele>
        <time>2015-05-04T08:41:53Z</time>
      </trkpt>
      <trkpt lat="44.40168" lon="4.45562">
        <ele>411</ele>
        <time>2015-05-04T08:41:50Z</time>
      </trkpt>
      <trkpt lat="44.40175" lon="4.45591">
        <ele>410</ele>
        <time>2015-05-04T08:41:47Z</time>
      </trkpt>
      <trkpt lat="44.40179" lon="4.4561">
        <ele>410</ele>
        <time>2015-05-04T08:41:45Z</time>
      </trkpt>
      <trkpt lat="44.40185" lon="4.45629">
        <ele>409</ele>
        <time>2015-05-04T08:41:43Z</time>
      </trkpt>
      <trkpt lat="44.4019" lon="4.45647">
        <ele>409</ele>
        <time>2015-05-04T08:41:41Z</time>
      </trkpt>
      <trkpt lat="44.40199" lon="4.45676">
        <ele>407</ele>
        <time>2015-05-04T08:41:38Z</time>
      </trkpt>
      <trkpt lat="44.40204" lon="4.45695">
        <ele>408</ele>
        <time>2015-05-04T08:41:36Z</time>
      </trkpt>
      <trkpt lat="44.40213" lon="4.45725">
        <ele>408</ele>
        <time>2015-05-04T08:41:33Z</time>
      </trkpt>
      <trkpt lat="44.40218" lon="4.45746">
        <ele>408</ele>
        <time>2015-05-04T08:41:31Z</time>
      </trkpt>
      <trkpt lat="44.40225" lon="4.45767">
        <ele>409</ele>
        <time>2015-05-04T08:41:29Z</time>
      </trkpt>
      <trkpt lat="44.40231" lon="4.45788">
        <ele>409</ele>
        <time>2015-05-04T08:41:27Z</time>
      </trkpt>
      <trkpt lat="44.40237" lon="4.45809">
        <ele>410</ele>
        <time>2015-05-04T08:41:25Z</time>
      </trkpt>
      <trkpt lat="44.40246" lon="4.4584">
        <ele>412</ele>
        <time>2015-05-04T08:41:22Z</time>
      </trkpt>
      <trkpt lat="44.40255" lon="4.45872">
        <ele>415</ele>
        <time>2015-05-04T08:41:19Z</time>
      </trkpt>
      <trkpt lat="44.40261" lon="4.45893">
        <ele>414</ele>
        <time>2015-05-04T08:41:17Z</time>
      </trkpt>
      <trkpt lat="44.40267" lon="4.45914">
        <ele>414</ele>
        <time>2015-05-04T08:41:15Z</time>
      </trkpt>
      <trkpt lat="44.40273" lon="4.45935">
        <ele>414</ele>
        <time>2015-05-04T08:41:13Z</time>
      </trkpt>
      <trkpt lat="44.40282" lon="4.45967">
        <ele>415</ele>
        <time>2015-05-04T08:41:10Z</time>
      </trkpt>
      <trkpt lat="44.40289" lon="4.45987">
        <ele>416</ele>
        <time>2015-05-04T08:41:08Z</time>
      </trkpt>
      <trkpt lat="44.40295" lon="4.46007">
        <ele>416</ele>
        <time>2015-05-04T08:41:06Z</time>
      </trkpt>
      <trkpt lat="44.40304" lon="4.46037">
        <ele>416</ele>
        <time>2015-05-04T08:41:03Z</time>
      </trkpt>
      <trkpt lat="44.40311" lon="4.46056">
        <ele>417</ele>
        <time>2015-05-04T08:41:01Z</time>
      </trkpt>
      <trkpt lat="44.40322" lon="4.46086">
        <ele>418</ele>
        <time>2015-05-04T08:40:58Z</time>
      </trkpt>
      <trkpt lat="44.40333" lon="4.46115">
        <ele>416</ele>
        <time>2015-05-04T08:40:55Z</time>
      </trkpt>
      <trkpt lat="44.40342" lon="4.46144">
        <ele>423</ele>
        <time>2015-05-04T08:40:52Z</time>
      </trkpt>
      <trkpt lat="44.40348" lon="4.46164">
        <ele>421</ele>
        <time>2015-05-04T08:40:50Z</time>
      </trkpt>
      <trkpt lat="44.40356" lon="4.46193">
        <ele>423</ele>
        <time>2015-05-04T08:40:47Z</time>
      </trkpt>
      <trkpt lat="44.40362" lon="4.46213">
        <ele>424</ele>
        <time>2015-05-04T08:40:45Z</time>
      </trkpt>
      <trkpt lat="44.40369" lon="4.46242">
        <ele>424</ele>
        <time>2015-05-04T08:40:42Z</time>
      </trkpt>
      <trkpt lat="44.40374" lon="4.46261">
        <ele>426</ele>
        <time>2015-05-04T08:40:40Z</time>
      </trkpt>
      <trkpt lat="44.40381" lon="4.46289">
        <ele>427</ele>
        <time>2015-05-04T08:40:37Z</time>
      </trkpt>
      <trkpt lat="44.40386" lon="4.46307">
        <ele>427</ele>
        <time>2015-05-04T08:40:35Z</time>
      </trkpt>
      <trkpt lat="44.4039" lon="4.46325">
        <ele>429</ele>
        <time>2015-05-04T08:40:33Z</time>
      </trkpt>
      <trkpt lat="44.40393" lon="4.46352">
        <ele>430</ele>
        <time>2015-05-04T08:40:30Z</time>
      </trkpt>
      <trkpt lat="44.40391" lon="4.46378">
        <ele>430</ele>
        <time>2015-05-04T08:40:27Z</time>
      </trkpt>
      <trkpt lat="44.40385" lon="4.46402">
        <ele>430</ele>
        <time>2015-05-04T08:40:24Z</time>
      </trkpt>
      <trkpt lat="44.40381" lon="4.46416">
        <ele>430</ele>
        <time>2015-05-04T08:40:22Z</time>
      </trkpt>
      <trkpt lat="44.40376" lon="4.4643">
        <ele>430</ele>
        <time>2015-05-04T08:40:20Z</time>
      </trkpt>
      <trkpt lat="44.40369" lon="4.46449">
        <ele>430</ele>
        <time>2015-05-04T08:40:17Z</time>
      </trkpt>
      <trkpt lat="44.40364" lon="4.46462">
        <ele>430</ele>
        <time>2015-05-04T08:40:15Z</time>
      </trkpt>
      <trkpt lat="44.4036" lon="4.46474">
        <ele>430</ele>
        <time>2015-05-04T08:40:13Z</time>
      </trkpt>
      <trkpt lat="44.40353" lon="4.4649">
        <ele>429</ele>
        <time>2015-05-04T08:40:10Z</time>
      </trkpt>
      <trkpt lat="44.4035" lon="4.46501">
        <ele>429</ele>
        <time>2015-05-04T08:40:08Z</time>
      </trkpt>
      <trkpt lat="44.40346" lon="4.46511">
        <ele>429</ele>
        <time>2015-05-04T08:40:06Z</time>
      </trkpt>
      <trkpt lat="44.4034" lon="4.46526">
        <ele>430</ele>
        <time>2015-05-04T08:40:03Z</time>
      </trkpt>
      <trkpt lat="44.40336" lon="4.46536">
        <ele>430</ele>
        <time>2015-05-04T08:40:01Z</time>
      </trkpt>
      <trkpt lat="44.40333" lon="4.46546">
        <ele>427</ele>
        <time>2015-05-04T08:39:59Z</time>
      </trkpt>
      <trkpt lat="44.40328" lon="4.46561">
        <ele>427</ele>
        <time>2015-05-04T08:39:56Z</time>
      </trkpt>
      <trkpt lat="44.40324" lon="4.46571">
        <ele>427</ele>
        <time>2015-05-04T08:39:54Z</time>
      </trkpt>
      <trkpt lat="44.4032" lon="4.46585">
        <ele>426</ele>
        <time>2015-05-04T08:39:51Z</time>
      </trkpt>
      <trkpt lat="44.40317" lon="4.46596">
        <ele>425</ele>
        <time>2015-05-04T08:39:49Z</time>
      </trkpt>
      <trkpt lat="44.40315" lon="4.46611">
        <ele>424</ele>
        <time>2015-05-04T08:39:46Z</time>
      </trkpt>
      <trkpt lat="44.40315" lon="4.46627">
        <ele>424</ele>
        <time>2015-05-04T08:39:43Z</time>
      </trkpt>
      <trkpt lat="44.40317" lon="4.46643">
        <ele>423</ele>
        <time>2015-05-04T08:39:40Z</time>
      </trkpt>
      <trkpt lat="44.40322" lon="4.46657">
        <ele>423</ele>
        <time>2015-05-04T08:39:37Z</time>
      </trkpt>
      <trkpt lat="44.40328" lon="4.46671">
        <ele>421</ele>
        <time>2015-05-04T08:39:34Z</time>
      </trkpt>
      <trkpt lat="44.40337" lon="4.46682">
        <ele>421</ele>
        <time>2015-05-04T08:39:31Z</time>
      </trkpt>
      <trkpt lat="44.40347" lon="4.46691">
        <ele>420</ele>
        <time>2015-05-04T08:39:28Z</time>
      </trkpt>
      <trkpt lat="44.40354" lon="4.46697">
        <ele>419</ele>
        <time>2015-05-04T08:39:26Z</time>
      </trkpt>
      <trkpt lat="44.40366" lon="4.46704">
        <ele>419</ele>
        <time>2015-05-04T08:39:23Z</time>
      </trkpt>
      <trkpt lat="44.40373" lon="4.46708">
        <ele>418</ele>
        <time>2015-05-04T08:39:21Z</time>
      </trkpt>
      <trkpt lat="44.40381" lon="4.46713">
        <ele>418</ele>
        <time>2015-05-04T08:39:19Z</time>
      </trkpt>
      <trkpt lat="44.40393" lon="4.4672">
        <ele>418</ele>
        <time>2015-05-04T08:39:16Z</time>
      </trkpt>
      <trkpt lat="44.40404" lon="4.46726">
        <ele>417</ele>
        <time>2015-05-04T08:39:13Z</time>
      </trkpt>
      <trkpt lat="44.40412" lon="4.4673">
        <ele>416</ele>
        <time>2015-05-04T08:39:11Z</time>
      </trkpt>
      <trkpt lat="44.40424" lon="4.46738">
        <ele>417</ele>
        <time>2015-05-04T08:39:08Z</time>
      </trkpt>
      <trkpt lat="44.40437" lon="4.46746">
        <ele>418</ele>
        <time>2015-05-04T08:39:05Z</time>
      </trkpt>
      <trkpt lat="44.4045" lon="4.46754">
        <ele>414</ele>
        <time>2015-05-04T08:39:02Z</time>
      </trkpt>
      <trkpt lat="44.40458" lon="4.46762">
        <ele>414</ele>
        <time>2015-05-04T08:39:00Z</time>
      </trkpt>
      <trkpt lat="44.40467" lon="4.4678">
        <ele>414</ele>
        <time>2015-05-04T08:38:57Z</time>
      </trkpt>
      <trkpt lat="44.40472" lon="4.46802">
        <ele>414</ele>
        <time>2015-05-04T08:38:54Z</time>
      </trkpt>
      <trkpt lat="44.4047" lon="4.46818">
        <ele>413</ele>
        <time>2015-05-04T08:38:52Z</time>
      </trkpt>
      <trkpt lat="44.40463" lon="4.46841">
        <ele>416</ele>
        <time>2015-05-04T08:38:49Z</time>
      </trkpt>
      <trkpt lat="44.40449" lon="4.46859">
        <ele>417</ele>
        <time>2015-05-04T08:38:46Z</time>
      </trkpt>
      <trkpt lat="44.40432" lon="4.46867">
        <ele>417</ele>
        <time>2015-05-04T08:38:43Z</time>
      </trkpt>
      <trkpt lat="44.4042" lon="4.46867">
        <ele>417</ele>
        <time>2015-05-04T08:38:41Z</time>
      </trkpt>
      <trkpt lat="44.40402" lon="4.46864">
        <ele>412</ele>
        <time>2015-05-04T08:38:38Z</time>
      </trkpt>
      <trkpt lat="44.40389" lon="4.46863">
        <ele>411</ele>
        <time>2015-05-04T08:38:36Z</time>
      </trkpt>
      <trkpt lat="44.4037" lon="4.46865">
        <ele>410</ele>
        <time>2015-05-04T08:38:33Z</time>
      </trkpt>
      <trkpt lat="44.40353" lon="4.46876">
        <ele>410</ele>
        <time>2015-05-04T08:38:30Z</time>
      </trkpt>
      <trkpt lat="44.40338" lon="4.46889">
        <ele>412</ele>
        <time>2015-05-04T08:38:27Z</time>
      </trkpt>
      <trkpt lat="44.40324" lon="4.46903">
        <ele>408</ele>
        <time>2015-05-04T08:38:24Z</time>
      </trkpt>
      <trkpt lat="44.40315" lon="4.46912">
        <ele>407</ele>
        <time>2015-05-04T08:38:22Z</time>
      </trkpt>
      <trkpt lat="44.40301" lon="4.46925">
        <ele>417</ele>
        <time>2015-05-04T08:38:19Z</time>
      </trkpt>
      <trkpt lat="44.40292" lon="4.46931">
        <ele>417</ele>
        <time>2015-05-04T08:38:17Z</time>
      </trkpt>
      <trkpt lat="44.40278" lon="4.46939">
        <ele>416</ele>
        <time>2015-05-04T08:38:14Z</time>
      </trkpt>
      <trkpt lat="44.40263" lon="4.46946">
        <ele>415</ele>
        <time>2015-05-04T08:38:11Z</time>
      </trkpt>
      <trkpt lat="44.4025" lon="4.46952">
        <ele>416</ele>
        <time>2015-05-04T08:38:08Z</time>
      </trkpt>
      <trkpt lat="44.40241" lon="4.46956">
        <ele>407</ele>
        <time>2015-05-04T08:38:06Z</time>
      </trkpt>
      <trkpt lat="44.40233" lon="4.4696">
        <ele>407</ele>
        <time>2015-05-04T08:38:04Z</time>
      </trkpt>
      <trkpt lat="44.40221" lon="4.46966">
        <ele>407</ele>
        <time>2015-05-04T08:38:01Z</time>
      </trkpt>
      <trkpt lat="44.40209" lon="4.46971">
        <ele>407</ele>
        <time>2015-05-04T08:37:58Z</time>
      </trkpt>
      <trkpt lat="44.40197" lon="4.46977">
        <ele>406</ele>
        <time>2015-05-04T08:37:55Z</time>
      </trkpt>
      <trkpt lat="44.40186" lon="4.46982">
        <ele>406</ele>
        <time>2015-05-04T08:37:52Z</time>
      </trkpt>
      <trkpt lat="44.40175" lon="4.46988">
        <ele>407</ele>
        <time>2015-05-04T08:37:49Z</time>
      </trkpt>
      <trkpt lat="44.40164" lon="4.46993">
        <ele>403</ele>
        <time>2015-05-04T08:37:46Z</time>
      </trkpt>
      <trkpt lat="44.40153" lon="4.46999">
        <ele>401</ele>
        <time>2015-05-04T08:37:43Z</time>
      </trkpt>
      <trkpt lat="44.40142" lon="4.47006">
        <ele>406</ele>
        <time>2015-05-04T08:37:40Z</time>
      </trkpt>
      <trkpt lat="44.40135" lon="4.47012">
        <ele>405</ele>
        <time>2015-05-04T08:37:38Z</time>
      </trkpt>
      <trkpt lat="44.40125" lon="4.47022">
        <ele>405</ele>
        <time>2015-05-04T08:37:35Z</time>
      </trkpt>
      <trkpt lat="44.40116" lon="4.47032">
        <ele>405</ele>
        <time>2015-05-04T08:37:32Z</time>
      </trkpt>
      <trkpt lat="44.4011" lon="4.4704">
        <ele>405</ele>
        <time>2015-05-04T08:37:30Z</time>
      </trkpt>
      <trkpt lat="44.40105" lon="4.47048">
        <ele>405</ele>
        <time>2015-05-04T08:37:28Z</time>
      </trkpt>
      <trkpt lat="44.401" lon="4.47056">
        <ele>405</ele>
        <time>2015-05-04T08:37:26Z</time>
      </trkpt>
      <trkpt lat="44.40093" lon="4.4707">
        <ele>405</ele>
        <time>2015-05-04T08:37:23Z</time>
      </trkpt>
      <trkpt lat="44.40087" lon="4.47085">
        <ele>405</ele>
        <time>2015-05-04T08:37:20Z</time>
      </trkpt>
      <trkpt lat="44.40083" lon="4.47095">
        <ele>403</ele>
        <time>2015-05-04T08:37:18Z</time>
      </trkpt>
      <trkpt lat="44.40078" lon="4.47111">
        <ele>402</ele>
        <time>2015-05-04T08:37:15Z</time>
      </trkpt>
      <trkpt lat="44.40073" lon="4.47127">
        <ele>401</ele>
        <time>2015-05-04T08:37:12Z</time>
      </trkpt>
      <trkpt lat="44.40068" lon="4.47142">
        <ele>401</ele>
        <time>2015-05-04T08:37:09Z</time>
      </trkpt>
      <trkpt lat="44.40064" lon="4.47157">
        <ele>402</ele>
        <time>2015-05-04T08:37:06Z</time>
      </trkpt>
      <trkpt lat="44.40059" lon="4.47172">
        <ele>402</ele>
        <time>2015-05-04T08:37:03Z</time>
      </trkpt>
      <trkpt lat="44.40052" lon="4.47186">
        <ele>402</ele>
        <time>2015-05-04T08:37:00Z</time>
      </trkpt>
      <trkpt lat="44.40045" lon="4.47198">
        <ele>402</ele>
        <time>2015-05-04T08:36:57Z</time>
      </trkpt>
      <trkpt lat="44.40036" lon="4.47209">
        <ele>402</ele>
        <time>2015-05-04T08:36:54Z</time>
      </trkpt>
      <trkpt lat="44.40029" lon="4.47215">
        <ele>401</ele>
        <time>2015-05-04T08:36:52Z</time>
      </trkpt>
      <trkpt lat="44.40019" lon="4.47224">
        <ele>401</ele>
        <time>2015-05-04T08:36:49Z</time>
      </trkpt>
      <trkpt lat="44.40009" lon="4.47233">
        <ele>400</ele>
        <time>2015-05-04T08:36:46Z</time>
      </trkpt>
      <trkpt lat="44.40002" lon="4.47238">
        <ele>400</ele>
        <time>2015-05-04T08:36:44Z</time>
      </trkpt>
      <trkpt lat="44.39992" lon="4.47245">
        <ele>398</ele>
        <time>2015-05-04T08:36:41Z</time>
      </trkpt>
      <trkpt lat="44.39983" lon="4.47254">
        <ele>398</ele>
        <time>2015-05-04T08:36:38Z</time>
      </trkpt>
      <trkpt lat="44.39973" lon="4.47262">
        <ele>397</ele>
        <time>2015-05-04T08:36:35Z</time>
      </trkpt>
      <trkpt lat="44.39963" lon="4.4727">
        <ele>396</ele>
        <time>2015-05-04T08:36:32Z</time>
      </trkpt>
      <trkpt lat="44.39957" lon="4.47276">
        <ele>396</ele>
        <time>2015-05-04T08:36:30Z</time>
      </trkpt>
      <trkpt lat="44.39948" lon="4.47286">
        <ele>396</ele>
        <time>2015-05-04T08:36:27Z</time>
      </trkpt>
      <trkpt lat="44.39943" lon="4.47294">
        <ele>395</ele>
        <time>2015-05-04T08:36:25Z</time>
      </trkpt>
      <trkpt lat="44.39937" lon="4.47307">
        <ele>395</ele>
        <time>2015-05-04T08:36:22Z</time>
      </trkpt>
      <trkpt lat="44.39931" lon="4.4732">
        <ele>394</ele>
        <time>2015-05-04T08:36:19Z</time>
      </trkpt>
      <trkpt lat="44.39927" lon="4.47336">
        <ele>392</ele>
        <time>2015-05-04T08:36:16Z</time>
      </trkpt>
      <trkpt lat="44.39925" lon="4.47351">
        <ele>392</ele>
        <time>2015-05-04T08:36:13Z</time>
      </trkpt>
      <trkpt lat="44.39924" lon="4.47368">
        <ele>392</ele>
        <time>2015-05-04T08:36:10Z</time>
      </trkpt>
      <trkpt lat="44.39924" lon="4.47385">
        <ele>392</ele>
        <time>2015-05-04T08:36:07Z</time>
      </trkpt>
      <trkpt lat="44.39923" lon="4.47396">
        <ele>391</ele>
        <time>2015-05-04T08:36:05Z</time>
      </trkpt>
      <trkpt lat="44.39924" lon="4.47413">
        <ele>390</ele>
        <time>2015-05-04T08:36:02Z</time>
      </trkpt>
      <trkpt lat="44.39925" lon="4.47431">
        <ele>388</ele>
        <time>2015-05-04T08:35:59Z</time>
      </trkpt>
      <trkpt lat="44.3993" lon="4.47449">
        <ele>388</ele>
        <time>2015-05-04T08:35:56Z</time>
      </trkpt>
      <trkpt lat="44.39935" lon="4.47465">
        <ele>387</ele>
        <time>2015-05-04T08:35:53Z</time>
      </trkpt>
      <trkpt lat="44.3994" lon="4.47481">
        <ele>386</ele>
        <time>2015-05-04T08:35:50Z</time>
      </trkpt>
      <trkpt lat="44.39946" lon="4.47497">
        <ele>386</ele>
        <time>2015-05-04T08:35:47Z</time>
      </trkpt>
      <trkpt lat="44.39951" lon="4.47512">
        <ele>380</ele>
        <time>2015-05-04T08:35:44Z</time>
      </trkpt>
      <trkpt lat="44.39957" lon="4.47526">
        <ele>379</ele>
        <time>2015-05-04T08:35:41Z</time>
      </trkpt>
      <trkpt lat="44.39961" lon="4.47535">
        <ele>378</ele>
        <time>2015-05-04T08:35:39Z</time>
      </trkpt>
      <trkpt lat="44.39967" lon="4.47543">
        <ele>378</ele>
        <time>2015-05-04T08:35:37Z</time>
      </trkpt>
      <trkpt lat="44.39977" lon="4.47553">
        <ele>378</ele>
        <time>2015-05-04T08:35:34Z</time>
      </trkpt>
      <trkpt lat="44.39985" lon="4.47557">
        <ele>377</ele>
        <time>2015-05-04T08:35:32Z</time>
      </trkpt>
      <trkpt lat="44.39993" lon="4.4756">
        <ele>377</ele>
        <time>2015-05-04T08:35:30Z</time>
      </trkpt>
      <trkpt lat="44.40005" lon="4.47562">
        <ele>382</ele>
        <time>2015-05-04T08:35:27Z</time>
      </trkpt>
      <trkpt lat="44.40013" lon="4.47564">
        <ele>382</ele>
        <time>2015-05-04T08:35:25Z</time>
      </trkpt>
      <trkpt lat="44.40025" lon="4.47566">
        <ele>384</ele>
        <time>2015-05-04T08:35:22Z</time>
      </trkpt>
      <trkpt lat="44.40033" lon="4.47568">
        <ele>384</ele>
        <time>2015-05-04T08:35:20Z</time>
      </trkpt>
      <trkpt lat="44.40041" lon="4.47571">
        <ele>385</ele>
        <time>2015-05-04T08:35:18Z</time>
      </trkpt>
      <trkpt lat="44.40052" lon="4.47576">
        <ele>386</ele>
        <time>2015-05-04T08:35:15Z</time>
      </trkpt>
      <trkpt lat="44.40059" lon="4.47582">
        <ele>386</ele>
        <time>2015-05-04T08:35:13Z</time>
      </trkpt>
      <trkpt lat="44.40065" lon="4.47589">
        <ele>378</ele>
        <time>2015-05-04T08:35:11Z</time>
      </trkpt>
      <trkpt lat="44.40074" lon="4.476">
        <ele>378</ele>
        <time>2015-05-04T08:35:08Z</time>
      </trkpt>
      <trkpt lat="44.40083" lon="4.47611">
        <ele>376</ele>
        <time>2015-05-04T08:35:05Z</time>
      </trkpt>
      <trkpt lat="44.40092" lon="4.47623">
        <ele>388</ele>
        <time>2015-05-04T08:35:02Z</time>
      </trkpt>
      <trkpt lat="44.40101" lon="4.47635">
        <ele>387</ele>
        <time>2015-05-04T08:34:59Z</time>
      </trkpt>
      <trkpt lat="44.40106" lon="4.47645">
        <ele>386</ele>
        <time>2015-05-04T08:34:57Z</time>
      </trkpt>
      <trkpt lat="44.4011" lon="4.47661">
        <ele>385</ele>
        <time>2015-05-04T08:34:54Z</time>
      </trkpt>
      <trkpt lat="44.40112" lon="4.47672">
        <ele>378</ele>
        <time>2015-05-04T08:34:52Z</time>
      </trkpt>
      <trkpt lat="44.40112" lon="4.47689">
        <ele>378</ele>
        <time>2015-05-04T08:34:49Z</time>
      </trkpt>
      <trkpt lat="44.40115" lon="4.47706">
        <ele>377</ele>
        <time>2015-05-04T08:34:46Z</time>
      </trkpt>
      <trkpt lat="44.40118" lon="4.47717">
        <ele>377</ele>
        <time>2015-05-04T08:34:44Z</time>
      </trkpt>
      <trkpt lat="44.40124" lon="4.47732">
        <ele>377</ele>
        <time>2015-05-04T08:34:41Z</time>
      </trkpt>
      <trkpt lat="44.40132" lon="4.47746">
        <ele>378</ele>
        <time>2015-05-04T08:34:38Z</time>
      </trkpt>
      <trkpt lat="44.40139" lon="4.47761">
        <ele>371</ele>
        <time>2015-05-04T08:34:35Z</time>
      </trkpt>
      <trkpt lat="44.40147" lon="4.47776">
        <ele>370</ele>
        <time>2015-05-04T08:34:32Z</time>
      </trkpt>
      <trkpt lat="44.40154" lon="4.4779">
        <ele>369</ele>
        <time>2015-05-04T08:34:29Z</time>
      </trkpt>
      <trkpt lat="44.40159" lon="4.47801">
        <ele>368</ele>
        <time>2015-05-04T08:34:27Z</time>
      </trkpt>
      <trkpt lat="44.40165" lon="4.47817">
        <ele>368</ele>
        <time>2015-05-04T08:34:24Z</time>
      </trkpt>
      <trkpt lat="44.40168" lon="4.47828">
        <ele>375</ele>
        <time>2015-05-04T08:34:22Z</time>
      </trkpt>
      <trkpt lat="44.40173" lon="4.47845">
        <ele>374</ele>
        <time>2015-05-04T08:34:19Z</time>
      </trkpt>
      <trkpt lat="44.40176" lon="4.47856">
        <ele>376</ele>
        <time>2015-05-04T08:34:17Z</time>
      </trkpt>
      <trkpt lat="44.40181" lon="4.47874">
        <ele>377</ele>
        <time>2015-05-04T08:34:14Z</time>
      </trkpt>
      <trkpt lat="44.40184" lon="4.47886">
        <ele>376</ele>
        <time>2015-05-04T08:34:12Z</time>
      </trkpt>
      <trkpt lat="44.40189" lon="4.47905">
        <ele>373</ele>
        <time>2015-05-04T08:34:09Z</time>
      </trkpt>
      <trkpt lat="44.40194" lon="4.47924">
        <ele>368</ele>
        <time>2015-05-04T08:34:06Z</time>
      </trkpt>
      <trkpt lat="44.40198" lon="4.47943">
        <ele>369</ele>
        <time>2015-05-04T08:34:03Z</time>
      </trkpt>
      <trkpt lat="44.40202" lon="4.47963">
        <ele>369</ele>
        <time>2015-05-04T08:34:00Z</time>
      </trkpt>
      <trkpt lat="44.40204" lon="4.47977">
        <ele>369</ele>
        <time>2015-05-04T08:33:58Z</time>
      </trkpt>
      <trkpt lat="44.40207" lon="4.47998">
        <ele>368</ele>
        <time>2015-05-04T08:33:55Z</time>
      </trkpt>
      <trkpt lat="44.40209" lon="4.48012">
        <ele>365</ele>
        <time>2015-05-04T08:33:53Z</time>
      </trkpt>
      <trkpt lat="44.40211" lon="4.48026">
        <ele>366</ele>
        <time>2015-05-04T08:33:51Z</time>
      </trkpt>
      <trkpt lat="44.40214" lon="4.4805">
        <ele>366</ele>
        <time>2015-05-04T08:33:48Z</time>
      </trkpt>
      <trkpt lat="44.40218" lon="4.48076">
        <ele>367</ele>
        <time>2015-05-04T08:33:45Z</time>
      </trkpt>
      <trkpt lat="44.4022" lon="4.48103">
        <ele>365</ele>
        <time>2015-05-04T08:33:42Z</time>
      </trkpt>
      <trkpt lat="44.40221" lon="4.48123">
        <ele>364</ele>
        <time>2015-05-04T08:33:40Z</time>
      </trkpt>
      <trkpt lat="44.40222" lon="4.48143">
        <ele>364</ele>
        <time>2015-05-04T08:33:38Z</time>
      </trkpt>
      <trkpt lat="44.40219" lon="4.48175">
        <ele>363</ele>
        <time>2015-05-04T08:33:35Z</time>
      </trkpt>
      <trkpt lat="44.40209" lon="4.48194">
        <ele>362</ele>
        <time>2015-05-04T08:33:33Z</time>
      </trkpt>
      <trkpt lat="44.40192" lon="4.48204">
        <ele>362</ele>
        <time>2015-05-04T08:33:31Z</time>
      </trkpt>
      <trkpt lat="44.40173" lon="4.48199">
        <ele>361</ele>
        <time>2015-05-04T08:33:29Z</time>
      </trkpt>
      <trkpt lat="44.40157" lon="4.48181">
        <ele>364</ele>
        <time>2015-05-04T08:33:27Z</time>
      </trkpt>
      <trkpt lat="44.40137" lon="4.48149">
        <ele>361</ele>
        <time>2015-05-04T08:33:24Z</time>
      </trkpt>
      <trkpt lat="44.40114" lon="4.48119">
        <ele>362</ele>
        <time>2015-05-04T08:33:21Z</time>
      </trkpt>
      <trkpt lat="44.40089" lon="4.48094">
        <ele>361</ele>
        <time>2015-05-04T08:33:18Z</time>
      </trkpt>
      <trkpt lat="44.40064" lon="4.48073">
        <ele>359</ele>
        <time>2015-05-04T08:33:15Z</time>
      </trkpt>
      <trkpt lat="44.40046" lon="4.4806">
        <ele>359</ele>
        <time>2015-05-04T08:33:13Z</time>
      </trkpt>
      <trkpt lat="44.40018" lon="4.48047">
        <ele>360</ele>
        <time>2015-05-04T08:33:10Z</time>
      </trkpt>
      <trkpt lat="44.39999" lon="4.48043">
        <ele>361</ele>
        <time>2015-05-04T08:33:08Z</time>
      </trkpt>
      <trkpt lat="44.39971" lon="4.48045">
        <ele>361</ele>
        <time>2015-05-04T08:33:05Z</time>
      </trkpt>
      <trkpt lat="44.39943" lon="4.48052">
        <ele>361</ele>
        <time>2015-05-04T08:33:02Z</time>
      </trkpt>
      <trkpt lat="44.39917" lon="4.48059">
        <ele>361</ele>
        <time>2015-05-04T08:32:59Z</time>
      </trkpt>
      <trkpt lat="44.39899" lon="4.48064">
        <ele>362</ele>
        <time>2015-05-04T08:32:57Z</time>
      </trkpt>
      <trkpt lat="44.39882" lon="4.48068">
        <ele>362</ele>
        <time>2015-05-04T08:32:55Z</time>
      </trkpt>
      <trkpt lat="44.39858" lon="4.48075">
        <ele>363</ele>
        <time>2015-05-04T08:32:52Z</time>
      </trkpt>
      <trkpt lat="44.39842" lon="4.4808">
        <ele>366</ele>
        <time>2015-05-04T08:32:50Z</time>
      </trkpt>
      <trkpt lat="44.39821" lon="4.48092">
        <ele>370</ele>
        <time>2015-05-04T08:32:47Z</time>
      </trkpt>
      <trkpt lat="44.39808" lon="4.48102">
        <ele>370</ele>
        <time>2015-05-04T08:32:45Z</time>
      </trkpt>
      <trkpt lat="44.39791" lon="4.4812">
        <ele>371</ele>
        <time>2015-05-04T08:32:42Z</time>
      </trkpt>
      <trkpt lat="44.39778" lon="4.48141">
        <ele>371</ele>
        <time>2015-05-04T08:32:39Z</time>
      </trkpt>
      <trkpt lat="44.39772" lon="4.48155">
        <ele>372</ele>
        <time>2015-05-04T08:32:37Z</time>
      </trkpt>
      <trkpt lat="44.39764" lon="4.48177">
        <ele>374</ele>
        <time>2015-05-04T08:32:34Z</time>
      </trkpt>
      <trkpt lat="44.39757" lon="4.48199">
        <ele>376</ele>
        <time>2015-05-04T08:32:31Z</time>
      </trkpt>
      <trkpt lat="44.39753" lon="4.48213">
        <ele>376</ele>
        <time>2015-05-04T08:32:29Z</time>
      </trkpt>
      <trkpt lat="44.39748" lon="4.48227">
        <ele>373</ele>
        <time>2015-05-04T08:32:27Z</time>
      </trkpt>
      <trkpt lat="44.39743" lon="4.48242">
        <ele>374</ele>
        <time>2015-05-04T08:32:25Z</time>
      </trkpt>
      <trkpt lat="44.39737" lon="4.48263">
        <ele>375</ele>
        <time>2015-05-04T08:32:22Z</time>
      </trkpt>
      <trkpt lat="44.39729" lon="4.48284">
        <ele>374</ele>
        <time>2015-05-04T08:32:19Z</time>
      </trkpt>
      <trkpt lat="44.39724" lon="4.48297">
        <ele>374</ele>
        <time>2015-05-04T08:32:17Z</time>
      </trkpt>
      <trkpt lat="44.39718" lon="4.48309">
        <ele>374</ele>
        <time>2015-05-04T08:32:15Z</time>
      </trkpt>
      <trkpt lat="44.39708" lon="4.48328">
        <ele>373</ele>
        <time>2015-05-04T08:32:12Z</time>
      </trkpt>
      <trkpt lat="44.397" lon="4.4834">
        <ele>374</ele>
        <time>2015-05-04T08:32:10Z</time>
      </trkpt>
      <trkpt lat="44.39689" lon="4.48359">
        <ele>374</ele>
        <time>2015-05-04T08:32:07Z</time>
      </trkpt>
      <trkpt lat="44.39677" lon="4.48378">
        <ele>373</ele>
        <time>2015-05-04T08:32:04Z</time>
      </trkpt>
      <trkpt lat="44.39666" lon="4.48397">
        <ele>370</ele>
        <time>2015-05-04T08:32:01Z</time>
      </trkpt>
      <trkpt lat="44.39659" lon="4.4841">
        <ele>370</ele>
        <time>2015-05-04T08:31:59Z</time>
      </trkpt>
      <trkpt lat="44.39647" lon="4.48429">
        <ele>370</ele>
        <time>2015-05-04T08:31:56Z</time>
      </trkpt>
      <trkpt lat="44.39639" lon="4.48443">
        <ele>370</ele>
        <time>2015-05-04T08:31:54Z</time>
      </trkpt>
      <trkpt lat="44.39632" lon="4.48456">
        <ele>369</ele>
        <time>2015-05-04T08:31:52Z</time>
      </trkpt>
      <trkpt lat="44.39624" lon="4.48469">
        <ele>369</ele>
        <time>2015-05-04T08:31:50Z</time>
      </trkpt>
      <trkpt lat="44.39615" lon="4.4849">
        <ele>369</ele>
        <time>2015-05-04T08:31:47Z</time>
      </trkpt>
      <trkpt lat="44.39608" lon="4.48505">
        <ele>369</ele>
        <time>2015-05-04T08:31:45Z</time>
      </trkpt>
      <trkpt lat="44.39602" lon="4.48519">
        <ele>369</ele>
        <time>2015-05-04T08:31:43Z</time>
      </trkpt>
      <trkpt lat="44.39594" lon="4.48541">
        <ele>369</ele>
        <time>2015-05-04T08:31:40Z</time>
      </trkpt>
      <trkpt lat="44.39588" lon="4.48555">
        <ele>369</ele>
        <time>2015-05-04T08:31:38Z</time>
      </trkpt>
      <trkpt lat="44.39582" lon="4.4857">
        <ele>368</ele>
        <time>2015-05-04T08:31:36Z</time>
      </trkpt>
      <trkpt lat="44.39573" lon="4.48593">
        <ele>369</ele>
        <time>2015-05-04T08:31:33Z</time>
      </trkpt>
      <trkpt lat="44.39568" lon="4.48608">
        <ele>368</ele>
        <time>2015-05-04T08:31:31Z</time>
      </trkpt>
      <trkpt lat="44.39564" lon="4.48623">
        <ele>368</ele>
        <time>2015-05-04T08:31:29Z</time>
      </trkpt>
      <trkpt lat="44.39561" lon="4.4864">
        <ele>368</ele>
        <time>2015-05-04T08:31:27Z</time>
      </trkpt>
      <trkpt lat="44.39558" lon="4.48665">
        <ele>368</ele>
        <time>2015-05-04T08:31:24Z</time>
      </trkpt>
      <trkpt lat="44.39556" lon="4.48682">
        <ele>368</ele>
        <time>2015-05-04T08:31:22Z</time>
      </trkpt>
      <trkpt lat="44.39554" lon="4.48699">
        <ele>368</ele>
        <time>2015-05-04T08:31:20Z</time>
      </trkpt>
      <trkpt lat="44.39551" lon="4.48724">
        <ele>368</ele>
        <time>2015-05-04T08:31:17Z</time>
      </trkpt>
      <trkpt lat="44.39549" lon="4.48742">
        <ele>368</ele>
        <time>2015-05-04T08:31:15Z</time>
      </trkpt>
      <trkpt lat="44.39547" lon="4.48759">
        <ele>368</ele>
        <time>2015-05-04T08:31:13Z</time>
      </trkpt>
      <trkpt lat="44.39544" lon="4.48785">
        <ele>368</ele>
        <time>2015-05-04T08:31:10Z</time>
      </trkpt>
      <trkpt lat="44.39542" lon="4.48802">
        <ele>368</ele>
        <time>2015-05-04T08:31:08Z</time>
      </trkpt>
      <trkpt lat="44.39541" lon="4.48819">
        <ele>367</ele>
        <time>2015-05-04T08:31:06Z</time>
      </trkpt>
      <trkpt lat="44.39539" lon="4.48837">
        <ele>368</ele>
        <time>2015-05-04T08:31:04Z</time>
      </trkpt>
      <trkpt lat="44.39536" lon="4.48863">
        <ele>368</ele>
        <time>2015-05-04T08:31:01Z</time>
      </trkpt>
      <trkpt lat="44.39534" lon="4.48881">
        <ele>368</ele>
        <time>2015-05-04T08:30:59Z</time>
      </trkpt>
      <trkpt lat="44.39532" lon="4.48898">
        <ele>368</ele>
        <time>2015-05-04T08:30:57Z</time>
      </trkpt>
      <trkpt lat="44.3953" lon="4.48925">
        <ele>369</ele>
        <time>2015-05-04T08:30:54Z</time>
      </trkpt>
      <trkpt lat="44.39529" lon="4.48943">
        <ele>369</ele>
        <time>2015-05-04T08:30:52Z</time>
      </trkpt>
      <trkpt lat="44.39529" lon="4.4896">
        <ele>369</ele>
        <time>2015-05-04T08:30:50Z</time>
      </trkpt>
      <trkpt lat="44.39527" lon="4.48987">
        <ele>369</ele>
        <time>2015-05-04T08:30:47Z</time>
      </trkpt>
      <trkpt lat="44.39526" lon="4.49004">
        <ele>369</ele>
        <time>2015-05-04T08:30:45Z</time>
      </trkpt>
      <trkpt lat="44.39524" lon="4.49021">
        <ele>369</ele>
        <time>2015-05-04T08:30:43Z</time>
      </trkpt>
      <trkpt lat="44.39521" lon="4.49047">
        <ele>368</ele>
        <time>2015-05-04T08:30:40Z</time>
      </trkpt>
      <trkpt lat="44.39518" lon="4.49063">
        <ele>368</ele>
        <time>2015-05-04T08:30:38Z</time>
      </trkpt>
      <trkpt lat="44.39515" lon="4.49088">
        <ele>367</ele>
        <time>2015-05-04T08:30:35Z</time>
      </trkpt>
      <trkpt lat="44.39513" lon="4.49105">
        <ele>367</ele>
        <time>2015-05-04T08:30:33Z</time>
      </trkpt>
      <trkpt lat="44.39509" lon="4.4913">
        <ele>367</ele>
        <time>2015-05-04T08:30:30Z</time>
      </trkpt>
      <trkpt lat="44.39507" lon="4.49146">
        <ele>367</ele>
        <time>2015-05-04T08:30:28Z</time>
      </trkpt>
      <trkpt lat="44.39504" lon="4.49172">
        <ele>367</ele>
        <time>2015-05-04T08:30:25Z</time>
      </trkpt>
      <trkpt lat="44.39501" lon="4.49189">
        <ele>367</ele>
        <time>2015-05-04T08:30:23Z</time>
      </trkpt>
      <trkpt lat="44.39499" lon="4.49205">
        <ele>366</ele>
        <time>2015-05-04T08:30:21Z</time>
      </trkpt>
      <trkpt lat="44.39497" lon="4.49222">
        <ele>367</ele>
        <time>2015-05-04T08:30:19Z</time>
      </trkpt>
      <trkpt lat="44.39493" lon="4.49247">
        <ele>367</ele>
        <time>2015-05-04T08:30:16Z</time>
      </trkpt>
      <trkpt lat="44.3949" lon="4.49272">
        <ele>367</ele>
        <time>2015-05-04T08:30:13Z</time>
      </trkpt>
      <trkpt lat="44.39486" lon="4.49297">
        <ele>367</ele>
        <time>2015-05-04T08:30:10Z</time>
      </trkpt>
      <trkpt lat="44.39484" lon="4.49314">
        <ele>367</ele>
        <time>2015-05-04T08:30:08Z</time>
      </trkpt>
      <trkpt lat="44.39482" lon="4.49339">
        <ele>367</ele>
        <time>2015-05-04T08:30:05Z</time>
      </trkpt>
      <trkpt lat="44.3948" lon="4.49355">
        <ele>367</ele>
        <time>2015-05-04T08:30:03Z</time>
      </trkpt>
      <trkpt lat="44.39478" lon="4.49381">
        <ele>367</ele>
        <time>2015-05-04T08:30:00Z</time>
      </trkpt>
      <trkpt lat="44.39478" lon="4.49397">
        <ele>367</ele>
        <time>2015-05-04T08:29:58Z</time>
      </trkpt>
      <trkpt lat="44.39477" lon="4.49414">
        <ele>367</ele>
        <time>2015-05-04T08:29:56Z</time>
      </trkpt>
      <trkpt lat="44.39476" lon="4.49438">
        <ele>366</ele>
        <time>2015-05-04T08:29:53Z</time>
      </trkpt>
      <trkpt lat="44.39476" lon="4.49455">
        <ele>366</ele>
        <time>2015-05-04T08:29:51Z</time>
      </trkpt>
      <trkpt lat="44.39476" lon="4.4948">
        <ele>366</ele>
        <time>2015-05-04T08:29:48Z</time>
      </trkpt>
      <trkpt lat="44.39476" lon="4.49497">
        <ele>366</ele>
        <time>2015-05-04T08:29:46Z</time>
      </trkpt>
      <trkpt lat="44.39475" lon="4.49514">
        <ele>366</ele>
        <time>2015-05-04T08:29:44Z</time>
      </trkpt>
      <trkpt lat="44.39474" lon="4.49539">
        <ele>366</ele>
        <time>2015-05-04T08:29:41Z</time>
      </trkpt>
      <trkpt lat="44.39473" lon="4.49556">
        <ele>366</ele>
        <time>2015-05-04T08:29:39Z</time>
      </trkpt>
      <trkpt lat="44.39471" lon="4.49573">
        <ele>366</ele>
        <time>2015-05-04T08:29:37Z</time>
      </trkpt>
      <trkpt lat="44.39468" lon="4.49598">
        <ele>365</ele>
        <time>2015-05-04T08:29:34Z</time>
      </trkpt>
      <trkpt lat="44.39465" lon="4.49623">
        <ele>365</ele>
        <time>2015-05-04T08:29:31Z</time>
      </trkpt>
      <trkpt lat="44.39461" lon="4.49639">
        <ele>365</ele>
        <time>2015-05-04T08:29:29Z</time>
      </trkpt>
      <trkpt lat="44.39457" lon="4.49656">
        <ele>365</ele>
        <time>2015-05-04T08:29:27Z</time>
      </trkpt>
      <trkpt lat="44.39449" lon="4.49679">
        <ele>365</ele>
        <time>2015-05-04T08:29:24Z</time>
      </trkpt>
      <trkpt lat="44.39441" lon="4.49702">
        <ele>365</ele>
        <time>2015-05-04T08:29:21Z</time>
      </trkpt>
      <trkpt lat="44.39431" lon="4.49724">
        <ele>365</ele>
        <time>2015-05-04T08:29:18Z</time>
      </trkpt>
      <trkpt lat="44.39422" lon="4.49746">
        <ele>364</ele>
        <time>2015-05-04T08:29:15Z</time>
      </trkpt>
      <trkpt lat="44.39413" lon="4.49768">
        <ele>364</ele>
        <time>2015-05-04T08:29:12Z</time>
      </trkpt>
      <trkpt lat="44.39404" lon="4.4979">
        <ele>364</ele>
        <time>2015-05-04T08:29:09Z</time>
      </trkpt>
      <trkpt lat="44.39396" lon="4.49803">
        <ele>364</ele>
        <time>2015-05-04T08:29:07Z</time>
      </trkpt>
      <trkpt lat="44.39383" lon="4.49823">
        <ele>364</ele>
        <time>2015-05-04T08:29:04Z</time>
      </trkpt>
      <trkpt lat="44.39374" lon="4.49836">
        <ele>365</ele>
        <time>2015-05-04T08:29:02Z</time>
      </trkpt>
      <trkpt lat="44.39365" lon="4.49849">
        <ele>365</ele>
        <time>2015-05-04T08:29:00Z</time>
      </trkpt>
      <trkpt lat="44.39354" lon="4.49871">
        <ele>364</ele>
        <time>2015-05-04T08:28:57Z</time>
      </trkpt>
      <trkpt lat="44.3935" lon="4.49888">
        <ele>364</ele>
        <time>2015-05-04T08:28:55Z</time>
      </trkpt>
      <trkpt lat="44.39347" lon="4.49916">
        <ele>364</ele>
        <time>2015-05-04T08:28:52Z</time>
      </trkpt>
      <trkpt lat="44.39345" lon="4.49943">
        <ele>364</ele>
        <time>2015-05-04T08:28:49Z</time>
      </trkpt>
      <trkpt lat="44.39343" lon="4.49962">
        <ele>364</ele>
        <time>2015-05-04T08:28:47Z</time>
      </trkpt>
      <trkpt lat="44.39342" lon="4.4998">
        <ele>364</ele>
        <time>2015-05-04T08:28:45Z</time>
      </trkpt>
      <trkpt lat="44.39338" lon="4.50009">
        <ele>364</ele>
        <time>2015-05-04T08:28:42Z</time>
      </trkpt>
      <trkpt lat="44.39337" lon="4.50026">
        <ele>364</ele>
        <time>2015-05-04T08:28:40Z</time>
      </trkpt>
      <trkpt lat="44.39336" lon="4.50044">
        <ele>365</ele>
        <time>2015-05-04T08:28:38Z</time>
      </trkpt>
      <trkpt lat="44.39333" lon="4.50072">
        <ele>365</ele>
        <time>2015-05-04T08:28:35Z</time>
      </trkpt>
      <trkpt lat="44.39333" lon="4.5009">
        <ele>365</ele>
        <time>2015-05-04T08:28:33Z</time>
      </trkpt>
      <trkpt lat="44.3933" lon="4.50116">
        <ele>366</ele>
        <time>2015-05-04T08:28:30Z</time>
      </trkpt>
      <trkpt lat="44.39327" lon="4.50144">
        <ele>366</ele>
        <time>2015-05-04T08:28:27Z</time>
      </trkpt>
      <trkpt lat="44.39326" lon="4.50174">
        <ele>366</ele>
        <time>2015-05-04T08:28:24Z</time>
      </trkpt>
      <trkpt lat="44.39322" lon="4.50203">
        <ele>367</ele>
        <time>2015-05-04T08:28:21Z</time>
      </trkpt>
      <trkpt lat="44.3932" lon="4.50222">
        <ele>367</ele>
        <time>2015-05-04T08:28:19Z</time>
      </trkpt>
      <trkpt lat="44.39319" lon="4.50242">
        <ele>367</ele>
        <time>2015-05-04T08:28:17Z</time>
      </trkpt>
      <trkpt lat="44.39316" lon="4.50262">
        <ele>367</ele>
        <time>2015-05-04T08:28:15Z</time>
      </trkpt>
      <trkpt lat="44.3931" lon="4.50293">
        <ele>367</ele>
        <time>2015-05-04T08:28:12Z</time>
      </trkpt>
      <trkpt lat="44.39305" lon="4.50314">
        <ele>367</ele>
        <time>2015-05-04T08:28:10Z</time>
      </trkpt>
      <trkpt lat="44.393" lon="4.50335">
        <ele>367</ele>
        <time>2015-05-04T08:28:08Z</time>
      </trkpt>
      <trkpt lat="44.39295" lon="4.50357">
        <ele>367</ele>
        <time>2015-05-04T08:28:06Z</time>
      </trkpt>
      <trkpt lat="44.39287" lon="4.50389">
        <ele>368</ele>
        <time>2015-05-04T08:28:03Z</time>
      </trkpt>
      <trkpt lat="44.39283" lon="4.50412">
        <ele>368</ele>
        <time>2015-05-04T08:28:01Z</time>
      </trkpt>
      <trkpt lat="44.39278" lon="4.50434">
        <ele>368</ele>
        <time>2015-05-04T08:27:59Z</time>
      </trkpt>
      <trkpt lat="44.39271" lon="4.50468">
        <ele>368</ele>
        <time>2015-05-04T08:27:56Z</time>
      </trkpt>
      <trkpt lat="44.39266" lon="4.5049">
        <ele>369</ele>
        <time>2015-05-04T08:27:54Z</time>
      </trkpt>
      <trkpt lat="44.39264" lon="4.50513">
        <ele>369</ele>
        <time>2015-05-04T08:27:52Z</time>
      </trkpt>
      <trkpt lat="44.39257" lon="4.50534">
        <ele>370</ele>
        <time>2015-05-04T08:27:50Z</time>
      </trkpt>
      <trkpt lat="44.39252" lon="4.50557">
        <ele>370</ele>
        <time>2015-05-04T08:27:48Z</time>
      </trkpt>
      <trkpt lat="44.39244" lon="4.50591">
        <ele>373</ele>
        <time>2015-05-04T08:27:45Z</time>
      </trkpt>
      <trkpt lat="44.39238" lon="4.50613">
        <ele>375</ele>
        <time>2015-05-04T08:27:43Z</time>
      </trkpt>
      <trkpt lat="44.39231" lon="4.50645">
        <ele>376</ele>
        <time>2015-05-04T08:27:40Z</time>
      </trkpt>
      <trkpt lat="44.39227" lon="4.50667">
        <ele>376</ele>
        <time>2015-05-04T08:27:38Z</time>
      </trkpt>
      <trkpt lat="44.39222" lon="4.50688">
        <ele>377</ele>
        <time>2015-05-04T08:27:36Z</time>
      </trkpt>
      <trkpt lat="44.39217" lon="4.50709">
        <ele>377</ele>
        <time>2015-05-04T08:27:34Z</time>
      </trkpt>
      <trkpt lat="44.39211" lon="4.50741">
        <ele>377</ele>
        <time>2015-05-04T08:27:31Z</time>
      </trkpt>
      <trkpt lat="44.39206" lon="4.50762">
        <ele>377</ele>
        <time>2015-05-04T08:27:29Z</time>
      </trkpt>
      <trkpt lat="44.39199" lon="4.50793">
        <ele>377</ele>
        <time>2015-05-04T08:27:26Z</time>
      </trkpt>
      <trkpt lat="44.39195" lon="4.50813">
        <ele>377</ele>
        <time>2015-05-04T08:27:24Z</time>
      </trkpt>
      <trkpt lat="44.3919" lon="4.50833">
        <ele>377</ele>
        <time>2015-05-04T08:27:22Z</time>
      </trkpt>
      <trkpt lat="44.39183" lon="4.50863">
        <ele>378</ele>
        <time>2015-05-04T08:27:19Z</time>
      </trkpt>
      <trkpt lat="44.39176" lon="4.50892">
        <ele>378</ele>
        <time>2015-05-04T08:27:16Z</time>
      </trkpt>
      <trkpt lat="44.39172" lon="4.50912">
        <ele>379</ele>
        <time>2015-05-04T08:27:14Z</time>
      </trkpt>
      <trkpt lat="44.39164" lon="4.50942">
        <ele>382</ele>
        <time>2015-05-04T08:27:11Z</time>
      </trkpt>
      <trkpt lat="44.3916" lon="4.50961">
        <ele>382</ele>
        <time>2015-05-04T08:27:09Z</time>
      </trkpt>
      <trkpt lat="44.39155" lon="4.50981">
        <ele>382</ele>
        <time>2015-05-04T08:27:07Z</time>
      </trkpt>
      <trkpt lat="44.39149" lon="4.51008">
        <ele>381</ele>
        <time>2015-05-04T08:27:04Z</time>
      </trkpt>
      <trkpt lat="44.39142" lon="4.51034">
        <ele>382</ele>
        <time>2015-05-04T08:27:01Z</time>
      </trkpt>
      <trkpt lat="44.39137" lon="4.51049">
        <ele>382</ele>
        <time>2015-05-04T08:26:59Z</time>
      </trkpt>
      <trkpt lat="44.39128" lon="4.51069">
        <ele>382</ele>
        <time>2015-05-04T08:26:56Z</time>
      </trkpt>
      <trkpt lat="44.39117" lon="4.51085">
        <ele>383</ele>
        <time>2015-05-04T08:26:53Z</time>
      </trkpt>
      <trkpt lat="44.39109" lon="4.51094">
        <ele>383</ele>
        <time>2015-05-04T08:26:51Z</time>
      </trkpt>
      <trkpt lat="44.39095" lon="4.51105">
        <ele>383</ele>
        <time>2015-05-04T08:26:48Z</time>
      </trkpt>
      <trkpt lat="44.39085" lon="4.51112">
        <ele>383</ele>
        <time>2015-05-04T08:26:46Z</time>
      </trkpt>
      <trkpt lat="44.39071" lon="4.5112">
        <ele>382</ele>
        <time>2015-05-04T08:26:43Z</time>
      </trkpt>
      <trkpt lat="44.39061" lon="4.51126">
        <ele>382</ele>
        <time>2015-05-04T08:26:41Z</time>
      </trkpt>
      <trkpt lat="44.39045" lon="4.51135">
        <ele>381</ele>
        <time>2015-05-04T08:26:38Z</time>
      </trkpt>
      <trkpt lat="44.3903" lon="4.51142">
        <ele>381</ele>
        <time>2015-05-04T08:26:35Z</time>
      </trkpt>
      <trkpt lat="44.3902" lon="4.51148">
        <ele>380</ele>
        <time>2015-05-04T08:26:33Z</time>
      </trkpt>
      <trkpt lat="44.3901" lon="4.51153">
        <ele>379</ele>
        <time>2015-05-04T08:26:31Z</time>
      </trkpt>
      <trkpt lat="44.38995" lon="4.51161">
        <ele>378</ele>
        <time>2015-05-04T08:26:28Z</time>
      </trkpt>
      <trkpt lat="44.38985" lon="4.51166">
        <ele>379</ele>
        <time>2015-05-04T08:26:26Z</time>
      </trkpt>
      <trkpt lat="44.38974" lon="4.51172">
        <ele>378</ele>
        <time>2015-05-04T08:26:24Z</time>
      </trkpt>
      <trkpt lat="44.38964" lon="4.51177">
        <ele>378</ele>
        <time>2015-05-04T08:26:22Z</time>
      </trkpt>
      <trkpt lat="44.38948" lon="4.51186">
        <ele>378</ele>
        <time>2015-05-04T08:26:19Z</time>
      </trkpt>
      <trkpt lat="44.38938" lon="4.51191">
        <ele>378</ele>
        <time>2015-05-04T08:26:17Z</time>
      </trkpt>
      <trkpt lat="44.38927" lon="4.51197">
        <ele>378</ele>
        <time>2015-05-04T08:26:15Z</time>
      </trkpt>
      <trkpt lat="44.38912" lon="4.51205">
        <ele>379</ele>
        <time>2015-05-04T08:26:12Z</time>
      </trkpt>
      <trkpt lat="44.38902" lon="4.51211">
        <ele>379</ele>
        <time>2015-05-04T08:26:10Z</time>
      </trkpt>
      <trkpt lat="44.38887" lon="4.5122">
        <ele>379</ele>
        <time>2015-05-04T08:26:07Z</time>
      </trkpt>
      <trkpt lat="44.38878" lon="4.51227">
        <ele>379</ele>
        <time>2015-05-04T08:26:05Z</time>
      </trkpt>
      <trkpt lat="44.38863" lon="4.5124">
        <ele>379</ele>
        <time>2015-05-04T08:26:02Z</time>
      </trkpt>
      <trkpt lat="44.38851" lon="4.51254">
        <ele>378</ele>
        <time>2015-05-04T08:25:59Z</time>
      </trkpt>
      <trkpt lat="44.38843" lon="4.51264">
        <ele>378</ele>
        <time>2015-05-04T08:25:57Z</time>
      </trkpt>
      <trkpt lat="44.38831" lon="4.5128">
        <ele>378</ele>
        <time>2015-05-04T08:25:54Z</time>
      </trkpt>
      <trkpt lat="44.38823" lon="4.5129">
        <ele>378</ele>
        <time>2015-05-04T08:25:52Z</time>
      </trkpt>
      <trkpt lat="44.38812" lon="4.51306">
        <ele>379</ele>
        <time>2015-05-04T08:25:49Z</time>
      </trkpt>
      <trkpt lat="44.38804" lon="4.51316">
        <ele>379</ele>
        <time>2015-05-04T08:25:47Z</time>
      </trkpt>
      <trkpt lat="44.38792" lon="4.5133">
        <ele>379</ele>
        <time>2015-05-04T08:25:44Z</time>
      </trkpt>
      <trkpt lat="44.3878" lon="4.51344">
        <ele>378</ele>
        <time>2015-05-04T08:25:41Z</time>
      </trkpt>
      <trkpt lat="44.38767" lon="4.51358">
        <ele>378</ele>
        <time>2015-05-04T08:25:38Z</time>
      </trkpt>
      <trkpt lat="44.38759" lon="4.51367">
        <ele>378</ele>
        <time>2015-05-04T08:25:36Z</time>
      </trkpt>
      <trkpt lat="44.38746" lon="4.51382">
        <ele>377</ele>
        <time>2015-05-04T08:25:33Z</time>
      </trkpt>
      <trkpt lat="44.38739" lon="4.51393">
        <ele>377</ele>
        <time>2015-05-04T08:25:31Z</time>
      </trkpt>
      <trkpt lat="44.38729" lon="4.51412">
        <ele>377</ele>
        <time>2015-05-04T08:25:28Z</time>
      </trkpt>
      <trkpt lat="44.3872" lon="4.51433">
        <ele>375</ele>
        <time>2015-05-04T08:25:25Z</time>
      </trkpt>
      <trkpt lat="44.38712" lon="4.51454">
        <ele>375</ele>
        <time>2015-05-04T08:25:22Z</time>
      </trkpt>
      <trkpt lat="44.38705" lon="4.51467">
        <ele>375</ele>
        <time>2015-05-04T08:25:20Z</time>
      </trkpt>
      <trkpt lat="44.38697" lon="4.5148">
        <ele>375</ele>
        <time>2015-05-04T08:25:18Z</time>
      </trkpt>
      <trkpt lat="44.38689" lon="4.51494">
        <ele>374</ele>
        <time>2015-05-04T08:25:16Z</time>
      </trkpt>
      <trkpt lat="44.38681" lon="4.51508">
        <ele>373</ele>
        <time>2015-05-04T08:25:14Z</time>
      </trkpt>
      <trkpt lat="44.38668" lon="4.51529">
        <ele>372</ele>
        <time>2015-05-04T08:25:11Z</time>
      </trkpt>
      <trkpt lat="44.38654" lon="4.5155">
        <ele>371</ele>
        <time>2015-05-04T08:25:08Z</time>
      </trkpt>
      <trkpt lat="44.38645" lon="4.51565">
        <ele>371</ele>
        <time>2015-05-04T08:25:06Z</time>
      </trkpt>
      <trkpt lat="44.3863" lon="4.51588">
        <ele>370</ele>
        <time>2015-05-04T08:25:03Z</time>
      </trkpt>
      <trkpt lat="44.3862" lon="4.51604">
        <ele>370</ele>
        <time>2015-05-04T08:25:01Z</time>
      </trkpt>
      <trkpt lat="44.38611" lon="4.5162">
        <ele>370</ele>
        <time>2015-05-04T08:24:59Z</time>
      </trkpt>
      <trkpt lat="44.38595" lon="4.51645">
        <ele>370</ele>
        <time>2015-05-04T08:24:56Z</time>
      </trkpt>
      <trkpt lat="44.38585" lon="4.51662">
        <ele>369</ele>
        <time>2015-05-04T08:24:54Z</time>
      </trkpt>
      <trkpt lat="44.38574" lon="4.51679">
        <ele>369</ele>
        <time>2015-05-04T08:24:52Z</time>
      </trkpt>
      <trkpt lat="44.38558" lon="4.51706">
        <ele>369</ele>
        <time>2015-05-04T08:24:49Z</time>
      </trkpt>
      <trkpt lat="44.3854" lon="4.51735">
        <ele>369</ele>
        <time>2015-05-04T08:24:46Z</time>
      </trkpt>
      <trkpt lat="44.38521" lon="4.51767">
        <ele>370</ele>
        <time>2015-05-04T08:24:43Z</time>
      </trkpt>
      <trkpt lat="44.38511" lon="4.5179">
        <ele>370</ele>
        <time>2015-05-04T08:24:41Z</time>
      </trkpt>
      <trkpt lat="44.385" lon="4.51824">
        <ele>375</ele>
        <time>2015-05-04T08:24:38Z</time>
      </trkpt>
      <trkpt lat="44.38491" lon="4.51858">
        <ele>377</ele>
        <time>2015-05-04T08:24:35Z</time>
      </trkpt>
      <trkpt lat="44.38484" lon="4.51888">
        <ele>377</ele>
        <time>2015-05-04T08:24:32Z</time>
      </trkpt>
      <trkpt lat="44.3848" lon="4.51907">
        <ele>377</ele>
        <time>2015-05-04T08:24:30Z</time>
      </trkpt>
      <trkpt lat="44.38473" lon="4.51934">
        <ele>378</ele>
        <time>2015-05-04T08:24:27Z</time>
      </trkpt>
      <trkpt lat="44.38469" lon="4.51951">
        <ele>379</ele>
        <time>2015-05-04T08:24:25Z</time>
      </trkpt>
      <trkpt lat="44.38463" lon="4.51976">
        <ele>379</ele>
        <time>2015-05-04T08:24:22Z</time>
      </trkpt>
      <trkpt lat="44.38457" lon="4.52002">
        <ele>379</ele>
        <time>2015-05-04T08:24:19Z</time>
      </trkpt>
      <trkpt lat="44.38451" lon="4.52028">
        <ele>379</ele>
        <time>2015-05-04T08:24:16Z</time>
      </trkpt>
      <trkpt lat="44.38446" lon="4.52053">
        <ele>379</ele>
        <time>2015-05-04T08:24:13Z</time>
      </trkpt>
      <trkpt lat="44.38442" lon="4.52079">
        <ele>380</ele>
        <time>2015-05-04T08:24:10Z</time>
      </trkpt>
      <trkpt lat="44.38438" lon="4.52103">
        <ele>379</ele>
        <time>2015-05-04T08:24:07Z</time>
      </trkpt>
      <trkpt lat="44.38436" lon="4.52127">
        <ele>378</ele>
        <time>2015-05-04T08:24:04Z</time>
      </trkpt>
      <trkpt lat="44.38435" lon="4.52143">
        <ele>378</ele>
        <time>2015-05-04T08:24:02Z</time>
      </trkpt>
      <trkpt lat="44.38434" lon="4.52167">
        <ele>378</ele>
        <time>2015-05-04T08:23:59Z</time>
      </trkpt>
      <trkpt lat="44.38433" lon="4.52184">
        <ele>378</ele>
        <time>2015-05-04T08:23:57Z</time>
      </trkpt>
      <trkpt lat="44.38432" lon="4.522">
        <ele>377</ele>
        <time>2015-05-04T08:23:55Z</time>
      </trkpt>
      <trkpt lat="44.38431" lon="4.52216">
        <ele>378</ele>
        <time>2015-05-04T08:23:53Z</time>
      </trkpt>
      <trkpt lat="44.38431" lon="4.52232">
        <ele>378</ele>
        <time>2015-05-04T08:23:51Z</time>
      </trkpt>
      <trkpt lat="44.38431" lon="4.52255">
        <ele>378</ele>
        <time>2015-05-04T08:23:48Z</time>
      </trkpt>
      <trkpt lat="44.38431" lon="4.52271">
        <ele>377</ele>
        <time>2015-05-04T08:23:46Z</time>
      </trkpt>
      <trkpt lat="44.38431" lon="4.52286">
        <ele>377</ele>
        <time>2015-05-04T08:23:44Z</time>
      </trkpt>
      <trkpt lat="44.38431" lon="4.52302">
        <ele>376</ele>
        <time>2015-05-04T08:23:42Z</time>
      </trkpt>
      <trkpt lat="44.38431" lon="4.52326">
        <ele>376</ele>
        <time>2015-05-04T08:23:39Z</time>
      </trkpt>
      <trkpt lat="44.38431" lon="4.52351">
        <ele>374</ele>
        <time>2015-05-04T08:23:36Z</time>
      </trkpt>
      <trkpt lat="44.38431" lon="4.52368">
        <ele>373</ele>
        <time>2015-05-04T08:23:34Z</time>
      </trkpt>
      <trkpt lat="44.38432" lon="4.52387">
        <ele>373</ele>
        <time>2015-05-04T08:23:32Z</time>
      </trkpt>
      <trkpt lat="44.38432" lon="4.52416">
        <ele>373</ele>
        <time>2015-05-04T08:23:29Z</time>
      </trkpt>
      <trkpt lat="44.38435" lon="4.52438">
        <ele>372</ele>
        <time>2015-05-04T08:23:27Z</time>
      </trkpt>
      <trkpt lat="44.38443" lon="4.52469">
        <ele>372</ele>
        <time>2015-05-04T08:23:24Z</time>
      </trkpt>
      <trkpt lat="44.38452" lon="4.52488">
        <ele>372</ele>
        <time>2015-05-04T08:23:22Z</time>
      </trkpt>
      <trkpt lat="44.38468" lon="4.52514">
        <ele>372</ele>
        <time>2015-05-04T08:23:19Z</time>
      </trkpt>
      <trkpt lat="44.38485" lon="4.52539">
        <ele>372</ele>
        <time>2015-05-04T08:23:16Z</time>
      </trkpt>
      <trkpt lat="44.38501" lon="4.52564">
        <ele>370</ele>
        <time>2015-05-04T08:23:13Z</time>
      </trkpt>
      <trkpt lat="44.38512" lon="4.52581">
        <ele>370</ele>
        <time>2015-05-04T08:23:11Z</time>
      </trkpt>
      <trkpt lat="44.38522" lon="4.52598">
        <ele>372</ele>
        <time>2015-05-04T08:23:09Z</time>
      </trkpt>
      <trkpt lat="44.38536" lon="4.52624">
        <ele>372</ele>
        <time>2015-05-04T08:23:06Z</time>
      </trkpt>
      <trkpt lat="44.38549" lon="4.52651">
        <ele>373</ele>
        <time>2015-05-04T08:23:03Z</time>
      </trkpt>
      <trkpt lat="44.38561" lon="4.52678">
        <ele>375</ele>
        <time>2015-05-04T08:23:00Z</time>
      </trkpt>
      <trkpt lat="44.38574" lon="4.52705">
        <ele>376</ele>
        <time>2015-05-04T08:22:57Z</time>
      </trkpt>
      <trkpt lat="44.38588" lon="4.52732">
        <ele>374</ele>
        <time>2015-05-04T08:22:54Z</time>
      </trkpt>
      <trkpt lat="44.38597" lon="4.5275">
        <ele>375</ele>
        <time>2015-05-04T08:22:52Z</time>
      </trkpt>
      <trkpt lat="44.3861" lon="4.52777">
        <ele>377</ele>
        <time>2015-05-04T08:22:49Z</time>
      </trkpt>
      <trkpt lat="44.38618" lon="4.52795">
        <ele>377</ele>
        <time>2015-05-04T08:22:47Z</time>
      </trkpt>
      <trkpt lat="44.38626" lon="4.52812">
        <ele>377</ele>
        <time>2015-05-04T08:22:45Z</time>
      </trkpt>
      <trkpt lat="44.38636" lon="4.52837">
        <ele>379</ele>
        <time>2015-05-04T08:22:42Z</time>
      </trkpt>
      <trkpt lat="44.38646" lon="4.52859">
        <ele>379</ele>
        <time>2015-05-04T08:22:39Z</time>
      </trkpt>
      <trkpt lat="44.38652" lon="4.52872">
        <ele>379</ele>
        <time>2015-05-04T08:22:37Z</time>
      </trkpt>
      <trkpt lat="44.38661" lon="4.52892">
        <ele>379</ele>
        <time>2015-05-04T08:22:34Z</time>
      </trkpt>
      <trkpt lat="44.38667" lon="4.52904">
        <ele>378</ele>
        <time>2015-05-04T08:22:32Z</time>
      </trkpt>
      <trkpt lat="44.38677" lon="4.52922">
        <ele>379</ele>
        <time>2015-05-04T08:22:29Z</time>
      </trkpt>
      <trkpt lat="44.38686" lon="4.52942">
        <ele>378</ele>
        <time>2015-05-04T08:22:26Z</time>
      </trkpt>
      <trkpt lat="44.38693" lon="4.52954">
        <ele>378</ele>
        <time>2015-05-04T08:22:24Z</time>
      </trkpt>
      <trkpt lat="44.38699" lon="4.52967">
        <ele>378</ele>
        <time>2015-05-04T08:22:22Z</time>
      </trkpt>
      <trkpt lat="44.3871" lon="4.52986">
        <ele>378</ele>
        <time>2015-05-04T08:22:19Z</time>
      </trkpt>
      <trkpt lat="44.38717" lon="4.52999">
        <ele>378</ele>
        <time>2015-05-04T08:22:17Z</time>
      </trkpt>
      <trkpt lat="44.38728" lon="4.53018">
        <ele>377</ele>
        <time>2015-05-04T08:22:14Z</time>
      </trkpt>
      <trkpt lat="44.38734" lon="4.5303">
        <ele>377</ele>
        <time>2015-05-04T08:22:12Z</time>
      </trkpt>
      <trkpt lat="44.38744" lon="4.53049">
        <ele>378</ele>
        <time>2015-05-04T08:22:09Z</time>
      </trkpt>
      <trkpt lat="44.38755" lon="4.53067">
        <ele>378</ele>
        <time>2015-05-04T08:22:06Z</time>
      </trkpt>
      <trkpt lat="44.38762" lon="4.5308">
        <ele>378</ele>
        <time>2015-05-04T08:22:04Z</time>
      </trkpt>
      <trkpt lat="44.38772" lon="4.53098">
        <ele>378</ele>
        <time>2015-05-04T08:22:01Z</time>
      </trkpt>
      <trkpt lat="44.3878" lon="4.5311">
        <ele>377</ele>
        <time>2015-05-04T08:21:59Z</time>
      </trkpt>
      <trkpt lat="44.38791" lon="4.53127">
        <ele>377</ele>
        <time>2015-05-04T08:21:56Z</time>
      </trkpt>
      <trkpt lat="44.38798" lon="4.53139">
        <ele>377</ele>
        <time>2015-05-04T08:21:54Z</time>
      </trkpt>
      <trkpt lat="44.38805" lon="4.53151">
        <ele>377</ele>
        <time>2015-05-04T08:21:52Z</time>
      </trkpt>
      <trkpt lat="44.38813" lon="4.53162">
        <ele>377</ele>
        <time>2015-05-04T08:21:50Z</time>
      </trkpt>
      <trkpt lat="44.3882" lon="4.53174">
        <ele>376</ele>
        <time>2015-05-04T08:21:48Z</time>
      </trkpt>
      <trkpt lat="44.38828" lon="4.53186">
        <ele>376</ele>
        <time>2015-05-04T08:21:46Z</time>
      </trkpt>
      <trkpt lat="44.38839" lon="4.53203">
        <ele>377</ele>
        <time>2015-05-04T08:21:43Z</time>
      </trkpt>
      <trkpt lat="44.38847" lon="4.53215">
        <ele>377</ele>
        <time>2015-05-04T08:21:41Z</time>
      </trkpt>
      <trkpt lat="44.38858" lon="4.53233">
        <ele>377</ele>
        <time>2015-05-04T08:21:38Z</time>
      </trkpt>
      <trkpt lat="44.38865" lon="4.53245">
        <ele>377</ele>
        <time>2015-05-04T08:21:36Z</time>
      </trkpt>
      <trkpt lat="44.38873" lon="4.53256">
        <ele>377</ele>
        <time>2015-05-04T08:21:34Z</time>
      </trkpt>
      <trkpt lat="44.38884" lon="4.53274">
        <ele>377</ele>
        <time>2015-05-04T08:21:31Z</time>
      </trkpt>
      <trkpt lat="44.38891" lon="4.53285">
        <ele>377</ele>
        <time>2015-05-04T08:21:29Z</time>
      </trkpt>
      <trkpt lat="44.38899" lon="4.53296">
        <ele>377</ele>
        <time>2015-05-04T08:21:27Z</time>
      </trkpt>
      <trkpt lat="44.3891" lon="4.53312">
        <ele>377</ele>
        <time>2015-05-04T08:21:24Z</time>
      </trkpt>
      <trkpt lat="44.38917" lon="4.53323">
        <ele>377</ele>
        <time>2015-05-04T08:21:22Z</time>
      </trkpt>
      <trkpt lat="44.38925" lon="4.53334">
        <ele>376</ele>
        <time>2015-05-04T08:21:20Z</time>
      </trkpt>
      <trkpt lat="44.38932" lon="4.53345">
        <ele>376</ele>
        <time>2015-05-04T08:21:18Z</time>
      </trkpt>
      <trkpt lat="44.38944" lon="4.53361">
        <ele>375</ele>
        <time>2015-05-04T08:21:15Z</time>
      </trkpt>
      <trkpt lat="44.38952" lon="4.53372">
        <ele>375</ele>
        <time>2015-05-04T08:21:13Z</time>
      </trkpt>
      <trkpt lat="44.3896" lon="4.53384">
        <ele>375</ele>
        <time>2015-05-04T08:21:11Z</time>
      </trkpt>
      <trkpt lat="44.38972" lon="4.53401">
        <ele>375</ele>
        <time>2015-05-04T08:21:08Z</time>
      </trkpt>
      <trkpt lat="44.3898" lon="4.53412">
        <ele>375</ele>
        <time>2015-05-04T08:21:06Z</time>
      </trkpt>
      <trkpt lat="44.38987" lon="4.53424">
        <ele>374</ele>
        <time>2015-05-04T08:21:04Z</time>
      </trkpt>
      <trkpt lat="44.38995" lon="4.53436">
        <ele>374</ele>
        <time>2015-05-04T08:21:02Z</time>
      </trkpt>
      <trkpt lat="44.39007" lon="4.53453">
        <ele>374</ele>
        <time>2015-05-04T08:20:59Z</time>
      </trkpt>
      <trkpt lat="44.39017" lon="4.53472">
        <ele>374</ele>
        <time>2015-05-04T08:20:56Z</time>
      </trkpt>
      <trkpt lat="44.39026" lon="4.53493">
        <ele>374</ele>
        <time>2015-05-04T08:20:53Z</time>
      </trkpt>
      <trkpt lat="44.39032" lon="4.53507">
        <ele>373</ele>
        <time>2015-05-04T08:20:51Z</time>
      </trkpt>
      <trkpt lat="44.3904" lon="4.53528">
        <ele>372</ele>
        <time>2015-05-04T08:20:48Z</time>
      </trkpt>
      <trkpt lat="44.39045" lon="4.53543">
        <ele>372</ele>
        <time>2015-05-04T08:20:46Z</time>
      </trkpt>
      <trkpt lat="44.3905" lon="4.53559">
        <ele>372</ele>
        <time>2015-05-04T08:20:44Z</time>
      </trkpt>
      <trkpt lat="44.39057" lon="4.53582">
        <ele>372</ele>
        <time>2015-05-04T08:20:41Z</time>
      </trkpt>
      <trkpt lat="44.39061" lon="4.53597">
        <ele>371</ele>
        <time>2015-05-04T08:20:39Z</time>
      </trkpt>
      <trkpt lat="44.39068" lon="4.53621">
        <ele>371</ele>
        <time>2015-05-04T08:20:36Z</time>
      </trkpt>
      <trkpt lat="44.39071" lon="4.53637">
        <ele>370</ele>
        <time>2015-05-04T08:20:34Z</time>
      </trkpt>
      <trkpt lat="44.39077" lon="4.53661">
        <ele>371</ele>
        <time>2015-05-04T08:20:31Z</time>
      </trkpt>
      <trkpt lat="44.39081" lon="4.53677">
        <ele>370</ele>
        <time>2015-05-04T08:20:29Z</time>
      </trkpt>
      <trkpt lat="44.39085" lon="4.53693">
        <ele>371</ele>
        <time>2015-05-04T08:20:27Z</time>
      </trkpt>
      <trkpt lat="44.39091" lon="4.53715">
        <ele>371</ele>
        <time>2015-05-04T08:20:24Z</time>
      </trkpt>
      <trkpt lat="44.39096" lon="4.5373">
        <ele>371</ele>
        <time>2015-05-04T08:20:22Z</time>
      </trkpt>
      <trkpt lat="44.39101" lon="4.53746">
        <ele>370</ele>
        <time>2015-05-04T08:20:20Z</time>
      </trkpt>
      <trkpt lat="44.39105" lon="4.53761">
        <ele>369</ele>
        <time>2015-05-04T08:20:18Z</time>
      </trkpt>
      <trkpt lat="44.3911" lon="4.53776">
        <ele>369</ele>
        <time>2015-05-04T08:20:16Z</time>
      </trkpt>
      <trkpt lat="44.39117" lon="4.53798">
        <ele>369</ele>
        <time>2015-05-04T08:20:13Z</time>
      </trkpt>
      <trkpt lat="44.39121" lon="4.53814">
        <ele>369</ele>
        <time>2015-05-04T08:20:11Z</time>
      </trkpt>
      <trkpt lat="44.39126" lon="4.53829">
        <ele>369</ele>
        <time>2015-05-04T08:20:09Z</time>
      </trkpt>
      <trkpt lat="44.3913" lon="4.53844">
        <ele>368</ele>
        <time>2015-05-04T08:20:07Z</time>
      </trkpt>
      <trkpt lat="44.39137" lon="4.53867">
        <ele>368</ele>
        <time>2015-05-04T08:20:04Z</time>
      </trkpt>
      <trkpt lat="44.39142" lon="4.53882">
        <ele>368</ele>
        <time>2015-05-04T08:20:02Z</time>
      </trkpt>
      <trkpt lat="44.3915" lon="4.53905">
        <ele>368</ele>
        <time>2015-05-04T08:19:59Z</time>
      </trkpt>
      <trkpt lat="44.39157" lon="4.53929">
        <ele>368</ele>
        <time>2015-05-04T08:19:56Z</time>
      </trkpt>
      <trkpt lat="44.39162" lon="4.53945">
        <ele>368</ele>
        <time>2015-05-04T08:19:54Z</time>
      </trkpt>
      <trkpt lat="44.39171" lon="4.53968">
        <ele>369</ele>
        <time>2015-05-04T08:19:51Z</time>
      </trkpt>
      <trkpt lat="44.39176" lon="4.53984">
        <ele>369</ele>
        <time>2015-05-04T08:19:49Z</time>
      </trkpt>
      <trkpt lat="44.39181" lon="4.54">
        <ele>369</ele>
        <time>2015-05-04T08:19:47Z</time>
      </trkpt>
      <trkpt lat="44.39188" lon="4.54024">
        <ele>369</ele>
        <time>2015-05-04T08:19:44Z</time>
      </trkpt>
      <trkpt lat="44.39194" lon="4.5404">
        <ele>369</ele>
        <time>2015-05-04T08:19:42Z</time>
      </trkpt>
      <trkpt lat="44.39201" lon="4.54064">
        <ele>369</ele>
        <time>2015-05-04T08:19:39Z</time>
      </trkpt>
      <trkpt lat="44.39209" lon="4.54089">
        <ele>368</ele>
        <time>2015-05-04T08:19:36Z</time>
      </trkpt>
      <trkpt lat="44.39214" lon="4.54105">
        <ele>368</ele>
        <time>2015-05-04T08:19:34Z</time>
      </trkpt>
      <trkpt lat="44.3922" lon="4.54121">
        <ele>367</ele>
        <time>2015-05-04T08:19:32Z</time>
      </trkpt>
      <trkpt lat="44.39224" lon="4.54137">
        <ele>367</ele>
        <time>2015-05-04T08:19:30Z</time>
      </trkpt>
      <trkpt lat="44.39232" lon="4.54161">
        <ele>367</ele>
        <time>2015-05-04T08:19:27Z</time>
      </trkpt>
      <trkpt lat="44.39237" lon="4.54177">
        <ele>366</ele>
        <time>2015-05-04T08:19:25Z</time>
      </trkpt>
      <trkpt lat="44.39242" lon="4.54194">
        <ele>366</ele>
        <time>2015-05-04T08:19:23Z</time>
      </trkpt>
      <trkpt lat="44.39246" lon="4.5421">
        <ele>366</ele>
        <time>2015-05-04T08:19:21Z</time>
      </trkpt>
      <trkpt lat="44.39254" lon="4.54234">
        <ele>367</ele>
        <time>2015-05-04T08:19:18Z</time>
      </trkpt>
      <trkpt lat="44.39262" lon="4.54259">
        <ele>366</ele>
        <time>2015-05-04T08:19:15Z</time>
      </trkpt>
      <trkpt lat="44.39267" lon="4.54276">
        <ele>367</ele>
        <time>2015-05-04T08:19:13Z</time>
      </trkpt>
      <trkpt lat="44.39272" lon="4.54292">
        <ele>367</ele>
        <time>2015-05-04T08:19:11Z</time>
      </trkpt>
      <trkpt lat="44.39277" lon="4.54308">
        <ele>367</ele>
        <time>2015-05-04T08:19:09Z</time>
      </trkpt>
      <trkpt lat="44.39285" lon="4.54333">
        <ele>367</ele>
        <time>2015-05-04T08:19:06Z</time>
      </trkpt>
      <trkpt lat="44.3929" lon="4.54349">
        <ele>366</ele>
        <time>2015-05-04T08:19:04Z</time>
      </trkpt>
      <trkpt lat="44.39294" lon="4.54365">
        <ele>366</ele>
        <time>2015-05-04T08:19:02Z</time>
      </trkpt>
      <trkpt lat="44.39299" lon="4.54382">
        <ele>365</ele>
        <time>2015-05-04T08:19:00Z</time>
      </trkpt>
      <trkpt lat="44.39304" lon="4.54398">
        <ele>365</ele>
        <time>2015-05-04T08:18:58Z</time>
      </trkpt>
      <trkpt lat="44.39312" lon="4.54423">
        <ele>365</ele>
        <time>2015-05-04T08:18:55Z</time>
      </trkpt>
      <trkpt lat="44.39317" lon="4.5444">
        <ele>365</ele>
        <time>2015-05-04T08:18:53Z</time>
      </trkpt>
      <trkpt lat="44.39325" lon="4.54465">
        <ele>365</ele>
        <time>2015-05-04T08:18:50Z</time>
      </trkpt>
      <trkpt lat="44.3933" lon="4.54482">
        <ele>365</ele>
        <time>2015-05-04T08:18:48Z</time>
      </trkpt>
      <trkpt lat="44.39338" lon="4.54507">
        <ele>365</ele>
        <time>2015-05-04T08:18:45Z</time>
      </trkpt>
      <trkpt lat="44.39343" lon="4.54524">
        <ele>366</ele>
        <time>2015-05-04T08:18:43Z</time>
      </trkpt>
      <trkpt lat="44.39348" lon="4.54541">
        <ele>366</ele>
        <time>2015-05-04T08:18:41Z</time>
      </trkpt>
      <trkpt lat="44.39356" lon="4.54566">
        <ele>366</ele>
        <time>2015-05-04T08:18:38Z</time>
      </trkpt>
      <trkpt lat="44.39363" lon="4.54591">
        <ele>365</ele>
        <time>2015-05-04T08:18:35Z</time>
      </trkpt>
      <trkpt lat="44.39368" lon="4.54608">
        <ele>365</ele>
        <time>2015-05-04T08:18:33Z</time>
      </trkpt>
      <trkpt lat="44.39376" lon="4.54634">
        <ele>365</ele>
        <time>2015-05-04T08:18:30Z</time>
      </trkpt>
      <trkpt lat="44.39381" lon="4.54652">
        <ele>365</ele>
        <time>2015-05-04T08:18:28Z</time>
      </trkpt>
      <trkpt lat="44.39386" lon="4.5467">
        <ele>366</ele>
        <time>2015-05-04T08:18:26Z</time>
      </trkpt>
      <trkpt lat="44.3939" lon="4.54688">
        <ele>366</ele>
        <time>2015-05-04T08:18:24Z</time>
      </trkpt>
      <trkpt lat="44.39396" lon="4.54716">
        <ele>366</ele>
        <time>2015-05-04T08:18:21Z</time>
      </trkpt>
      <trkpt lat="44.39401" lon="4.54744">
        <ele>367</ele>
        <time>2015-05-04T08:18:18Z</time>
      </trkpt>
      <trkpt lat="44.39405" lon="4.5477">
        <ele>367</ele>
        <time>2015-05-04T08:18:15Z</time>
      </trkpt>
      <trkpt lat="44.3941" lon="4.54797">
        <ele>367</ele>
        <time>2015-05-04T08:18:12Z</time>
      </trkpt>
      <trkpt lat="44.39414" lon="4.54824">
        <ele>368</ele>
        <time>2015-05-04T08:18:09Z</time>
      </trkpt>
      <trkpt lat="44.39417" lon="4.54851">
        <ele>368</ele>
        <time>2015-05-04T08:18:06Z</time>
      </trkpt>
      <trkpt lat="44.3942" lon="4.54869">
        <ele>368</ele>
        <time>2015-05-04T08:18:04Z</time>
      </trkpt>
      <trkpt lat="44.39424" lon="4.54897">
        <ele>367</ele>
        <time>2015-05-04T08:18:01Z</time>
      </trkpt>
      <trkpt lat="44.39428" lon="4.54925">
        <ele>367</ele>
        <time>2015-05-04T08:17:58Z</time>
      </trkpt>
      <trkpt lat="44.39431" lon="4.54952">
        <ele>368</ele>
        <time>2015-05-04T08:17:55Z</time>
      </trkpt>
      <trkpt lat="44.39434" lon="4.5498">
        <ele>368</ele>
        <time>2015-05-04T08:17:52Z</time>
      </trkpt>
      <trkpt lat="44.39437" lon="4.55008">
        <ele>368</ele>
        <time>2015-05-04T08:17:49Z</time>
      </trkpt>
      <trkpt lat="44.3944" lon="4.55035">
        <ele>368</ele>
        <time>2015-05-04T08:17:46Z</time>
      </trkpt>
      <trkpt lat="44.39443" lon="4.55064">
        <ele>368</ele>
        <time>2015-05-04T08:17:43Z</time>
      </trkpt>
      <trkpt lat="44.39446" lon="4.55093">
        <ele>368</ele>
        <time>2015-05-04T08:17:40Z</time>
      </trkpt>
      <trkpt lat="44.39448" lon="4.55112">
        <ele>368</ele>
        <time>2015-05-04T08:17:38Z</time>
      </trkpt>
      <trkpt lat="44.3945" lon="4.55131">
        <ele>368</ele>
        <time>2015-05-04T08:17:36Z</time>
      </trkpt>
      <trkpt lat="44.39453" lon="4.5516">
        <ele>368</ele>
        <time>2015-05-04T08:17:33Z</time>
      </trkpt>
      <trkpt lat="44.39457" lon="4.55189">
        <ele>368</ele>
        <time>2015-05-04T08:17:30Z</time>
      </trkpt>
      <trkpt lat="44.39457" lon="4.55208">
        <ele>369</ele>
        <time>2015-05-04T08:17:28Z</time>
      </trkpt>
      <trkpt lat="44.39458" lon="4.55228">
        <ele>369</ele>
        <time>2015-05-04T08:17:26Z</time>
      </trkpt>
      <trkpt lat="44.39459" lon="4.55248">
        <ele>369</ele>
        <time>2015-05-04T08:17:24Z</time>
      </trkpt>
      <trkpt lat="44.39459" lon="4.55268">
        <ele>370</ele>
        <time>2015-05-04T08:17:22Z</time>
      </trkpt>
      <trkpt lat="44.39459" lon="4.55297">
        <ele>370</ele>
        <time>2015-05-04T08:17:19Z</time>
      </trkpt>
      <trkpt lat="44.39459" lon="4.55317">
        <ele>370</ele>
        <time>2015-05-04T08:17:17Z</time>
      </trkpt>
      <trkpt lat="44.3946" lon="4.55347">
        <ele>369</ele>
        <time>2015-05-04T08:17:14Z</time>
      </trkpt>
      <trkpt lat="44.3946" lon="4.55367">
        <ele>369</ele>
        <time>2015-05-04T08:17:12Z</time>
      </trkpt>
      <trkpt lat="44.3946" lon="4.55397">
        <ele>369</ele>
        <time>2015-05-04T08:17:09Z</time>
      </trkpt>
      <trkpt lat="44.3946" lon="4.55418">
        <ele>369</ele>
        <time>2015-05-04T08:17:07Z</time>
      </trkpt>
      <trkpt lat="44.39459" lon="4.55447">
        <ele>369</ele>
        <time>2015-05-04T08:17:04Z</time>
      </trkpt>
      <trkpt lat="44.3946" lon="4.55468">
        <ele>369</ele>
        <time>2015-05-04T08:17:02Z</time>
      </trkpt>
      <trkpt lat="44.3946" lon="4.55488">
        <ele>369</ele>
        <time>2015-05-04T08:17:00Z</time>
      </trkpt>
      <trkpt lat="44.3946" lon="4.55519">
        <ele>370</ele>
        <time>2015-05-04T08:16:57Z</time>
      </trkpt>
      <trkpt lat="44.39461" lon="4.55539">
        <ele>370</ele>
        <time>2015-05-04T08:16:55Z</time>
      </trkpt>
      <trkpt lat="44.39461" lon="4.5556">
        <ele>370</ele>
        <time>2015-05-04T08:16:53Z</time>
      </trkpt>
      <trkpt lat="44.39461" lon="4.55591">
        <ele>370</ele>
        <time>2015-05-04T08:16:50Z</time>
      </trkpt>
      <trkpt lat="44.39461" lon="4.55612">
        <ele>370</ele>
        <time>2015-05-04T08:16:48Z</time>
      </trkpt>
      <trkpt lat="44.39461" lon="4.55643">
        <ele>369</ele>
        <time>2015-05-04T08:16:45Z</time>
      </trkpt>
      <trkpt lat="44.39461" lon="4.55663">
        <ele>369</ele>
        <time>2015-05-04T08:16:43Z</time>
      </trkpt>
      <trkpt lat="44.39462" lon="4.55685">
        <ele>369</ele>
        <time>2015-05-04T08:16:41Z</time>
      </trkpt>
      <trkpt lat="44.39463" lon="4.55706">
        <ele>369</ele>
        <time>2015-05-04T08:16:39Z</time>
      </trkpt>
      <trkpt lat="44.39465" lon="4.55738">
        <ele>369</ele>
        <time>2015-05-04T08:16:36Z</time>
      </trkpt>
      <trkpt lat="44.39469" lon="4.5577">
        <ele>370</ele>
        <time>2015-05-04T08:16:33Z</time>
      </trkpt>
      <trkpt lat="44.39473" lon="4.55803">
        <ele>370</ele>
        <time>2015-05-04T08:16:30Z</time>
      </trkpt>
      <trkpt lat="44.39478" lon="4.55834">
        <ele>371</ele>
        <time>2015-05-04T08:16:27Z</time>
      </trkpt>
      <trkpt lat="44.39481" lon="4.55864">
        <ele>371</ele>
        <time>2015-05-04T08:16:24Z</time>
      </trkpt>
      <trkpt lat="44.39483" lon="4.55883">
        <ele>371</ele>
        <time>2015-05-04T08:16:22Z</time>
      </trkpt>
      <trkpt lat="44.39486" lon="4.55912">
        <ele>372</ele>
        <time>2015-05-04T08:16:19Z</time>
      </trkpt>
      <trkpt lat="44.39488" lon="4.55942">
        <ele>372</ele>
        <time>2015-05-04T08:16:16Z</time>
      </trkpt>
      <trkpt lat="44.39489" lon="4.55963">
        <ele>372</ele>
        <time>2015-05-04T08:16:14Z</time>
      </trkpt>
      <trkpt lat="44.3949" lon="4.55994">
        <ele>373</ele>
        <time>2015-05-04T08:16:11Z</time>
      </trkpt>
      <trkpt lat="44.39491" lon="4.56014">
        <ele>373</ele>
        <time>2015-05-04T08:16:09Z</time>
      </trkpt>
      <trkpt lat="44.39493" lon="4.56045">
        <ele>373</ele>
        <time>2015-05-04T08:16:06Z</time>
      </trkpt>
      <trkpt lat="44.39494" lon="4.56066">
        <ele>373</ele>
        <time>2015-05-04T08:16:04Z</time>
      </trkpt>
      <trkpt lat="44.39494" lon="4.56086">
        <ele>373</ele>
        <time>2015-05-04T08:16:02Z</time>
      </trkpt>
      <trkpt lat="44.39494" lon="4.56107">
        <ele>373</ele>
        <time>2015-05-04T08:16:00Z</time>
      </trkpt>
      <trkpt lat="44.39495" lon="4.56128">
        <ele>372</ele>
        <time>2015-05-04T08:15:58Z</time>
      </trkpt>
      <trkpt lat="44.39496" lon="4.56159">
        <ele>372</ele>
        <time>2015-05-04T08:15:55Z</time>
      </trkpt>
      <trkpt lat="44.39496" lon="4.5618">
        <ele>372</ele>
        <time>2015-05-04T08:15:53Z</time>
      </trkpt>
      <trkpt lat="44.39497" lon="4.56201">
        <ele>373</ele>
        <time>2015-05-04T08:15:51Z</time>
      </trkpt>
      <trkpt lat="44.39498" lon="4.56221">
        <ele>373</ele>
        <time>2015-05-04T08:15:49Z</time>
      </trkpt>
      <trkpt lat="44.39499" lon="4.56253">
        <ele>374</ele>
        <time>2015-05-04T08:15:46Z</time>
      </trkpt>
      <trkpt lat="44.39499" lon="4.56274">
        <ele>374</ele>
        <time>2015-05-04T08:15:44Z</time>
      </trkpt>
      <trkpt lat="44.395" lon="4.56295">
        <ele>374</ele>
        <time>2015-05-04T08:15:42Z</time>
      </trkpt>
      <trkpt lat="44.395" lon="4.56317">
        <ele>375</ele>
        <time>2015-05-04T08:15:40Z</time>
      </trkpt>
      <trkpt lat="44.39501" lon="4.5635">
        <ele>375</ele>
        <time>2015-05-04T08:15:37Z</time>
      </trkpt>
      <trkpt lat="44.39501" lon="4.56372">
        <ele>375</ele>
        <time>2015-05-04T08:15:35Z</time>
      </trkpt>
      <trkpt lat="44.39502" lon="4.56395">
        <ele>376</ele>
        <time>2015-05-04T08:15:33Z</time>
      </trkpt>
      <trkpt lat="44.39502" lon="4.56418">
        <ele>376</ele>
        <time>2015-05-04T08:15:31Z</time>
      </trkpt>
      <trkpt lat="44.39503" lon="4.56452">
        <ele>376</ele>
        <time>2015-05-04T08:15:28Z</time>
      </trkpt>
      <trkpt lat="44.39504" lon="4.56474">
        <ele>377</ele>
        <time>2015-05-04T08:15:26Z</time>
      </trkpt>
      <trkpt lat="44.39505" lon="4.56507">
        <ele>377</ele>
        <time>2015-05-04T08:15:23Z</time>
      </trkpt>
      <trkpt lat="44.39506" lon="4.56529">
        <ele>378</ele>
        <time>2015-05-04T08:15:21Z</time>
      </trkpt>
      <trkpt lat="44.39506" lon="4.56549">
        <ele>378</ele>
        <time>2015-05-04T08:15:19Z</time>
      </trkpt>
      <trkpt lat="44.39506" lon="4.56579">
        <ele>378</ele>
        <time>2015-05-04T08:15:16Z</time>
      </trkpt>
      <trkpt lat="44.39507" lon="4.56599">
        <ele>379</ele>
        <time>2015-05-04T08:15:14Z</time>
      </trkpt>
      <trkpt lat="44.39507" lon="4.56618">
        <ele>379</ele>
        <time>2015-05-04T08:15:12Z</time>
      </trkpt>
      <trkpt lat="44.39508" lon="4.56637">
        <ele>379</ele>
        <time>2015-05-04T08:15:10Z</time>
      </trkpt>
      <trkpt lat="44.39508" lon="4.56665">
        <ele>379</ele>
        <time>2015-05-04T08:15:07Z</time>
      </trkpt>
      <trkpt lat="44.39508" lon="4.56683">
        <ele>380</ele>
        <time>2015-05-04T08:15:05Z</time>
      </trkpt>
      <trkpt lat="44.39508" lon="4.56701">
        <ele>381</ele>
        <time>2015-05-04T08:15:03Z</time>
      </trkpt>
      <trkpt lat="44.39508" lon="4.56719">
        <ele>381</ele>
        <time>2015-05-04T08:15:01Z</time>
      </trkpt>
      <trkpt lat="44.3951" lon="4.56745">
        <ele>382</ele>
        <time>2015-05-04T08:14:58Z</time>
      </trkpt>
      <trkpt lat="44.39512" lon="4.56761">
        <ele>382</ele>
        <time>2015-05-04T08:14:56Z</time>
      </trkpt>
      <trkpt lat="44.39514" lon="4.56785">
        <ele>382</ele>
        <time>2015-05-04T08:14:53Z</time>
      </trkpt>
      <trkpt lat="44.39514" lon="4.56801">
        <ele>382</ele>
        <time>2015-05-04T08:14:51Z</time>
      </trkpt>
      <trkpt lat="44.39514" lon="4.56817">
        <ele>382</ele>
        <time>2015-05-04T08:14:49Z</time>
      </trkpt>
      <trkpt lat="44.39515" lon="4.56833">
        <ele>382</ele>
        <time>2015-05-04T08:14:47Z</time>
      </trkpt>
      <trkpt lat="44.39515" lon="4.56857">
        <ele>381</ele>
        <time>2015-05-04T08:14:44Z</time>
      </trkpt>
      <trkpt lat="44.39515" lon="4.56872">
        <ele>381</ele>
        <time>2015-05-04T08:14:42Z</time>
      </trkpt>
      <trkpt lat="44.39516" lon="4.56888">
        <ele>380</ele>
        <time>2015-05-04T08:14:40Z</time>
      </trkpt>
      <trkpt lat="44.39516" lon="4.56912">
        <ele>379</ele>
        <time>2015-05-04T08:14:37Z</time>
      </trkpt>
      <trkpt lat="44.39516" lon="4.56928">
        <ele>378</ele>
        <time>2015-05-04T08:14:35Z</time>
      </trkpt>
      <trkpt lat="44.39516" lon="4.56944">
        <ele>378</ele>
        <time>2015-05-04T08:14:33Z</time>
      </trkpt>
      <trkpt lat="44.39517" lon="4.56968">
        <ele>378</ele>
        <time>2015-05-04T08:14:30Z</time>
      </trkpt>
      <trkpt lat="44.39517" lon="4.56984">
        <ele>378</ele>
        <time>2015-05-04T08:14:28Z</time>
      </trkpt>
      <trkpt lat="44.39517" lon="4.57001">
        <ele>377</ele>
        <time>2015-05-04T08:14:26Z</time>
      </trkpt>
      <trkpt lat="44.39518" lon="4.57026">
        <ele>377</ele>
        <time>2015-05-04T08:14:23Z</time>
      </trkpt>
      <trkpt lat="44.39518" lon="4.57053">
        <ele>377</ele>
        <time>2015-05-04T08:14:20Z</time>
      </trkpt>
      <trkpt lat="44.3952" lon="4.57071">
        <ele>377</ele>
        <time>2015-05-04T08:14:18Z</time>
      </trkpt>
      <trkpt lat="44.3952" lon="4.5709">
        <ele>376</ele>
        <time>2015-05-04T08:14:16Z</time>
      </trkpt>
      <trkpt lat="44.3952" lon="4.57118">
        <ele>375</ele>
        <time>2015-05-04T08:14:13Z</time>
      </trkpt>
      <trkpt lat="44.39521" lon="4.57137">
        <ele>375</ele>
        <time>2015-05-04T08:14:11Z</time>
      </trkpt>
      <trkpt lat="44.39521" lon="4.57155">
        <ele>375</ele>
        <time>2015-05-04T08:14:09Z</time>
      </trkpt>
      <trkpt lat="44.39522" lon="4.57174">
        <ele>374</ele>
        <time>2015-05-04T08:14:07Z</time>
      </trkpt>
      <trkpt lat="44.39523" lon="4.57193">
        <ele>374</ele>
        <time>2015-05-04T08:14:05Z</time>
      </trkpt>
      <trkpt lat="44.39524" lon="4.57221">
        <ele>374</ele>
        <time>2015-05-04T08:14:02Z</time>
      </trkpt>
      <trkpt lat="44.39525" lon="4.57239">
        <ele>374</ele>
        <time>2015-05-04T08:14:00Z</time>
      </trkpt>
      <trkpt lat="44.39526" lon="4.57257">
        <ele>374</ele>
        <time>2015-05-04T08:13:58Z</time>
      </trkpt>
      <trkpt lat="44.39528" lon="4.57275">
        <ele>374</ele>
        <time>2015-05-04T08:13:56Z</time>
      </trkpt>
      <trkpt lat="44.39528" lon="4.57301">
        <ele>374</ele>
        <time>2015-05-04T08:13:53Z</time>
      </trkpt>
      <trkpt lat="44.3953" lon="4.57318">
        <ele>374</ele>
        <time>2015-05-04T08:13:51Z</time>
      </trkpt>
      <trkpt lat="44.39532" lon="4.57343">
        <ele>374</ele>
        <time>2015-05-04T08:13:48Z</time>
      </trkpt>
      <trkpt lat="44.39534" lon="4.57368">
        <ele>374</ele>
        <time>2015-05-04T08:13:45Z</time>
      </trkpt>
      <trkpt lat="44.39535" lon="4.57384">
        <ele>374</ele>
        <time>2015-05-04T08:13:43Z</time>
      </trkpt>
      <trkpt lat="44.39536" lon="4.57409">
        <ele>374</ele>
        <time>2015-05-04T08:13:40Z</time>
      </trkpt>
      <trkpt lat="44.39537" lon="4.57425">
        <ele>375</ele>
        <time>2015-05-04T08:13:38Z</time>
      </trkpt>
      <trkpt lat="44.39537" lon="4.57442">
        <ele>375</ele>
        <time>2015-05-04T08:13:36Z</time>
      </trkpt>
      <trkpt lat="44.39538" lon="4.57466">
        <ele>374</ele>
        <time>2015-05-04T08:13:33Z</time>
      </trkpt>
      <trkpt lat="44.39539" lon="4.57484">
        <ele>374</ele>
        <time>2015-05-04T08:13:31Z</time>
      </trkpt>
      <trkpt lat="44.39539" lon="4.57501">
        <ele>374</ele>
        <time>2015-05-04T08:13:29Z</time>
      </trkpt>
      <trkpt lat="44.39539" lon="4.57527">
        <ele>374</ele>
        <time>2015-05-04T08:13:26Z</time>
      </trkpt>
      <trkpt lat="44.39539" lon="4.57544">
        <ele>373</ele>
        <time>2015-05-04T08:13:24Z</time>
      </trkpt>
      <trkpt lat="44.39538" lon="4.57561">
        <ele>373</ele>
        <time>2015-05-04T08:13:22Z</time>
      </trkpt>
      <trkpt lat="44.39539" lon="4.57589">
        <ele>372</ele>
        <time>2015-05-04T08:13:19Z</time>
      </trkpt>
      <trkpt lat="44.39539" lon="4.57608">
        <ele>372</ele>
        <time>2015-05-04T08:13:17Z</time>
      </trkpt>
      <trkpt lat="44.39541" lon="4.57637">
        <ele>372</ele>
        <time>2015-05-04T08:13:14Z</time>
      </trkpt>
      <trkpt lat="44.39542" lon="4.57657">
        <ele>372</ele>
        <time>2015-05-04T08:13:12Z</time>
      </trkpt>
      <trkpt lat="44.39544" lon="4.57687">
        <ele>372</ele>
        <time>2015-05-04T08:13:09Z</time>
      </trkpt>
      <trkpt lat="44.39545" lon="4.57707">
        <ele>372</ele>
        <time>2015-05-04T08:13:07Z</time>
      </trkpt>
      <trkpt lat="44.39546" lon="4.57736">
        <ele>372</ele>
        <time>2015-05-04T08:13:04Z</time>
      </trkpt>
      <trkpt lat="44.39547" lon="4.57756">
        <ele>372</ele>
        <time>2015-05-04T08:13:02Z</time>
      </trkpt>
      <trkpt lat="44.39549" lon="4.57788">
        <ele>372</ele>
        <time>2015-05-04T08:12:59Z</time>
      </trkpt>
      <trkpt lat="44.3955" lon="4.57808">
        <ele>371</ele>
        <time>2015-05-04T08:12:57Z</time>
      </trkpt>
      <trkpt lat="44.39551" lon="4.57837">
        <ele>371</ele>
        <time>2015-05-04T08:12:54Z</time>
      </trkpt>
      <trkpt lat="44.39551" lon="4.57867">
        <ele>371</ele>
        <time>2015-05-04T08:12:51Z</time>
      </trkpt>
      <trkpt lat="44.3955" lon="4.57887">
        <ele>371</ele>
        <time>2015-05-04T08:12:49Z</time>
      </trkpt>
      <trkpt lat="44.39549" lon="4.5792">
        <ele>370</ele>
        <time>2015-05-04T08:12:46Z</time>
      </trkpt>
      <trkpt lat="44.39549" lon="4.57944">
        <ele>370</ele>
        <time>2015-05-04T08:12:44Z</time>
      </trkpt>
      <trkpt lat="44.3955" lon="4.57983">
        <ele>369</ele>
        <time>2015-05-04T08:12:41Z</time>
      </trkpt>
      <trkpt lat="44.3955" lon="4.58012">
        <ele>369</ele>
        <time>2015-05-04T08:12:39Z</time>
      </trkpt>
      <trkpt lat="44.39551" lon="4.58042">
        <ele>370</ele>
        <time>2015-05-04T08:12:37Z</time>
      </trkpt>
      <trkpt lat="44.39552" lon="4.58087">
        <ele>370</ele>
        <time>2015-05-04T08:12:34Z</time>
      </trkpt>
      <trkpt lat="44.39553" lon="4.58116">
        <ele>371</ele>
        <time>2015-05-04T08:12:32Z</time>
      </trkpt>
      <trkpt lat="44.39555" lon="4.5816">
        <ele>372</ele>
        <time>2015-05-04T08:12:29Z</time>
      </trkpt>
      <trkpt lat="44.39555" lon="4.58188">
        <ele>375</ele>
        <time>2015-05-04T08:12:27Z</time>
      </trkpt>
      <trkpt lat="44.39557" lon="4.58228">
        <ele>376</ele>
        <time>2015-05-04T08:12:24Z</time>
      </trkpt>
      <trkpt lat="44.39558" lon="4.58252">
        <ele>380</ele>
        <time>2015-05-04T08:12:22Z</time>
      </trkpt>
      <trkpt lat="44.3956" lon="4.58287">
        <ele>381</ele>
        <time>2015-05-04T08:12:19Z</time>
      </trkpt>
      <trkpt lat="44.39562" lon="4.58318">
        <ele>382</ele>
        <time>2015-05-04T08:12:16Z</time>
      </trkpt>
      <trkpt lat="44.39563" lon="4.58338">
        <ele>383</ele>
        <time>2015-05-04T08:12:14Z</time>
      </trkpt>
      <trkpt lat="44.39564" lon="4.58358">
        <ele>383</ele>
        <time>2015-05-04T08:12:12Z</time>
      </trkpt>
      <trkpt lat="44.39566" lon="4.58387">
        <ele>383</ele>
        <time>2015-05-04T08:12:09Z</time>
      </trkpt>
      <trkpt lat="44.39568" lon="4.58416">
        <ele>383</ele>
        <time>2015-05-04T08:12:06Z</time>
      </trkpt>
      <trkpt lat="44.39569" lon="4.58437">
        <ele>382</ele>
        <time>2015-05-04T08:12:04Z</time>
      </trkpt>
      <trkpt lat="44.3957" lon="4.58458">
        <ele>382</ele>
        <time>2015-05-04T08:12:02Z</time>
      </trkpt>
      <trkpt lat="44.39571" lon="4.58493">
        <ele>381</ele>
        <time>2015-05-04T08:11:59Z</time>
      </trkpt>
      <trkpt lat="44.39572" lon="4.58518">
        <ele>379</ele>
        <time>2015-05-04T08:11:57Z</time>
      </trkpt>
      <trkpt lat="44.39571" lon="4.58557">
        <ele>378</ele>
        <time>2015-05-04T08:11:54Z</time>
      </trkpt>
      <trkpt lat="44.39571" lon="4.58586">
        <ele>376</ele>
        <time>2015-05-04T08:11:52Z</time>
      </trkpt>
      <trkpt lat="44.39571" lon="4.58633">
        <ele>377</ele>
        <time>2015-05-04T08:11:49Z</time>
      </trkpt>
      <trkpt lat="44.39571" lon="4.58666">
        <ele>377</ele>
        <time>2015-05-04T08:11:47Z</time>
      </trkpt>
      <trkpt lat="44.39571" lon="4.58716">
        <ele>381</ele>
        <time>2015-05-04T08:11:44Z</time>
      </trkpt>
      <trkpt lat="44.39571" lon="4.58748">
        <ele>381</ele>
        <time>2015-05-04T08:11:42Z</time>
      </trkpt>
      <trkpt lat="44.39571" lon="4.58793">
        <ele>386</ele>
        <time>2015-05-04T08:11:39Z</time>
      </trkpt>
      <trkpt lat="44.3957" lon="4.58821">
        <ele>388</ele>
        <time>2015-05-04T08:11:37Z</time>
      </trkpt>
      <trkpt lat="44.3957" lon="4.58847">
        <ele>390</ele>
        <time>2015-05-04T08:11:35Z</time>
      </trkpt>
      <trkpt lat="44.39569" lon="4.58872">
        <ele>391</ele>
        <time>2015-05-04T08:11:33Z</time>
      </trkpt>
      <trkpt lat="44.39567" lon="4.58906">
        <ele>392</ele>
        <time>2015-05-04T08:11:30Z</time>
      </trkpt>
      <trkpt lat="44.39566" lon="4.58928">
        <ele>392</ele>
        <time>2015-05-04T08:11:28Z</time>
      </trkpt>
      <trkpt lat="44.39565" lon="4.58961">
        <ele>391</ele>
        <time>2015-05-04T08:11:25Z</time>
      </trkpt>
      <trkpt lat="44.39564" lon="4.58983">
        <ele>391</ele>
        <time>2015-05-04T08:11:23Z</time>
      </trkpt>
      <trkpt lat="44.39563" lon="4.59006">
        <ele>390</ele>
        <time>2015-05-04T08:11:21Z</time>
      </trkpt>
      <trkpt lat="44.39562" lon="4.59043">
        <ele>391</ele>
        <time>2015-05-04T08:11:18Z</time>
      </trkpt>
      <trkpt lat="44.39561" lon="4.59081">
        <ele>390</ele>
        <time>2015-05-04T08:11:15Z</time>
      </trkpt>
      <trkpt lat="44.39563" lon="4.59119">
        <ele>392</ele>
        <time>2015-05-04T08:11:12Z</time>
      </trkpt>
      <trkpt lat="44.39569" lon="4.59143">
        <ele>393</ele>
        <time>2015-05-04T08:11:10Z</time>
      </trkpt>
      <trkpt lat="44.39586" lon="4.59174">
        <ele>393</ele>
        <time>2015-05-04T08:11:07Z</time>
      </trkpt>
      <trkpt lat="44.39599" lon="4.59191">
        <ele>393</ele>
        <time>2015-05-04T08:11:05Z</time>
      </trkpt>
      <trkpt lat="44.39621" lon="4.59216">
        <ele>393</ele>
        <time>2015-05-04T08:11:02Z</time>
      </trkpt>
      <trkpt lat="44.39644" lon="4.59241">
        <ele>393</ele>
        <time>2015-05-04T08:10:59Z</time>
      </trkpt>
      <trkpt lat="44.39659" lon="4.59258">
        <ele>394</ele>
        <time>2015-05-04T08:10:57Z</time>
      </trkpt>
      <trkpt lat="44.39674" lon="4.59274">
        <ele>394</ele>
        <time>2015-05-04T08:10:55Z</time>
      </trkpt>
      <trkpt lat="44.39695" lon="4.59299">
        <ele>395</ele>
        <time>2015-05-04T08:10:52Z</time>
      </trkpt>
      <trkpt lat="44.39716" lon="4.59322">
        <ele>396</ele>
        <time>2015-05-04T08:10:49Z</time>
      </trkpt>
      <trkpt lat="44.39735" lon="4.59344">
        <ele>399</ele>
        <time>2015-05-04T08:10:46Z</time>
      </trkpt>
      <trkpt lat="44.39747" lon="4.59358">
        <ele>399</ele>
        <time>2015-05-04T08:10:44Z</time>
      </trkpt>
      <trkpt lat="44.39761" lon="4.5938">
        <ele>400</ele>
        <time>2015-05-04T08:10:41Z</time>
      </trkpt>
      <trkpt lat="44.3977" lon="4.59393">
        <ele>400</ele>
        <time>2015-05-04T08:10:39Z</time>
      </trkpt>
      <trkpt lat="44.39779" lon="4.59406">
        <ele>400</ele>
        <time>2015-05-04T08:10:37Z</time>
      </trkpt>
      <trkpt lat="44.39792" lon="4.59424">
        <ele>400</ele>
        <time>2015-05-04T08:10:34Z</time>
      </trkpt>
      <trkpt lat="44.39801" lon="4.59437">
        <ele>400</ele>
        <time>2015-05-04T08:10:32Z</time>
      </trkpt>
      <trkpt lat="44.39811" lon="4.59449">
        <ele>400</ele>
        <time>2015-05-04T08:10:30Z</time>
      </trkpt>
      <trkpt lat="44.39826" lon="4.59469">
        <ele>400</ele>
        <time>2015-05-04T08:10:27Z</time>
      </trkpt>
      <trkpt lat="44.39836" lon="4.59482">
        <ele>400</ele>
        <time>2015-05-04T08:10:25Z</time>
      </trkpt>
      <trkpt lat="44.39847" lon="4.59497">
        <ele>400</ele>
        <time>2015-05-04T08:10:23Z</time>
      </trkpt>
      <trkpt lat="44.39865" lon="4.5952">
        <ele>399</ele>
        <time>2015-05-04T08:10:20Z</time>
      </trkpt>
      <trkpt lat="44.39877" lon="4.59535">
        <ele>398</ele>
        <time>2015-05-04T08:10:18Z</time>
      </trkpt>
      <trkpt lat="44.39889" lon="4.59552">
        <ele>398</ele>
        <time>2015-05-04T08:10:16Z</time>
      </trkpt>
      <trkpt lat="44.39908" lon="4.59578">
        <ele>398</ele>
        <time>2015-05-04T08:10:13Z</time>
      </trkpt>
      <trkpt lat="44.3993" lon="4.59605">
        <ele>399</ele>
        <time>2015-05-04T08:10:10Z</time>
      </trkpt>
      <trkpt lat="44.39953" lon="4.59633">
        <ele>399</ele>
        <time>2015-05-04T08:10:07Z</time>
      </trkpt>
      <trkpt lat="44.39977" lon="4.59662">
        <ele>400</ele>
        <time>2015-05-04T08:10:05Z</time>
      </trkpt>
      <trkpt lat="44.39992" lon="4.59681">
        <ele>402</ele>
        <time>2015-05-04T08:10:02Z</time>
      </trkpt>
      <trkpt lat="44.40007" lon="4.59701">
        <ele>402</ele>
        <time>2015-05-04T08:10:00Z</time>
      </trkpt>
      <trkpt lat="44.40019" lon="4.59721">
        <ele>403</ele>
        <time>2015-05-04T08:09:58Z</time>
      </trkpt>
      <trkpt lat="44.40036" lon="4.59753">
        <ele>405</ele>
        <time>2015-05-04T08:09:55Z</time>
      </trkpt>
      <trkpt lat="44.40046" lon="4.59773">
        <ele>405</ele>
        <time>2015-05-04T08:09:53Z</time>
      </trkpt>
      <trkpt lat="44.4006" lon="4.59802">
        <ele>405</ele>
        <time>2015-05-04T08:09:50Z</time>
      </trkpt>
      <trkpt lat="44.40072" lon="4.59828">
        <ele>406</ele>
        <time>2015-05-04T08:09:47Z</time>
      </trkpt>
      <trkpt lat="44.40078" lon="4.59845">
        <ele>407</ele>
        <time>2015-05-04T08:09:45Z</time>
      </trkpt>
      <trkpt lat="44.40084" lon="4.59862">
        <ele>408</ele>
        <time>2015-05-04T08:09:43Z</time>
      </trkpt>
      <trkpt lat="44.40089" lon="4.59878">
        <ele>408</ele>
        <time>2015-05-04T08:09:41Z</time>
      </trkpt>
      <trkpt lat="44.40094" lon="4.59893">
        <ele>409</ele>
        <time>2015-05-04T08:09:39Z</time>
      </trkpt>
      <trkpt lat="44.40101" lon="4.59915">
        <ele>410</ele>
        <time>2015-05-04T08:09:36Z</time>
      </trkpt>
      <trkpt lat="44.40106" lon="4.59929">
        <ele>412</ele>
        <time>2015-05-04T08:09:34Z</time>
      </trkpt>
      <trkpt lat="44.40113" lon="4.59949">
        <ele>412</ele>
        <time>2015-05-04T08:09:31Z</time>
      </trkpt>
      <trkpt lat="44.40117" lon="4.59962">
        <ele>412</ele>
        <time>2015-05-04T08:09:29Z</time>
      </trkpt>
      <trkpt lat="44.40121" lon="4.59974">
        <ele>413</ele>
        <time>2015-05-04T08:09:27Z</time>
      </trkpt>
      <trkpt lat="44.40126" lon="4.59991">
        <ele>413</ele>
        <time>2015-05-04T08:09:24Z</time>
      </trkpt>
      <trkpt lat="44.4013" lon="4.60001">
        <ele>413</ele>
        <time>2015-05-04T08:09:22Z</time>
      </trkpt>
      <trkpt lat="44.40134" lon="4.60017">
        <ele>413</ele>
        <time>2015-05-04T08:09:19Z</time>
      </trkpt>
      <trkpt lat="44.40138" lon="4.60027">
        <ele>413</ele>
        <time>2015-05-04T08:09:17Z</time>
      </trkpt>
      <trkpt lat="44.40142" lon="4.60037">
        <ele>413</ele>
        <time>2015-05-04T08:09:15Z</time>
      </trkpt>
      <trkpt lat="44.40147" lon="4.60052">
        <ele>413</ele>
        <time>2015-05-04T08:09:13Z</time>
      </trkpt>
      <trkpt lat="44.4015" lon="4.60061">
        <ele>413</ele>
        <time>2015-05-04T08:09:10Z</time>
      </trkpt>
      <trkpt lat="44.40153" lon="4.6007">
        <ele>413</ele>
        <time>2015-05-04T08:09:08Z</time>
      </trkpt>
      <trkpt lat="44.40158" lon="4.60084">
        <ele>412</ele>
        <time>2015-05-04T08:09:05Z</time>
      </trkpt>
      <trkpt lat="44.40161" lon="4.60093">
        <ele>412</ele>
        <time>2015-05-04T08:09:03Z</time>
      </trkpt>
      <trkpt lat="44.40165" lon="4.60102">
        <ele>411</ele>
        <time>2015-05-04T08:09:01Z</time>
      </trkpt>
      <trkpt lat="44.40168" lon="4.60112">
        <ele>412</ele>
        <time>2015-05-04T08:08:59Z</time>
      </trkpt>
      <trkpt lat="44.40172" lon="4.60126">
        <ele>411</ele>
        <time>2015-05-04T08:08:56Z</time>
      </trkpt>
      <trkpt lat="44.40175" lon="4.60135">
        <ele>411</ele>
        <time>2015-05-04T08:08:54Z</time>
      </trkpt>
      <trkpt lat="44.40179" lon="4.60144">
        <ele>411</ele>
        <time>2015-05-04T08:08:52Z</time>
      </trkpt>
      <trkpt lat="44.40182" lon="4.60153">
        <ele>411</ele>
        <time>2015-05-04T08:08:50Z</time>
      </trkpt>
      <trkpt lat="44.40185" lon="4.60162">
        <ele>410</ele>
        <time>2015-05-04T08:08:48Z</time>
      </trkpt>
      <trkpt lat="44.40189" lon="4.60175">
        <ele>408</ele>
        <time>2015-05-04T08:08:45Z</time>
      </trkpt>
      <trkpt lat="44.40192" lon="4.60184">
        <ele>408</ele>
        <time>2015-05-04T08:08:43Z</time>
      </trkpt>
      <trkpt lat="44.40196" lon="4.60192">
        <ele>408</ele>
        <time>2015-05-04T08:08:41Z</time>
      </trkpt>
      <trkpt lat="44.402" lon="4.60206">
        <ele>407</ele>
        <time>2015-05-04T08:08:38Z</time>
      </trkpt>
      <trkpt lat="44.40203" lon="4.60215">
        <ele>407</ele>
        <time>2015-05-04T08:08:36Z</time>
      </trkpt>
      <trkpt lat="44.40206" lon="4.60224">
        <ele>407</ele>
        <time>2015-05-04T08:08:34Z</time>
      </trkpt>
      <trkpt lat="44.40209" lon="4.60233">
        <ele>407</ele>
        <time>2015-05-04T08:08:32Z</time>
      </trkpt>
      <trkpt lat="44.40212" lon="4.60243">
        <ele>407</ele>
        <time>2015-05-04T08:08:30Z</time>
      </trkpt>
      <trkpt lat="44.40217" lon="4.60256">
        <ele>404</ele>
        <time>2015-05-04T08:08:28Z</time>
      </trkpt>
      <trkpt lat="44.4022" lon="4.60265">
        <ele>404</ele>
        <time>2015-05-04T08:08:25Z</time>
      </trkpt>
      <trkpt lat="44.40225" lon="4.60278">
        <ele>404</ele>
        <time>2015-05-04T08:08:22Z</time>
      </trkpt>
      <trkpt lat="44.40228" lon="4.60286">
        <ele>404</ele>
        <time>2015-05-04T08:08:20Z</time>
      </trkpt>
      <trkpt lat="44.4023" lon="4.60295">
        <ele>403</ele>
        <time>2015-05-04T08:08:18Z</time>
      </trkpt>
      <trkpt lat="44.40233" lon="4.60303">
        <ele>403</ele>
        <time>2015-05-04T08:08:16Z</time>
      </trkpt>
      <trkpt lat="44.40237" lon="4.60316">
        <ele>403</ele>
        <time>2015-05-04T08:08:13Z</time>
      </trkpt>
      <trkpt lat="44.4024" lon="4.60324">
        <ele>403</ele>
        <time>2015-05-04T08:08:11Z</time>
      </trkpt>
      <trkpt lat="44.40244" lon="4.60336">
        <ele>402</ele>
        <time>2015-05-04T08:08:08Z</time>
      </trkpt>
      <trkpt lat="44.40247" lon="4.60345">
        <ele>401</ele>
        <time>2015-05-04T08:08:06Z</time>
      </trkpt>
      <trkpt lat="44.40252" lon="4.60358">
        <ele>400</ele>
        <time>2015-05-04T08:08:03Z</time>
      </trkpt>
      <trkpt lat="44.40255" lon="4.60367">
        <ele>400</ele>
        <time>2015-05-04T08:08:01Z</time>
      </trkpt>
      <trkpt lat="44.40258" lon="4.60375">
        <ele>400</ele>
        <time>2015-05-04T08:07:59Z</time>
      </trkpt>
      <trkpt lat="44.4026" lon="4.60384">
        <ele>400</ele>
        <time>2015-05-04T08:07:57Z</time>
      </trkpt>
      <trkpt lat="44.40264" lon="4.60397">
        <ele>400</ele>
        <time>2015-05-04T08:07:54Z</time>
      </trkpt>
      <trkpt lat="44.40267" lon="4.60405">
        <ele>400</ele>
        <time>2015-05-04T08:07:52Z</time>
      </trkpt>
      <trkpt lat="44.4027" lon="4.60413">
        <ele>399</ele>
        <time>2015-05-04T08:07:50Z</time>
      </trkpt>
      <trkpt lat="44.40272" lon="4.60422">
        <ele>398</ele>
        <time>2015-05-04T08:07:48Z</time>
      </trkpt>
      <trkpt lat="44.40276" lon="4.60433">
        <ele>397</ele>
        <time>2015-05-04T08:07:46Z</time>
      </trkpt>
      <trkpt lat="44.40278" lon="4.60442">
        <ele>397</ele>
        <time>2015-05-04T08:07:43Z</time>
      </trkpt>
      <trkpt lat="44.40281" lon="4.6045">
        <ele>397</ele>
        <time>2015-05-04T08:07:41Z</time>
      </trkpt>
      <trkpt lat="44.40285" lon="4.60463">
        <ele>397</ele>
        <time>2015-05-04T08:07:38Z</time>
      </trkpt>
      <trkpt lat="44.40287" lon="4.60471">
        <ele>396</ele>
        <time>2015-05-04T08:07:36Z</time>
      </trkpt>
      <trkpt lat="44.4029" lon="4.6048">
        <ele>396</ele>
        <time>2015-05-04T08:07:34Z</time>
      </trkpt>
      <trkpt lat="44.40292" lon="4.60488">
        <ele>396</ele>
        <time>2015-05-04T08:07:32Z</time>
      </trkpt>
      <trkpt lat="44.40295" lon="4.60497">
        <ele>396</ele>
        <time>2015-05-04T08:07:30Z</time>
      </trkpt>
      <trkpt lat="44.40297" lon="4.60505">
        <ele>393</ele>
        <time>2015-05-04T08:07:28Z</time>
      </trkpt>
      <trkpt lat="44.40301" lon="4.60517">
        <ele>393</ele>
        <time>2015-05-04T08:07:25Z</time>
      </trkpt>
      <trkpt lat="44.40303" lon="4.60531">
        <ele>393</ele>
        <time>2015-05-04T08:07:23Z</time>
      </trkpt>
      <trkpt lat="44.40303" lon="4.6054">
        <ele>392</ele>
        <time>2015-05-04T08:07:20Z</time>
      </trkpt>
      <trkpt lat="44.40302" lon="4.60549">
        <ele>392</ele>
        <time>2015-05-04T08:07:18Z</time>
      </trkpt>
      <trkpt lat="44.403" lon="4.60563">
        <ele>392</ele>
        <time>2015-05-04T08:07:15Z</time>
      </trkpt>
      <trkpt lat="44.40298" lon="4.60571">
        <ele>392</ele>
        <time>2015-05-04T08:07:13Z</time>
      </trkpt>
      <trkpt lat="44.40295" lon="4.60579">
        <ele>392</ele>
        <time>2015-05-04T08:07:11Z</time>
      </trkpt>
      <trkpt lat="44.40288" lon="4.60589">
        <ele>388</ele>
        <time>2015-05-04T08:07:08Z</time>
      </trkpt>
      <trkpt lat="44.4028" lon="4.60597">
        <ele>387</ele>
        <time>2015-05-04T08:07:05Z</time>
      </trkpt>
      <trkpt lat="44.40271" lon="4.60604">
        <ele>387</ele>
        <time>2015-05-04T08:07:02Z</time>
      </trkpt>
      <trkpt lat="44.40262" lon="4.60609">
        <ele>387</ele>
        <time>2015-05-04T08:06:59Z</time>
      </trkpt>
      <trkpt lat="44.40252" lon="4.60613">
        <ele>387</ele>
        <time>2015-05-04T08:06:56Z</time>
      </trkpt>
      <trkpt lat="44.40246" lon="4.60615">
        <ele>385</ele>
        <time>2015-05-04T08:06:54Z</time>
      </trkpt>
      <trkpt lat="44.40239" lon="4.60618">
        <ele>385</ele>
        <time>2015-05-04T08:06:52Z</time>
      </trkpt>
      <trkpt lat="44.40233" lon="4.60619">
        <ele>385</ele>
        <time>2015-05-04T08:06:50Z</time>
      </trkpt>
      <trkpt lat="44.40227" lon="4.60621">
        <ele>384</ele>
        <time>2015-05-04T08:06:48Z</time>
      </trkpt>
      <trkpt lat="44.40218" lon="4.60625">
        <ele>384</ele>
        <time>2015-05-04T08:06:45Z</time>
      </trkpt>
      <trkpt lat="44.40213" lon="4.60627">
        <ele>384</ele>
        <time>2015-05-04T08:06:43Z</time>
      </trkpt>
      <trkpt lat="44.40207" lon="4.60629">
        <ele>384</ele>
        <time>2015-05-04T08:06:41Z</time>
      </trkpt>
      <trkpt lat="44.40201" lon="4.60632">
        <ele>383</ele>
        <time>2015-05-04T08:06:39Z</time>
      </trkpt>
      <trkpt lat="44.40192" lon="4.60634">
        <ele>383</ele>
        <time>2015-05-04T08:06:37Z</time>
      </trkpt>
      <trkpt lat="44.40187" lon="4.60637">
        <ele>383</ele>
        <time>2015-05-04T08:06:34Z</time>
      </trkpt>
      <trkpt lat="44.40181" lon="4.60639">
        <ele>382</ele>
        <time>2015-05-04T08:06:32Z</time>
      </trkpt>
      <trkpt lat="44.40173" lon="4.60643">
        <ele>382</ele>
        <time>2015-05-04T08:06:29Z</time>
      </trkpt>
      <trkpt lat="44.40167" lon="4.60645">
        <ele>381</ele>
        <time>2015-05-04T08:06:27Z</time>
      </trkpt>
      <trkpt lat="44.40161" lon="4.60646">
        <ele>380</ele>
        <time>2015-05-04T08:06:25Z</time>
      </trkpt>
      <trkpt lat="44.40152" lon="4.6065">
        <ele>380</ele>
        <time>2015-05-04T08:06:22Z</time>
      </trkpt>
      <trkpt lat="44.40146" lon="4.60651">
        <ele>380</ele>
        <time>2015-05-04T08:06:20Z</time>
      </trkpt>
      <trkpt lat="44.4014" lon="4.60653">
        <ele>380</ele>
        <time>2015-05-04T08:06:18Z</time>
      </trkpt>
      <trkpt lat="44.4013" lon="4.60657">
        <ele>380</ele>
        <time>2015-05-04T08:06:15Z</time>
      </trkpt>
      <trkpt lat="44.40124" lon="4.60658">
        <ele>379</ele>
        <time>2015-05-04T08:06:13Z</time>
      </trkpt>
      <trkpt lat="44.40118" lon="4.60659">
        <ele>379</ele>
        <time>2015-05-04T08:06:11Z</time>
      </trkpt>
      <trkpt lat="44.40108" lon="4.60661">
        <ele>379</ele>
        <time>2015-05-04T08:06:08Z</time>
      </trkpt>
      <trkpt lat="44.40101" lon="4.60662">
        <ele>378</ele>
        <time>2015-05-04T08:06:06Z</time>
      </trkpt>
      <trkpt lat="44.40095" lon="4.60663">
        <ele>377</ele>
        <time>2015-05-04T08:06:04Z</time>
      </trkpt>
      <trkpt lat="44.40086" lon="4.60665">
        <ele>376</ele>
        <time>2015-05-04T08:06:01Z</time>
      </trkpt>
      <trkpt lat="44.4008" lon="4.60666">
        <ele>375</ele>
        <time>2015-05-04T08:05:59Z</time>
      </trkpt>
      <trkpt lat="44.40071" lon="4.60668">
        <ele>372</ele>
        <time>2015-05-04T08:05:56Z</time>
      </trkpt>
      <trkpt lat="44.40062" lon="4.60669">
        <ele>371</ele>
        <time>2015-05-04T08:05:53Z</time>
      </trkpt>
      <trkpt lat="44.40056" lon="4.6067">
        <ele>370</ele>
        <time>2015-05-04T08:05:51Z</time>
      </trkpt>
      <trkpt lat="44.40047" lon="4.60673">
        <ele>370</ele>
        <time>2015-05-04T08:05:48Z</time>
      </trkpt>
      <trkpt lat="44.40038" lon="4.60675">
        <ele>369</ele>
        <time>2015-05-04T08:05:45Z</time>
      </trkpt>
      <trkpt lat="44.40029" lon="4.60679">
        <ele>369</ele>
        <time>2015-05-04T08:05:42Z</time>
      </trkpt>
      <trkpt lat="44.40023" lon="4.60682">
        <ele>369</ele>
        <time>2015-05-04T08:05:40Z</time>
      </trkpt>
      <trkpt lat="44.40017" lon="4.60691">
        <ele>369</ele>
        <time>2015-05-04T08:05:37Z</time>
      </trkpt>
      <trkpt lat="44.40012" lon="4.60701">
        <ele>368</ele>
        <time>2015-05-04T08:05:34Z</time>
      </trkpt>
      <trkpt lat="44.40011" lon="4.6071">
        <ele>368</ele>
        <time>2015-05-04T08:05:32Z</time>
      </trkpt>
      <trkpt lat="44.40011" lon="4.60721">
        <ele>367</ele>
        <time>2015-05-04T08:05:29Z</time>
      </trkpt>
      <trkpt lat="44.40013" lon="4.60734">
        <ele>366</ele>
        <time>2015-05-04T08:05:26Z</time>
      </trkpt>
      <trkpt lat="44.40015" lon="4.60746">
        <ele>365</ele>
        <time>2015-05-04T08:05:24Z</time>
      </trkpt>
      <trkpt lat="44.40016" lon="4.60754">
        <ele>361</ele>
        <time>2015-05-04T08:05:21Z</time>
      </trkpt>
      <trkpt lat="44.40016" lon="4.60762">
        <ele>361</ele>
        <time>2015-05-04T08:05:19Z</time>
      </trkpt>
      <trkpt lat="44.40014" lon="4.60774">
        <ele>360</ele>
        <time>2015-05-04T08:05:16Z</time>
      </trkpt>
      <trkpt lat="44.40012" lon="4.60781">
        <ele>360</ele>
        <time>2015-05-04T08:05:14Z</time>
      </trkpt>
      <trkpt lat="44.40006" lon="4.60791">
        <ele>359</ele>
        <time>2015-05-04T08:05:11Z</time>
      </trkpt>
      <trkpt lat="44.39998" lon="4.60797">
        <ele>358</ele>
        <time>2015-05-04T08:05:08Z</time>
      </trkpt>
      <trkpt lat="44.3999" lon="4.608">
        <ele>357</ele>
        <time>2015-05-04T08:05:05Z</time>
      </trkpt>
      <trkpt lat="44.39984" lon="4.608">
        <ele>357</ele>
        <time>2015-05-04T08:05:03Z</time>
      </trkpt>
      <trkpt lat="44.39978" lon="4.60799">
        <ele>357</ele>
        <time>2015-05-04T08:05:01Z</time>
      </trkpt>
      <trkpt lat="44.39969" lon="4.60796">
        <ele>357</ele>
        <time>2015-05-04T08:04:58Z</time>
      </trkpt>
      <trkpt lat="44.39963" lon="4.60794">
        <ele>357</ele>
        <time>2015-05-04T08:04:56Z</time>
      </trkpt>
      <trkpt lat="44.39953" lon="4.6079">
        <ele>357</ele>
        <time>2015-05-04T08:04:53Z</time>
      </trkpt>
      <trkpt lat="44.39944" lon="4.60787">
        <ele>357</ele>
        <time>2015-05-04T08:04:50Z</time>
      </trkpt>
      <trkpt lat="44.39938" lon="4.60787">
        <ele>357</ele>
        <time>2015-05-04T08:04:48Z</time>
      </trkpt>
      <trkpt lat="44.39928" lon="4.60786">
        <ele>356</ele>
        <time>2015-05-04T08:04:45Z</time>
      </trkpt>
      <trkpt lat="44.39922" lon="4.60787">
        <ele>356</ele>
        <time>2015-05-04T08:04:43Z</time>
      </trkpt>
      <trkpt lat="44.39916" lon="4.60787">
        <ele>352</ele>
        <time>2015-05-04T08:04:41Z</time>
      </trkpt>
      <trkpt lat="44.39909" lon="4.60787">
        <ele>352</ele>
        <time>2015-05-04T08:04:39Z</time>
      </trkpt>
      <trkpt lat="44.399" lon="4.60786">
        <ele>352</ele>
        <time>2015-05-04T08:04:36Z</time>
      </trkpt>
      <trkpt lat="44.39891" lon="4.60787">
        <ele>352</ele>
        <time>2015-05-04T08:04:33Z</time>
      </trkpt>
      <trkpt lat="44.39884" lon="4.60787">
        <ele>352</ele>
        <time>2015-05-04T08:04:31Z</time>
      </trkpt>
      <trkpt lat="44.39878" lon="4.60788">
        <ele>351</ele>
        <time>2015-05-04T08:04:29Z</time>
      </trkpt>
      <trkpt lat="44.39872" lon="4.60789">
        <ele>351</ele>
        <time>2015-05-04T08:04:27Z</time>
      </trkpt>
      <trkpt lat="44.39865" lon="4.60789">
        <ele>351</ele>
        <time>2015-05-04T08:04:25Z</time>
      </trkpt>
      <trkpt lat="44.39859" lon="4.60789">
        <ele>351</ele>
        <time>2015-05-04T08:04:23Z</time>
      </trkpt>
      <trkpt lat="44.39852" lon="4.60789">
        <ele>350</ele>
        <time>2015-05-04T08:04:21Z</time>
      </trkpt>
      <trkpt lat="44.39843" lon="4.60789">
        <ele>350</ele>
        <time>2015-05-04T08:04:18Z</time>
      </trkpt>
      <trkpt lat="44.39836" lon="4.6079">
        <ele>350</ele>
        <time>2015-05-04T08:04:16Z</time>
      </trkpt>
      <trkpt lat="44.3983" lon="4.6079">
        <ele>347</ele>
        <time>2015-05-04T08:04:14Z</time>
      </trkpt>
      <trkpt lat="44.39824" lon="4.6079">
        <ele>347</ele>
        <time>2015-05-04T08:04:12Z</time>
      </trkpt>
      <trkpt lat="44.39814" lon="4.6079">
        <ele>346</ele>
        <time>2015-05-04T08:04:10Z</time>
      </trkpt>
      <trkpt lat="44.39808" lon="4.6079">
        <ele>346</ele>
        <time>2015-05-04T08:04:07Z</time>
      </trkpt>
      <trkpt lat="44.39801" lon="4.6079">
        <ele>346</ele>
        <time>2015-05-04T08:04:05Z</time>
      </trkpt>
      <trkpt lat="44.39795" lon="4.6079">
        <ele>346</ele>
        <time>2015-05-04T08:04:03Z</time>
      </trkpt>
      <trkpt lat="44.39785" lon="4.6079">
        <ele>346</ele>
        <time>2015-05-04T08:04:00Z</time>
      </trkpt>
      <trkpt lat="44.39779" lon="4.60791">
        <ele>345</ele>
        <time>2015-05-04T08:03:58Z</time>
      </trkpt>
      <trkpt lat="44.39772" lon="4.60791">
        <ele>345</ele>
        <time>2015-05-04T08:03:56Z</time>
      </trkpt>
      <trkpt lat="44.39762" lon="4.60791">
        <ele>345</ele>
        <time>2015-05-04T08:03:53Z</time>
      </trkpt>
      <trkpt lat="44.39756" lon="4.60791">
        <ele>345</ele>
        <time>2015-05-04T08:03:51Z</time>
      </trkpt>
      <trkpt lat="44.3975" lon="4.60792">
        <ele>345</ele>
        <time>2015-05-04T08:03:49Z</time>
      </trkpt>
      <trkpt lat="44.39743" lon="4.60792">
        <ele>342</ele>
        <time>2015-05-04T08:03:47Z</time>
      </trkpt>
      <trkpt lat="44.39737" lon="4.60792">
        <ele>341</ele>
        <time>2015-05-04T08:03:45Z</time>
      </trkpt>
      <trkpt lat="44.39727" lon="4.60792">
        <ele>341</ele>
        <time>2015-05-04T08:03:43Z</time>
      </trkpt>
      <trkpt lat="44.3972" lon="4.60793">
        <ele>341</ele>
        <time>2015-05-04T08:03:40Z</time>
      </trkpt>
      <trkpt lat="44.39713" lon="4.60793">
        <ele>341</ele>
        <time>2015-05-04T08:03:38Z</time>
      </trkpt>
      <trkpt lat="44.39706" lon="4.60793">
        <ele>340</ele>
        <time>2015-05-04T08:03:36Z</time>
      </trkpt>
      <trkpt lat="44.397" lon="4.60794">
        <ele>340</ele>
        <time>2015-05-04T08:03:34Z</time>
      </trkpt>
      <trkpt lat="44.39693" lon="4.60795">
        <ele>340</ele>
        <time>2015-05-04T08:03:32Z</time>
      </trkpt>
      <trkpt lat="44.39682" lon="4.60795">
        <ele>340</ele>
        <time>2015-05-04T08:03:29Z</time>
      </trkpt>
      <trkpt lat="44.39673" lon="4.60799">
        <ele>339</ele>
        <time>2015-05-04T08:03:26Z</time>
      </trkpt>
      <trkpt lat="44.39665" lon="4.60807">
        <ele>335</ele>
        <time>2015-05-04T08:03:23Z</time>
      </trkpt>
      <trkpt lat="44.39659" lon="4.60817">
        <ele>335</ele>
        <time>2015-05-04T08:03:20Z</time>
      </trkpt>
      <trkpt lat="44.39656" lon="4.60825">
        <ele>335</ele>
        <time>2015-05-04T08:03:18Z</time>
      </trkpt>
      <trkpt lat="44.39654" lon="4.60834">
        <ele>335</ele>
        <time>2015-05-04T08:03:16Z</time>
      </trkpt>
      <trkpt lat="44.39653" lon="4.60848">
        <ele>334</ele>
        <time>2015-05-04T08:03:13Z</time>
      </trkpt>
      <trkpt lat="44.39653" lon="4.60861">
        <ele>334</ele>
        <time>2015-05-04T08:03:10Z</time>
      </trkpt>
      <trkpt lat="44.39655" lon="4.6087">
        <ele>333</ele>
        <time>2015-05-04T08:03:08Z</time>
      </trkpt>
      <trkpt lat="44.39657" lon="4.60878">
        <ele>333</ele>
        <time>2015-05-04T08:03:06Z</time>
      </trkpt>
      <trkpt lat="44.39661" lon="4.6089">
        <ele>333</ele>
        <time>2015-05-04T08:03:03Z</time>
      </trkpt>
      <trkpt lat="44.39667" lon="4.60902">
        <ele>335</ele>
        <time>2015-05-04T08:03:00Z</time>
      </trkpt>
      <trkpt lat="44.39671" lon="4.60914">
        <ele>334</ele>
        <time>2015-05-04T08:02:57Z</time>
      </trkpt>
      <trkpt lat="44.39676" lon="4.60926">
        <ele>333</ele>
        <time>2015-05-04T08:02:54Z</time>
      </trkpt>
      <trkpt lat="44.39679" lon="4.60933">
        <ele>332</ele>
        <time>2015-05-04T08:02:52Z</time>
      </trkpt>
      <trkpt lat="44.39683" lon="4.60945">
        <ele>332</ele>
        <time>2015-05-04T08:02:50Z</time>
      </trkpt>
      <trkpt lat="44.39686" lon="4.60952">
        <ele>331</ele>
        <time>2015-05-04T08:02:47Z</time>
      </trkpt>
      <trkpt lat="44.39689" lon="4.6096">
        <ele>331</ele>
        <time>2015-05-04T08:02:45Z</time>
      </trkpt>
      <trkpt lat="44.39694" lon="4.60972">
        <ele>330</ele>
        <time>2015-05-04T08:02:42Z</time>
      </trkpt>
      <trkpt lat="44.39698" lon="4.60983">
        <ele>330</ele>
        <time>2015-05-04T08:02:39Z</time>
      </trkpt>
      <trkpt lat="44.39701" lon="4.60991">
        <ele>330</ele>
        <time>2015-05-04T08:02:37Z</time>
      </trkpt>
      <trkpt lat="44.39706" lon="4.61002">
        <ele>325</ele>
        <time>2015-05-04T08:02:34Z</time>
      </trkpt>
      <trkpt lat="44.39711" lon="4.61014">
        <ele>325</ele>
        <time>2015-05-04T08:02:31Z</time>
      </trkpt>
      <trkpt lat="44.39715" lon="4.61021">
        <ele>324</ele>
        <time>2015-05-04T08:02:29Z</time>
      </trkpt>
      <trkpt lat="44.39722" lon="4.61031">
        <ele>324</ele>
        <time>2015-05-04T08:02:26Z</time>
      </trkpt>
      <trkpt lat="44.39727" lon="4.61037">
        <ele>324</ele>
        <time>2015-05-04T08:02:24Z</time>
      </trkpt>
      <trkpt lat="44.39735" lon="4.61045">
        <ele>323</ele>
        <time>2015-05-04T08:02:21Z</time>
      </trkpt>
      <trkpt lat="44.3974" lon="4.6105">
        <ele>323</ele>
        <time>2015-05-04T08:02:19Z</time>
      </trkpt>
      <trkpt lat="44.39745" lon="4.61056">
        <ele>323</ele>
        <time>2015-05-04T08:02:17Z</time>
      </trkpt>
      <trkpt lat="44.39753" lon="4.61063">
        <ele>324</ele>
        <time>2015-05-04T08:02:14Z</time>
      </trkpt>
      <trkpt lat="44.39759" lon="4.61067">
        <ele>323</ele>
        <time>2015-05-04T08:02:12Z</time>
      </trkpt>
      <trkpt lat="44.39768" lon="4.61075">
        <ele>323</ele>
        <time>2015-05-04T08:02:09Z</time>
      </trkpt>
      <trkpt lat="44.39777" lon="4.61081">
        <ele>323</ele>
        <time>2015-05-04T08:02:06Z</time>
      </trkpt>
      <trkpt lat="44.39784" lon="4.61085">
        <ele>317</ele>
        <time>2015-05-04T08:02:04Z</time>
      </trkpt>
      <trkpt lat="44.39792" lon="4.61092">
        <ele>317</ele>
        <time>2015-05-04T08:02:01Z</time>
      </trkpt>
      <trkpt lat="44.39801" lon="4.61098">
        <ele>317</ele>
        <time>2015-05-04T08:01:58Z</time>
      </trkpt>
      <trkpt lat="44.39809" lon="4.61105">
        <ele>317</ele>
        <time>2015-05-04T08:01:56Z</time>
      </trkpt>
      <trkpt lat="44.39815" lon="4.61109">
        <ele>317</ele>
        <time>2015-05-04T08:01:53Z</time>
      </trkpt>
      <trkpt lat="44.39824" lon="4.61116">
        <ele>317</ele>
        <time>2015-05-04T08:01:50Z</time>
      </trkpt>
      <trkpt lat="44.39829" lon="4.61122">
        <ele>316</ele>
        <time>2015-05-04T08:01:48Z</time>
      </trkpt>
      <trkpt lat="44.39836" lon="4.6113">
        <ele>317</ele>
        <time>2015-05-04T08:01:45Z</time>
      </trkpt>
      <trkpt lat="44.3984" lon="4.61136">
        <ele>317</ele>
        <time>2015-05-04T08:01:43Z</time>
      </trkpt>
      <trkpt lat="44.39847" lon="4.61146">
        <ele>316</ele>
        <time>2015-05-04T08:01:40Z</time>
      </trkpt>
      <trkpt lat="44.39853" lon="4.61156">
        <ele>316</ele>
        <time>2015-05-04T08:01:37Z</time>
      </trkpt>
      <trkpt lat="44.39857" lon="4.61162">
        <ele>316</ele>
        <time>2015-05-04T08:01:35Z</time>
      </trkpt>
      <trkpt lat="44.39863" lon="4.61172">
        <ele>311</ele>
        <time>2015-05-04T08:01:33Z</time>
      </trkpt>
      <trkpt lat="44.39868" lon="4.61179">
        <ele>311</ele>
        <time>2015-05-04T08:01:30Z</time>
      </trkpt>
      <trkpt lat="44.39875" lon="4.61188">
        <ele>311</ele>
        <time>2015-05-04T08:01:27Z</time>
      </trkpt>
      <trkpt lat="44.3988" lon="4.61193">
        <ele>311</ele>
        <time>2015-05-04T08:01:25Z</time>
      </trkpt>
      <trkpt lat="44.39885" lon="4.61198">
        <ele>311</ele>
        <time>2015-05-04T08:01:23Z</time>
      </trkpt>
      <trkpt lat="44.39893" lon="4.61206">
        <ele>310</ele>
        <time>2015-05-04T08:01:20Z</time>
      </trkpt>
      <trkpt lat="44.39899" lon="4.61211">
        <ele>310</ele>
        <time>2015-05-04T08:01:18Z</time>
      </trkpt>
      <trkpt lat="44.39904" lon="4.61216">
        <ele>310</ele>
        <time>2015-05-04T08:01:16Z</time>
      </trkpt>
      <trkpt lat="44.39913" lon="4.61224">
        <ele>309</ele>
        <time>2015-05-04T08:01:13Z</time>
      </trkpt>
      <trkpt lat="44.39918" lon="4.61229">
        <ele>308</ele>
        <time>2015-05-04T08:01:11Z</time>
      </trkpt>
      <trkpt lat="44.39927" lon="4.61235">
        <ele>308</ele>
        <time>2015-05-04T08:01:08Z</time>
      </trkpt>
      <trkpt lat="44.39935" lon="4.61243">
        <ele>308</ele>
        <time>2015-05-04T08:01:05Z</time>
      </trkpt>
      <trkpt lat="44.3994" lon="4.61248">
        <ele>307</ele>
        <time>2015-05-04T08:01:03Z</time>
      </trkpt>
      <trkpt lat="44.39946" lon="4.61253">
        <ele>303</ele>
        <time>2015-05-04T08:01:01Z</time>
      </trkpt>
      <trkpt lat="44.39954" lon="4.6126">
        <ele>302</ele>
        <time>2015-05-04T08:00:58Z</time>
      </trkpt>
      <trkpt lat="44.39962" lon="4.61266">
        <ele>301</ele>
        <time>2015-05-04T08:00:55Z</time>
      </trkpt>
      <trkpt lat="44.39968" lon="4.61271">
        <ele>301</ele>
        <time>2015-05-04T08:00:53Z</time>
      </trkpt>
      <trkpt lat="44.39976" lon="4.61278">
        <ele>301</ele>
        <time>2015-05-04T08:00:50Z</time>
      </trkpt>
      <trkpt lat="44.39985" lon="4.61284">
        <ele>300</ele>
        <time>2015-05-04T08:00:47Z</time>
      </trkpt>
      <trkpt lat="44.3999" lon="4.61289">
        <ele>300</ele>
        <time>2015-05-04T08:00:45Z</time>
      </trkpt>
      <trkpt lat="44.39999" lon="4.61296">
        <ele>300</ele>
        <time>2015-05-04T08:00:42Z</time>
      </trkpt>
      <trkpt lat="44.40007" lon="4.61303">
        <ele>297</ele>
        <time>2015-05-04T08:00:39Z</time>
      </trkpt>
      <trkpt lat="44.40012" lon="4.61308">
        <ele>297</ele>
        <time>2015-05-04T08:00:37Z</time>
      </trkpt>
      <trkpt lat="44.4002" lon="4.61316">
        <ele>297</ele>
        <time>2015-05-04T08:00:35Z</time>
      </trkpt>
      <trkpt lat="44.40025" lon="4.61322">
        <ele>297</ele>
        <time>2015-05-04T08:00:32Z</time>
      </trkpt>
      <trkpt lat="44.40031" lon="4.61327">
        <ele>296</ele>
        <time>2015-05-04T08:00:30Z</time>
      </trkpt>
      <trkpt lat="44.40036" lon="4.61334">
        <ele>293</ele>
        <time>2015-05-04T08:00:28Z</time>
      </trkpt>
      <trkpt lat="44.4004" lon="4.6134">
        <ele>293</ele>
        <time>2015-05-04T08:00:26Z</time>
      </trkpt>
      <trkpt lat="44.40048" lon="4.61349">
        <ele>293</ele>
        <time>2015-05-04T08:00:23Z</time>
      </trkpt>
      <trkpt lat="44.40053" lon="4.61356">
        <ele>293</ele>
        <time>2015-05-04T08:00:21Z</time>
      </trkpt>
      <trkpt lat="44.40057" lon="4.61362">
        <ele>293</ele>
        <time>2015-05-04T08:00:19Z</time>
      </trkpt>
      <trkpt lat="44.40062" lon="4.61369">
        <ele>293</ele>
        <time>2015-05-04T08:00:17Z</time>
      </trkpt>
      <trkpt lat="44.4007" lon="4.61378">
        <ele>292</ele>
        <time>2015-05-04T08:00:14Z</time>
      </trkpt>
      <trkpt lat="44.40075" lon="4.61384">
        <ele>292</ele>
        <time>2015-05-04T08:00:12Z</time>
      </trkpt>
      <trkpt lat="44.40083" lon="4.61392">
        <ele>292</ele>
        <time>2015-05-04T08:00:09Z</time>
      </trkpt>
      <trkpt lat="44.40092" lon="4.614">
        <ele>289</ele>
        <time>2015-05-04T08:00:06Z</time>
      </trkpt>
      <trkpt lat="44.40101" lon="4.61408">
        <ele>289</ele>
        <time>2015-05-04T08:00:04Z</time>
      </trkpt>
      <trkpt lat="44.40106" lon="4.61414">
        <ele>289</ele>
        <time>2015-05-04T08:00:01Z</time>
      </trkpt>
      <trkpt lat="44.40114" lon="4.61422">
        <ele>287</ele>
        <time>2015-05-04T07:59:58Z</time>
      </trkpt>
      <trkpt lat="44.40123" lon="4.6143">
        <ele>286</ele>
        <time>2015-05-04T07:59:55Z</time>
      </trkpt>
      <trkpt lat="44.40131" lon="4.61439">
        <ele>286</ele>
        <time>2015-05-04T07:59:52Z</time>
      </trkpt>
      <trkpt lat="44.4014" lon="4.61447">
        <ele>285</ele>
        <time>2015-05-04T07:59:49Z</time>
      </trkpt>
      <trkpt lat="44.40145" lon="4.61452">
        <ele>285</ele>
        <time>2015-05-04T07:59:47Z</time>
      </trkpt>
      <trkpt lat="44.40152" lon="4.61461">
        <ele>285</ele>
        <time>2015-05-04T07:59:44Z</time>
      </trkpt>
      <trkpt lat="44.40159" lon="4.61472">
        <ele>285</ele>
        <time>2015-05-04T07:59:41Z</time>
      </trkpt>
      <trkpt lat="44.40163" lon="4.61484">
        <ele>285</ele>
        <time>2015-05-04T07:59:38Z</time>
      </trkpt>
      <trkpt lat="44.40165" lon="4.61493">
        <ele>285</ele>
        <time>2015-05-04T07:59:36Z</time>
      </trkpt>
      <trkpt lat="44.40166" lon="4.61507">
        <ele>285</ele>
        <time>2015-05-04T07:59:33Z</time>
      </trkpt>
      <trkpt lat="44.40166" lon="4.61516">
        <ele>285</ele>
        <time>2015-05-04T07:59:31Z</time>
      </trkpt>
      <trkpt lat="44.40163" lon="4.61529">
        <ele>285</ele>
        <time>2015-05-04T07:59:28Z</time>
      </trkpt>
      <trkpt lat="44.4016" lon="4.61543">
        <ele>285</ele>
        <time>2015-05-04T07:59:25Z</time>
      </trkpt>
      <trkpt lat="44.40155" lon="4.6155">
        <ele>285</ele>
        <time>2015-05-04T07:59:23Z</time>
      </trkpt>
      <trkpt lat="44.40151" lon="4.61557">
        <ele>285</ele>
        <time>2015-05-04T07:59:21Z</time>
      </trkpt>
      <trkpt lat="44.40142" lon="4.61566">
        <ele>285</ele>
        <time>2015-05-04T07:59:18Z</time>
      </trkpt>
      <trkpt lat="44.40133" lon="4.61572">
        <ele>284</ele>
        <time>2015-05-04T07:59:15Z</time>
      </trkpt>
      <trkpt lat="44.40124" lon="4.61579">
        <ele>284</ele>
        <time>2015-05-04T07:59:12Z</time>
      </trkpt>
      <trkpt lat="44.40114" lon="4.61584">
        <ele>281</ele>
        <time>2015-05-04T07:59:09Z</time>
      </trkpt>
      <trkpt lat="44.40105" lon="4.61589">
        <ele>281</ele>
        <time>2015-05-04T07:59:07Z</time>
      </trkpt>
      <trkpt lat="44.40099" lon="4.61593">
        <ele>281</ele>
        <time>2015-05-04T07:59:05Z</time>
      </trkpt>
      <trkpt lat="44.40092" lon="4.61597">
        <ele>281</ele>
        <time>2015-05-04T07:59:02Z</time>
      </trkpt>
      <trkpt lat="44.40082" lon="4.61602">
        <ele>280</ele>
        <time>2015-05-04T07:58:59Z</time>
      </trkpt>
      <trkpt lat="44.40076" lon="4.61606">
        <ele>279</ele>
        <time>2015-05-04T07:58:57Z</time>
      </trkpt>
      <trkpt lat="44.40066" lon="4.6161">
        <ele>279</ele>
        <time>2015-05-04T07:58:54Z</time>
      </trkpt>
      <trkpt lat="44.40056" lon="4.61615">
        <ele>278</ele>
        <time>2015-05-04T07:58:51Z</time>
      </trkpt>
      <trkpt lat="44.40046" lon="4.61619">
        <ele>278</ele>
        <time>2015-05-04T07:58:48Z</time>
      </trkpt>
      <trkpt lat="44.40036" lon="4.61622">
        <ele>277</ele>
        <time>2015-05-04T07:58:45Z</time>
      </trkpt>
      <trkpt lat="44.40027" lon="4.61626">
        <ele>277</ele>
        <time>2015-05-04T07:58:42Z</time>
      </trkpt>
      <trkpt lat="44.40017" lon="4.61629">
        <ele>277</ele>
        <time>2015-05-04T07:58:39Z</time>
      </trkpt>
      <trkpt lat="44.40007" lon="4.61631">
        <ele>277</ele>
        <time>2015-05-04T07:58:37Z</time>
      </trkpt>
      <trkpt lat="44.4" lon="4.61632">
        <ele>275</ele>
        <time>2015-05-04T07:58:35Z</time>
      </trkpt>
      <trkpt lat="44.39994" lon="4.61633">
        <ele>275</ele>
        <time>2015-05-04T07:58:32Z</time>
      </trkpt>
      <trkpt lat="44.39988" lon="4.61634">
        <ele>274</ele>
        <time>2015-05-04T07:58:30Z</time>
      </trkpt>
      <trkpt lat="44.39978" lon="4.61635">
        <ele>274</ele>
        <time>2015-05-04T07:58:27Z</time>
      </trkpt>
      <trkpt lat="44.39969" lon="4.61637">
        <ele>274</ele>
        <time>2015-05-04T07:58:24Z</time>
      </trkpt>
      <trkpt lat="44.39959" lon="4.61638">
        <ele>274</ele>
        <time>2015-05-04T07:58:21Z</time>
      </trkpt>
      <trkpt lat="44.3995" lon="4.6164">
        <ele>274</ele>
        <time>2015-05-04T07:58:18Z</time>
      </trkpt>
      <trkpt lat="44.3994" lon="4.61641">
        <ele>273</ele>
        <time>2015-05-04T07:58:15Z</time>
      </trkpt>
      <trkpt lat="44.39932" lon="4.61641">
        <ele>273</ele>
        <time>2015-05-04T07:58:12Z</time>
      </trkpt>
      <trkpt lat="44.39922" lon="4.61643">
        <ele>272</ele>
        <time>2015-05-04T07:58:09Z</time>
      </trkpt>
      <trkpt lat="44.39916" lon="4.61643">
        <ele>270</ele>
        <time>2015-05-04T07:58:07Z</time>
      </trkpt>
      <trkpt lat="44.39907" lon="4.61644">
        <ele>270</ele>
        <time>2015-05-04T07:58:05Z</time>
      </trkpt>
      <trkpt lat="44.399" lon="4.61644">
        <ele>270</ele>
        <time>2015-05-04T07:58:02Z</time>
      </trkpt>
      <trkpt lat="44.39891" lon="4.61646">
        <ele>270</ele>
        <time>2015-05-04T07:57:59Z</time>
      </trkpt>
      <trkpt lat="44.39881" lon="4.61646">
        <ele>270</ele>
        <time>2015-05-04T07:57:56Z</time>
      </trkpt>
      <trkpt lat="44.39872" lon="4.61647">
        <ele>270</ele>
        <time>2015-05-04T07:57:53Z</time>
      </trkpt>
      <trkpt lat="44.39862" lon="4.61647">
        <ele>270</ele>
        <time>2015-05-04T07:57:50Z</time>
      </trkpt>
      <trkpt lat="44.39853" lon="4.61646">
        <ele>269</ele>
        <time>2015-05-04T07:57:47Z</time>
      </trkpt>
      <trkpt lat="44.39843" lon="4.61645">
        <ele>269</ele>
        <time>2015-05-04T07:57:44Z</time>
      </trkpt>
      <trkpt lat="44.39836" lon="4.61643">
        <ele>269</ele>
        <time>2015-05-04T07:57:42Z</time>
      </trkpt>
      <trkpt lat="44.39827" lon="4.61639">
        <ele>266</ele>
        <time>2015-05-04T07:57:40Z</time>
      </trkpt>
      <trkpt lat="44.39821" lon="4.61636">
        <ele>266</ele>
        <time>2015-05-04T07:57:37Z</time>
      </trkpt>
      <trkpt lat="44.39814" lon="4.61634">
        <ele>266</ele>
        <time>2015-05-04T07:57:35Z</time>
      </trkpt>
      <trkpt lat="44.39808" lon="4.6163">
        <ele>266</ele>
        <time>2015-05-04T07:57:33Z</time>
      </trkpt>
      <trkpt lat="44.39801" lon="4.61627">
        <ele>266</ele>
        <time>2015-05-04T07:57:31Z</time>
      </trkpt>
      <trkpt lat="44.39795" lon="4.61623">
        <ele>266</ele>
        <time>2015-05-04T07:57:29Z</time>
      </trkpt>
      <trkpt lat="44.39785" lon="4.61618">
        <ele>266</ele>
        <time>2015-05-04T07:57:26Z</time>
      </trkpt>
      <trkpt lat="44.39775" lon="4.61614">
        <ele>265</ele>
        <time>2015-05-04T07:57:23Z</time>
      </trkpt>
      <trkpt lat="44.39766" lon="4.61611">
        <ele>265</ele>
        <time>2015-05-04T07:57:20Z</time>
      </trkpt>
      <trkpt lat="44.39755" lon="4.6161">
        <ele>265</ele>
        <time>2015-05-04T07:57:17Z</time>
      </trkpt>
      <trkpt lat="44.39744" lon="4.61611">
        <ele>262</ele>
        <time>2015-05-04T07:57:15Z</time>
      </trkpt>
      <trkpt lat="44.39734" lon="4.61614">
        <ele>262</ele>
        <time>2015-05-04T07:57:11Z</time>
      </trkpt>
      <trkpt lat="44.39728" lon="4.61617">
        <ele>261</ele>
        <time>2015-05-04T07:57:09Z</time>
      </trkpt>
      <trkpt lat="44.39719" lon="4.61623">
        <ele>261</ele>
        <time>2015-05-04T07:57:06Z</time>
      </trkpt>
      <trkpt lat="44.3971" lon="4.6163">
        <ele>261</ele>
        <time>2015-05-04T07:57:03Z</time>
      </trkpt>
      <trkpt lat="44.397" lon="4.61636">
        <ele>260</ele>
        <time>2015-05-04T07:57:00Z</time>
      </trkpt>
      <trkpt lat="44.39692" lon="4.61642">
        <ele>260</ele>
        <time>2015-05-04T07:56:57Z</time>
      </trkpt>
      <trkpt lat="44.39685" lon="4.61645">
        <ele>259</ele>
        <time>2015-05-04T07:56:55Z</time>
      </trkpt>
      <trkpt lat="44.39676" lon="4.61649">
        <ele>259</ele>
        <time>2015-05-04T07:56:53Z</time>
      </trkpt>
      <trkpt lat="44.39669" lon="4.61651">
        <ele>258</ele>
        <time>2015-05-04T07:56:50Z</time>
      </trkpt>
      <trkpt lat="44.3966" lon="4.61653">
        <ele>256</ele>
        <time>2015-05-04T07:56:47Z</time>
      </trkpt>
      <trkpt lat="44.39653" lon="4.61654">
        <ele>255</ele>
        <time>2015-05-04T07:56:45Z</time>
      </trkpt>
      <trkpt lat="44.39647" lon="4.61655">
        <ele>255</ele>
        <time>2015-05-04T07:56:43Z</time>
      </trkpt>
      <trkpt lat="44.39638" lon="4.61657">
        <ele>255</ele>
        <time>2015-05-04T07:56:40Z</time>
      </trkpt>
      <trkpt lat="44.39632" lon="4.61658">
        <ele>254</ele>
        <time>2015-05-04T07:56:38Z</time>
      </trkpt>
      <trkpt lat="44.39625" lon="4.61658">
        <ele>254</ele>
        <time>2015-05-04T07:56:36Z</time>
      </trkpt>
      <trkpt lat="44.39616" lon="4.61659">
        <ele>253</ele>
        <time>2015-05-04T07:56:33Z</time>
      </trkpt>
      <trkpt lat="44.3961" lon="4.61659">
        <ele>252</ele>
        <time>2015-05-04T07:56:31Z</time>
      </trkpt>
      <trkpt lat="44.39603" lon="4.6166">
        <ele>251</ele>
        <time>2015-05-04T07:56:29Z</time>
      </trkpt>
      <trkpt lat="44.39594" lon="4.61661">
        <ele>250</ele>
        <time>2015-05-04T07:56:26Z</time>
      </trkpt>
      <trkpt lat="44.39584" lon="4.61662">
        <ele>248</ele>
        <time>2015-05-04T07:56:24Z</time>
      </trkpt>
      <trkpt lat="44.39578" lon="4.61662">
        <ele>247</ele>
        <time>2015-05-04T07:56:21Z</time>
      </trkpt>
      <trkpt lat="44.39571" lon="4.61662">
        <ele>247</ele>
        <time>2015-05-04T07:56:19Z</time>
      </trkpt>
      <trkpt lat="44.39565" lon="4.61663">
        <ele>248</ele>
        <time>2015-05-04T07:56:17Z</time>
      </trkpt>
      <trkpt lat="44.39555" lon="4.61664">
        <ele>248</ele>
        <time>2015-05-04T07:56:14Z</time>
      </trkpt>
      <trkpt lat="44.39545" lon="4.61665">
        <ele>248</ele>
        <time>2015-05-04T07:56:11Z</time>
      </trkpt>
      <trkpt lat="44.39538" lon="4.61665">
        <ele>247</ele>
        <time>2015-05-04T07:56:09Z</time>
      </trkpt>
      <trkpt lat="44.39528" lon="4.61666">
        <ele>247</ele>
        <time>2015-05-04T07:56:06Z</time>
      </trkpt>
      <trkpt lat="44.39521" lon="4.61667">
        <ele>243</ele>
        <time>2015-05-04T07:56:04Z</time>
      </trkpt>
      <trkpt lat="44.39515" lon="4.61668">
        <ele>243</ele>
        <time>2015-05-04T07:56:02Z</time>
      </trkpt>
      <trkpt lat="44.39505" lon="4.61669">
        <ele>242</ele>
        <time>2015-05-04T07:56:00Z</time>
      </trkpt>
      <trkpt lat="44.39499" lon="4.61669">
        <ele>242</ele>
        <time>2015-05-04T07:55:58Z</time>
      </trkpt>
      <trkpt lat="44.39492" lon="4.6167">
        <ele>241</ele>
        <time>2015-05-04T07:55:55Z</time>
      </trkpt>
      <trkpt lat="44.39486" lon="4.6167">
        <ele>240</ele>
        <time>2015-05-04T07:55:53Z</time>
      </trkpt>
      <trkpt lat="44.39476" lon="4.61672">
        <ele>240</ele>
        <time>2015-05-04T07:55:50Z</time>
      </trkpt>
      <trkpt lat="44.3947" lon="4.61673">
        <ele>240</ele>
        <time>2015-05-04T07:55:48Z</time>
      </trkpt>
      <trkpt lat="44.39463" lon="4.61675">
        <ele>239</ele>
        <time>2015-05-04T07:55:46Z</time>
      </trkpt>
      <trkpt lat="44.39457" lon="4.61676">
        <ele>239</ele>
        <time>2015-05-04T07:55:44Z</time>
      </trkpt>
      <trkpt lat="44.3945" lon="4.61678">
        <ele>239</ele>
        <time>2015-05-04T07:55:42Z</time>
      </trkpt>
      <trkpt lat="44.3944" lon="4.61682">
        <ele>239</ele>
        <time>2015-05-04T07:55:40Z</time>
      </trkpt>
      <trkpt lat="44.39434" lon="4.61684">
        <ele>239</ele>
        <time>2015-05-04T07:55:37Z</time>
      </trkpt>
      <trkpt lat="44.39427" lon="4.61686">
        <ele>239</ele>
        <time>2015-05-04T07:55:35Z</time>
      </trkpt>
      <trkpt lat="44.39418" lon="4.61689">
        <ele>239</ele>
        <time>2015-05-04T07:55:32Z</time>
      </trkpt>
      <trkpt lat="44.39412" lon="4.6169">
        <ele>236</ele>
        <time>2015-05-04T07:55:30Z</time>
      </trkpt>
      <trkpt lat="44.39406" lon="4.61692">
        <ele>236</ele>
        <time>2015-05-04T07:55:28Z</time>
      </trkpt>
      <trkpt lat="44.394" lon="4.61694">
        <ele>235</ele>
        <time>2015-05-04T07:55:26Z</time>
      </trkpt>
      <trkpt lat="44.39394" lon="4.61696">
        <ele>235</ele>
        <time>2015-05-04T07:55:24Z</time>
      </trkpt>
      <trkpt lat="44.39385" lon="4.61699">
        <ele>234</ele>
        <time>2015-05-04T07:55:21Z</time>
      </trkpt>
      <trkpt lat="44.39379" lon="4.61702">
        <ele>234</ele>
        <time>2015-05-04T07:55:19Z</time>
      </trkpt>
      <trkpt lat="44.39373" lon="4.61703">
        <ele>234</ele>
        <time>2015-05-04T07:55:17Z</time>
      </trkpt>
      <trkpt lat="44.39367" lon="4.61705">
        <ele>233</ele>
        <time>2015-05-04T07:55:15Z</time>
      </trkpt>
      <trkpt lat="44.39357" lon="4.61708">
        <ele>233</ele>
        <time>2015-05-04T07:55:13Z</time>
      </trkpt>
      <trkpt lat="44.39351" lon="4.6171">
        <ele>233</ele>
        <time>2015-05-04T07:55:10Z</time>
      </trkpt>
      <trkpt lat="44.39345" lon="4.61711">
        <ele>233</ele>
        <time>2015-05-04T07:55:08Z</time>
      </trkpt>
      <trkpt lat="44.39335" lon="4.61714">
        <ele>232</ele>
        <time>2015-05-04T07:55:05Z</time>
      </trkpt>
      <trkpt lat="44.39329" lon="4.61716">
        <ele>229</ele>
        <time>2015-05-04T07:55:03Z</time>
      </trkpt>
      <trkpt lat="44.39323" lon="4.61718">
        <ele>229</ele>
        <time>2015-05-04T07:55:01Z</time>
      </trkpt>
      <trkpt lat="44.39314" lon="4.61721">
        <ele>229</ele>
        <time>2015-05-04T07:54:59Z</time>
      </trkpt>
      <trkpt lat="44.39307" lon="4.61723">
        <ele>229</ele>
        <time>2015-05-04T07:54:56Z</time>
      </trkpt>
      <trkpt lat="44.39302" lon="4.61725">
        <ele>229</ele>
        <time>2015-05-04T07:54:54Z</time>
      </trkpt>
      <trkpt lat="44.39292" lon="4.61729">
        <ele>229</ele>
        <time>2015-05-04T07:54:52Z</time>
      </trkpt>
      <trkpt lat="44.39286" lon="4.6173">
        <ele>228</ele>
        <time>2015-05-04T07:54:49Z</time>
      </trkpt>
      <trkpt lat="44.3928" lon="4.61732">
        <ele>228</ele>
        <time>2015-05-04T07:54:47Z</time>
      </trkpt>
      <trkpt lat="44.39274" lon="4.61734">
        <ele>228</ele>
        <time>2015-05-04T07:54:45Z</time>
      </trkpt>
      <trkpt lat="44.39264" lon="4.61737">
        <ele>227</ele>
        <time>2015-05-04T07:54:43Z</time>
      </trkpt>
      <trkpt lat="44.39258" lon="4.61739">
        <ele>226</ele>
        <time>2015-05-04T07:54:40Z</time>
      </trkpt>
      <trkpt lat="44.39251" lon="4.61742">
        <ele>225</ele>
        <time>2015-05-04T07:54:38Z</time>
      </trkpt>
      <trkpt lat="44.39241" lon="4.61745">
        <ele>225</ele>
        <time>2015-05-04T07:54:36Z</time>
      </trkpt>
      <trkpt lat="44.39235" lon="4.61747">
        <ele>225</ele>
        <time>2015-05-04T07:54:33Z</time>
      </trkpt>
      <trkpt lat="44.39228" lon="4.6175">
        <ele>225</ele>
        <time>2015-05-04T07:54:31Z</time>
      </trkpt>
      <trkpt lat="44.39219" lon="4.61753">
        <ele>220</ele>
        <time>2015-05-04T07:54:29Z</time>
      </trkpt>
      <trkpt lat="44.39208" lon="4.61757">
        <ele>219</ele>
        <time>2015-05-04T07:54:26Z</time>
      </trkpt>
      <trkpt lat="44.39198" lon="4.6176">
        <ele>219</ele>
        <time>2015-05-04T07:54:23Z</time>
      </trkpt>
      <trkpt lat="44.39191" lon="4.61762">
        <ele>219</ele>
        <time>2015-05-04T07:54:20Z</time>
      </trkpt>
      <trkpt lat="44.39185" lon="4.61765">
        <ele>219</ele>
        <time>2015-05-04T07:54:18Z</time>
      </trkpt>
      <trkpt lat="44.39174" lon="4.61769">
        <ele>218</ele>
        <time>2015-05-04T07:54:15Z</time>
      </trkpt>
      <trkpt lat="44.39167" lon="4.61771">
        <ele>218</ele>
        <time>2015-05-04T07:54:13Z</time>
      </trkpt>
      <trkpt lat="44.39156" lon="4.61775">
        <ele>217</ele>
        <time>2015-05-04T07:54:11Z</time>
      </trkpt>
      <trkpt lat="44.39149" lon="4.61778">
        <ele>217</ele>
        <time>2015-05-04T07:54:08Z</time>
      </trkpt>
      <trkpt lat="44.39138" lon="4.61783">
        <ele>216</ele>
        <time>2015-05-04T07:54:05Z</time>
      </trkpt>
      <trkpt lat="44.39127" lon="4.61788">
        <ele>216</ele>
        <time>2015-05-04T07:54:03Z</time>
      </trkpt>
      <trkpt lat="44.39119" lon="4.61792">
        <ele>216</ele>
        <time>2015-05-04T07:54:01Z</time>
      </trkpt>
      <trkpt lat="44.39111" lon="4.61795">
        <ele>216</ele>
        <time>2015-05-04T07:53:58Z</time>
      </trkpt>
      <trkpt lat="44.391" lon="4.61801">
        <ele>215</ele>
        <time>2015-05-04T07:53:56Z</time>
      </trkpt>
      <trkpt lat="44.39092" lon="4.61805">
        <ele>215</ele>
        <time>2015-05-04T07:53:53Z</time>
      </trkpt>
      <trkpt lat="44.3908" lon="4.61809">
        <ele>215</ele>
        <time>2015-05-04T07:53:50Z</time>
      </trkpt>
      <trkpt lat="44.39069" lon="4.61812">
        <ele>214</ele>
        <time>2015-05-04T07:53:48Z</time>
      </trkpt>
      <trkpt lat="44.39061" lon="4.61814">
        <ele>214</ele>
        <time>2015-05-04T07:53:46Z</time>
      </trkpt>
      <trkpt lat="44.39053" lon="4.61814">
        <ele>214</ele>
        <time>2015-05-04T07:53:43Z</time>
      </trkpt>
      <trkpt lat="44.39045" lon="4.61814">
        <ele>214</ele>
        <time>2015-05-04T07:53:41Z</time>
      </trkpt>
      <trkpt lat="44.39037" lon="4.61815">
        <ele>214</ele>
        <time>2015-05-04T07:53:39Z</time>
      </trkpt>
      <trkpt lat="44.39026" lon="4.61815">
        <ele>214</ele>
        <time>2015-05-04T07:53:37Z</time>
      </trkpt>
      <trkpt lat="44.39018" lon="4.61814">
        <ele>214</ele>
        <time>2015-05-04T07:53:34Z</time>
      </trkpt>
      <trkpt lat="44.39006" lon="4.61813">
        <ele>214</ele>
        <time>2015-05-04T07:53:31Z</time>
      </trkpt>
      <trkpt lat="44.38995" lon="4.6181">
        <ele>211</ele>
        <time>2015-05-04T07:53:29Z</time>
      </trkpt>
      <trkpt lat="44.38989" lon="4.61808">
        <ele>211</ele>
        <time>2015-05-04T07:53:26Z</time>
      </trkpt>
      <trkpt lat="44.38979" lon="4.61808">
        <ele>211</ele>
        <time>2015-05-04T07:53:24Z</time>
      </trkpt>
      <trkpt lat="44.38971" lon="4.61809">
        <ele>211</ele>
        <time>2015-05-04T07:53:21Z</time>
      </trkpt>
      <trkpt lat="44.38961" lon="4.6181">
        <ele>210</ele>
        <time>2015-05-04T07:53:19Z</time>
      </trkpt>
      <trkpt lat="44.38953" lon="4.61811">
        <ele>210</ele>
        <time>2015-05-04T07:53:17Z</time>
      </trkpt>
      <trkpt lat="44.38946" lon="4.61813">
        <ele>210</ele>
        <time>2015-05-04T07:53:14Z</time>
      </trkpt>
      <trkpt lat="44.38936" lon="4.61816">
        <ele>209</ele>
        <time>2015-05-04T07:53:12Z</time>
      </trkpt>
      <trkpt lat="44.38929" lon="4.61818">
        <ele>209</ele>
        <time>2015-05-04T07:53:10Z</time>
      </trkpt>
      <trkpt lat="44.38922" lon="4.61821">
        <ele>208</ele>
        <time>2015-05-04T07:53:07Z</time>
      </trkpt>
      <trkpt lat="44.38911" lon="4.61826">
        <ele>206</ele>
        <time>2015-05-04T07:53:05Z</time>
      </trkpt>
      <trkpt lat="44.38901" lon="4.61832">
        <ele>205</ele>
        <time>2015-05-04T07:53:02Z</time>
      </trkpt>
      <trkpt lat="44.38894" lon="4.61837">
        <ele>204</ele>
        <time>2015-05-04T07:53:00Z</time>
      </trkpt>
      <trkpt lat="44.38888" lon="4.61842">
        <ele>204</ele>
        <time>2015-05-04T07:52:58Z</time>
      </trkpt>
      <trkpt lat="44.38881" lon="4.61847">
        <ele>203</ele>
        <time>2015-05-04T07:52:55Z</time>
      </trkpt>
      <trkpt lat="44.38872" lon="4.61855">
        <ele>203</ele>
        <time>2015-05-04T07:52:53Z</time>
      </trkpt>
      <trkpt lat="44.38862" lon="4.61864">
        <ele>203</ele>
        <time>2015-05-04T07:52:50Z</time>
      </trkpt>
      <trkpt lat="44.38856" lon="4.61869">
        <ele>202</ele>
        <time>2015-05-04T07:52:47Z</time>
      </trkpt>
      <trkpt lat="44.38846" lon="4.61878">
        <ele>202</ele>
        <time>2015-05-04T07:52:45Z</time>
      </trkpt>
      <trkpt lat="44.38836" lon="4.61887">
        <ele>202</ele>
        <time>2015-05-04T07:52:42Z</time>
      </trkpt>
      <trkpt lat="44.38829" lon="4.61892">
        <ele>200</ele>
        <time>2015-05-04T07:52:39Z</time>
      </trkpt>
      <trkpt lat="44.3882" lon="4.61901">
        <ele>200</ele>
        <time>2015-05-04T07:52:37Z</time>
      </trkpt>
      <trkpt lat="44.38813" lon="4.61906">
        <ele>200</ele>
        <time>2015-05-04T07:52:34Z</time>
      </trkpt>
      <trkpt lat="44.38803" lon="4.61914">
        <ele>199</ele>
        <time>2015-05-04T07:52:32Z</time>
      </trkpt>
      <trkpt lat="44.38793" lon="4.61922">
        <ele>198</ele>
        <time>2015-05-04T07:52:29Z</time>
      </trkpt>
      <trkpt lat="44.38787" lon="4.61927">
        <ele>198</ele>
        <time>2015-05-04T07:52:26Z</time>
      </trkpt>
      <trkpt lat="44.38776" lon="4.61936">
        <ele>198</ele>
        <time>2015-05-04T07:52:24Z</time>
      </trkpt>
      <trkpt lat="44.3877" lon="4.61942">
        <ele>198</ele>
        <time>2015-05-04T07:52:22Z</time>
      </trkpt>
      <trkpt lat="44.38763" lon="4.61948">
        <ele>197</ele>
        <time>2015-05-04T07:52:20Z</time>
      </trkpt>
      <trkpt lat="44.38757" lon="4.61954">
        <ele>197</ele>
        <time>2015-05-04T07:52:18Z</time>
      </trkpt>
      <trkpt lat="44.38751" lon="4.61961">
        <ele>197</ele>
        <time>2015-05-04T07:52:15Z</time>
      </trkpt>
      <trkpt lat="44.38742" lon="4.61973">
        <ele>196</ele>
        <time>2015-05-04T07:52:13Z</time>
      </trkpt>
      <trkpt lat="44.38736" lon="4.6198">
        <ele>196</ele>
        <time>2015-05-04T07:52:11Z</time>
      </trkpt>
      <trkpt lat="44.38731" lon="4.61989">
        <ele>196</ele>
        <time>2015-05-04T07:52:08Z</time>
      </trkpt>
      <trkpt lat="44.38723" lon="4.62">
        <ele>194</ele>
        <time>2015-05-04T07:52:06Z</time>
      </trkpt>
      <trkpt lat="44.38715" lon="4.62013">
        <ele>194</ele>
        <time>2015-05-04T07:52:03Z</time>
      </trkpt>
      <trkpt lat="44.38707" lon="4.62024">
        <ele>193</ele>
        <time>2015-05-04T07:52:00Z</time>
      </trkpt>
      <trkpt lat="44.38701" lon="4.62032">
        <ele>193</ele>
        <time>2015-05-04T07:51:58Z</time>
      </trkpt>
      <trkpt lat="44.38696" lon="4.62039">
        <ele>193</ele>
        <time>2015-05-04T07:51:56Z</time>
      </trkpt>
      <trkpt lat="44.3869" lon="4.62047">
        <ele>193</ele>
        <time>2015-05-04T07:51:53Z</time>
      </trkpt>
      <trkpt lat="44.38685" lon="4.62054">
        <ele>193</ele>
        <time>2015-05-04T07:51:51Z</time>
      </trkpt>
      <trkpt lat="44.38677" lon="4.62065">
        <ele>193</ele>
        <time>2015-05-04T07:51:49Z</time>
      </trkpt>
      <trkpt lat="44.38672" lon="4.62073">
        <ele>193</ele>
        <time>2015-05-04T07:51:47Z</time>
      </trkpt>
      <trkpt lat="44.38667" lon="4.6208">
        <ele>193</ele>
        <time>2015-05-04T07:51:44Z</time>
      </trkpt>
      <trkpt lat="44.38658" lon="4.62092">
        <ele>192</ele>
        <time>2015-05-04T07:51:42Z</time>
      </trkpt>
      <trkpt lat="44.38653" lon="4.62099">
        <ele>192</ele>
        <time>2015-05-04T07:51:40Z</time>
      </trkpt>
      <trkpt lat="44.38648" lon="4.62107">
        <ele>191</ele>
        <time>2015-05-04T07:51:38Z</time>
      </trkpt>
      <trkpt lat="44.38642" lon="4.62114">
        <ele>191</ele>
        <time>2015-05-04T07:51:35Z</time>
      </trkpt>
      <trkpt lat="44.38635" lon="4.62124">
        <ele>191</ele>
        <time>2015-05-04T07:51:33Z</time>
      </trkpt>
      <trkpt lat="44.3863" lon="4.62131">
        <ele>191</ele>
        <time>2015-05-04T07:51:31Z</time>
      </trkpt>
      <trkpt lat="44.38625" lon="4.62138">
        <ele>191</ele>
        <time>2015-05-04T07:51:29Z</time>
      </trkpt>
      <trkpt lat="44.3862" lon="4.62145">
        <ele>191</ele>
        <time>2015-05-04T07:51:26Z</time>
      </trkpt>
      <trkpt lat="44.38612" lon="4.62155">
        <ele>191</ele>
        <time>2015-05-04T07:51:24Z</time>
      </trkpt>
      <trkpt lat="44.38607" lon="4.62161">
        <ele>191</ele>
        <time>2015-05-04T07:51:22Z</time>
      </trkpt>
      <trkpt lat="44.38603" lon="4.62168">
        <ele>190</ele>
        <time>2015-05-04T07:51:20Z</time>
      </trkpt>
      <trkpt lat="44.38596" lon="4.62179">
        <ele>190</ele>
        <time>2015-05-04T07:51:17Z</time>
      </trkpt>
      <trkpt lat="44.38591" lon="4.62186">
        <ele>190</ele>
        <time>2015-05-04T07:51:15Z</time>
      </trkpt>
      <trkpt lat="44.38586" lon="4.62194">
        <ele>190</ele>
        <time>2015-05-04T07:51:12Z</time>
      </trkpt>
      <trkpt lat="44.38579" lon="4.62205">
        <ele>190</ele>
        <time>2015-05-04T07:51:10Z</time>
      </trkpt>
      <trkpt lat="44.38573" lon="4.62217">
        <ele>190</ele>
        <time>2015-05-04T07:51:07Z</time>
      </trkpt>
      <trkpt lat="44.38569" lon="4.62225">
        <ele>190</ele>
        <time>2015-05-04T07:51:05Z</time>
      </trkpt>
      <trkpt lat="44.38563" lon="4.62237">
        <ele>190</ele>
        <time>2015-05-04T07:51:02Z</time>
      </trkpt>
      <trkpt lat="44.38557" lon="4.62248">
        <ele>190</ele>
        <time>2015-05-04T07:50:59Z</time>
      </trkpt>
      <trkpt lat="44.38553" lon="4.62256">
        <ele>188</ele>
        <time>2015-05-04T07:50:57Z</time>
      </trkpt>
      <trkpt lat="44.38547" lon="4.62268">
        <ele>188</ele>
        <time>2015-05-04T07:50:54Z</time>
      </trkpt>
      <trkpt lat="44.38541" lon="4.62279">
        <ele>187</ele>
        <time>2015-05-04T07:50:51Z</time>
      </trkpt>
      <trkpt lat="44.38536" lon="4.62286">
        <ele>187</ele>
        <time>2015-05-04T07:50:49Z</time>
      </trkpt>
      <trkpt lat="44.3853" lon="4.62298">
        <ele>187</ele>
        <time>2015-05-04T07:50:46Z</time>
      </trkpt>
      <trkpt lat="44.38526" lon="4.62306">
        <ele>186</ele>
        <time>2015-05-04T07:50:44Z</time>
      </trkpt>
      <trkpt lat="44.3852" lon="4.62318">
        <ele>186</ele>
        <time>2015-05-04T07:50:41Z</time>
      </trkpt>
      <trkpt lat="44.38516" lon="4.62326">
        <ele>186</ele>
        <time>2015-05-04T07:50:39Z</time>
      </trkpt>
      <trkpt lat="44.38512" lon="4.62333">
        <ele>186</ele>
        <time>2015-05-04T07:50:37Z</time>
      </trkpt>
      <trkpt lat="44.38509" lon="4.62341">
        <ele>183</ele>
        <time>2015-05-04T07:50:35Z</time>
      </trkpt>
      <trkpt lat="44.38503" lon="4.62352">
        <ele>182</ele>
        <time>2015-05-04T07:50:32Z</time>
      </trkpt>
      <trkpt lat="44.38497" lon="4.62364">
        <ele>183</ele>
        <time>2015-05-04T07:50:29Z</time>
      </trkpt>
      <trkpt lat="44.38493" lon="4.62371">
        <ele>183</ele>
        <time>2015-05-04T07:50:27Z</time>
      </trkpt>
      <trkpt lat="44.38488" lon="4.62383">
        <ele>183</ele>
        <time>2015-05-04T07:50:24Z</time>
      </trkpt>
      <trkpt lat="44.38482" lon="4.62394">
        <ele>182</ele>
        <time>2015-05-04T07:50:21Z</time>
      </trkpt>
      <trkpt lat="44.38478" lon="4.62402">
        <ele>182</ele>
        <time>2015-05-04T07:50:19Z</time>
      </trkpt>
      <trkpt lat="44.38472" lon="4.62413">
        <ele>182</ele>
        <time>2015-05-04T07:50:16Z</time>
      </trkpt>
      <trkpt lat="44.38466" lon="4.62424">
        <ele>180</ele>
        <time>2015-05-04T07:50:13Z</time>
      </trkpt>
      <trkpt lat="44.38462" lon="4.62431">
        <ele>180</ele>
        <time>2015-05-04T07:50:11Z</time>
      </trkpt>
      <trkpt lat="44.38456" lon="4.62443">
        <ele>180</ele>
        <time>2015-05-04T07:50:08Z</time>
      </trkpt>
      <trkpt lat="44.38451" lon="4.62454">
        <ele>180</ele>
        <time>2015-05-04T07:50:05Z</time>
      </trkpt>
      <trkpt lat="44.38447" lon="4.62461">
        <ele>179</ele>
        <time>2015-05-04T07:50:03Z</time>
      </trkpt>
      <trkpt lat="44.38442" lon="4.62468">
        <ele>179</ele>
        <time>2015-05-04T07:50:01Z</time>
      </trkpt>
      <trkpt lat="44.38438" lon="4.62474">
        <ele>179</ele>
        <time>2015-05-04T07:49:59Z</time>
      </trkpt>
      <trkpt lat="44.38431" lon="4.62484">
        <ele>179</ele>
        <time>2015-05-04T07:49:56Z</time>
      </trkpt>
      <trkpt lat="44.38426" lon="4.6249">
        <ele>178</ele>
        <time>2015-05-04T07:49:53Z</time>
      </trkpt>
      <trkpt lat="44.38419" lon="4.62499">
        <ele>177</ele>
        <time>2015-05-04T07:49:51Z</time>
      </trkpt>
      <trkpt lat="44.38414" lon="4.62504">
        <ele>176</ele>
        <time>2015-05-04T07:49:49Z</time>
      </trkpt>
      <trkpt lat="44.38409" lon="4.62509">
        <ele>175</ele>
        <time>2015-05-04T07:49:46Z</time>
      </trkpt>
      <trkpt lat="44.38403" lon="4.62515">
        <ele>174</ele>
        <time>2015-05-04T07:49:44Z</time>
      </trkpt>
      <trkpt lat="44.38395" lon="4.62523">
        <ele>173</ele>
        <time>2015-05-04T07:49:42Z</time>
      </trkpt>
      <trkpt lat="44.3839" lon="4.62527">
        <ele>173</ele>
        <time>2015-05-04T07:49:40Z</time>
      </trkpt>
      <trkpt lat="44.38385" lon="4.62532">
        <ele>173</ele>
        <time>2015-05-04T07:49:37Z</time>
      </trkpt>
      <trkpt lat="44.38377" lon="4.62539">
        <ele>172</ele>
        <time>2015-05-04T07:49:35Z</time>
      </trkpt>
      <trkpt lat="44.38372" lon="4.62543">
        <ele>172</ele>
        <time>2015-05-04T07:49:33Z</time>
      </trkpt>
      <trkpt lat="44.38367" lon="4.62548">
        <ele>171</ele>
        <time>2015-05-04T07:49:31Z</time>
      </trkpt>
      <trkpt lat="44.38359" lon="4.62555">
        <ele>171</ele>
        <time>2015-05-04T07:49:28Z</time>
      </trkpt>
      <trkpt lat="44.38353" lon="4.6256">
        <ele>170</ele>
        <time>2015-05-04T07:49:26Z</time>
      </trkpt>
      <trkpt lat="44.38348" lon="4.62564">
        <ele>170</ele>
        <time>2015-05-04T07:49:24Z</time>
      </trkpt>
      <trkpt lat="44.3834" lon="4.62571">
        <ele>168</ele>
        <time>2015-05-04T07:49:21Z</time>
      </trkpt>
      <trkpt lat="44.38334" lon="4.62576">
        <ele>167</ele>
        <time>2015-05-04T07:49:19Z</time>
      </trkpt>
      <trkpt lat="44.38328" lon="4.6258">
        <ele>165</ele>
        <time>2015-05-04T07:49:17Z</time>
      </trkpt>
      <trkpt lat="44.38319" lon="4.62587">
        <ele>162</ele>
        <time>2015-05-04T07:49:14Z</time>
      </trkpt>
      <trkpt lat="44.38314" lon="4.62592">
        <ele>162</ele>
        <time>2015-05-04T07:49:11Z</time>
      </trkpt>
      <trkpt lat="44.38305" lon="4.62599">
        <ele>161</ele>
        <time>2015-05-04T07:49:09Z</time>
      </trkpt>
      <trkpt lat="44.38299" lon="4.62605">
        <ele>160</ele>
        <time>2015-05-04T07:49:07Z</time>
      </trkpt>
      <trkpt lat="44.3829" lon="4.62612">
        <ele>160</ele>
        <time>2015-05-04T07:49:04Z</time>
      </trkpt>
      <trkpt lat="44.38283" lon="4.62617">
        <ele>160</ele>
        <time>2015-05-04T07:49:02Z</time>
      </trkpt>
      <trkpt lat="44.38274" lon="4.62624">
        <ele>159</ele>
        <time>2015-05-04T07:48:59Z</time>
      </trkpt>
      <trkpt lat="44.38269" lon="4.6263">
        <ele>159</ele>
        <time>2015-05-04T07:48:57Z</time>
      </trkpt>
      <trkpt lat="44.3826" lon="4.62638">
        <ele>159</ele>
        <time>2015-05-04T07:48:54Z</time>
      </trkpt>
      <trkpt lat="44.38255" lon="4.62645">
        <ele>158</ele>
        <time>2015-05-04T07:48:52Z</time>
      </trkpt>
      <trkpt lat="44.3825" lon="4.62652">
        <ele>158</ele>
        <time>2015-05-04T07:48:50Z</time>
      </trkpt>
      <trkpt lat="44.38242" lon="4.62664">
        <ele>156</ele>
        <time>2015-05-04T07:48:47Z</time>
      </trkpt>
      <trkpt lat="44.38236" lon="4.62676">
        <ele>155</ele>
        <time>2015-05-04T07:48:44Z</time>
      </trkpt>
      <trkpt lat="44.38232" lon="4.62684">
        <ele>154</ele>
        <time>2015-05-04T07:48:42Z</time>
      </trkpt>
      <trkpt lat="44.38224" lon="4.62694">
        <ele>154</ele>
        <time>2015-05-04T07:48:39Z</time>
      </trkpt>
      <trkpt lat="44.38217" lon="4.62699">
        <ele>153</ele>
        <time>2015-05-04T07:48:37Z</time>
      </trkpt>
      <trkpt lat="44.38207" lon="4.62704">
        <ele>153</ele>
        <time>2015-05-04T07:48:34Z</time>
      </trkpt>
      <trkpt lat="44.38201" lon="4.62707">
        <ele>152</ele>
        <time>2015-05-04T07:48:32Z</time>
      </trkpt>
      <trkpt lat="44.38191" lon="4.62711">
        <ele>152</ele>
        <time>2015-05-04T07:48:29Z</time>
      </trkpt>
      <trkpt lat="44.38181" lon="4.62717">
        <ele>151</ele>
        <time>2015-05-04T07:48:26Z</time>
      </trkpt>
      <trkpt lat="44.38175" lon="4.62723">
        <ele>151</ele>
        <time>2015-05-04T07:48:24Z</time>
      </trkpt>
      <trkpt lat="44.38165" lon="4.62731">
        <ele>147</ele>
        <time>2015-05-04T07:48:21Z</time>
      </trkpt>
      <trkpt lat="44.38157" lon="4.6274">
        <ele>148</ele>
        <time>2015-05-04T07:48:18Z</time>
      </trkpt>
      <trkpt lat="44.38154" lon="4.62748">
        <ele>148</ele>
        <time>2015-05-04T07:48:16Z</time>
      </trkpt>
      <trkpt lat="44.38152" lon="4.62764">
        <ele>146</ele>
        <time>2015-05-04T07:48:13Z</time>
      </trkpt>
      <trkpt lat="44.38154" lon="4.62779">
        <ele>145</ele>
        <time>2015-05-04T07:48:10Z</time>
      </trkpt>
      <trkpt lat="44.38159" lon="4.62789">
        <ele>144</ele>
        <time>2015-05-04T07:48:08Z</time>
      </trkpt>
      <trkpt lat="44.38165" lon="4.62796">
        <ele>144</ele>
        <time>2015-05-04T07:48:06Z</time>
      </trkpt>
      <trkpt lat="44.38177" lon="4.62801">
        <ele>147</ele>
        <time>2015-05-04T07:48:03Z</time>
      </trkpt>
      <trkpt lat="44.38185" lon="4.62803">
        <ele>148</ele>
        <time>2015-05-04T07:48:01Z</time>
      </trkpt>
      <trkpt lat="44.38197" lon="4.62808">
        <ele>148</ele>
        <time>2015-05-04T07:47:58Z</time>
      </trkpt>
      <trkpt lat="44.38205" lon="4.62811">
        <ele>148</ele>
        <time>2015-05-04T07:47:56Z</time>
      </trkpt>
      <trkpt lat="44.38213" lon="4.62814">
        <ele>148</ele>
        <time>2015-05-04T07:47:54Z</time>
      </trkpt>
      <trkpt lat="44.3822" lon="4.62818">
        <ele>148</ele>
        <time>2015-05-04T07:47:52Z</time>
      </trkpt>
      <trkpt lat="44.38231" lon="4.62823">
        <ele>148</ele>
        <time>2015-05-04T07:47:49Z</time>
      </trkpt>
      <trkpt lat="44.38239" lon="4.62826">
        <ele>148</ele>
        <time>2015-05-04T07:47:47Z</time>
      </trkpt>
      <trkpt lat="44.38251" lon="4.62829">
        <ele>147</ele>
        <time>2015-05-04T07:47:44Z</time>
      </trkpt>
      <trkpt lat="44.3826" lon="4.62829">
        <ele>148</ele>
        <time>2015-05-04T07:47:42Z</time>
      </trkpt>
      <trkpt lat="44.38273" lon="4.62827">
        <ele>148</ele>
        <time>2015-05-04T07:47:39Z</time>
      </trkpt>
      <trkpt lat="44.38282" lon="4.62823">
        <ele>148</ele>
        <time>2015-05-04T07:47:37Z</time>
      </trkpt>
      <trkpt lat="44.3829" lon="4.62819">
        <ele>147</ele>
        <time>2015-05-04T07:47:35Z</time>
      </trkpt>
      <trkpt lat="44.38302" lon="4.62814">
        <ele>147</ele>
        <time>2015-05-04T07:47:32Z</time>
      </trkpt>
      <trkpt lat="44.38309" lon="4.6281">
        <ele>147</ele>
        <time>2015-05-04T07:47:30Z</time>
      </trkpt>
      <trkpt lat="44.3832" lon="4.62804">
        <ele>147</ele>
        <time>2015-05-04T07:47:27Z</time>
      </trkpt>
      <trkpt lat="44.38331" lon="4.628">
        <ele>147</ele>
        <time>2015-05-04T07:47:24Z</time>
      </trkpt>
      <trkpt lat="44.38339" lon="4.62802">
        <ele>144</ele>
        <time>2015-05-04T07:47:22Z</time>
      </trkpt>
      <trkpt lat="44.38346" lon="4.62808">
        <ele>144</ele>
        <time>2015-05-04T07:47:20Z</time>
      </trkpt>
      <trkpt lat="44.3835" lon="4.62817">
        <ele>144</ele>
        <time>2015-05-04T07:47:18Z</time>
      </trkpt>
      <trkpt lat="44.38349" lon="4.62834">
        <ele>141</ele>
        <time>2015-05-04T07:47:15Z</time>
      </trkpt>
      <trkpt lat="44.38345" lon="4.62844">
        <ele>141</ele>
        <time>2015-05-04T07:47:13Z</time>
      </trkpt>
      <trkpt lat="44.38337" lon="4.62856">
        <ele>141</ele>
        <time>2015-05-04T07:47:10Z</time>
      </trkpt>
      <trkpt lat="44.38331" lon="4.62863">
        <ele>141</ele>
        <time>2015-05-04T07:47:08Z</time>
      </trkpt>
      <trkpt lat="44.38321" lon="4.62874">
        <ele>141</ele>
        <time>2015-05-04T07:47:05Z</time>
      </trkpt>
      <trkpt lat="44.38312" lon="4.62884">
        <ele>141</ele>
        <time>2015-05-04T07:47:02Z</time>
      </trkpt>
      <trkpt lat="44.38305" lon="4.62892">
        <ele>141</ele>
        <time>2015-05-04T07:47:00Z</time>
      </trkpt>
      <trkpt lat="44.38296" lon="4.62903">
        <ele>141</ele>
        <time>2015-05-04T07:46:57Z</time>
      </trkpt>
      <trkpt lat="44.38289" lon="4.62911">
        <ele>140</ele>
        <time>2015-05-04T07:46:55Z</time>
      </trkpt>
      <trkpt lat="44.38279" lon="4.62923">
        <ele>137</ele>
        <time>2015-05-04T07:46:52Z</time>
      </trkpt>
      <trkpt lat="44.38269" lon="4.62936">
        <ele>137</ele>
        <time>2015-05-04T07:46:49Z</time>
      </trkpt>
      <trkpt lat="44.38262" lon="4.62944">
        <ele>137</ele>
        <time>2015-05-04T07:46:47Z</time>
      </trkpt>
      <trkpt lat="44.38255" lon="4.62952">
        <ele>136</ele>
        <time>2015-05-04T07:46:45Z</time>
      </trkpt>
      <trkpt lat="44.38248" lon="4.62959">
        <ele>135</ele>
        <time>2015-05-04T07:46:43Z</time>
      </trkpt>
      <trkpt lat="44.38238" lon="4.62971">
        <ele>134</ele>
        <time>2015-05-04T07:46:40Z</time>
      </trkpt>
      <trkpt lat="44.38231" lon="4.6298">
        <ele>134</ele>
        <time>2015-05-04T07:46:38Z</time>
      </trkpt>
      <trkpt lat="44.38221" lon="4.62992">
        <ele>134</ele>
        <time>2015-05-04T07:46:35Z</time>
      </trkpt>
      <trkpt lat="44.38212" lon="4.63005">
        <ele>132</ele>
        <time>2015-05-04T07:46:32Z</time>
      </trkpt>
      <trkpt lat="44.38205" lon="4.63013">
        <ele>132</ele>
        <time>2015-05-04T07:46:30Z</time>
      </trkpt>
      <trkpt lat="44.38197" lon="4.63027">
        <ele>131</ele>
        <time>2015-05-04T07:46:27Z</time>
      </trkpt>
      <trkpt lat="44.38191" lon="4.63037">
        <ele>131</ele>
        <time>2015-05-04T07:46:25Z</time>
      </trkpt>
      <trkpt lat="44.38186" lon="4.63048">
        <ele>131</ele>
        <time>2015-05-04T07:46:23Z</time>
      </trkpt>
      <trkpt lat="44.3818" lon="4.63059">
        <ele>131</ele>
        <time>2015-05-04T07:46:21Z</time>
      </trkpt>
      <trkpt lat="44.38172" lon="4.63075">
        <ele>131</ele>
        <time>2015-05-04T07:46:18Z</time>
      </trkpt>
      <trkpt lat="44.38167" lon="4.63087">
        <ele>131</ele>
        <time>2015-05-04T07:46:16Z</time>
      </trkpt>
      <trkpt lat="44.38158" lon="4.63104">
        <ele>129</ele>
        <time>2015-05-04T07:46:13Z</time>
      </trkpt>
      <trkpt lat="44.38153" lon="4.63116">
        <ele>129</ele>
        <time>2015-05-04T07:46:11Z</time>
      </trkpt>
      <trkpt lat="44.38145" lon="4.63131">
        <ele>128</ele>
        <time>2015-05-04T07:46:08Z</time>
      </trkpt>
      <trkpt lat="44.3814" lon="4.63142">
        <ele>128</ele>
        <time>2015-05-04T07:46:06Z</time>
      </trkpt>
      <trkpt lat="44.38135" lon="4.63152">
        <ele>128</ele>
        <time>2015-05-04T07:46:04Z</time>
      </trkpt>
      <trkpt lat="44.38127" lon="4.63167">
        <ele>128</ele>
        <time>2015-05-04T07:46:01Z</time>
      </trkpt>
      <trkpt lat="44.38122" lon="4.63177">
        <ele>128</ele>
        <time>2015-05-04T07:45:59Z</time>
      </trkpt>
      <trkpt lat="44.38117" lon="4.63188">
        <ele>128</ele>
        <time>2015-05-04T07:45:57Z</time>
      </trkpt>
      <trkpt lat="44.38111" lon="4.63198">
        <ele>128</ele>
        <time>2015-05-04T07:45:55Z</time>
      </trkpt>
      <trkpt lat="44.38103" lon="4.63212">
        <ele>128</ele>
        <time>2015-05-04T07:45:52Z</time>
      </trkpt>
      <trkpt lat="44.38097" lon="4.63223">
        <ele>128</ele>
        <time>2015-05-04T07:45:50Z</time>
      </trkpt>
      <trkpt lat="44.38089" lon="4.63238">
        <ele>127</ele>
        <time>2015-05-04T07:45:47Z</time>
      </trkpt>
      <trkpt lat="44.38084" lon="4.63248">
        <ele>127</ele>
        <time>2015-05-04T07:45:45Z</time>
      </trkpt>
      <trkpt lat="44.38078" lon="4.63257">
        <ele>127</ele>
        <time>2015-05-04T07:45:43Z</time>
      </trkpt>
      <trkpt lat="44.38069" lon="4.6327">
        <ele>128</ele>
        <time>2015-05-04T07:45:40Z</time>
      </trkpt>
      <trkpt lat="44.38059" lon="4.63279">
        <ele>128</ele>
        <time>2015-05-04T07:45:37Z</time>
      </trkpt>
      <trkpt lat="44.38052" lon="4.63284">
        <ele>128</ele>
        <time>2015-05-04T07:45:35Z</time>
      </trkpt>
      <trkpt lat="44.38044" lon="4.63288">
        <ele>128</ele>
        <time>2015-05-04T07:45:33Z</time>
      </trkpt>
      <trkpt lat="44.38032" lon="4.63293">
        <ele>128</ele>
        <time>2015-05-04T07:45:30Z</time>
      </trkpt>
      <trkpt lat="44.38025" lon="4.63296">
        <ele>129</ele>
        <time>2015-05-04T07:45:28Z</time>
      </trkpt>
      <trkpt lat="44.38013" lon="4.633">
        <ele>129</ele>
        <time>2015-05-04T07:45:25Z</time>
      </trkpt>
      <trkpt lat="44.38005" lon="4.63302">
        <ele>129</ele>
        <time>2015-05-04T07:45:23Z</time>
      </trkpt>
      <trkpt lat="44.37998" lon="4.63305">
        <ele>127</ele>
        <time>2015-05-04T07:45:21Z</time>
      </trkpt>
      <trkpt lat="44.37986" lon="4.63309">
        <ele>127</ele>
        <time>2015-05-04T07:45:18Z</time>
      </trkpt>
      <trkpt lat="44.37975" lon="4.63313">
        <ele>127</ele>
        <time>2015-05-04T07:45:15Z</time>
      </trkpt>
      <trkpt lat="44.37967" lon="4.63316">
        <ele>126</ele>
        <time>2015-05-04T07:45:13Z</time>
      </trkpt>
      <trkpt lat="44.3796" lon="4.63318">
        <ele>126</ele>
        <time>2015-05-04T07:45:11Z</time>
      </trkpt>
      <trkpt lat="44.37948" lon="4.63322">
        <ele>125</ele>
        <time>2015-05-04T07:45:08Z</time>
      </trkpt>
      <trkpt lat="44.37941" lon="4.63325">
        <ele>125</ele>
        <time>2015-05-04T07:45:06Z</time>
      </trkpt>
      <trkpt lat="44.3793" lon="4.6333">
        <ele>125</ele>
        <time>2015-05-04T07:45:03Z</time>
      </trkpt>
      <trkpt lat="44.37922" lon="4.63333">
        <ele>126</ele>
        <time>2015-05-04T07:45:01Z</time>
      </trkpt>
      <trkpt lat="44.37915" lon="4.63336">
        <ele>126</ele>
        <time>2015-05-04T07:44:59Z</time>
      </trkpt>
      <trkpt lat="44.37904" lon="4.63341">
        <ele>125</ele>
        <time>2015-05-04T07:44:56Z</time>
      </trkpt>
      <trkpt lat="44.37896" lon="4.63344">
        <ele>125</ele>
        <time>2015-05-04T07:44:54Z</time>
      </trkpt>
      <trkpt lat="44.37888" lon="4.63348">
        <ele>124</ele>
        <time>2015-05-04T07:44:52Z</time>
      </trkpt>
      <trkpt lat="44.37881" lon="4.63351">
        <ele>124</ele>
        <time>2015-05-04T07:44:50Z</time>
      </trkpt>
      <trkpt lat="44.3787" lon="4.63358">
        <ele>123</ele>
        <time>2015-05-04T07:44:47Z</time>
      </trkpt>
      <trkpt lat="44.37859" lon="4.63364">
        <ele>123</ele>
        <time>2015-05-04T07:44:44Z</time>
      </trkpt>
      <trkpt lat="44.37853" lon="4.63367">
        <ele>122</ele>
        <time>2015-05-04T07:44:42Z</time>
      </trkpt>
      <trkpt lat="44.37845" lon="4.63371">
        <ele>122</ele>
        <time>2015-05-04T07:44:40Z</time>
      </trkpt>
      <trkpt lat="44.37838" lon="4.63376">
        <ele>123</ele>
        <time>2015-05-04T07:44:38Z</time>
      </trkpt>
      <trkpt lat="44.37829" lon="4.63384">
        <ele>116</ele>
        <time>2015-05-04T07:44:35Z</time>
      </trkpt>
      <trkpt lat="44.37823" lon="4.6339">
        <ele>116</ele>
        <time>2015-05-04T07:44:33Z</time>
      </trkpt>
      <trkpt lat="44.37814" lon="4.63399">
        <ele>117</ele>
        <time>2015-05-04T07:44:30Z</time>
      </trkpt>
      <trkpt lat="44.37809" lon="4.63407">
        <ele>117</ele>
        <time>2015-05-04T07:44:28Z</time>
      </trkpt>
      <trkpt lat="44.37804" lon="4.63415">
        <ele>116</ele>
        <time>2015-05-04T07:44:26Z</time>
      </trkpt>
      <trkpt lat="44.37797" lon="4.63429">
        <ele>118</ele>
        <time>2015-05-04T07:44:23Z</time>
      </trkpt>
      <trkpt lat="44.37791" lon="4.63442">
        <ele>118</ele>
        <time>2015-05-04T07:44:20Z</time>
      </trkpt>
      <trkpt lat="44.37786" lon="4.6345">
        <ele>118</ele>
        <time>2015-05-04T07:44:18Z</time>
      </trkpt>
      <trkpt lat="44.37779" lon="4.63461">
        <ele>117</ele>
        <time>2015-05-04T07:44:15Z</time>
      </trkpt>
      <trkpt lat="44.37774" lon="4.63468">
        <ele>117</ele>
        <time>2015-05-04T07:44:13Z</time>
      </trkpt>
      <trkpt lat="44.37769" lon="4.63476">
        <ele>117</ele>
        <time>2015-05-04T07:44:11Z</time>
      </trkpt>
      <trkpt lat="44.37764" lon="4.63483">
        <ele>117</ele>
        <time>2015-05-04T07:44:09Z</time>
      </trkpt>
      <trkpt lat="44.37756" lon="4.63493">
        <ele>116</ele>
        <time>2015-05-04T07:44:06Z</time>
      </trkpt>
      <trkpt lat="44.37751" lon="4.635">
        <ele>115</ele>
        <time>2015-05-04T07:44:04Z</time>
      </trkpt>
      <trkpt lat="44.37746" lon="4.63508">
        <ele>113</ele>
        <time>2015-05-04T07:44:02Z</time>
      </trkpt>
      <trkpt lat="44.37738" lon="4.6352">
        <ele>111</ele>
        <time>2015-05-04T07:43:59Z</time>
      </trkpt>
      <trkpt lat="44.37731" lon="4.63532">
        <ele>111</ele>
        <time>2015-05-04T07:43:56Z</time>
      </trkpt>
      <trkpt lat="44.37724" lon="4.63545">
        <ele>110</ele>
        <time>2015-05-04T07:43:53Z</time>
      </trkpt>
      <trkpt lat="44.37718" lon="4.63559">
        <ele>110</ele>
        <time>2015-05-04T07:43:50Z</time>
      </trkpt>
      <trkpt lat="44.37714" lon="4.63569">
        <ele>110</ele>
        <time>2015-05-04T07:43:48Z</time>
      </trkpt>
      <trkpt lat="44.37711" lon="4.63579">
        <ele>109</ele>
        <time>2015-05-04T07:43:46Z</time>
      </trkpt>
      <trkpt lat="44.37708" lon="4.63589">
        <ele>109</ele>
        <time>2015-05-04T07:43:44Z</time>
      </trkpt>
      <trkpt lat="44.37705" lon="4.636">
        <ele>109</ele>
        <time>2015-05-04T07:43:42Z</time>
      </trkpt>
      <trkpt lat="44.377" lon="4.63615">
        <ele>109</ele>
        <time>2015-05-04T07:43:39Z</time>
      </trkpt>
      <trkpt lat="44.37696" lon="4.6363">
        <ele>109</ele>
        <time>2015-05-04T07:43:36Z</time>
      </trkpt>
      <trkpt lat="44.37693" lon="4.6364">
        <ele>108</ele>
        <time>2015-05-04T07:43:34Z</time>
      </trkpt>
      <trkpt lat="44.3769" lon="4.63649">
        <ele>108</ele>
        <time>2015-05-04T07:43:32Z</time>
      </trkpt>
      <trkpt lat="44.37687" lon="4.63659">
        <ele>108</ele>
        <time>2015-05-04T07:43:30Z</time>
      </trkpt>
      <trkpt lat="44.37684" lon="4.63669">
        <ele>107</ele>
        <time>2015-05-04T07:43:28Z</time>
      </trkpt>
      <trkpt lat="44.37678" lon="4.63684">
        <ele>107</ele>
        <time>2015-05-04T07:43:25Z</time>
      </trkpt>
      <trkpt lat="44.37674" lon="4.63699">
        <ele>108</ele>
        <time>2015-05-04T07:43:22Z</time>
      </trkpt>
      <trkpt lat="44.37672" lon="4.6371">
        <ele>108</ele>
        <time>2015-05-04T07:43:20Z</time>
      </trkpt>
      <trkpt lat="44.37669" lon="4.6372">
        <ele>108</ele>
        <time>2015-05-04T07:43:18Z</time>
      </trkpt>
      <trkpt lat="44.37665" lon="4.63734">
        <ele>106</ele>
        <time>2015-05-04T07:43:15Z</time>
      </trkpt>
      <trkpt lat="44.37662" lon="4.63744">
        <ele>107</ele>
        <time>2015-05-04T07:43:13Z</time>
      </trkpt>
      <trkpt lat="44.37657" lon="4.63758">
        <ele>106</ele>
        <time>2015-05-04T07:43:10Z</time>
      </trkpt>
      <trkpt lat="44.37655" lon="4.63768">
        <ele>106</ele>
        <time>2015-05-04T07:43:08Z</time>
      </trkpt>
      <trkpt lat="44.3765" lon="4.63782">
        <ele>105</ele>
        <time>2015-05-04T07:43:05Z</time>
      </trkpt>
      <trkpt lat="44.37647" lon="4.63792">
        <ele>104</ele>
        <time>2015-05-04T07:43:03Z</time>
      </trkpt>
      <trkpt lat="44.37644" lon="4.63802">
        <ele>104</ele>
        <time>2015-05-04T07:43:01Z</time>
      </trkpt>
      <trkpt lat="44.37639" lon="4.63817">
        <ele>104</ele>
        <time>2015-05-04T07:42:58Z</time>
      </trkpt>
      <trkpt lat="44.37636" lon="4.63827">
        <ele>104</ele>
        <time>2015-05-04T07:42:56Z</time>
      </trkpt>
      <trkpt lat="44.37633" lon="4.63836">
        <ele>101</ele>
        <time>2015-05-04T07:42:54Z</time>
      </trkpt>
      <trkpt lat="44.37629" lon="4.6385">
        <ele>100</ele>
        <time>2015-05-04T07:42:51Z</time>
      </trkpt>
      <trkpt lat="44.37625" lon="4.63864">
        <ele>100</ele>
        <time>2015-05-04T07:42:48Z</time>
      </trkpt>
      <trkpt lat="44.37622" lon="4.63873">
        <ele>99</ele>
        <time>2015-05-04T07:42:46Z</time>
      </trkpt>
      <trkpt lat="44.37619" lon="4.63881">
        <ele>99</ele>
        <time>2015-05-04T07:42:44Z</time>
      </trkpt>
      <trkpt lat="44.37616" lon="4.63889">
        <ele>99</ele>
        <time>2015-05-04T07:42:42Z</time>
      </trkpt>
      <trkpt lat="44.37611" lon="4.63903">
        <ele>98</ele>
        <time>2015-05-04T07:42:39Z</time>
      </trkpt>
      <trkpt lat="44.37607" lon="4.63917">
        <ele>94</ele>
        <time>2015-05-04T07:42:36Z</time>
      </trkpt>
      <trkpt lat="44.37604" lon="4.63926">
        <ele>94</ele>
        <time>2015-05-04T07:42:34Z</time>
      </trkpt>
      <trkpt lat="44.376" lon="4.63935">
        <ele>93</ele>
        <time>2015-05-04T07:42:32Z</time>
      </trkpt>
      <trkpt lat="44.37597" lon="4.63944">
        <ele>93</ele>
        <time>2015-05-04T07:42:30Z</time>
      </trkpt>
      <trkpt lat="44.37589" lon="4.63957">
        <ele>91</ele>
        <time>2015-05-04T07:42:27Z</time>
      </trkpt>
      <trkpt lat="44.3758" lon="4.63966">
        <ele>93</ele>
        <time>2015-05-04T07:42:24Z</time>
      </trkpt>
      <trkpt lat="44.37573" lon="4.63972">
        <ele>92</ele>
        <time>2015-05-04T07:42:22Z</time>
      </trkpt>
      <trkpt lat="44.37563" lon="4.63978">
        <ele>92</ele>
        <time>2015-05-04T07:42:19Z</time>
      </trkpt>
      <trkpt lat="44.37556" lon="4.63983">
        <ele>93</ele>
        <time>2015-05-04T07:42:17Z</time>
      </trkpt>
      <trkpt lat="44.37545" lon="4.6399">
        <ele>93</ele>
        <time>2015-05-04T07:42:14Z</time>
      </trkpt>
      <trkpt lat="44.37535" lon="4.63998">
        <ele>93</ele>
        <time>2015-05-04T07:42:11Z</time>
      </trkpt>
      <trkpt lat="44.37525" lon="4.64006">
        <ele>88</ele>
        <time>2015-05-04T07:42:08Z</time>
      </trkpt>
      <trkpt lat="44.37515" lon="4.64014">
        <ele>88</ele>
        <time>2015-05-04T07:42:05Z</time>
      </trkpt>
      <trkpt lat="44.37507" lon="4.64018">
        <ele>89</ele>
        <time>2015-05-04T07:42:03Z</time>
      </trkpt>
      <trkpt lat="44.375" lon="4.64021">
        <ele>89</ele>
        <time>2015-05-04T07:42:01Z</time>
      </trkpt>
      <trkpt lat="44.37488" lon="4.64025">
        <ele>89</ele>
        <time>2015-05-04T07:41:58Z</time>
      </trkpt>
      <trkpt lat="44.3748" lon="4.64027">
        <ele>88</ele>
        <time>2015-05-04T07:41:56Z</time>
      </trkpt>
      <trkpt lat="44.37472" lon="4.64029">
        <ele>88</ele>
        <time>2015-05-04T07:41:54Z</time>
      </trkpt>
      <trkpt lat="44.37464" lon="4.64032">
        <ele>88</ele>
        <time>2015-05-04T07:41:52Z</time>
      </trkpt>
      <trkpt lat="44.37453" lon="4.64036">
        <ele>87</ele>
        <time>2015-05-04T07:41:49Z</time>
      </trkpt>
      <trkpt lat="44.37445" lon="4.64038">
        <ele>87</ele>
        <time>2015-05-04T07:41:47Z</time>
      </trkpt>
      <trkpt lat="44.37437" lon="4.6404">
        <ele>87</ele>
        <time>2015-05-04T07:41:45Z</time>
      </trkpt>
      <trkpt lat="44.37429" lon="4.64043">
        <ele>87</ele>
        <time>2015-05-04T07:41:43Z</time>
      </trkpt>
      <trkpt lat="44.37418" lon="4.64047">
        <ele>86</ele>
        <time>2015-05-04T07:41:40Z</time>
      </trkpt>
      <trkpt lat="44.3741" lon="4.64049">
        <ele>86</ele>
        <time>2015-05-04T07:41:38Z</time>
      </trkpt>
      <trkpt lat="44.37402" lon="4.64051">
        <ele>85</ele>
        <time>2015-05-04T07:41:36Z</time>
      </trkpt>
      <trkpt lat="44.3739" lon="4.64055">
        <ele>85</ele>
        <time>2015-05-04T07:41:33Z</time>
      </trkpt>
      <trkpt lat="44.37382" lon="4.64058">
        <ele>85</ele>
        <time>2015-05-04T07:41:31Z</time>
      </trkpt>
      <trkpt lat="44.37374" lon="4.64061">
        <ele>85</ele>
        <time>2015-05-04T07:41:29Z</time>
      </trkpt>
      <trkpt lat="44.37363" lon="4.64065">
        <ele>84</ele>
        <time>2015-05-04T07:41:26Z</time>
      </trkpt>
      <trkpt lat="44.37355" lon="4.64068">
        <ele>84</ele>
        <time>2015-05-04T07:41:24Z</time>
      </trkpt>
      <trkpt lat="44.37343" lon="4.64072">
        <ele>83</ele>
        <time>2015-05-04T07:41:21Z</time>
      </trkpt>
      <trkpt lat="44.37336" lon="4.64076">
        <ele>82</ele>
        <time>2015-05-04T07:41:19Z</time>
      </trkpt>
      <trkpt lat="44.37326" lon="4.64085">
        <ele>79</ele>
        <time>2015-05-04T07:41:16Z</time>
      </trkpt>
      <trkpt lat="44.37317" lon="4.64099">
        <ele>77</ele>
        <time>2015-05-04T07:41:13Z</time>
      </trkpt>
      <trkpt lat="44.37312" lon="4.6411">
        <ele>77</ele>
        <time>2015-05-04T07:41:11Z</time>
      </trkpt>
      <trkpt lat="44.37309" lon="4.64129">
        <ele>76</ele>
        <time>2015-05-04T07:41:08Z</time>
      </trkpt>
      <trkpt lat="44.37311" lon="4.64149">
        <ele>75</ele>
        <time>2015-05-04T07:41:05Z</time>
      </trkpt>
      <trkpt lat="44.3731" lon="4.64163">
        <ele>75</ele>
        <time>2015-05-04T07:41:03Z</time>
      </trkpt>
      <trkpt lat="44.37303" lon="4.6418">
        <ele>73</ele>
        <time>2015-05-04T07:41:00Z</time>
      </trkpt>
      <trkpt lat="44.37298" lon="4.64191">
        <ele>73</ele>
        <time>2015-05-04T07:40:58Z</time>
      </trkpt>
      <trkpt lat="44.37294" lon="4.64211">
        <ele>73</ele>
        <time>2015-05-04T07:40:55Z</time>
      </trkpt>
      <trkpt lat="44.37288" lon="4.64233">
        <ele>73</ele>
        <time>2015-05-04T07:40:52Z</time>
      </trkpt>
      <trkpt lat="44.37283" lon="4.64246">
        <ele>73</ele>
        <time>2015-05-04T07:40:50Z</time>
      </trkpt>
      <trkpt lat="44.37278" lon="4.6426">
        <ele>73</ele>
        <time>2015-05-04T07:40:48Z</time>
      </trkpt>
      <trkpt lat="44.37275" lon="4.64275">
        <ele>73</ele>
        <time>2015-05-04T07:40:46Z</time>
      </trkpt>
      <trkpt lat="44.3727" lon="4.64295">
        <ele>73</ele>
        <time>2015-05-04T07:40:43Z</time>
      </trkpt>
      <trkpt lat="44.37266" lon="4.64305">
        <ele>73</ele>
        <time>2015-05-04T07:40:41Z</time>
      </trkpt>
      <trkpt lat="44.37258" lon="4.64319">
        <ele>73</ele>
        <time>2015-05-04T07:40:38Z</time>
      </trkpt>
      <trkpt lat="44.37254" lon="4.64325">
        <ele>73</ele>
        <time>2015-05-04T07:40:36Z</time>
      </trkpt>
      <trkpt lat="44.37251" lon="4.64332">
        <ele>73</ele>
        <time>2015-05-04T07:40:33Z</time>
      </trkpt>
      <trkpt lat="44.37247" lon="4.64341">
        <ele>73</ele>
        <time>2015-05-04T07:40:31Z</time>
      </trkpt>
      <trkpt lat="44.37238" lon="4.64357">
        <ele>72</ele>
        <time>2015-05-04T07:40:28Z</time>
      </trkpt>
      <trkpt lat="44.37233" lon="4.64368">
        <ele>72</ele>
        <time>2015-05-04T07:40:26Z</time>
      </trkpt>
      <trkpt lat="44.37227" lon="4.64379">
        <ele>72</ele>
        <time>2015-05-04T07:40:24Z</time>
      </trkpt>
      <trkpt lat="44.37221" lon="4.6439">
        <ele>71</ele>
        <time>2015-05-04T07:40:22Z</time>
      </trkpt>
      <trkpt lat="44.37212" lon="4.64406">
        <ele>71</ele>
        <time>2015-05-04T07:40:19Z</time>
      </trkpt>
      <trkpt lat="44.37205" lon="4.64416">
        <ele>71</ele>
        <time>2015-05-04T07:40:17Z</time>
      </trkpt>
      <trkpt lat="44.37193" lon="4.64429">
        <ele>71</ele>
        <time>2015-05-04T07:40:14Z</time>
      </trkpt>
      <trkpt lat="44.37178" lon="4.64431">
        <ele>71</ele>
        <time>2015-05-04T07:40:11Z</time>
      </trkpt>
      <trkpt lat="44.37165" lon="4.64425">
        <ele>71</ele>
        <time>2015-05-04T07:40:08Z</time>
      </trkpt>
      <trkpt lat="44.37158" lon="4.6442">
        <ele>71</ele>
        <time>2015-05-04T07:40:06Z</time>
      </trkpt>
      <trkpt lat="44.37149" lon="4.64416">
        <ele>72</ele>
        <time>2015-05-04T07:40:03Z</time>
      </trkpt>
      <trkpt lat="44.37133" lon="4.64419">
        <ele>72</ele>
        <time>2015-05-04T07:40:00Z</time>
      </trkpt>
      <trkpt lat="44.37122" lon="4.64419">
        <ele>72</ele>
        <time>2015-05-04T07:39:58Z</time>
      </trkpt>
      <trkpt lat="44.3711" lon="4.64417">
        <ele>72</ele>
        <time>2015-05-04T07:39:56Z</time>
      </trkpt>
      <trkpt lat="44.371" lon="4.64412">
        <ele>73</ele>
        <time>2015-05-04T07:39:54Z</time>
      </trkpt>
      <trkpt lat="44.37082" lon="4.64405">
        <ele>72</ele>
        <time>2015-05-04T07:39:51Z</time>
      </trkpt>
      <trkpt lat="44.37066" lon="4.64399">
        <ele>72</ele>
        <time>2015-05-04T07:39:48Z</time>
      </trkpt>
      <trkpt lat="44.37051" lon="4.64392">
        <ele>72</ele>
        <time>2015-05-04T07:39:45Z</time>
      </trkpt>
      <trkpt lat="44.3704" lon="4.64389">
        <ele>72</ele>
        <time>2015-05-04T07:39:43Z</time>
      </trkpt>
      <trkpt lat="44.37025" lon="4.64392">
        <ele>71</ele>
        <time>2015-05-04T07:39:40Z</time>
      </trkpt>
      <trkpt lat="44.37011" lon="4.64396">
        <ele>71</ele>
        <time>2015-05-04T07:39:37Z</time>
      </trkpt>
      <trkpt lat="44.37002" lon="4.64401">
        <ele>71</ele>
        <time>2015-05-04T07:39:35Z</time>
      </trkpt>
      <trkpt lat="44.3699" lon="4.64409">
        <ele>70</ele>
        <time>2015-05-04T07:39:32Z</time>
      </trkpt>
      <trkpt lat="44.36981" lon="4.64414">
        <ele>69</ele>
        <time>2015-05-04T07:39:30Z</time>
      </trkpt>
      <trkpt lat="44.36968" lon="4.64422">
        <ele>69</ele>
        <time>2015-05-04T07:39:27Z</time>
      </trkpt>
      <trkpt lat="44.36958" lon="4.64427">
        <ele>69</ele>
        <time>2015-05-04T07:39:25Z</time>
      </trkpt>
      <trkpt lat="44.36949" lon="4.64433">
        <ele>68</ele>
        <time>2015-05-04T07:39:23Z</time>
      </trkpt>
      <trkpt lat="44.36935" lon="4.64443">
        <ele>68</ele>
        <time>2015-05-04T07:39:20Z</time>
      </trkpt>
      <trkpt lat="44.36927" lon="4.64449">
        <ele>68</ele>
        <time>2015-05-04T07:39:18Z</time>
      </trkpt>
      <trkpt lat="44.36919" lon="4.64455">
        <ele>68</ele>
        <time>2015-05-04T07:39:16Z</time>
      </trkpt>
      <trkpt lat="44.36906" lon="4.64465">
        <ele>64</ele>
        <time>2015-05-04T07:39:13Z</time>
      </trkpt>
      <trkpt lat="44.36898" lon="4.64475">
        <ele>64</ele>
        <time>2015-05-04T07:39:11Z</time>
      </trkpt>
      <trkpt lat="44.36896" lon="4.64494">
        <ele>65</ele>
        <time>2015-05-04T07:39:08Z</time>
      </trkpt>
      <trkpt lat="44.36902" lon="4.64505">
        <ele>65</ele>
        <time>2015-05-04T07:39:06Z</time>
      </trkpt>
      <trkpt lat="44.36906" lon="4.64523">
        <ele>65</ele>
        <time>2015-05-04T07:39:03Z</time>
      </trkpt>
      <trkpt lat="44.36904" lon="4.64534">
        <ele>64</ele>
        <time>2015-05-04T07:39:01Z</time>
      </trkpt>
      <trkpt lat="44.369" lon="4.6455">
        <ele>64</ele>
        <time>2015-05-04T07:38:58Z</time>
      </trkpt>
      <trkpt lat="44.36896" lon="4.64561">
        <ele>64</ele>
        <time>2015-05-04T07:38:56Z</time>
      </trkpt>
      <trkpt lat="44.36894" lon="4.64572">
        <ele>64</ele>
        <time>2015-05-04T07:38:54Z</time>
      </trkpt>
      <trkpt lat="44.3689" lon="4.64584">
        <ele>62</ele>
        <time>2015-05-04T07:38:52Z</time>
      </trkpt>
      <trkpt lat="44.36886" lon="4.64602">
        <ele>61</ele>
        <time>2015-05-04T07:38:49Z</time>
      </trkpt>
      <trkpt lat="44.36884" lon="4.64616">
        <ele>61</ele>
        <time>2015-05-04T07:38:47Z</time>
      </trkpt>
      <trkpt lat="44.3688" lon="4.6463">
        <ele>60</ele>
        <time>2015-05-04T07:38:45Z</time>
      </trkpt>
      <trkpt lat="44.36874" lon="4.64652">
        <ele>60</ele>
        <time>2015-05-04T07:38:42Z</time>
      </trkpt>
      <trkpt lat="44.3687" lon="4.64668">
        <ele>56</ele>
        <time>2015-05-04T07:38:40Z</time>
      </trkpt>
      <trkpt lat="44.36867" lon="4.64697">
        <ele>56</ele>
        <time>2015-05-04T07:38:37Z</time>
      </trkpt>
      <trkpt lat="44.36861" lon="4.64726">
        <ele>55</ele>
        <time>2015-05-04T07:38:34Z</time>
      </trkpt>
      <trkpt lat="44.36857" lon="4.64759">
        <ele>51</ele>
        <time>2015-05-04T07:38:31Z</time>
      </trkpt>
      <trkpt lat="44.36855" lon="4.64782">
        <ele>50</ele>
        <time>2015-05-04T07:38:29Z</time>
      </trkpt>
      <trkpt lat="44.36852" lon="4.64814">
        <ele>48</ele>
        <time>2015-05-04T07:38:26Z</time>
      </trkpt>
      <trkpt lat="44.3685" lon="4.64835">
        <ele>46</ele>
        <time>2015-05-04T07:38:24Z</time>
      </trkpt>
      <trkpt lat="44.36848" lon="4.64854">
        <ele>46</ele>
        <time>2015-05-04T07:38:22Z</time>
      </trkpt>
      <trkpt lat="44.36846" lon="4.64882">
        <ele>46</ele>
        <time>2015-05-04T07:38:19Z</time>
      </trkpt>
      <trkpt lat="44.36845" lon="4.649">
        <ele>46</ele>
        <time>2015-05-04T07:38:17Z</time>
      </trkpt>
      <trkpt lat="44.36843" lon="4.64918">
        <ele>46</ele>
        <time>2015-05-04T07:38:15Z</time>
      </trkpt>
      <trkpt lat="44.36842" lon="4.64935">
        <ele>46</ele>
        <time>2015-05-04T07:38:13Z</time>
      </trkpt>
      <trkpt lat="44.3684" lon="4.64952">
        <ele>46</ele>
        <time>2015-05-04T07:38:11Z</time>
      </trkpt>
      <trkpt lat="44.36839" lon="4.64977">
        <ele>46</ele>
        <time>2015-05-04T07:38:08Z</time>
      </trkpt>
      <trkpt lat="44.36837" lon="4.64994">
        <ele>46</ele>
        <time>2015-05-04T07:38:06Z</time>
      </trkpt>
      <trkpt lat="44.36836" lon="4.6501">
        <ele>47</ele>
        <time>2015-05-04T07:38:04Z</time>
      </trkpt>
      <trkpt lat="44.36834" lon="4.65035">
        <ele>48</ele>
        <time>2015-05-04T07:38:01Z</time>
      </trkpt>
      <trkpt lat="44.36832" lon="4.6506">
        <ele>51</ele>
        <time>2015-05-04T07:37:58Z</time>
      </trkpt>
      <trkpt lat="44.36831" lon="4.65077">
        <ele>52</ele>
        <time>2015-05-04T07:37:56Z</time>
      </trkpt>
      <trkpt lat="44.36829" lon="4.65094">
        <ele>53</ele>
        <time>2015-05-04T07:37:54Z</time>
      </trkpt>
      <trkpt lat="44.36828" lon="4.65111">
        <ele>54</ele>
        <time>2015-05-04T07:37:52Z</time>
      </trkpt>
      <trkpt lat="44.36826" lon="4.65129">
        <ele>54</ele>
        <time>2015-05-04T07:37:50Z</time>
      </trkpt>
      <trkpt lat="44.36824" lon="4.65154">
        <ele>54</ele>
        <time>2015-05-04T07:37:47Z</time>
      </trkpt>
      <trkpt lat="44.36822" lon="4.65172">
        <ele>55</ele>
        <time>2015-05-04T07:37:45Z</time>
      </trkpt>
      <trkpt lat="44.3682" lon="4.6519">
        <ele>55</ele>
        <time>2015-05-04T07:37:43Z</time>
      </trkpt>
      <trkpt lat="44.36819" lon="4.65208">
        <ele>55</ele>
        <time>2015-05-04T07:37:41Z</time>
      </trkpt>
      <trkpt lat="44.36816" lon="4.65235">
        <ele>55</ele>
        <time>2015-05-04T07:37:38Z</time>
      </trkpt>
      <trkpt lat="44.36815" lon="4.65252">
        <ele>54</ele>
        <time>2015-05-04T07:37:36Z</time>
      </trkpt>
      <trkpt lat="44.36813" lon="4.6527">
        <ele>54</ele>
        <time>2015-05-04T07:37:34Z</time>
      </trkpt>
      <trkpt lat="44.36811" lon="4.65288">
        <ele>54</ele>
        <time>2015-05-04T07:37:32Z</time>
      </trkpt>
      <trkpt lat="44.3681" lon="4.65307">
        <ele>54</ele>
        <time>2015-05-04T07:37:30Z</time>
      </trkpt>
      <trkpt lat="44.36808" lon="4.65325">
        <ele>54</ele>
        <time>2015-05-04T07:37:28Z</time>
      </trkpt>
      <trkpt lat="44.36806" lon="4.65353">
        <ele>53</ele>
        <time>2015-05-04T07:37:25Z</time>
      </trkpt>
      <trkpt lat="44.36804" lon="4.65372">
        <ele>52</ele>
        <time>2015-05-04T07:37:23Z</time>
      </trkpt>
      <trkpt lat="44.36803" lon="4.6539">
        <ele>52</ele>
        <time>2015-05-04T07:37:21Z</time>
      </trkpt>
      <trkpt lat="44.36801" lon="4.65408">
        <ele>52</ele>
        <time>2015-05-04T07:37:19Z</time>
      </trkpt>
      <trkpt lat="44.36799" lon="4.65435">
        <ele>51</ele>
        <time>2015-05-04T07:37:16Z</time>
      </trkpt>
      <trkpt lat="44.36797" lon="4.65452">
        <ele>51</ele>
        <time>2015-05-04T07:37:14Z</time>
      </trkpt>
      <trkpt lat="44.36795" lon="4.65469">
        <ele>51</ele>
        <time>2015-05-04T07:37:12Z</time>
      </trkpt>
      <trkpt lat="44.36793" lon="4.65486">
        <ele>51</ele>
        <time>2015-05-04T07:37:10Z</time>
      </trkpt>
      <trkpt lat="44.36792" lon="4.65503">
        <ele>51</ele>
        <time>2015-05-04T07:37:08Z</time>
      </trkpt>
      <trkpt lat="44.36789" lon="4.65529">
        <ele>51</ele>
        <time>2015-05-04T07:37:05Z</time>
      </trkpt>
      <trkpt lat="44.36787" lon="4.65546">
        <ele>51</ele>
        <time>2015-05-04T07:37:03Z</time>
      </trkpt>
      <trkpt lat="44.36785" lon="4.65563">
        <ele>52</ele>
        <time>2015-05-04T07:37:01Z</time>
      </trkpt>
      <trkpt lat="44.36783" lon="4.6559">
        <ele>52</ele>
        <time>2015-05-04T07:36:58Z</time>
      </trkpt>
      <trkpt lat="44.36781" lon="4.65607">
        <ele>51</ele>
        <time>2015-05-04T07:36:56Z</time>
      </trkpt>
      <trkpt lat="44.36779" lon="4.65625">
        <ele>51</ele>
        <time>2015-05-04T07:36:54Z</time>
      </trkpt>
      <trkpt lat="44.36777" lon="4.65651">
        <ele>51</ele>
        <time>2015-05-04T07:36:51Z</time>
      </trkpt>
    </trkseg>
  </trk>
</gpx>